<?xml version="1.0" encoding="UTF-8" standalone="no" ?>
<gpx xmlns="http://www.topografix.com/GPX/1/1" xmlns:xsi="http://www.w3.org/2001/XMLSchema-instance" xsi:schemaLocation="http://www.topografix.com/GPX/1/1 http://www.topografix.com/GPX/1/1/gpx.xsd" version="1.1" creator="VisuGPX - https://www.visugpx.com">
  <metadata>
    <name>La ronde des clubs - 158 kms</name>
  </metadata>
  <trk>
    <name><![CDATA[Ronde Intégrale-18320042]]></name>
    <trkseg>
      <trkpt lat="50.70616" lon="1.57608">
        <ele>29</ele>
        <time>2024-03-20T21:01:01Z</time>
      </trkpt>
      <trkpt lat="50.70647" lon="1.57686">
        <ele>29</ele>
        <time>2024-03-20T21:01:11Z</time>
      </trkpt>
      <trkpt lat="50.70649" lon="1.57688">
        <ele>29</ele>
        <time>2024-03-20T21:01:12Z</time>
      </trkpt>
      <trkpt lat="50.70656" lon="1.57687">
        <ele>29</ele>
        <time>2024-03-20T21:01:13Z</time>
      </trkpt>
      <trkpt lat="50.70659" lon="1.57618">
        <ele>29</ele>
        <time>2024-03-20T21:01:21Z</time>
      </trkpt>
      <trkpt lat="50.70667" lon="1.57574">
        <ele>29</ele>
        <time>2024-03-20T21:01:26Z</time>
      </trkpt>
      <trkpt lat="50.70684" lon="1.57517">
        <ele>29</ele>
        <time>2024-03-20T21:01:33Z</time>
      </trkpt>
      <trkpt lat="50.70692" lon="1.57473">
        <ele>28</ele>
        <time>2024-03-20T21:01:38Z</time>
      </trkpt>
      <trkpt lat="50.70698" lon="1.57462">
        <ele>28</ele>
        <time>2024-03-20T21:01:40Z</time>
      </trkpt>
      <trkpt lat="50.70701" lon="1.57461">
        <ele>28</ele>
        <time>2024-03-20T21:01:40Z</time>
      </trkpt>
      <trkpt lat="50.70701" lon="1.57461">
        <ele>28</ele>
        <time>2024-03-20T21:01:40Z</time>
      </trkpt>
      <trkpt lat="50.70708" lon="1.57467">
        <ele>28</ele>
        <time>2024-03-20T21:01:42Z</time>
      </trkpt>
      <trkpt lat="50.70719" lon="1.57485">
        <ele>28</ele>
        <time>2024-03-20T21:01:45Z</time>
      </trkpt>
      <trkpt lat="50.70767" lon="1.5741">
        <ele>28</ele>
        <time>2024-03-20T21:01:57Z</time>
      </trkpt>
      <trkpt lat="50.70794" lon="1.57438">
        <ele>28</ele>
        <time>2024-03-20T21:02:02Z</time>
      </trkpt>
      <trkpt lat="50.70819" lon="1.57458">
        <ele>28</ele>
        <time>2024-03-20T21:02:07Z</time>
      </trkpt>
      <trkpt lat="50.70848" lon="1.57475">
        <ele>28</ele>
        <time>2024-03-20T21:02:13Z</time>
      </trkpt>
      <trkpt lat="50.7092" lon="1.57504">
        <ele>29</ele>
        <time>2024-03-20T21:02:26Z</time>
      </trkpt>
      <trkpt lat="50.70943" lon="1.57519">
        <ele>29</ele>
        <time>2024-03-20T21:02:31Z</time>
      </trkpt>
      <trkpt lat="50.70969" lon="1.57542">
        <ele>29</ele>
        <time>2024-03-20T21:02:36Z</time>
      </trkpt>
      <trkpt lat="50.70988" lon="1.57566">
        <ele>29</ele>
        <time>2024-03-20T21:02:40Z</time>
      </trkpt>
      <trkpt lat="50.71003" lon="1.5759">
        <ele>29</ele>
        <time>2024-03-20T21:02:44Z</time>
      </trkpt>
      <trkpt lat="50.71048" lon="1.57669">
        <ele>32</ele>
        <time>2024-03-20T21:02:56Z</time>
      </trkpt>
      <trkpt lat="50.71049" lon="1.57668">
        <ele>32</ele>
        <time>2024-03-20T21:02:56Z</time>
      </trkpt>
      <trkpt lat="50.71048" lon="1.57669">
        <ele>32</ele>
        <time>2024-03-20T21:02:56Z</time>
      </trkpt>
      <trkpt lat="50.71208" lon="1.57953">
        <ele>37</ele>
        <time>2024-03-20T21:03:39Z</time>
      </trkpt>
      <trkpt lat="50.71222" lon="1.57983">
        <ele>39</ele>
        <time>2024-03-20T21:03:43Z</time>
      </trkpt>
      <trkpt lat="50.71235" lon="1.58017">
        <ele>40</ele>
        <time>2024-03-20T21:03:48Z</time>
      </trkpt>
      <trkpt lat="50.71258" lon="1.58092">
        <ele>42</ele>
        <time>2024-03-20T21:03:57Z</time>
      </trkpt>
      <trkpt lat="50.71274" lon="1.58154">
        <ele>44</ele>
        <time>2024-03-20T21:04:05Z</time>
      </trkpt>
      <trkpt lat="50.71318" lon="1.58317">
        <ele>45</ele>
        <time>2024-03-20T21:04:25Z</time>
      </trkpt>
      <trkpt lat="50.7132" lon="1.58325">
        <ele>45</ele>
        <time>2024-03-20T21:04:26Z</time>
      </trkpt>
      <trkpt lat="50.7132" lon="1.5834">
        <ele>46</ele>
        <time>2024-03-20T21:04:27Z</time>
      </trkpt>
      <trkpt lat="50.71319" lon="1.58348">
        <ele>46</ele>
        <time>2024-03-20T21:04:28Z</time>
      </trkpt>
      <trkpt lat="50.71322" lon="1.5836">
        <ele>46</ele>
        <time>2024-03-20T21:04:30Z</time>
      </trkpt>
      <trkpt lat="50.71332" lon="1.58374">
        <ele>46</ele>
        <time>2024-03-20T21:04:32Z</time>
      </trkpt>
      <trkpt lat="50.71335" lon="1.58393">
        <ele>47</ele>
        <time>2024-03-20T21:04:34Z</time>
      </trkpt>
      <trkpt lat="50.71358" lon="1.58481">
        <ele>49</ele>
        <time>2024-03-20T21:04:45Z</time>
      </trkpt>
      <trkpt lat="50.71375" lon="1.58532">
        <ele>51</ele>
        <time>2024-03-20T21:04:52Z</time>
      </trkpt>
      <trkpt lat="50.71379" lon="1.5854">
        <ele>51</ele>
        <time>2024-03-20T21:04:53Z</time>
      </trkpt>
      <trkpt lat="50.71395" lon="1.58553">
        <ele>51</ele>
        <time>2024-03-20T21:04:56Z</time>
      </trkpt>
      <trkpt lat="50.71397" lon="1.58554">
        <ele>51</ele>
        <time>2024-03-20T21:04:56Z</time>
      </trkpt>
      <trkpt lat="50.714" lon="1.58565">
        <ele>52</ele>
        <time>2024-03-20T21:04:58Z</time>
      </trkpt>
      <trkpt lat="50.71397" lon="1.58584">
        <ele>52</ele>
        <time>2024-03-20T21:05:00Z</time>
      </trkpt>
      <trkpt lat="50.71398" lon="1.5859">
        <ele>52</ele>
        <time>2024-03-20T21:05:01Z</time>
      </trkpt>
      <trkpt lat="50.71399" lon="1.58601">
        <ele>52</ele>
        <time>2024-03-20T21:05:02Z</time>
      </trkpt>
      <trkpt lat="50.71432" lon="1.58685">
        <ele>53</ele>
        <time>2024-03-20T21:05:13Z</time>
      </trkpt>
      <trkpt lat="50.71445" lon="1.58721">
        <ele>54</ele>
        <time>2024-03-20T21:05:18Z</time>
      </trkpt>
      <trkpt lat="50.71488" lon="1.58898">
        <ele>55</ele>
        <time>2024-03-20T21:05:39Z</time>
      </trkpt>
      <trkpt lat="50.71502" lon="1.58945">
        <ele>55</ele>
        <time>2024-03-20T21:05:45Z</time>
      </trkpt>
      <trkpt lat="50.7151" lon="1.58965">
        <ele>54</ele>
        <time>2024-03-20T21:05:48Z</time>
      </trkpt>
      <trkpt lat="50.71537" lon="1.59015">
        <ele>52</ele>
        <time>2024-03-20T21:05:55Z</time>
      </trkpt>
      <trkpt lat="50.71542" lon="1.59008">
        <ele>52</ele>
        <time>2024-03-20T21:05:56Z</time>
      </trkpt>
      <trkpt lat="50.71565" lon="1.59037">
        <ele>50</ele>
        <time>2024-03-20T21:06:01Z</time>
      </trkpt>
      <trkpt lat="50.71598" lon="1.59063">
        <ele>46</ele>
        <time>2024-03-20T21:06:08Z</time>
      </trkpt>
      <trkpt lat="50.71617" lon="1.59072">
        <ele>43</ele>
        <time>2024-03-20T21:06:11Z</time>
      </trkpt>
      <trkpt lat="50.71638" lon="1.59077">
        <ele>40</ele>
        <time>2024-03-20T21:06:15Z</time>
      </trkpt>
      <trkpt lat="50.71695" lon="1.59075">
        <ele>37</ele>
        <time>2024-03-20T21:06:25Z</time>
      </trkpt>
      <trkpt lat="50.71696" lon="1.59088">
        <ele>36</ele>
        <time>2024-03-20T21:06:27Z</time>
      </trkpt>
      <trkpt lat="50.71717" lon="1.59083">
        <ele>37</ele>
        <time>2024-03-20T21:06:31Z</time>
      </trkpt>
      <trkpt lat="50.71789" lon="1.59061">
        <ele>37</ele>
        <time>2024-03-20T21:06:44Z</time>
      </trkpt>
      <trkpt lat="50.71795" lon="1.59059">
        <ele>37</ele>
        <time>2024-03-20T21:06:45Z</time>
      </trkpt>
      <trkpt lat="50.71789" lon="1.59061">
        <ele>37</ele>
        <time>2024-03-20T21:06:46Z</time>
      </trkpt>
      <trkpt lat="50.71801" lon="1.59063">
        <ele>36</ele>
        <time>2024-03-20T21:06:48Z</time>
      </trkpt>
      <trkpt lat="50.7181" lon="1.59068">
        <ele>35</ele>
        <time>2024-03-20T21:06:50Z</time>
      </trkpt>
      <trkpt lat="50.71818" lon="1.59079">
        <ele>33</ele>
        <time>2024-03-20T21:06:52Z</time>
      </trkpt>
      <trkpt lat="50.71823" lon="1.59091">
        <ele>32</ele>
        <time>2024-03-20T21:06:53Z</time>
      </trkpt>
      <trkpt lat="50.7182" lon="1.59093">
        <ele>31</ele>
        <time>2024-03-20T21:06:54Z</time>
      </trkpt>
      <trkpt lat="50.71823" lon="1.59106">
        <ele>29</ele>
        <time>2024-03-20T21:06:55Z</time>
      </trkpt>
      <trkpt lat="50.71823" lon="1.59117">
        <ele>28</ele>
        <time>2024-03-20T21:06:57Z</time>
      </trkpt>
      <trkpt lat="50.7182" lon="1.59134">
        <ele>26</ele>
        <time>2024-03-20T21:06:59Z</time>
      </trkpt>
      <trkpt lat="50.71817" lon="1.59142">
        <ele>25</ele>
        <time>2024-03-20T21:07:00Z</time>
      </trkpt>
      <trkpt lat="50.71704" lon="1.59272">
        <ele>18</ele>
        <time>2024-03-20T21:07:25Z</time>
      </trkpt>
      <trkpt lat="50.71686" lon="1.593">
        <ele>18</ele>
        <time>2024-03-20T21:07:29Z</time>
      </trkpt>
      <trkpt lat="50.71675" lon="1.59325">
        <ele>18</ele>
        <time>2024-03-20T21:07:32Z</time>
      </trkpt>
      <trkpt lat="50.71668" lon="1.59352">
        <ele>17</ele>
        <time>2024-03-20T21:07:36Z</time>
      </trkpt>
      <trkpt lat="50.71665" lon="1.59371">
        <ele>17</ele>
        <time>2024-03-20T21:07:38Z</time>
      </trkpt>
      <trkpt lat="50.71659" lon="1.59426">
        <ele>17</ele>
        <time>2024-03-20T21:07:44Z</time>
      </trkpt>
      <trkpt lat="50.71657" lon="1.59459">
        <ele>17</ele>
        <time>2024-03-20T21:07:48Z</time>
      </trkpt>
      <trkpt lat="50.71661" lon="1.5946">
        <ele>16</ele>
        <time>2024-03-20T21:07:49Z</time>
      </trkpt>
      <trkpt lat="50.71658" lon="1.59472">
        <ele>17</ele>
        <time>2024-03-20T21:07:50Z</time>
      </trkpt>
      <trkpt lat="50.71654" lon="1.59479">
        <ele>18</ele>
        <time>2024-03-20T21:07:51Z</time>
      </trkpt>
      <trkpt lat="50.71647" lon="1.59487">
        <ele>20</ele>
        <time>2024-03-20T21:07:53Z</time>
      </trkpt>
      <trkpt lat="50.71641" lon="1.59502">
        <ele>21</ele>
        <time>2024-03-20T21:07:55Z</time>
      </trkpt>
      <trkpt lat="50.7164" lon="1.59519">
        <ele>21</ele>
        <time>2024-03-20T21:07:57Z</time>
      </trkpt>
      <trkpt lat="50.71643" lon="1.59533">
        <ele>20</ele>
        <time>2024-03-20T21:07:58Z</time>
      </trkpt>
      <trkpt lat="50.71648" lon="1.59542">
        <ele>19</ele>
        <time>2024-03-20T21:08:00Z</time>
      </trkpt>
      <trkpt lat="50.71654" lon="1.59548">
        <ele>18</ele>
        <time>2024-03-20T21:08:01Z</time>
      </trkpt>
      <trkpt lat="50.71661" lon="1.59551">
        <ele>16</ele>
        <time>2024-03-20T21:08:02Z</time>
      </trkpt>
      <trkpt lat="50.71693" lon="1.59543">
        <ele>12</ele>
        <time>2024-03-20T21:08:08Z</time>
      </trkpt>
      <trkpt lat="50.71699" lon="1.59545">
        <ele>12</ele>
        <time>2024-03-20T21:08:09Z</time>
      </trkpt>
      <trkpt lat="50.71717" lon="1.59559">
        <ele>10</ele>
        <time>2024-03-20T21:08:13Z</time>
      </trkpt>
      <trkpt lat="50.7178" lon="1.5964">
        <ele>7</ele>
        <time>2024-03-20T21:08:27Z</time>
      </trkpt>
      <trkpt lat="50.71797" lon="1.59666">
        <ele>6</ele>
        <time>2024-03-20T21:08:31Z</time>
      </trkpt>
      <trkpt lat="50.71801" lon="1.59672">
        <ele>6</ele>
        <time>2024-03-20T21:08:32Z</time>
      </trkpt>
      <trkpt lat="50.71795" lon="1.59681">
        <ele>6</ele>
        <time>2024-03-20T21:08:34Z</time>
      </trkpt>
      <trkpt lat="50.71841" lon="1.59764">
        <ele>6</ele>
        <time>2024-03-20T21:08:46Z</time>
      </trkpt>
      <trkpt lat="50.71859" lon="1.59792">
        <ele>7</ele>
        <time>2024-03-20T21:08:51Z</time>
      </trkpt>
      <trkpt lat="50.7188" lon="1.5982">
        <ele>7</ele>
        <time>2024-03-20T21:08:56Z</time>
      </trkpt>
      <trkpt lat="50.71889" lon="1.59827">
        <ele>6</ele>
        <time>2024-03-20T21:08:57Z</time>
      </trkpt>
      <trkpt lat="50.71894" lon="1.59849">
        <ele>6</ele>
        <time>2024-03-20T21:09:00Z</time>
      </trkpt>
      <trkpt lat="50.719" lon="1.59862">
        <ele>6</ele>
        <time>2024-03-20T21:09:02Z</time>
      </trkpt>
      <trkpt lat="50.71918" lon="1.59885">
        <ele>5</ele>
        <time>2024-03-20T21:09:06Z</time>
      </trkpt>
      <trkpt lat="50.71934" lon="1.5991">
        <ele>5</ele>
        <time>2024-03-20T21:09:10Z</time>
      </trkpt>
      <trkpt lat="50.71941" lon="1.59925">
        <ele>5</ele>
        <time>2024-03-20T21:09:12Z</time>
      </trkpt>
      <trkpt lat="50.71949" lon="1.59931">
        <ele>5</ele>
        <time>2024-03-20T21:09:14Z</time>
      </trkpt>
      <trkpt lat="50.7195" lon="1.59947">
        <ele>5</ele>
        <time>2024-03-20T21:09:15Z</time>
      </trkpt>
      <trkpt lat="50.71952" lon="1.59952">
        <ele>5</ele>
        <time>2024-03-20T21:09:16Z</time>
      </trkpt>
      <trkpt lat="50.71979" lon="1.5995">
        <ele>5</ele>
        <time>2024-03-20T21:09:21Z</time>
      </trkpt>
      <trkpt lat="50.72035" lon="1.59932">
        <ele>5</ele>
        <time>2024-03-20T21:09:31Z</time>
      </trkpt>
      <trkpt lat="50.72042" lon="1.59932">
        <ele>5</ele>
        <time>2024-03-20T21:09:32Z</time>
      </trkpt>
      <trkpt lat="50.72049" lon="1.59937">
        <ele>5</ele>
        <time>2024-03-20T21:09:34Z</time>
      </trkpt>
      <trkpt lat="50.72058" lon="1.59952">
        <ele>5</ele>
        <time>2024-03-20T21:09:36Z</time>
      </trkpt>
      <trkpt lat="50.72063" lon="1.59968">
        <ele>6</ele>
        <time>2024-03-20T21:09:38Z</time>
      </trkpt>
      <trkpt lat="50.72099" lon="1.60111">
        <ele>6</ele>
        <time>2024-03-20T21:09:55Z</time>
      </trkpt>
      <trkpt lat="50.72104" lon="1.60115">
        <ele>6</ele>
        <time>2024-03-20T21:09:56Z</time>
      </trkpt>
      <trkpt lat="50.7211" lon="1.60127">
        <ele>6</ele>
        <time>2024-03-20T21:09:58Z</time>
      </trkpt>
      <trkpt lat="50.72118" lon="1.60145">
        <ele>5</ele>
        <time>2024-03-20T21:10:01Z</time>
      </trkpt>
      <trkpt lat="50.72137" lon="1.60209">
        <ele>5</ele>
        <time>2024-03-20T21:10:08Z</time>
      </trkpt>
      <trkpt lat="50.72152" lon="1.60246">
        <ele>5</ele>
        <time>2024-03-20T21:10:13Z</time>
      </trkpt>
      <trkpt lat="50.72155" lon="1.60253">
        <ele>5</ele>
        <time>2024-03-20T21:10:14Z</time>
      </trkpt>
      <trkpt lat="50.7216" lon="1.60269">
        <ele>5</ele>
        <time>2024-03-20T21:10:16Z</time>
      </trkpt>
      <trkpt lat="50.72163" lon="1.60272">
        <ele>5</ele>
        <time>2024-03-20T21:10:17Z</time>
      </trkpt>
      <trkpt lat="50.72174" lon="1.60271">
        <ele>5</ele>
        <time>2024-03-20T21:10:19Z</time>
      </trkpt>
      <trkpt lat="50.72193" lon="1.60256">
        <ele>5</ele>
        <time>2024-03-20T21:10:23Z</time>
      </trkpt>
      <trkpt lat="50.72277" lon="1.60201">
        <ele>6</ele>
        <time>2024-03-20T21:10:39Z</time>
      </trkpt>
      <trkpt lat="50.723" lon="1.60193">
        <ele>6</ele>
        <time>2024-03-20T21:10:43Z</time>
      </trkpt>
      <trkpt lat="50.72323" lon="1.60188">
        <ele>6</ele>
        <time>2024-03-20T21:10:47Z</time>
      </trkpt>
      <trkpt lat="50.7239" lon="1.60178">
        <ele>5</ele>
        <time>2024-03-20T21:10:59Z</time>
      </trkpt>
      <trkpt lat="50.72438" lon="1.60165">
        <ele>6</ele>
        <time>2024-03-20T21:11:08Z</time>
      </trkpt>
      <trkpt lat="50.72448" lon="1.60164">
        <ele>7</ele>
        <time>2024-03-20T21:11:10Z</time>
      </trkpt>
      <trkpt lat="50.72454" lon="1.6017">
        <ele>7</ele>
        <time>2024-03-20T21:11:11Z</time>
      </trkpt>
      <trkpt lat="50.72462" lon="1.6017">
        <ele>8</ele>
        <time>2024-03-20T21:11:12Z</time>
      </trkpt>
      <trkpt lat="50.72467" lon="1.60164">
        <ele>8</ele>
        <time>2024-03-20T21:11:14Z</time>
      </trkpt>
      <trkpt lat="50.72469" lon="1.60158">
        <ele>8</ele>
        <time>2024-03-20T21:11:14Z</time>
      </trkpt>
      <trkpt lat="50.72469" lon="1.60145">
        <ele>7</ele>
        <time>2024-03-20T21:11:16Z</time>
      </trkpt>
      <trkpt lat="50.72463" lon="1.60134">
        <ele>6</ele>
        <time>2024-03-20T21:11:17Z</time>
      </trkpt>
      <trkpt lat="50.72462" lon="1.60128">
        <ele>6</ele>
        <time>2024-03-20T21:11:18Z</time>
      </trkpt>
      <trkpt lat="50.72463" lon="1.60122">
        <ele>5</ele>
        <time>2024-03-20T21:11:19Z</time>
      </trkpt>
      <trkpt lat="50.7247" lon="1.60112">
        <ele>5</ele>
        <time>2024-03-20T21:11:20Z</time>
      </trkpt>
      <trkpt lat="50.72629" lon="1.60001">
        <ele>6</ele>
        <time>2024-03-20T21:11:51Z</time>
      </trkpt>
      <trkpt lat="50.72655" lon="1.59967">
        <ele>6</ele>
        <time>2024-03-20T21:11:57Z</time>
      </trkpt>
      <trkpt lat="50.72664" lon="1.59959">
        <ele>5</ele>
        <time>2024-03-20T21:11:59Z</time>
      </trkpt>
      <trkpt lat="50.72687" lon="1.59946">
        <ele>6</ele>
        <time>2024-03-20T21:12:04Z</time>
      </trkpt>
      <trkpt lat="50.72771" lon="1.59866">
        <ele>6</ele>
        <time>2024-03-20T21:12:21Z</time>
      </trkpt>
      <trkpt lat="50.72805" lon="1.59837">
        <ele>6</ele>
        <time>2024-03-20T21:12:28Z</time>
      </trkpt>
      <trkpt lat="50.72808" lon="1.59836">
        <ele>6</ele>
        <time>2024-03-20T21:12:28Z</time>
      </trkpt>
      <trkpt lat="50.72811" lon="1.59839">
        <ele>7</ele>
        <time>2024-03-20T21:12:29Z</time>
      </trkpt>
      <trkpt lat="50.72882" lon="1.59773">
        <ele>12</ele>
        <time>2024-03-20T21:12:44Z</time>
      </trkpt>
      <trkpt lat="50.72908" lon="1.59745">
        <ele>14</ele>
        <time>2024-03-20T21:12:49Z</time>
      </trkpt>
      <trkpt lat="50.73029" lon="1.59614">
        <ele>15</ele>
        <time>2024-03-20T21:13:15Z</time>
      </trkpt>
      <trkpt lat="50.73056" lon="1.59589">
        <ele>15</ele>
        <time>2024-03-20T21:13:21Z</time>
      </trkpt>
      <trkpt lat="50.73101" lon="1.59555">
        <ele>15</ele>
        <time>2024-03-20T21:13:30Z</time>
      </trkpt>
      <trkpt lat="50.73118" lon="1.59536">
        <ele>14</ele>
        <time>2024-03-20T21:13:34Z</time>
      </trkpt>
      <trkpt lat="50.7313" lon="1.59508">
        <ele>12</ele>
        <time>2024-03-20T21:13:37Z</time>
      </trkpt>
      <trkpt lat="50.73145" lon="1.59503">
        <ele>12</ele>
        <time>2024-03-20T21:13:40Z</time>
      </trkpt>
      <trkpt lat="50.73151" lon="1.59506">
        <ele>12</ele>
        <time>2024-03-20T21:13:41Z</time>
      </trkpt>
      <trkpt lat="50.73163" lon="1.5952">
        <ele>13</ele>
        <time>2024-03-20T21:13:44Z</time>
      </trkpt>
      <trkpt lat="50.73172" lon="1.59525">
        <ele>13</ele>
        <time>2024-03-20T21:13:46Z</time>
      </trkpt>
      <trkpt lat="50.73189" lon="1.59526">
        <ele>14</ele>
        <time>2024-03-20T21:13:49Z</time>
      </trkpt>
      <trkpt lat="50.73402" lon="1.59464">
        <ele>8</ele>
        <time>2024-03-20T21:14:27Z</time>
      </trkpt>
      <trkpt lat="50.73486" lon="1.59447">
        <ele>9</ele>
        <time>2024-03-20T21:14:42Z</time>
      </trkpt>
      <trkpt lat="50.73487" lon="1.59457">
        <ele>11</ele>
        <time>2024-03-20T21:14:43Z</time>
      </trkpt>
      <trkpt lat="50.73591" lon="1.59431">
        <ele>8</ele>
        <time>2024-03-20T21:15:02Z</time>
      </trkpt>
      <trkpt lat="50.73664" lon="1.59424">
        <ele>6</ele>
        <time>2024-03-20T21:15:15Z</time>
      </trkpt>
      <trkpt lat="50.737" lon="1.59425">
        <ele>6</ele>
        <time>2024-03-20T21:15:22Z</time>
      </trkpt>
      <trkpt lat="50.73733" lon="1.59425">
        <ele>6</ele>
        <time>2024-03-20T21:15:27Z</time>
      </trkpt>
      <trkpt lat="50.73816" lon="1.59432">
        <ele>6</ele>
        <time>2024-03-20T21:15:42Z</time>
      </trkpt>
      <trkpt lat="50.73816" lon="1.59425">
        <ele>5</ele>
        <time>2024-03-20T21:15:43Z</time>
      </trkpt>
      <trkpt lat="50.73917" lon="1.59435">
        <ele>6</ele>
        <time>2024-03-20T21:16:01Z</time>
      </trkpt>
      <trkpt lat="50.7394" lon="1.59441">
        <ele>6</ele>
        <time>2024-03-20T21:16:05Z</time>
      </trkpt>
      <trkpt lat="50.7396" lon="1.59453">
        <ele>7</ele>
        <time>2024-03-20T21:16:09Z</time>
      </trkpt>
      <trkpt lat="50.74016" lon="1.59498">
        <ele>11</ele>
        <time>2024-03-20T21:16:20Z</time>
      </trkpt>
      <trkpt lat="50.74044" lon="1.59515">
        <ele>12</ele>
        <time>2024-03-20T21:16:25Z</time>
      </trkpt>
      <trkpt lat="50.74062" lon="1.59521">
        <ele>13</ele>
        <time>2024-03-20T21:16:29Z</time>
      </trkpt>
      <trkpt lat="50.7407" lon="1.59528">
        <ele>14</ele>
        <time>2024-03-20T21:16:30Z</time>
      </trkpt>
      <trkpt lat="50.7408" lon="1.5954">
        <ele>15</ele>
        <time>2024-03-20T21:16:33Z</time>
      </trkpt>
      <trkpt lat="50.74074" lon="1.59561">
        <ele>18</ele>
        <time>2024-03-20T21:16:35Z</time>
      </trkpt>
      <trkpt lat="50.74236" lon="1.59682">
        <ele>30</ele>
        <time>2024-03-20T21:17:07Z</time>
      </trkpt>
      <trkpt lat="50.74259" lon="1.59697">
        <ele>31</ele>
        <time>2024-03-20T21:17:11Z</time>
      </trkpt>
      <trkpt lat="50.74305" lon="1.59722">
        <ele>34</ele>
        <time>2024-03-20T21:17:20Z</time>
      </trkpt>
      <trkpt lat="50.74374" lon="1.59755">
        <ele>38</ele>
        <time>2024-03-20T21:17:33Z</time>
      </trkpt>
      <trkpt lat="50.74412" lon="1.59768">
        <ele>41</ele>
        <time>2024-03-20T21:17:40Z</time>
      </trkpt>
      <trkpt lat="50.74463" lon="1.59782">
        <ele>44</ele>
        <time>2024-03-20T21:17:49Z</time>
      </trkpt>
      <trkpt lat="50.74708" lon="1.59822">
        <ele>51</ele>
        <time>2024-03-20T21:18:33Z</time>
      </trkpt>
      <trkpt lat="50.74734" lon="1.59831">
        <ele>51</ele>
        <time>2024-03-20T21:18:38Z</time>
      </trkpt>
      <trkpt lat="50.74772" lon="1.59839">
        <ele>52</ele>
        <time>2024-03-20T21:18:44Z</time>
      </trkpt>
      <trkpt lat="50.74781" lon="1.59845">
        <ele>52</ele>
        <time>2024-03-20T21:18:46Z</time>
      </trkpt>
      <trkpt lat="50.74789" lon="1.59853">
        <ele>52</ele>
        <time>2024-03-20T21:18:48Z</time>
      </trkpt>
      <trkpt lat="50.74794" lon="1.59864">
        <ele>53</ele>
        <time>2024-03-20T21:18:49Z</time>
      </trkpt>
      <trkpt lat="50.74797" lon="1.59875">
        <ele>54</ele>
        <time>2024-03-20T21:18:51Z</time>
      </trkpt>
      <trkpt lat="50.74805" lon="1.59883">
        <ele>54</ele>
        <time>2024-03-20T21:18:52Z</time>
      </trkpt>
      <trkpt lat="50.74816" lon="1.59897">
        <ele>55</ele>
        <time>2024-03-20T21:18:55Z</time>
      </trkpt>
      <trkpt lat="50.74825" lon="1.59899">
        <ele>56</ele>
        <time>2024-03-20T21:18:57Z</time>
      </trkpt>
      <trkpt lat="50.74836" lon="1.59894">
        <ele>56</ele>
        <time>2024-03-20T21:18:59Z</time>
      </trkpt>
      <trkpt lat="50.7484" lon="1.59888">
        <ele>55</ele>
        <time>2024-03-20T21:19:00Z</time>
      </trkpt>
      <trkpt lat="50.74849" lon="1.59887">
        <ele>55</ele>
        <time>2024-03-20T21:19:01Z</time>
      </trkpt>
      <trkpt lat="50.74857" lon="1.59877">
        <ele>54</ele>
        <time>2024-03-20T21:19:03Z</time>
      </trkpt>
      <trkpt lat="50.74867" lon="1.59872">
        <ele>54</ele>
        <time>2024-03-20T21:19:05Z</time>
      </trkpt>
      <trkpt lat="50.74878" lon="1.59875">
        <ele>54</ele>
        <time>2024-03-20T21:19:07Z</time>
      </trkpt>
      <trkpt lat="50.74898" lon="1.59891">
        <ele>55</ele>
        <time>2024-03-20T21:19:11Z</time>
      </trkpt>
      <trkpt lat="50.74921" lon="1.59913">
        <ele>57</ele>
        <time>2024-03-20T21:19:16Z</time>
      </trkpt>
      <trkpt lat="50.74954" lon="1.59952">
        <ele>58</ele>
        <time>2024-03-20T21:19:23Z</time>
      </trkpt>
      <trkpt lat="50.75026" lon="1.60055">
        <ele>56</ele>
        <time>2024-03-20T21:19:40Z</time>
      </trkpt>
      <trkpt lat="50.75048" lon="1.60079">
        <ele>55</ele>
        <time>2024-03-20T21:19:45Z</time>
      </trkpt>
      <trkpt lat="50.75075" lon="1.60102">
        <ele>54</ele>
        <time>2024-03-20T21:19:50Z</time>
      </trkpt>
      <trkpt lat="50.75467" lon="1.60355">
        <ele>36</ele>
        <time>2024-03-20T21:21:06Z</time>
      </trkpt>
      <trkpt lat="50.75526" lon="1.60396">
        <ele>32</ele>
        <time>2024-03-20T21:21:17Z</time>
      </trkpt>
      <trkpt lat="50.75532" lon="1.60403">
        <ele>31</ele>
        <time>2024-03-20T21:21:19Z</time>
      </trkpt>
      <trkpt lat="50.75533" lon="1.60414">
        <ele>31</ele>
        <time>2024-03-20T21:21:20Z</time>
      </trkpt>
      <trkpt lat="50.75558" lon="1.6043">
        <ele>29</ele>
        <time>2024-03-20T21:21:25Z</time>
      </trkpt>
      <trkpt lat="50.75569" lon="1.60426">
        <ele>29</ele>
        <time>2024-03-20T21:21:27Z</time>
      </trkpt>
      <trkpt lat="50.75571" lon="1.60417">
        <ele>29</ele>
        <time>2024-03-20T21:21:28Z</time>
      </trkpt>
      <trkpt lat="50.75615" lon="1.60445">
        <ele>26</ele>
        <time>2024-03-20T21:21:36Z</time>
      </trkpt>
      <trkpt lat="50.75689" lon="1.60487">
        <ele>22</ele>
        <time>2024-03-20T21:21:50Z</time>
      </trkpt>
      <trkpt lat="50.75808" lon="1.60562">
        <ele>20</ele>
        <time>2024-03-20T21:22:13Z</time>
      </trkpt>
      <trkpt lat="50.75859" lon="1.60584">
        <ele>20</ele>
        <time>2024-03-20T21:22:22Z</time>
      </trkpt>
      <trkpt lat="50.75905" lon="1.60595">
        <ele>21</ele>
        <time>2024-03-20T21:22:31Z</time>
      </trkpt>
      <trkpt lat="50.75947" lon="1.606">
        <ele>21</ele>
        <time>2024-03-20T21:22:38Z</time>
      </trkpt>
      <trkpt lat="50.76045" lon="1.60612">
        <ele>22</ele>
        <time>2024-03-20T21:22:56Z</time>
      </trkpt>
      <trkpt lat="50.7609" lon="1.60623">
        <ele>22</ele>
        <time>2024-03-20T21:23:04Z</time>
      </trkpt>
      <trkpt lat="50.76131" lon="1.60641">
        <ele>21</ele>
        <time>2024-03-20T21:23:11Z</time>
      </trkpt>
      <trkpt lat="50.76145" lon="1.60651">
        <ele>21</ele>
        <time>2024-03-20T21:23:14Z</time>
      </trkpt>
      <trkpt lat="50.76148" lon="1.60657">
        <ele>20</ele>
        <time>2024-03-20T21:23:15Z</time>
      </trkpt>
      <trkpt lat="50.76153" lon="1.60662">
        <ele>20</ele>
        <time>2024-03-20T21:23:16Z</time>
      </trkpt>
      <trkpt lat="50.76163" lon="1.60661">
        <ele>20</ele>
        <time>2024-03-20T21:23:18Z</time>
      </trkpt>
      <trkpt lat="50.76168" lon="1.60656">
        <ele>20</ele>
        <time>2024-03-20T21:23:19Z</time>
      </trkpt>
      <trkpt lat="50.76172" lon="1.60639">
        <ele>20</ele>
        <time>2024-03-20T21:23:21Z</time>
      </trkpt>
      <trkpt lat="50.76178" lon="1.60629">
        <ele>19</ele>
        <time>2024-03-20T21:23:22Z</time>
      </trkpt>
      <trkpt lat="50.76186" lon="1.60625">
        <ele>19</ele>
        <time>2024-03-20T21:23:24Z</time>
      </trkpt>
      <trkpt lat="50.76227" lon="1.60628">
        <ele>16</ele>
        <time>2024-03-20T21:23:31Z</time>
      </trkpt>
      <trkpt lat="50.76228" lon="1.6062">
        <ele>16</ele>
        <time>2024-03-20T21:23:32Z</time>
      </trkpt>
      <trkpt lat="50.76228" lon="1.60622">
        <ele>16</ele>
        <time>2024-03-20T21:23:32Z</time>
      </trkpt>
      <trkpt lat="50.76287" lon="1.60631">
        <ele>13</ele>
        <time>2024-03-20T21:23:43Z</time>
      </trkpt>
      <trkpt lat="50.76324" lon="1.60641">
        <ele>11</ele>
        <time>2024-03-20T21:23:50Z</time>
      </trkpt>
      <trkpt lat="50.76434" lon="1.60687">
        <ele>10</ele>
        <time>2024-03-20T21:24:10Z</time>
      </trkpt>
      <trkpt lat="50.76756" lon="1.6077">
        <ele>9</ele>
        <time>2024-03-20T21:25:08Z</time>
      </trkpt>
      <trkpt lat="50.76755" lon="1.60778">
        <ele>9</ele>
        <time>2024-03-20T21:25:09Z</time>
      </trkpt>
      <trkpt lat="50.76824" lon="1.60792">
        <ele>9</ele>
        <time>2024-03-20T21:25:21Z</time>
      </trkpt>
      <trkpt lat="50.76834" lon="1.60794">
        <ele>9</ele>
        <time>2024-03-20T21:25:23Z</time>
      </trkpt>
      <trkpt lat="50.76838" lon="1.60713">
        <ele>9</ele>
        <time>2024-03-20T21:25:32Z</time>
      </trkpt>
      <trkpt lat="50.7684" lon="1.60713">
        <ele>9</ele>
        <time>2024-03-20T21:25:32Z</time>
      </trkpt>
      <trkpt lat="50.76927" lon="1.60727">
        <ele>9</ele>
        <time>2024-03-20T21:25:48Z</time>
      </trkpt>
      <trkpt lat="50.76927" lon="1.60726">
        <ele>9</ele>
        <time>2024-03-20T21:25:48Z</time>
      </trkpt>
      <trkpt lat="50.76927" lon="1.60727">
        <ele>9</ele>
        <time>2024-03-20T21:25:48Z</time>
      </trkpt>
      <trkpt lat="50.7701" lon="1.60741">
        <ele>6</ele>
        <time>2024-03-20T21:26:03Z</time>
      </trkpt>
      <trkpt lat="50.7701" lon="1.60739">
        <ele>6</ele>
        <time>2024-03-20T21:26:03Z</time>
      </trkpt>
      <trkpt lat="50.77005" lon="1.60812">
        <ele>7</ele>
        <time>2024-03-20T21:26:12Z</time>
      </trkpt>
      <trkpt lat="50.76994" lon="1.60912">
        <ele>6</ele>
        <time>2024-03-20T21:26:23Z</time>
      </trkpt>
      <trkpt lat="50.76994" lon="1.60914">
        <ele>6</ele>
        <time>2024-03-20T21:26:23Z</time>
      </trkpt>
      <trkpt lat="50.77003" lon="1.60915">
        <ele>6</ele>
        <time>2024-03-20T21:26:25Z</time>
      </trkpt>
      <trkpt lat="50.77039" lon="1.60919">
        <ele>6</ele>
        <time>2024-03-20T21:26:31Z</time>
      </trkpt>
      <trkpt lat="50.77049" lon="1.6092">
        <ele>7</ele>
        <time>2024-03-20T21:26:33Z</time>
      </trkpt>
      <trkpt lat="50.77049" lon="1.60917">
        <ele>7</ele>
        <time>2024-03-20T21:26:33Z</time>
      </trkpt>
      <trkpt lat="50.77049" lon="1.6092">
        <ele>7</ele>
        <time>2024-03-20T21:26:34Z</time>
      </trkpt>
      <trkpt lat="50.77083" lon="1.60923">
        <ele>7</ele>
        <time>2024-03-20T21:26:40Z</time>
      </trkpt>
      <trkpt lat="50.77178" lon="1.608">
        <ele>12</ele>
        <time>2024-03-20T21:27:02Z</time>
      </trkpt>
      <trkpt lat="50.77225" lon="1.6074">
        <ele>15</ele>
        <time>2024-03-20T21:27:12Z</time>
      </trkpt>
      <trkpt lat="50.77246" lon="1.60668">
        <ele>15</ele>
        <time>2024-03-20T21:27:21Z</time>
      </trkpt>
      <trkpt lat="50.7725" lon="1.60663">
        <ele>14</ele>
        <time>2024-03-20T21:27:22Z</time>
      </trkpt>
      <trkpt lat="50.77253" lon="1.60661">
        <ele>14</ele>
        <time>2024-03-20T21:27:23Z</time>
      </trkpt>
      <trkpt lat="50.77273" lon="1.60662">
        <ele>15</ele>
        <time>2024-03-20T21:27:26Z</time>
      </trkpt>
      <trkpt lat="50.77279" lon="1.60664">
        <ele>15</ele>
        <time>2024-03-20T21:27:27Z</time>
      </trkpt>
      <trkpt lat="50.77296" lon="1.60692">
        <ele>16</ele>
        <time>2024-03-20T21:27:32Z</time>
      </trkpt>
      <trkpt lat="50.77332" lon="1.60752">
        <ele>20</ele>
        <time>2024-03-20T21:27:41Z</time>
      </trkpt>
      <trkpt lat="50.77365" lon="1.60818">
        <ele>19</ele>
        <time>2024-03-20T21:27:51Z</time>
      </trkpt>
      <trkpt lat="50.77393" lon="1.60884">
        <ele>18</ele>
        <time>2024-03-20T21:27:59Z</time>
      </trkpt>
      <trkpt lat="50.77395" lon="1.60887">
        <ele>18</ele>
        <time>2024-03-20T21:28:00Z</time>
      </trkpt>
      <trkpt lat="50.77664" lon="1.60826">
        <ele>36</ele>
        <time>2024-03-20T21:28:48Z</time>
      </trkpt>
      <trkpt lat="50.77767" lon="1.61058">
        <ele>42</ele>
        <time>2024-03-20T21:29:20Z</time>
      </trkpt>
      <trkpt lat="50.77775" lon="1.61076">
        <ele>42</ele>
        <time>2024-03-20T21:29:23Z</time>
      </trkpt>
      <trkpt lat="50.77757" lon="1.61092">
        <ele>42</ele>
        <time>2024-03-20T21:29:26Z</time>
      </trkpt>
      <trkpt lat="50.77752" lon="1.61098">
        <ele>42</ele>
        <time>2024-03-20T21:29:27Z</time>
      </trkpt>
      <trkpt lat="50.77751" lon="1.6111">
        <ele>42</ele>
        <time>2024-03-20T21:29:29Z</time>
      </trkpt>
      <trkpt lat="50.77754" lon="1.61117">
        <ele>42</ele>
        <time>2024-03-20T21:29:30Z</time>
      </trkpt>
      <trkpt lat="50.77758" lon="1.6112">
        <ele>43</ele>
        <time>2024-03-20T21:29:31Z</time>
      </trkpt>
      <trkpt lat="50.77767" lon="1.61132">
        <ele>43</ele>
        <time>2024-03-20T21:29:33Z</time>
      </trkpt>
      <trkpt lat="50.77771" lon="1.61147">
        <ele>43</ele>
        <time>2024-03-20T21:29:34Z</time>
      </trkpt>
      <trkpt lat="50.77772" lon="1.61158">
        <ele>43</ele>
        <time>2024-03-20T21:29:36Z</time>
      </trkpt>
      <trkpt lat="50.77769" lon="1.61579">
        <ele>45</ele>
        <time>2024-03-20T21:30:23Z</time>
      </trkpt>
      <trkpt lat="50.7777" lon="1.61607">
        <ele>46</ele>
        <time>2024-03-20T21:30:26Z</time>
      </trkpt>
      <trkpt lat="50.77768" lon="1.61642">
        <ele>46</ele>
        <time>2024-03-20T21:30:30Z</time>
      </trkpt>
      <trkpt lat="50.7777" lon="1.61845">
        <ele>47</ele>
        <time>2024-03-20T21:30:53Z</time>
      </trkpt>
      <trkpt lat="50.77772" lon="1.61871">
        <ele>48</ele>
        <time>2024-03-20T21:30:56Z</time>
      </trkpt>
      <trkpt lat="50.77771" lon="1.6189">
        <ele>48</ele>
        <time>2024-03-20T21:30:58Z</time>
      </trkpt>
      <trkpt lat="50.77772" lon="1.61907">
        <ele>48</ele>
        <time>2024-03-20T21:31:00Z</time>
      </trkpt>
      <trkpt lat="50.7776" lon="1.61966">
        <ele>48</ele>
        <time>2024-03-20T21:31:07Z</time>
      </trkpt>
      <trkpt lat="50.77725" lon="1.62078">
        <ele>46</ele>
        <time>2024-03-20T21:31:21Z</time>
      </trkpt>
      <trkpt lat="50.77721" lon="1.62092">
        <ele>46</ele>
        <time>2024-03-20T21:31:23Z</time>
      </trkpt>
      <trkpt lat="50.77738" lon="1.62132">
        <ele>46</ele>
        <time>2024-03-20T21:31:28Z</time>
      </trkpt>
      <trkpt lat="50.77769" lon="1.62177">
        <ele>46</ele>
        <time>2024-03-20T21:31:36Z</time>
      </trkpt>
      <trkpt lat="50.77802" lon="1.62231">
        <ele>46</ele>
        <time>2024-03-20T21:31:44Z</time>
      </trkpt>
      <trkpt lat="50.7783" lon="1.62281">
        <ele>46</ele>
        <time>2024-03-20T21:31:52Z</time>
      </trkpt>
      <trkpt lat="50.77885" lon="1.62401">
        <ele>46</ele>
        <time>2024-03-20T21:32:08Z</time>
      </trkpt>
      <trkpt lat="50.77944" lon="1.62545">
        <ele>43</ele>
        <time>2024-03-20T21:32:28Z</time>
      </trkpt>
      <trkpt lat="50.77969" lon="1.62623">
        <ele>43</ele>
        <time>2024-03-20T21:32:38Z</time>
      </trkpt>
      <trkpt lat="50.77982" lon="1.62669">
        <ele>42</ele>
        <time>2024-03-20T21:32:43Z</time>
      </trkpt>
      <trkpt lat="50.78013" lon="1.62803">
        <ele>36</ele>
        <time>2024-03-20T21:32:59Z</time>
      </trkpt>
      <trkpt lat="50.78015" lon="1.62826">
        <ele>35</ele>
        <time>2024-03-20T21:33:02Z</time>
      </trkpt>
      <trkpt lat="50.78026" lon="1.62841">
        <ele>35</ele>
        <time>2024-03-20T21:33:04Z</time>
      </trkpt>
      <trkpt lat="50.78042" lon="1.6287">
        <ele>34</ele>
        <time>2024-03-20T21:33:09Z</time>
      </trkpt>
      <trkpt lat="50.78047" lon="1.62888">
        <ele>33</ele>
        <time>2024-03-20T21:33:11Z</time>
      </trkpt>
      <trkpt lat="50.7805" lon="1.62912">
        <ele>32</ele>
        <time>2024-03-20T21:33:14Z</time>
      </trkpt>
      <trkpt lat="50.78052" lon="1.62951">
        <ele>31</ele>
        <time>2024-03-20T21:33:18Z</time>
      </trkpt>
      <trkpt lat="50.78055" lon="1.62973">
        <ele>31</ele>
        <time>2024-03-20T21:33:21Z</time>
      </trkpt>
      <trkpt lat="50.78087" lon="1.63116">
        <ele>27</ele>
        <time>2024-03-20T21:33:38Z</time>
      </trkpt>
      <trkpt lat="50.78095" lon="1.63144">
        <ele>27</ele>
        <time>2024-03-20T21:33:41Z</time>
      </trkpt>
      <trkpt lat="50.78102" lon="1.63163">
        <ele>27</ele>
        <time>2024-03-20T21:33:44Z</time>
      </trkpt>
      <trkpt lat="50.78111" lon="1.63177">
        <ele>26</ele>
        <time>2024-03-20T21:33:46Z</time>
      </trkpt>
      <trkpt lat="50.78123" lon="1.63188">
        <ele>26</ele>
        <time>2024-03-20T21:33:48Z</time>
      </trkpt>
      <trkpt lat="50.78208" lon="1.63241">
        <ele>23</ele>
        <time>2024-03-20T21:34:05Z</time>
      </trkpt>
      <trkpt lat="50.78355" lon="1.6333">
        <ele>20</ele>
        <time>2024-03-20T21:34:33Z</time>
      </trkpt>
      <trkpt lat="50.78456" lon="1.63394">
        <ele>18</ele>
        <time>2024-03-20T21:34:52Z</time>
      </trkpt>
      <trkpt lat="50.78481" lon="1.63406">
        <ele>18</ele>
        <time>2024-03-20T21:34:57Z</time>
      </trkpt>
      <trkpt lat="50.78505" lon="1.63407">
        <ele>18</ele>
        <time>2024-03-20T21:35:01Z</time>
      </trkpt>
      <trkpt lat="50.78627" lon="1.63383">
        <ele>18</ele>
        <time>2024-03-20T21:35:23Z</time>
      </trkpt>
      <trkpt lat="50.78658" lon="1.63388">
        <ele>17</ele>
        <time>2024-03-20T21:35:28Z</time>
      </trkpt>
      <trkpt lat="50.78754" lon="1.6344">
        <ele>16</ele>
        <time>2024-03-20T21:35:46Z</time>
      </trkpt>
      <trkpt lat="50.78805" lon="1.6347">
        <ele>16</ele>
        <time>2024-03-20T21:35:56Z</time>
      </trkpt>
      <trkpt lat="50.78831" lon="1.63479">
        <ele>16</ele>
        <time>2024-03-20T21:36:01Z</time>
      </trkpt>
      <trkpt lat="50.78896" lon="1.63487">
        <ele>15</ele>
        <time>2024-03-20T21:36:12Z</time>
      </trkpt>
      <trkpt lat="50.7894" lon="1.63469">
        <ele>15</ele>
        <time>2024-03-20T21:36:21Z</time>
      </trkpt>
      <trkpt lat="50.79017" lon="1.63427">
        <ele>14</ele>
        <time>2024-03-20T21:36:35Z</time>
      </trkpt>
      <trkpt lat="50.79059" lon="1.63499">
        <ele>15</ele>
        <time>2024-03-20T21:36:46Z</time>
      </trkpt>
      <trkpt lat="50.79102" lon="1.6358">
        <ele>19</ele>
        <time>2024-03-20T21:36:58Z</time>
      </trkpt>
      <trkpt lat="50.7911" lon="1.636">
        <ele>19</ele>
        <time>2024-03-20T21:37:01Z</time>
      </trkpt>
      <trkpt lat="50.79137" lon="1.63663">
        <ele>21</ele>
        <time>2024-03-20T21:37:09Z</time>
      </trkpt>
      <trkpt lat="50.79172" lon="1.63735">
        <ele>23</ele>
        <time>2024-03-20T21:37:19Z</time>
      </trkpt>
      <trkpt lat="50.79268" lon="1.63846">
        <ele>20</ele>
        <time>2024-03-20T21:37:41Z</time>
      </trkpt>
      <trkpt lat="50.79278" lon="1.63855">
        <ele>21</ele>
        <time>2024-03-20T21:37:43Z</time>
      </trkpt>
      <trkpt lat="50.79291" lon="1.63857">
        <ele>21</ele>
        <time>2024-03-20T21:37:45Z</time>
      </trkpt>
      <trkpt lat="50.79309" lon="1.63854">
        <ele>21</ele>
        <time>2024-03-20T21:37:48Z</time>
      </trkpt>
      <trkpt lat="50.79325" lon="1.63841">
        <ele>20</ele>
        <time>2024-03-20T21:37:51Z</time>
      </trkpt>
      <trkpt lat="50.79369" lon="1.63816">
        <ele>21</ele>
        <time>2024-03-20T21:38:00Z</time>
      </trkpt>
      <trkpt lat="50.79388" lon="1.63815">
        <ele>22</ele>
        <time>2024-03-20T21:38:03Z</time>
      </trkpt>
      <trkpt lat="50.79407" lon="1.63825">
        <ele>23</ele>
        <time>2024-03-20T21:38:07Z</time>
      </trkpt>
      <trkpt lat="50.7946" lon="1.63875">
        <ele>24</ele>
        <time>2024-03-20T21:38:18Z</time>
      </trkpt>
      <trkpt lat="50.79478" lon="1.63894">
        <ele>25</ele>
        <time>2024-03-20T21:38:21Z</time>
      </trkpt>
      <trkpt lat="50.79493" lon="1.63917">
        <ele>25</ele>
        <time>2024-03-20T21:38:25Z</time>
      </trkpt>
      <trkpt lat="50.79521" lon="1.6397">
        <ele>25</ele>
        <time>2024-03-20T21:38:33Z</time>
      </trkpt>
      <trkpt lat="50.79558" lon="1.64046">
        <ele>25</ele>
        <time>2024-03-20T21:38:44Z</time>
      </trkpt>
      <trkpt lat="50.79577" lon="1.64124">
        <ele>26</ele>
        <time>2024-03-20T21:38:53Z</time>
      </trkpt>
      <trkpt lat="50.79589" lon="1.64198">
        <ele>29</ele>
        <time>2024-03-20T21:39:02Z</time>
      </trkpt>
      <trkpt lat="50.79643" lon="1.64307">
        <ele>32</ele>
        <time>2024-03-20T21:39:17Z</time>
      </trkpt>
      <trkpt lat="50.79665" lon="1.64393">
        <ele>33</ele>
        <time>2024-03-20T21:39:28Z</time>
      </trkpt>
      <trkpt lat="50.79676" lon="1.64443">
        <ele>33</ele>
        <time>2024-03-20T21:39:34Z</time>
      </trkpt>
      <trkpt lat="50.79683" lon="1.64492">
        <ele>32</ele>
        <time>2024-03-20T21:39:39Z</time>
      </trkpt>
      <trkpt lat="50.79679" lon="1.64548">
        <ele>31</ele>
        <time>2024-03-20T21:39:46Z</time>
      </trkpt>
      <trkpt lat="50.79671" lon="1.64594">
        <ele>31</ele>
        <time>2024-03-20T21:39:51Z</time>
      </trkpt>
      <trkpt lat="50.79657" lon="1.64691">
        <ele>29</ele>
        <time>2024-03-20T21:40:02Z</time>
      </trkpt>
      <trkpt lat="50.7966" lon="1.64738">
        <ele>29</ele>
        <time>2024-03-20T21:40:07Z</time>
      </trkpt>
      <trkpt lat="50.79669" lon="1.64751">
        <ele>28</ele>
        <time>2024-03-20T21:40:10Z</time>
      </trkpt>
      <trkpt lat="50.79705" lon="1.64777">
        <ele>27</ele>
        <time>2024-03-20T21:40:17Z</time>
      </trkpt>
      <trkpt lat="50.79859" lon="1.64822">
        <ele>23</ele>
        <time>2024-03-20T21:40:45Z</time>
      </trkpt>
      <trkpt lat="50.79876" lon="1.64832">
        <ele>23</ele>
        <time>2024-03-20T21:40:48Z</time>
      </trkpt>
      <trkpt lat="50.79894" lon="1.64861">
        <ele>24</ele>
        <time>2024-03-20T21:40:52Z</time>
      </trkpt>
      <trkpt lat="50.79901" lon="1.64889">
        <ele>26</ele>
        <time>2024-03-20T21:40:56Z</time>
      </trkpt>
      <trkpt lat="50.79902" lon="1.6492">
        <ele>27</ele>
        <time>2024-03-20T21:40:59Z</time>
      </trkpt>
      <trkpt lat="50.79895" lon="1.64947">
        <ele>29</ele>
        <time>2024-03-20T21:41:03Z</time>
      </trkpt>
      <trkpt lat="50.79872" lon="1.65002">
        <ele>30</ele>
        <time>2024-03-20T21:41:10Z</time>
      </trkpt>
      <trkpt lat="50.7986" lon="1.65047">
        <ele>31</ele>
        <time>2024-03-20T21:41:15Z</time>
      </trkpt>
      <trkpt lat="50.79841" lon="1.6524">
        <ele>25</ele>
        <time>2024-03-20T21:41:37Z</time>
      </trkpt>
      <trkpt lat="50.7981" lon="1.65273">
        <ele>25</ele>
        <time>2024-03-20T21:41:44Z</time>
      </trkpt>
      <trkpt lat="50.79771" lon="1.65292">
        <ele>25</ele>
        <time>2024-03-20T21:41:51Z</time>
      </trkpt>
      <trkpt lat="50.79744" lon="1.65323">
        <ele>26</ele>
        <time>2024-03-20T21:41:57Z</time>
      </trkpt>
      <trkpt lat="50.79717" lon="1.65382">
        <ele>27</ele>
        <time>2024-03-20T21:42:05Z</time>
      </trkpt>
      <trkpt lat="50.79716" lon="1.654">
        <ele>27</ele>
        <time>2024-03-20T21:42:07Z</time>
      </trkpt>
      <trkpt lat="50.7972" lon="1.65406">
        <ele>26</ele>
        <time>2024-03-20T21:42:08Z</time>
      </trkpt>
      <trkpt lat="50.79908" lon="1.65584">
        <ele>15</ele>
        <time>2024-03-20T21:42:47Z</time>
      </trkpt>
      <trkpt lat="50.79937" lon="1.6562">
        <ele>14</ele>
        <time>2024-03-20T21:42:54Z</time>
      </trkpt>
      <trkpt lat="50.79976" lon="1.65698">
        <ele>12</ele>
        <time>2024-03-20T21:43:05Z</time>
      </trkpt>
      <trkpt lat="50.79989" lon="1.65738">
        <ele>11</ele>
        <time>2024-03-20T21:43:10Z</time>
      </trkpt>
      <trkpt lat="50.80046" lon="1.65966">
        <ele>14</ele>
        <time>2024-03-20T21:43:38Z</time>
      </trkpt>
      <trkpt lat="50.8011" lon="1.66193">
        <ele>19</ele>
        <time>2024-03-20T21:44:06Z</time>
      </trkpt>
      <trkpt lat="50.8012" lon="1.66234">
        <ele>20</ele>
        <time>2024-03-20T21:44:11Z</time>
      </trkpt>
      <trkpt lat="50.80149" lon="1.66401">
        <ele>23</ele>
        <time>2024-03-20T21:44:30Z</time>
      </trkpt>
      <trkpt lat="50.80156" lon="1.66425">
        <ele>24</ele>
        <time>2024-03-20T21:44:33Z</time>
      </trkpt>
      <trkpt lat="50.8017" lon="1.6646">
        <ele>24</ele>
        <time>2024-03-20T21:44:38Z</time>
      </trkpt>
      <trkpt lat="50.80174" lon="1.66469">
        <ele>24</ele>
        <time>2024-03-20T21:44:39Z</time>
      </trkpt>
      <trkpt lat="50.80185" lon="1.66472">
        <ele>24</ele>
        <time>2024-03-20T21:44:41Z</time>
      </trkpt>
      <trkpt lat="50.80199" lon="1.66491">
        <ele>24</ele>
        <time>2024-03-20T21:44:44Z</time>
      </trkpt>
      <trkpt lat="50.8022" lon="1.66544">
        <ele>24</ele>
        <time>2024-03-20T21:44:51Z</time>
      </trkpt>
      <trkpt lat="50.80225" lon="1.66565">
        <ele>25</ele>
        <time>2024-03-20T21:44:54Z</time>
      </trkpt>
      <trkpt lat="50.80237" lon="1.66642">
        <ele>25</ele>
        <time>2024-03-20T21:45:03Z</time>
      </trkpt>
      <trkpt lat="50.80249" lon="1.66678">
        <ele>26</ele>
        <time>2024-03-20T21:45:07Z</time>
      </trkpt>
      <trkpt lat="50.80285" lon="1.6677">
        <ele>26</ele>
        <time>2024-03-20T21:45:20Z</time>
      </trkpt>
      <trkpt lat="50.80288" lon="1.66792">
        <ele>27</ele>
        <time>2024-03-20T21:45:22Z</time>
      </trkpt>
      <trkpt lat="50.80291" lon="1.66851">
        <ele>27</ele>
        <time>2024-03-20T21:45:29Z</time>
      </trkpt>
      <trkpt lat="50.80291" lon="1.66947">
        <ele>25</ele>
        <time>2024-03-20T21:45:40Z</time>
      </trkpt>
      <trkpt lat="50.80307" lon="1.67079">
        <ele>22</ele>
        <time>2024-03-20T21:45:55Z</time>
      </trkpt>
      <trkpt lat="50.80319" lon="1.67166">
        <ele>20</ele>
        <time>2024-03-20T21:46:05Z</time>
      </trkpt>
      <trkpt lat="50.80339" lon="1.67219">
        <ele>17</ele>
        <time>2024-03-20T21:46:12Z</time>
      </trkpt>
      <trkpt lat="50.8036" lon="1.67256">
        <ele>15</ele>
        <time>2024-03-20T21:46:17Z</time>
      </trkpt>
      <trkpt lat="50.80366" lon="1.67274">
        <ele>15</ele>
        <time>2024-03-20T21:46:19Z</time>
      </trkpt>
      <trkpt lat="50.8038" lon="1.67392">
        <ele>15</ele>
        <time>2024-03-20T21:46:33Z</time>
      </trkpt>
      <trkpt lat="50.80376" lon="1.67468">
        <ele>16</ele>
        <time>2024-03-20T21:46:42Z</time>
      </trkpt>
      <trkpt lat="50.80378" lon="1.67514">
        <ele>18</ele>
        <time>2024-03-20T21:46:47Z</time>
      </trkpt>
      <trkpt lat="50.80377" lon="1.67668">
        <ele>23</ele>
        <time>2024-03-20T21:47:04Z</time>
      </trkpt>
      <trkpt lat="50.80383" lon="1.67722">
        <ele>26</ele>
        <time>2024-03-20T21:47:10Z</time>
      </trkpt>
      <trkpt lat="50.80406" lon="1.67846">
        <ele>31</ele>
        <time>2024-03-20T21:47:25Z</time>
      </trkpt>
      <trkpt lat="50.80444" lon="1.67993">
        <ele>31</ele>
        <time>2024-03-20T21:47:43Z</time>
      </trkpt>
      <trkpt lat="50.80453" lon="1.68134">
        <ele>30</ele>
        <time>2024-03-20T21:47:59Z</time>
      </trkpt>
      <trkpt lat="50.80478" lon="1.68288">
        <ele>27</ele>
        <time>2024-03-20T21:48:16Z</time>
      </trkpt>
      <trkpt lat="50.80486" lon="1.68397">
        <ele>26</ele>
        <time>2024-03-20T21:48:29Z</time>
      </trkpt>
      <trkpt lat="50.80491" lon="1.68434">
        <ele>25</ele>
        <time>2024-03-20T21:48:33Z</time>
      </trkpt>
      <trkpt lat="50.80591" lon="1.68711">
        <ele>13</ele>
        <time>2024-03-20T21:49:09Z</time>
      </trkpt>
      <trkpt lat="50.80647" lon="1.68852">
        <ele>10</ele>
        <time>2024-03-20T21:49:28Z</time>
      </trkpt>
      <trkpt lat="50.80687" lon="1.68936">
        <ele>9</ele>
        <time>2024-03-20T21:49:39Z</time>
      </trkpt>
      <trkpt lat="50.80712" lon="1.69003">
        <ele>9</ele>
        <time>2024-03-20T21:49:48Z</time>
      </trkpt>
      <trkpt lat="50.8072" lon="1.69028">
        <ele>9</ele>
        <time>2024-03-20T21:49:51Z</time>
      </trkpt>
      <trkpt lat="50.80729" lon="1.69066">
        <ele>10</ele>
        <time>2024-03-20T21:49:56Z</time>
      </trkpt>
      <trkpt lat="50.80734" lon="1.691">
        <ele>11</ele>
        <time>2024-03-20T21:50:00Z</time>
      </trkpt>
      <trkpt lat="50.80737" lon="1.69145">
        <ele>12</ele>
        <time>2024-03-20T21:50:05Z</time>
      </trkpt>
      <trkpt lat="50.80737" lon="1.69191">
        <ele>14</ele>
        <time>2024-03-20T21:50:10Z</time>
      </trkpt>
      <trkpt lat="50.80733" lon="1.69237">
        <ele>15</ele>
        <time>2024-03-20T21:50:15Z</time>
      </trkpt>
      <trkpt lat="50.80727" lon="1.69274">
        <ele>16</ele>
        <time>2024-03-20T21:50:20Z</time>
      </trkpt>
      <trkpt lat="50.80722" lon="1.69297">
        <ele>17</ele>
        <time>2024-03-20T21:50:22Z</time>
      </trkpt>
      <trkpt lat="50.80704" lon="1.69385">
        <ele>18</ele>
        <time>2024-03-20T21:50:33Z</time>
      </trkpt>
      <trkpt lat="50.807" lon="1.6941">
        <ele>17</ele>
        <time>2024-03-20T21:50:36Z</time>
      </trkpt>
      <trkpt lat="50.80701" lon="1.69434">
        <ele>17</ele>
        <time>2024-03-20T21:50:38Z</time>
      </trkpt>
      <trkpt lat="50.80705" lon="1.69452">
        <ele>17</ele>
        <time>2024-03-20T21:50:40Z</time>
      </trkpt>
      <trkpt lat="50.80717" lon="1.6947">
        <ele>16</ele>
        <time>2024-03-20T21:50:43Z</time>
      </trkpt>
      <trkpt lat="50.80722" lon="1.69473">
        <ele>15</ele>
        <time>2024-03-20T21:50:44Z</time>
      </trkpt>
      <trkpt lat="50.80758" lon="1.69493">
        <ele>14</ele>
        <time>2024-03-20T21:50:51Z</time>
      </trkpt>
      <trkpt lat="50.80855" lon="1.69526">
        <ele>9</ele>
        <time>2024-03-20T21:51:09Z</time>
      </trkpt>
      <trkpt lat="50.80873" lon="1.69536">
        <ele>8</ele>
        <time>2024-03-20T21:51:12Z</time>
      </trkpt>
      <trkpt lat="50.80892" lon="1.69549">
        <ele>8</ele>
        <time>2024-03-20T21:51:16Z</time>
      </trkpt>
      <trkpt lat="50.80914" lon="1.69569">
        <ele>7</ele>
        <time>2024-03-20T21:51:20Z</time>
      </trkpt>
      <trkpt lat="50.80946" lon="1.69602">
        <ele>7</ele>
        <time>2024-03-20T21:51:27Z</time>
      </trkpt>
      <trkpt lat="50.80962" lon="1.69619">
        <ele>7</ele>
        <time>2024-03-20T21:51:31Z</time>
      </trkpt>
      <trkpt lat="50.81114" lon="1.69773">
        <ele>6</ele>
        <time>2024-03-20T21:52:03Z</time>
      </trkpt>
      <trkpt lat="50.8111" lon="1.69806">
        <ele>7</ele>
        <time>2024-03-20T21:52:07Z</time>
      </trkpt>
      <trkpt lat="50.81105" lon="1.69873">
        <ele>7</ele>
        <time>2024-03-20T21:52:14Z</time>
      </trkpt>
      <trkpt lat="50.81012" lon="1.70535">
        <ele>7</ele>
        <time>2024-03-20T21:53:30Z</time>
      </trkpt>
      <trkpt lat="50.8101" lon="1.70558">
        <ele>7</ele>
        <time>2024-03-20T21:53:33Z</time>
      </trkpt>
      <trkpt lat="50.81011" lon="1.7059">
        <ele>7</ele>
        <time>2024-03-20T21:53:37Z</time>
      </trkpt>
      <trkpt lat="50.81013" lon="1.70616">
        <ele>8</ele>
        <time>2024-03-20T21:53:39Z</time>
      </trkpt>
      <trkpt lat="50.81018" lon="1.70643">
        <ele>8</ele>
        <time>2024-03-20T21:53:43Z</time>
      </trkpt>
      <trkpt lat="50.81026" lon="1.70668">
        <ele>8</ele>
        <time>2024-03-20T21:53:46Z</time>
      </trkpt>
      <trkpt lat="50.81034" lon="1.70689">
        <ele>9</ele>
        <time>2024-03-20T21:53:49Z</time>
      </trkpt>
      <trkpt lat="50.81049" lon="1.70718">
        <ele>9</ele>
        <time>2024-03-20T21:53:53Z</time>
      </trkpt>
      <trkpt lat="50.81069" lon="1.70744">
        <ele>10</ele>
        <time>2024-03-20T21:53:57Z</time>
      </trkpt>
      <trkpt lat="50.81114" lon="1.70787">
        <ele>11</ele>
        <time>2024-03-20T21:54:07Z</time>
      </trkpt>
      <trkpt lat="50.81125" lon="1.70757">
        <ele>10</ele>
        <time>2024-03-20T21:54:11Z</time>
      </trkpt>
      <trkpt lat="50.81181" lon="1.70816">
        <ele>12</ele>
        <time>2024-03-20T21:54:23Z</time>
      </trkpt>
      <trkpt lat="50.81204" lon="1.7085">
        <ele>13</ele>
        <time>2024-03-20T21:54:28Z</time>
      </trkpt>
      <trkpt lat="50.81228" lon="1.70904">
        <ele>15</ele>
        <time>2024-03-20T21:54:36Z</time>
      </trkpt>
      <trkpt lat="50.81246" lon="1.70942">
        <ele>16</ele>
        <time>2024-03-20T21:54:41Z</time>
      </trkpt>
      <trkpt lat="50.81253" lon="1.70951">
        <ele>16</ele>
        <time>2024-03-20T21:54:43Z</time>
      </trkpt>
      <trkpt lat="50.81246" lon="1.70942">
        <ele>16</ele>
        <time>2024-03-20T21:54:44Z</time>
      </trkpt>
      <trkpt lat="50.81228" lon="1.70904">
        <ele>15</ele>
        <time>2024-03-20T21:54:50Z</time>
      </trkpt>
      <trkpt lat="50.81204" lon="1.7085">
        <ele>13</ele>
        <time>2024-03-20T21:54:57Z</time>
      </trkpt>
      <trkpt lat="50.81181" lon="1.70816">
        <ele>12</ele>
        <time>2024-03-20T21:55:03Z</time>
      </trkpt>
      <trkpt lat="50.81125" lon="1.70757">
        <ele>10</ele>
        <time>2024-03-20T21:55:15Z</time>
      </trkpt>
      <trkpt lat="50.81114" lon="1.70787">
        <ele>11</ele>
        <time>2024-03-20T21:55:18Z</time>
      </trkpt>
      <trkpt lat="50.81069" lon="1.70744">
        <ele>10</ele>
        <time>2024-03-20T21:55:28Z</time>
      </trkpt>
      <trkpt lat="50.81053" lon="1.70784">
        <ele>11</ele>
        <time>2024-03-20T21:55:33Z</time>
      </trkpt>
      <trkpt lat="50.8104" lon="1.70799">
        <ele>11</ele>
        <time>2024-03-20T21:55:36Z</time>
      </trkpt>
      <trkpt lat="50.81034" lon="1.70802">
        <ele>11</ele>
        <time>2024-03-20T21:55:37Z</time>
      </trkpt>
      <trkpt lat="50.81021" lon="1.70804">
        <ele>11</ele>
        <time>2024-03-20T21:55:39Z</time>
      </trkpt>
      <trkpt lat="50.80993" lon="1.70801">
        <ele>11</ele>
        <time>2024-03-20T21:55:44Z</time>
      </trkpt>
      <trkpt lat="50.80974" lon="1.70808">
        <ele>11</ele>
        <time>2024-03-20T21:55:48Z</time>
      </trkpt>
      <trkpt lat="50.80963" lon="1.70818">
        <ele>10</ele>
        <time>2024-03-20T21:55:50Z</time>
      </trkpt>
      <trkpt lat="50.80853" lon="1.70937">
        <ele>9</ele>
        <time>2024-03-20T21:56:14Z</time>
      </trkpt>
      <trkpt lat="50.80816" lon="1.7097">
        <ele>8</ele>
        <time>2024-03-20T21:56:21Z</time>
      </trkpt>
      <trkpt lat="50.80782" lon="1.70992">
        <ele>8</ele>
        <time>2024-03-20T21:56:28Z</time>
      </trkpt>
      <trkpt lat="50.80761" lon="1.71003">
        <ele>8</ele>
        <time>2024-03-20T21:56:32Z</time>
      </trkpt>
      <trkpt lat="50.80669" lon="1.71062">
        <ele>16</ele>
        <time>2024-03-20T21:56:50Z</time>
      </trkpt>
      <trkpt lat="50.80611" lon="1.71095">
        <ele>19</ele>
        <time>2024-03-20T21:57:00Z</time>
      </trkpt>
      <trkpt lat="50.80589" lon="1.71104">
        <ele>20</ele>
        <time>2024-03-20T21:57:05Z</time>
      </trkpt>
      <trkpt lat="50.80452" lon="1.71146">
        <ele>20</ele>
        <time>2024-03-20T21:57:29Z</time>
      </trkpt>
      <trkpt lat="50.80413" lon="1.71153">
        <ele>21</ele>
        <time>2024-03-20T21:57:36Z</time>
      </trkpt>
      <trkpt lat="50.80232" lon="1.71166">
        <ele>23</ele>
        <time>2024-03-20T21:58:09Z</time>
      </trkpt>
      <trkpt lat="50.80139" lon="1.7117">
        <ele>25</ele>
        <time>2024-03-20T21:58:25Z</time>
      </trkpt>
      <trkpt lat="50.79926" lon="1.71184">
        <ele>31</ele>
        <time>2024-03-20T21:59:03Z</time>
      </trkpt>
      <trkpt lat="50.79906" lon="1.71185">
        <ele>31</ele>
        <time>2024-03-20T21:59:07Z</time>
      </trkpt>
      <trkpt lat="50.79878" lon="1.71187">
        <ele>31</ele>
        <time>2024-03-20T21:59:12Z</time>
      </trkpt>
      <trkpt lat="50.79834" lon="1.71194">
        <ele>31</ele>
        <time>2024-03-20T21:59:19Z</time>
      </trkpt>
      <trkpt lat="50.79542" lon="1.713">
        <ele>19</ele>
        <time>2024-03-20T22:00:13Z</time>
      </trkpt>
      <trkpt lat="50.79494" lon="1.71331">
        <ele>18</ele>
        <time>2024-03-20T22:00:22Z</time>
      </trkpt>
      <trkpt lat="50.79469" lon="1.71344">
        <ele>19</ele>
        <time>2024-03-20T22:00:27Z</time>
      </trkpt>
      <trkpt lat="50.79407" lon="1.71401">
        <ele>21</ele>
        <time>2024-03-20T22:00:39Z</time>
      </trkpt>
      <trkpt lat="50.79329" lon="1.7148">
        <ele>23</ele>
        <time>2024-03-20T22:00:56Z</time>
      </trkpt>
      <trkpt lat="50.79138" lon="1.71675">
        <ele>32</ele>
        <time>2024-03-20T22:01:36Z</time>
      </trkpt>
      <trkpt lat="50.79113" lon="1.71726">
        <ele>33</ele>
        <time>2024-03-20T22:01:44Z</time>
      </trkpt>
      <trkpt lat="50.79013" lon="1.71952">
        <ele>40</ele>
        <time>2024-03-20T22:02:15Z</time>
      </trkpt>
      <trkpt lat="50.7898" lon="1.72033">
        <ele>43</ele>
        <time>2024-03-20T22:02:25Z</time>
      </trkpt>
      <trkpt lat="50.78949" lon="1.72144">
        <ele>45</ele>
        <time>2024-03-20T22:02:39Z</time>
      </trkpt>
      <trkpt lat="50.78934" lon="1.72177">
        <ele>47</ele>
        <time>2024-03-20T22:02:44Z</time>
      </trkpt>
      <trkpt lat="50.78864" lon="1.72273">
        <ele>51</ele>
        <time>2024-03-20T22:03:00Z</time>
      </trkpt>
      <trkpt lat="50.78809" lon="1.72393">
        <ele>52</ele>
        <time>2024-03-20T22:03:17Z</time>
      </trkpt>
      <trkpt lat="50.78788" lon="1.72441">
        <ele>53</ele>
        <time>2024-03-20T22:03:23Z</time>
      </trkpt>
      <trkpt lat="50.78769" lon="1.72477">
        <ele>54</ele>
        <time>2024-03-20T22:03:29Z</time>
      </trkpt>
      <trkpt lat="50.78758" lon="1.72496">
        <ele>54</ele>
        <time>2024-03-20T22:03:32Z</time>
      </trkpt>
      <trkpt lat="50.78691" lon="1.7255">
        <ele>51</ele>
        <time>2024-03-20T22:03:45Z</time>
      </trkpt>
      <trkpt lat="50.78549" lon="1.72657">
        <ele>41</ele>
        <time>2024-03-20T22:04:13Z</time>
      </trkpt>
      <trkpt lat="50.78507" lon="1.72697">
        <ele>38</ele>
        <time>2024-03-20T22:04:22Z</time>
      </trkpt>
      <trkpt lat="50.78492" lon="1.72717">
        <ele>37</ele>
        <time>2024-03-20T22:04:25Z</time>
      </trkpt>
      <trkpt lat="50.78389" lon="1.72909">
        <ele>30</ele>
        <time>2024-03-20T22:04:54Z</time>
      </trkpt>
      <trkpt lat="50.78363" lon="1.72949">
        <ele>30</ele>
        <time>2024-03-20T22:05:00Z</time>
      </trkpt>
      <trkpt lat="50.78336" lon="1.72986">
        <ele>30</ele>
        <time>2024-03-20T22:05:06Z</time>
      </trkpt>
      <trkpt lat="50.78304" lon="1.73021">
        <ele>31</ele>
        <time>2024-03-20T22:05:13Z</time>
      </trkpt>
      <trkpt lat="50.78267" lon="1.73055">
        <ele>31</ele>
        <time>2024-03-20T22:05:21Z</time>
      </trkpt>
      <trkpt lat="50.78151" lon="1.73171">
        <ele>37</ele>
        <time>2024-03-20T22:05:45Z</time>
      </trkpt>
      <trkpt lat="50.78096" lon="1.73264">
        <ele>43</ele>
        <time>2024-03-20T22:06:00Z</time>
      </trkpt>
      <trkpt lat="50.78047" lon="1.73389">
        <ele>46</ele>
        <time>2024-03-20T22:06:16Z</time>
      </trkpt>
      <trkpt lat="50.78019" lon="1.7357">
        <ele>43</ele>
        <time>2024-03-20T22:06:37Z</time>
      </trkpt>
      <trkpt lat="50.77999" lon="1.73665">
        <ele>41</ele>
        <time>2024-03-20T22:06:48Z</time>
      </trkpt>
      <trkpt lat="50.7798" lon="1.73711">
        <ele>40</ele>
        <time>2024-03-20T22:06:55Z</time>
      </trkpt>
      <trkpt lat="50.77962" lon="1.73737">
        <ele>40</ele>
        <time>2024-03-20T22:06:59Z</time>
      </trkpt>
      <trkpt lat="50.77951" lon="1.73744">
        <ele>40</ele>
        <time>2024-03-20T22:07:01Z</time>
      </trkpt>
      <trkpt lat="50.77874" lon="1.73761">
        <ele>40</ele>
        <time>2024-03-20T22:07:15Z</time>
      </trkpt>
      <trkpt lat="50.77816" lon="1.73764">
        <ele>40</ele>
        <time>2024-03-20T22:07:25Z</time>
      </trkpt>
      <trkpt lat="50.77803" lon="1.7377">
        <ele>40</ele>
        <time>2024-03-20T22:07:28Z</time>
      </trkpt>
      <trkpt lat="50.778" lon="1.73775">
        <ele>40</ele>
        <time>2024-03-20T22:07:28Z</time>
      </trkpt>
      <trkpt lat="50.77794" lon="1.73794">
        <ele>40</ele>
        <time>2024-03-20T22:07:31Z</time>
      </trkpt>
      <trkpt lat="50.77771" lon="1.73881">
        <ele>38</ele>
        <time>2024-03-20T22:07:41Z</time>
      </trkpt>
      <trkpt lat="50.77764" lon="1.73895">
        <ele>38</ele>
        <time>2024-03-20T22:07:43Z</time>
      </trkpt>
      <trkpt lat="50.77807" lon="1.73968">
        <ele>35</ele>
        <time>2024-03-20T22:07:55Z</time>
      </trkpt>
      <trkpt lat="50.77816" lon="1.7399">
        <ele>34</ele>
        <time>2024-03-20T22:07:58Z</time>
      </trkpt>
      <trkpt lat="50.77824" lon="1.74046">
        <ele>33</ele>
        <time>2024-03-20T22:08:04Z</time>
      </trkpt>
      <trkpt lat="50.77825" lon="1.74083">
        <ele>32</ele>
        <time>2024-03-20T22:08:08Z</time>
      </trkpt>
      <trkpt lat="50.77823" lon="1.74111">
        <ele>31</ele>
        <time>2024-03-20T22:08:11Z</time>
      </trkpt>
      <trkpt lat="50.77803" lon="1.74253">
        <ele>28</ele>
        <time>2024-03-20T22:08:28Z</time>
      </trkpt>
      <trkpt lat="50.77795" lon="1.74283">
        <ele>28</ele>
        <time>2024-03-20T22:08:31Z</time>
      </trkpt>
      <trkpt lat="50.77785" lon="1.7431">
        <ele>28</ele>
        <time>2024-03-20T22:08:35Z</time>
      </trkpt>
      <trkpt lat="50.77781" lon="1.7432">
        <ele>28</ele>
        <time>2024-03-20T22:08:36Z</time>
      </trkpt>
      <trkpt lat="50.77768" lon="1.74344">
        <ele>29</ele>
        <time>2024-03-20T22:08:40Z</time>
      </trkpt>
      <trkpt lat="50.77752" lon="1.74373">
        <ele>30</ele>
        <time>2024-03-20T22:08:44Z</time>
      </trkpt>
      <trkpt lat="50.77711" lon="1.74433">
        <ele>32</ele>
        <time>2024-03-20T22:08:54Z</time>
      </trkpt>
      <trkpt lat="50.7765" lon="1.74533">
        <ele>35</ele>
        <time>2024-03-20T22:09:10Z</time>
      </trkpt>
      <trkpt lat="50.77622" lon="1.7459">
        <ele>37</ele>
        <time>2024-03-20T22:09:18Z</time>
      </trkpt>
      <trkpt lat="50.77599" lon="1.74663">
        <ele>41</ele>
        <time>2024-03-20T22:09:27Z</time>
      </trkpt>
      <trkpt lat="50.77563" lon="1.74764">
        <ele>44</ele>
        <time>2024-03-20T22:09:40Z</time>
      </trkpt>
      <trkpt lat="50.77495" lon="1.74876">
        <ele>45</ele>
        <time>2024-03-20T22:09:57Z</time>
      </trkpt>
      <trkpt lat="50.77446" lon="1.74937">
        <ele>47</ele>
        <time>2024-03-20T22:10:09Z</time>
      </trkpt>
      <trkpt lat="50.77396" lon="1.74988">
        <ele>48</ele>
        <time>2024-03-20T22:10:19Z</time>
      </trkpt>
      <trkpt lat="50.77253" lon="1.75127">
        <ele>55</ele>
        <time>2024-03-20T22:10:49Z</time>
      </trkpt>
      <trkpt lat="50.77111" lon="1.75173">
        <ele>57</ele>
        <time>2024-03-20T22:11:15Z</time>
      </trkpt>
      <trkpt lat="50.76945" lon="1.75235">
        <ele>59</ele>
        <time>2024-03-20T22:11:45Z</time>
      </trkpt>
      <trkpt lat="50.76896" lon="1.75235">
        <ele>57</ele>
        <time>2024-03-20T22:11:54Z</time>
      </trkpt>
      <trkpt lat="50.76831" lon="1.75241">
        <ele>55</ele>
        <time>2024-03-20T22:12:05Z</time>
      </trkpt>
      <trkpt lat="50.76783" lon="1.75274">
        <ele>54</ele>
        <time>2024-03-20T22:12:15Z</time>
      </trkpt>
      <trkpt lat="50.76694" lon="1.75328">
        <ele>53</ele>
        <time>2024-03-20T22:12:32Z</time>
      </trkpt>
      <trkpt lat="50.76652" lon="1.75325">
        <ele>52</ele>
        <time>2024-03-20T22:12:39Z</time>
      </trkpt>
      <trkpt lat="50.76544" lon="1.75254">
        <ele>51</ele>
        <time>2024-03-20T22:13:00Z</time>
      </trkpt>
      <trkpt lat="50.76473" lon="1.75211">
        <ele>56</ele>
        <time>2024-03-20T22:13:14Z</time>
      </trkpt>
      <trkpt lat="50.76432" lon="1.75183">
        <ele>58</ele>
        <time>2024-03-20T22:13:22Z</time>
      </trkpt>
      <trkpt lat="50.76418" lon="1.75169">
        <ele>58</ele>
        <time>2024-03-20T22:13:24Z</time>
      </trkpt>
      <trkpt lat="50.76404" lon="1.75138">
        <ele>58</ele>
        <time>2024-03-20T22:13:29Z</time>
      </trkpt>
      <trkpt lat="50.76382" lon="1.7502">
        <ele>60</ele>
        <time>2024-03-20T22:13:43Z</time>
      </trkpt>
      <trkpt lat="50.76377" lon="1.7498">
        <ele>61</ele>
        <time>2024-03-20T22:13:47Z</time>
      </trkpt>
      <trkpt lat="50.76291" lon="1.74753">
        <ele>65</ele>
        <time>2024-03-20T22:14:17Z</time>
      </trkpt>
      <trkpt lat="50.76283" lon="1.74743">
        <ele>65</ele>
        <time>2024-03-20T22:14:19Z</time>
      </trkpt>
      <trkpt lat="50.76275" lon="1.74737">
        <ele>66</ele>
        <time>2024-03-20T22:14:20Z</time>
      </trkpt>
      <trkpt lat="50.76266" lon="1.74738">
        <ele>66</ele>
        <time>2024-03-20T22:14:22Z</time>
      </trkpt>
      <trkpt lat="50.76227" lon="1.74755">
        <ele>68</ele>
        <time>2024-03-20T22:14:29Z</time>
      </trkpt>
      <trkpt lat="50.76117" lon="1.74805">
        <ele>76</ele>
        <time>2024-03-20T22:14:50Z</time>
      </trkpt>
      <trkpt lat="50.76023" lon="1.7486">
        <ele>80</ele>
        <time>2024-03-20T22:15:07Z</time>
      </trkpt>
      <trkpt lat="50.75899" lon="1.74919">
        <ele>81</ele>
        <time>2024-03-20T22:15:30Z</time>
      </trkpt>
      <trkpt lat="50.75862" lon="1.74933">
        <ele>79</ele>
        <time>2024-03-20T22:15:37Z</time>
      </trkpt>
      <trkpt lat="50.75854" lon="1.74933">
        <ele>79</ele>
        <time>2024-03-20T22:15:39Z</time>
      </trkpt>
      <trkpt lat="50.75802" lon="1.74872">
        <ele>76</ele>
        <time>2024-03-20T22:15:50Z</time>
      </trkpt>
      <trkpt lat="50.7577" lon="1.74831">
        <ele>73</ele>
        <time>2024-03-20T22:15:57Z</time>
      </trkpt>
      <trkpt lat="50.75752" lon="1.74801">
        <ele>72</ele>
        <time>2024-03-20T22:16:02Z</time>
      </trkpt>
      <trkpt lat="50.75733" lon="1.74756">
        <ele>70</ele>
        <time>2024-03-20T22:16:08Z</time>
      </trkpt>
      <trkpt lat="50.75721" lon="1.74751">
        <ele>68</ele>
        <time>2024-03-20T22:16:10Z</time>
      </trkpt>
      <trkpt lat="50.75707" lon="1.74757">
        <ele>66</ele>
        <time>2024-03-20T22:16:13Z</time>
      </trkpt>
      <trkpt lat="50.75701" lon="1.74768">
        <ele>64</ele>
        <time>2024-03-20T22:16:15Z</time>
      </trkpt>
      <trkpt lat="50.75698" lon="1.74799">
        <ele>63</ele>
        <time>2024-03-20T22:16:18Z</time>
      </trkpt>
      <trkpt lat="50.75702" lon="1.74825">
        <ele>63</ele>
        <time>2024-03-20T22:16:21Z</time>
      </trkpt>
      <trkpt lat="50.75716" lon="1.74883">
        <ele>63</ele>
        <time>2024-03-20T22:16:28Z</time>
      </trkpt>
      <trkpt lat="50.75719" lon="1.74915">
        <ele>62</ele>
        <time>2024-03-20T22:16:32Z</time>
      </trkpt>
      <trkpt lat="50.75719" lon="1.74937">
        <ele>61</ele>
        <time>2024-03-20T22:16:34Z</time>
      </trkpt>
      <trkpt lat="50.75716" lon="1.75005">
        <ele>59</ele>
        <time>2024-03-20T22:16:42Z</time>
      </trkpt>
      <trkpt lat="50.75711" lon="1.75068">
        <ele>57</ele>
        <time>2024-03-20T22:16:49Z</time>
      </trkpt>
      <trkpt lat="50.75706" lon="1.75095">
        <ele>55</ele>
        <time>2024-03-20T22:16:52Z</time>
      </trkpt>
      <trkpt lat="50.75692" lon="1.75116">
        <ele>52</ele>
        <time>2024-03-20T22:16:56Z</time>
      </trkpt>
      <trkpt lat="50.75676" lon="1.7512">
        <ele>49</ele>
        <time>2024-03-20T22:16:59Z</time>
      </trkpt>
      <trkpt lat="50.75658" lon="1.75116">
        <ele>47</ele>
        <time>2024-03-20T22:17:02Z</time>
      </trkpt>
      <trkpt lat="50.75645" lon="1.751">
        <ele>45</ele>
        <time>2024-03-20T22:17:05Z</time>
      </trkpt>
      <trkpt lat="50.75627" lon="1.75069">
        <ele>43</ele>
        <time>2024-03-20T22:17:09Z</time>
      </trkpt>
      <trkpt lat="50.75599" lon="1.75056">
        <ele>40</ele>
        <time>2024-03-20T22:17:15Z</time>
      </trkpt>
      <trkpt lat="50.75547" lon="1.7504">
        <ele>36</ele>
        <time>2024-03-20T22:17:24Z</time>
      </trkpt>
      <trkpt lat="50.75494" lon="1.75044">
        <ele>32</ele>
        <time>2024-03-20T22:17:34Z</time>
      </trkpt>
      <trkpt lat="50.75443" lon="1.75056">
        <ele>30</ele>
        <time>2024-03-20T22:17:43Z</time>
      </trkpt>
      <trkpt lat="50.75372" lon="1.75068">
        <ele>28</ele>
        <time>2024-03-20T22:17:55Z</time>
      </trkpt>
      <trkpt lat="50.75359" lon="1.75076">
        <ele>28</ele>
        <time>2024-03-20T22:17:58Z</time>
      </trkpt>
      <trkpt lat="50.7529" lon="1.75131">
        <ele>28</ele>
        <time>2024-03-20T22:18:12Z</time>
      </trkpt>
      <trkpt lat="50.75244" lon="1.75165">
        <ele>29</ele>
        <time>2024-03-20T22:18:21Z</time>
      </trkpt>
      <trkpt lat="50.74977" lon="1.75462">
        <ele>40</ele>
        <time>2024-03-20T22:19:19Z</time>
      </trkpt>
      <trkpt lat="50.74927" lon="1.75537">
        <ele>39</ele>
        <time>2024-03-20T22:19:31Z</time>
      </trkpt>
      <trkpt lat="50.74888" lon="1.75591">
        <ele>37</ele>
        <time>2024-03-20T22:19:40Z</time>
      </trkpt>
      <trkpt lat="50.74845" lon="1.75658">
        <ele>36</ele>
        <time>2024-03-20T22:19:51Z</time>
      </trkpt>
      <trkpt lat="50.74831" lon="1.75696">
        <ele>36</ele>
        <time>2024-03-20T22:19:56Z</time>
      </trkpt>
      <trkpt lat="50.74806" lon="1.75798">
        <ele>35</ele>
        <time>2024-03-20T22:20:08Z</time>
      </trkpt>
      <trkpt lat="50.74796" lon="1.75826">
        <ele>35</ele>
        <time>2024-03-20T22:20:12Z</time>
      </trkpt>
      <trkpt lat="50.7478" lon="1.75838">
        <ele>36</ele>
        <time>2024-03-20T22:20:15Z</time>
      </trkpt>
      <trkpt lat="50.74773" lon="1.75841">
        <ele>36</ele>
        <time>2024-03-20T22:20:16Z</time>
      </trkpt>
      <trkpt lat="50.74762" lon="1.75844">
        <ele>37</ele>
        <time>2024-03-20T22:20:18Z</time>
      </trkpt>
      <trkpt lat="50.74665" lon="1.75862">
        <ele>36</ele>
        <time>2024-03-20T22:20:36Z</time>
      </trkpt>
      <trkpt lat="50.74625" lon="1.75876">
        <ele>35</ele>
        <time>2024-03-20T22:20:43Z</time>
      </trkpt>
      <trkpt lat="50.74575" lon="1.75896">
        <ele>36</ele>
        <time>2024-03-20T22:20:52Z</time>
      </trkpt>
      <trkpt lat="50.74511" lon="1.75898">
        <ele>36</ele>
        <time>2024-03-20T22:21:04Z</time>
      </trkpt>
      <trkpt lat="50.74378" lon="1.75883">
        <ele>37</ele>
        <time>2024-03-20T22:21:27Z</time>
      </trkpt>
      <trkpt lat="50.7437" lon="1.75889">
        <ele>37</ele>
        <time>2024-03-20T22:21:29Z</time>
      </trkpt>
      <trkpt lat="50.74335" lon="1.7596">
        <ele>38</ele>
        <time>2024-03-20T22:21:39Z</time>
      </trkpt>
      <trkpt lat="50.743" lon="1.76001">
        <ele>39</ele>
        <time>2024-03-20T22:21:47Z</time>
      </trkpt>
      <trkpt lat="50.74285" lon="1.76032">
        <ele>39</ele>
        <time>2024-03-20T22:21:51Z</time>
      </trkpt>
      <trkpt lat="50.74269" lon="1.76054">
        <ele>40</ele>
        <time>2024-03-20T22:21:55Z</time>
      </trkpt>
      <trkpt lat="50.74245" lon="1.7608">
        <ele>40</ele>
        <time>2024-03-20T22:22:00Z</time>
      </trkpt>
      <trkpt lat="50.74096" lon="1.76192">
        <ele>40</ele>
        <time>2024-03-20T22:22:29Z</time>
      </trkpt>
      <trkpt lat="50.74036" lon="1.76229">
        <ele>40</ele>
        <time>2024-03-20T22:22:41Z</time>
      </trkpt>
      <trkpt lat="50.74022" lon="1.76243">
        <ele>41</ele>
        <time>2024-03-20T22:22:44Z</time>
      </trkpt>
      <trkpt lat="50.7394" lon="1.76349">
        <ele>44</ele>
        <time>2024-03-20T22:23:03Z</time>
      </trkpt>
      <trkpt lat="50.7392" lon="1.76383">
        <ele>45</ele>
        <time>2024-03-20T22:23:08Z</time>
      </trkpt>
      <trkpt lat="50.7388" lon="1.76472">
        <ele>46</ele>
        <time>2024-03-20T22:23:20Z</time>
      </trkpt>
      <trkpt lat="50.73855" lon="1.76519">
        <ele>46</ele>
        <time>2024-03-20T22:23:27Z</time>
      </trkpt>
      <trkpt lat="50.7382" lon="1.76574">
        <ele>47</ele>
        <time>2024-03-20T22:23:36Z</time>
      </trkpt>
      <trkpt lat="50.7379" lon="1.76611">
        <ele>48</ele>
        <time>2024-03-20T22:23:43Z</time>
      </trkpt>
      <trkpt lat="50.73759" lon="1.76635">
        <ele>49</ele>
        <time>2024-03-20T22:23:49Z</time>
      </trkpt>
      <trkpt lat="50.73721" lon="1.76652">
        <ele>49</ele>
        <time>2024-03-20T22:23:56Z</time>
      </trkpt>
      <trkpt lat="50.737" lon="1.76656">
        <ele>49</ele>
        <time>2024-03-20T22:24:00Z</time>
      </trkpt>
      <trkpt lat="50.73646" lon="1.76671">
        <ele>49</ele>
        <time>2024-03-20T22:24:09Z</time>
      </trkpt>
      <trkpt lat="50.73629" lon="1.76675">
        <ele>49</ele>
        <time>2024-03-20T22:24:12Z</time>
      </trkpt>
      <trkpt lat="50.73611" lon="1.76685">
        <ele>49</ele>
        <time>2024-03-20T22:24:16Z</time>
      </trkpt>
      <trkpt lat="50.73588" lon="1.76704">
        <ele>49</ele>
        <time>2024-03-20T22:24:20Z</time>
      </trkpt>
      <trkpt lat="50.73509" lon="1.76797">
        <ele>55</ele>
        <time>2024-03-20T22:24:38Z</time>
      </trkpt>
      <trkpt lat="50.73425" lon="1.76874">
        <ele>61</ele>
        <time>2024-03-20T22:24:55Z</time>
      </trkpt>
      <trkpt lat="50.73264" lon="1.77037">
        <ele>69</ele>
        <time>2024-03-20T22:25:29Z</time>
      </trkpt>
      <trkpt lat="50.73216" lon="1.77071">
        <ele>71</ele>
        <time>2024-03-20T22:25:39Z</time>
      </trkpt>
      <trkpt lat="50.73176" lon="1.77113">
        <ele>73</ele>
        <time>2024-03-20T22:25:47Z</time>
      </trkpt>
      <trkpt lat="50.73054" lon="1.773">
        <ele>80</ele>
        <time>2024-03-20T22:26:17Z</time>
      </trkpt>
      <trkpt lat="50.72907" lon="1.77425">
        <ele>83</ele>
        <time>2024-03-20T22:26:47Z</time>
      </trkpt>
      <trkpt lat="50.72834" lon="1.77482">
        <ele>84</ele>
        <time>2024-03-20T22:27:02Z</time>
      </trkpt>
      <trkpt lat="50.72811" lon="1.77497">
        <ele>85</ele>
        <time>2024-03-20T22:27:06Z</time>
      </trkpt>
      <trkpt lat="50.72774" lon="1.77504">
        <ele>86</ele>
        <time>2024-03-20T22:27:13Z</time>
      </trkpt>
      <trkpt lat="50.72764" lon="1.77519">
        <ele>87</ele>
        <time>2024-03-20T22:27:15Z</time>
      </trkpt>
      <trkpt lat="50.72718" lon="1.77597">
        <ele>90</ele>
        <time>2024-03-20T22:27:27Z</time>
      </trkpt>
      <trkpt lat="50.72691" lon="1.77637">
        <ele>92</ele>
        <time>2024-03-20T22:27:34Z</time>
      </trkpt>
      <trkpt lat="50.72661" lon="1.77679">
        <ele>94</ele>
        <time>2024-03-20T22:27:41Z</time>
      </trkpt>
      <trkpt lat="50.72612" lon="1.7774">
        <ele>96</ele>
        <time>2024-03-20T22:27:52Z</time>
      </trkpt>
      <trkpt lat="50.72588" lon="1.77759">
        <ele>97</ele>
        <time>2024-03-20T22:27:57Z</time>
      </trkpt>
      <trkpt lat="50.72515" lon="1.77804">
        <ele>100</ele>
        <time>2024-03-20T22:28:11Z</time>
      </trkpt>
      <trkpt lat="50.72492" lon="1.77815">
        <ele>101</ele>
        <time>2024-03-20T22:28:15Z</time>
      </trkpt>
      <trkpt lat="50.72478" lon="1.77817">
        <ele>101</ele>
        <time>2024-03-20T22:28:17Z</time>
      </trkpt>
      <trkpt lat="50.72415" lon="1.77794">
        <ele>101</ele>
        <time>2024-03-20T22:28:29Z</time>
      </trkpt>
      <trkpt lat="50.72359" lon="1.77784">
        <ele>101</ele>
        <time>2024-03-20T22:28:39Z</time>
      </trkpt>
      <trkpt lat="50.72317" lon="1.77784">
        <ele>100</ele>
        <time>2024-03-20T22:28:46Z</time>
      </trkpt>
      <trkpt lat="50.72199" lon="1.77798">
        <ele>97</ele>
        <time>2024-03-20T22:29:08Z</time>
      </trkpt>
      <trkpt lat="50.72144" lon="1.7781">
        <ele>96</ele>
        <time>2024-03-20T22:29:17Z</time>
      </trkpt>
      <trkpt lat="50.72047" lon="1.7786">
        <ele>94</ele>
        <time>2024-03-20T22:29:36Z</time>
      </trkpt>
      <trkpt lat="50.718" lon="1.77967">
        <ele>93</ele>
        <time>2024-03-20T22:30:21Z</time>
      </trkpt>
      <trkpt lat="50.71703" lon="1.78018">
        <ele>92</ele>
        <time>2024-03-20T22:30:39Z</time>
      </trkpt>
      <trkpt lat="50.71388" lon="1.78262">
        <ele>93</ele>
        <time>2024-03-20T22:31:42Z</time>
      </trkpt>
      <trkpt lat="50.70957" lon="1.78316">
        <ele>84</ele>
        <time>2024-03-20T22:32:59Z</time>
      </trkpt>
      <trkpt lat="50.70918" lon="1.78317">
        <ele>82</ele>
        <time>2024-03-20T22:33:06Z</time>
      </trkpt>
      <trkpt lat="50.70839" lon="1.78319">
        <ele>80</ele>
        <time>2024-03-20T22:33:20Z</time>
      </trkpt>
      <trkpt lat="50.70601" lon="1.78302">
        <ele>71</ele>
        <time>2024-03-20T22:34:02Z</time>
      </trkpt>
      <trkpt lat="50.70419" lon="1.78272">
        <ele>65</ele>
        <time>2024-03-20T22:34:35Z</time>
      </trkpt>
      <trkpt lat="50.70351" lon="1.78275">
        <ele>62</ele>
        <time>2024-03-20T22:34:47Z</time>
      </trkpt>
      <trkpt lat="50.7033" lon="1.78278">
        <ele>61</ele>
        <time>2024-03-20T22:34:50Z</time>
      </trkpt>
      <trkpt lat="50.70276" lon="1.78307">
        <ele>57</ele>
        <time>2024-03-20T22:35:01Z</time>
      </trkpt>
      <trkpt lat="50.70239" lon="1.78313">
        <ele>55</ele>
        <time>2024-03-20T22:35:07Z</time>
      </trkpt>
      <trkpt lat="50.7019" lon="1.78312">
        <ele>51</ele>
        <time>2024-03-20T22:35:16Z</time>
      </trkpt>
      <trkpt lat="50.70172" lon="1.78321">
        <ele>49</ele>
        <time>2024-03-20T22:35:19Z</time>
      </trkpt>
      <trkpt lat="50.70068" lon="1.78393">
        <ele>38</ele>
        <time>2024-03-20T22:35:40Z</time>
      </trkpt>
      <trkpt lat="50.70055" lon="1.78404">
        <ele>37</ele>
        <time>2024-03-20T22:35:42Z</time>
      </trkpt>
      <trkpt lat="50.70044" lon="1.78421">
        <ele>37</ele>
        <time>2024-03-20T22:35:45Z</time>
      </trkpt>
      <trkpt lat="50.70025" lon="1.78467">
        <ele>35</ele>
        <time>2024-03-20T22:35:51Z</time>
      </trkpt>
      <trkpt lat="50.70013" lon="1.78486">
        <ele>35</ele>
        <time>2024-03-20T22:35:54Z</time>
      </trkpt>
      <trkpt lat="50.69921" lon="1.78543">
        <ele>34</ele>
        <time>2024-03-20T22:36:12Z</time>
      </trkpt>
      <trkpt lat="50.69904" lon="1.78551">
        <ele>35</ele>
        <time>2024-03-20T22:36:15Z</time>
      </trkpt>
      <trkpt lat="50.69908" lon="1.78566">
        <ele>34</ele>
        <time>2024-03-20T22:36:17Z</time>
      </trkpt>
      <trkpt lat="50.69909" lon="1.7858">
        <ele>34</ele>
        <time>2024-03-20T22:36:18Z</time>
      </trkpt>
      <trkpt lat="50.69906" lon="1.78595">
        <ele>34</ele>
        <time>2024-03-20T22:36:20Z</time>
      </trkpt>
      <trkpt lat="50.69897" lon="1.78619">
        <ele>34</ele>
        <time>2024-03-20T22:36:23Z</time>
      </trkpt>
      <trkpt lat="50.69884" lon="1.78639">
        <ele>34</ele>
        <time>2024-03-20T22:36:26Z</time>
      </trkpt>
      <trkpt lat="50.69804" lon="1.78742">
        <ele>31</ele>
        <time>2024-03-20T22:36:45Z</time>
      </trkpt>
      <trkpt lat="50.69767" lon="1.78769">
        <ele>30</ele>
        <time>2024-03-20T22:36:52Z</time>
      </trkpt>
      <trkpt lat="50.69696" lon="1.78811">
        <ele>31</ele>
        <time>2024-03-20T22:37:06Z</time>
      </trkpt>
      <trkpt lat="50.69679" lon="1.78823">
        <ele>32</ele>
        <time>2024-03-20T22:37:09Z</time>
      </trkpt>
      <trkpt lat="50.69632" lon="1.7885">
        <ele>32</ele>
        <time>2024-03-20T22:37:18Z</time>
      </trkpt>
      <trkpt lat="50.69609" lon="1.78847">
        <ele>32</ele>
        <time>2024-03-20T22:37:22Z</time>
      </trkpt>
      <trkpt lat="50.69499" lon="1.78791">
        <ele>34</ele>
        <time>2024-03-20T22:37:42Z</time>
      </trkpt>
      <trkpt lat="50.69407" lon="1.78756">
        <ele>36</ele>
        <time>2024-03-20T22:37:59Z</time>
      </trkpt>
      <trkpt lat="50.69361" lon="1.78737">
        <ele>36</ele>
        <time>2024-03-20T22:38:08Z</time>
      </trkpt>
      <trkpt lat="50.69269" lon="1.78671">
        <ele>34</ele>
        <time>2024-03-20T22:38:26Z</time>
      </trkpt>
      <trkpt lat="50.69224" lon="1.78647">
        <ele>34</ele>
        <time>2024-03-20T22:38:34Z</time>
      </trkpt>
      <trkpt lat="50.69205" lon="1.7864">
        <ele>34</ele>
        <time>2024-03-20T22:38:38Z</time>
      </trkpt>
      <trkpt lat="50.69193" lon="1.78625">
        <ele>33</ele>
        <time>2024-03-20T22:38:40Z</time>
      </trkpt>
      <trkpt lat="50.69171" lon="1.78577">
        <ele>33</ele>
        <time>2024-03-20T22:38:47Z</time>
      </trkpt>
      <trkpt lat="50.69148" lon="1.78546">
        <ele>32</ele>
        <time>2024-03-20T22:38:52Z</time>
      </trkpt>
      <trkpt lat="50.69045" lon="1.78445">
        <ele>30</ele>
        <time>2024-03-20T22:39:14Z</time>
      </trkpt>
      <trkpt lat="50.69037" lon="1.78438">
        <ele>30</ele>
        <time>2024-03-20T22:39:16Z</time>
      </trkpt>
      <trkpt lat="50.68985" lon="1.78385">
        <ele>30</ele>
        <time>2024-03-20T22:39:27Z</time>
      </trkpt>
      <trkpt lat="50.68957" lon="1.78373">
        <ele>31</ele>
        <time>2024-03-20T22:39:32Z</time>
      </trkpt>
      <trkpt lat="50.68863" lon="1.7837">
        <ele>33</ele>
        <time>2024-03-20T22:39:48Z</time>
      </trkpt>
      <trkpt lat="50.68851" lon="1.78372">
        <ele>33</ele>
        <time>2024-03-20T22:39:51Z</time>
      </trkpt>
      <trkpt lat="50.68816" lon="1.78371">
        <ele>35</ele>
        <time>2024-03-20T22:39:57Z</time>
      </trkpt>
      <trkpt lat="50.68792" lon="1.78364">
        <ele>35</ele>
        <time>2024-03-20T22:40:01Z</time>
      </trkpt>
      <trkpt lat="50.68767" lon="1.78353">
        <ele>36</ele>
        <time>2024-03-20T22:40:06Z</time>
      </trkpt>
      <trkpt lat="50.68752" lon="1.78364">
        <ele>36</ele>
        <time>2024-03-20T22:40:09Z</time>
      </trkpt>
      <trkpt lat="50.68735" lon="1.78389">
        <ele>37</ele>
        <time>2024-03-20T22:40:13Z</time>
      </trkpt>
      <trkpt lat="50.68698" lon="1.7846">
        <ele>39</ele>
        <time>2024-03-20T22:40:23Z</time>
      </trkpt>
      <trkpt lat="50.68688" lon="1.78489">
        <ele>39</ele>
        <time>2024-03-20T22:40:27Z</time>
      </trkpt>
      <trkpt lat="50.68685" lon="1.78508">
        <ele>39</ele>
        <time>2024-03-20T22:40:29Z</time>
      </trkpt>
      <trkpt lat="50.68694" lon="1.78558">
        <ele>38</ele>
        <time>2024-03-20T22:40:35Z</time>
      </trkpt>
      <trkpt lat="50.68693" lon="1.78598">
        <ele>38</ele>
        <time>2024-03-20T22:40:40Z</time>
      </trkpt>
      <trkpt lat="50.68669" lon="1.78824">
        <ele>37</ele>
        <time>2024-03-20T22:41:05Z</time>
      </trkpt>
      <trkpt lat="50.68654" lon="1.78932">
        <ele>38</ele>
        <time>2024-03-20T22:41:18Z</time>
      </trkpt>
      <trkpt lat="50.6863" lon="1.79046">
        <ele>37</ele>
        <time>2024-03-20T22:41:31Z</time>
      </trkpt>
      <trkpt lat="50.68621" lon="1.79069">
        <ele>37</ele>
        <time>2024-03-20T22:41:34Z</time>
      </trkpt>
      <trkpt lat="50.68609" lon="1.79084">
        <ele>38</ele>
        <time>2024-03-20T22:41:37Z</time>
      </trkpt>
      <trkpt lat="50.6859" lon="1.79087">
        <ele>39</ele>
        <time>2024-03-20T22:41:41Z</time>
      </trkpt>
      <trkpt lat="50.68492" lon="1.79068">
        <ele>43</ele>
        <time>2024-03-20T22:41:58Z</time>
      </trkpt>
      <trkpt lat="50.68475" lon="1.79079">
        <ele>44</ele>
        <time>2024-03-20T22:42:01Z</time>
      </trkpt>
      <trkpt lat="50.68441" lon="1.79176">
        <ele>45</ele>
        <time>2024-03-20T22:42:14Z</time>
      </trkpt>
      <trkpt lat="50.68439" lon="1.79212">
        <ele>45</ele>
        <time>2024-03-20T22:42:18Z</time>
      </trkpt>
      <trkpt lat="50.68445" lon="1.79283">
        <ele>45</ele>
        <time>2024-03-20T22:42:26Z</time>
      </trkpt>
      <trkpt lat="50.68442" lon="1.79327">
        <ele>46</ele>
        <time>2024-03-20T22:42:31Z</time>
      </trkpt>
      <trkpt lat="50.68427" lon="1.79377">
        <ele>47</ele>
        <time>2024-03-20T22:42:37Z</time>
      </trkpt>
      <trkpt lat="50.68411" lon="1.79451">
        <ele>46</ele>
        <time>2024-03-20T22:42:46Z</time>
      </trkpt>
      <trkpt lat="50.68404" lon="1.79517">
        <ele>45</ele>
        <time>2024-03-20T22:42:54Z</time>
      </trkpt>
      <trkpt lat="50.68403" lon="1.79611">
        <ele>44</ele>
        <time>2024-03-20T22:43:04Z</time>
      </trkpt>
      <trkpt lat="50.68414" lon="1.79708">
        <ele>45</ele>
        <time>2024-03-20T22:43:15Z</time>
      </trkpt>
      <trkpt lat="50.6841" lon="1.79802">
        <ele>47</ele>
        <time>2024-03-20T22:43:26Z</time>
      </trkpt>
      <trkpt lat="50.68397" lon="1.79917">
        <ele>47</ele>
        <time>2024-03-20T22:43:39Z</time>
      </trkpt>
      <trkpt lat="50.68353" lon="1.80073">
        <ele>47</ele>
        <time>2024-03-20T22:43:58Z</time>
      </trkpt>
      <trkpt lat="50.68288" lon="1.80278">
        <ele>53</ele>
        <time>2024-03-20T22:44:24Z</time>
      </trkpt>
      <trkpt lat="50.68242" lon="1.80331">
        <ele>55</ele>
        <time>2024-03-20T22:44:34Z</time>
      </trkpt>
      <trkpt lat="50.68211" lon="1.8036">
        <ele>55</ele>
        <time>2024-03-20T22:44:41Z</time>
      </trkpt>
      <trkpt lat="50.682" lon="1.80391">
        <ele>54</ele>
        <time>2024-03-20T22:44:45Z</time>
      </trkpt>
      <trkpt lat="50.68126" lon="1.80519">
        <ele>52</ele>
        <time>2024-03-20T22:45:04Z</time>
      </trkpt>
      <trkpt lat="50.68071" lon="1.80638">
        <ele>50</ele>
        <time>2024-03-20T22:45:21Z</time>
      </trkpt>
      <trkpt lat="50.68017" lon="1.80738">
        <ele>49</ele>
        <time>2024-03-20T22:45:36Z</time>
      </trkpt>
      <trkpt lat="50.67959" lon="1.81006">
        <ele>52</ele>
        <time>2024-03-20T22:46:08Z</time>
      </trkpt>
      <trkpt lat="50.67934" lon="1.81131">
        <ele>53</ele>
        <time>2024-03-20T22:46:22Z</time>
      </trkpt>
      <trkpt lat="50.67914" lon="1.81202">
        <ele>53</ele>
        <time>2024-03-20T22:46:31Z</time>
      </trkpt>
      <trkpt lat="50.6782" lon="1.81497">
        <ele>64</ele>
        <time>2024-03-20T22:47:08Z</time>
      </trkpt>
      <trkpt lat="50.67674" lon="1.81742">
        <ele>68</ele>
        <time>2024-03-20T22:47:46Z</time>
      </trkpt>
      <trkpt lat="50.67454" lon="1.82038">
        <ele>78</ele>
        <time>2024-03-20T22:48:38Z</time>
      </trkpt>
      <trkpt lat="50.67414" lon="1.82094">
        <ele>82</ele>
        <time>2024-03-20T22:48:47Z</time>
      </trkpt>
      <trkpt lat="50.674" lon="1.82136">
        <ele>81</ele>
        <time>2024-03-20T22:48:53Z</time>
      </trkpt>
      <trkpt lat="50.67394" lon="1.82218">
        <ele>79</ele>
        <time>2024-03-20T22:49:02Z</time>
      </trkpt>
      <trkpt lat="50.67383" lon="1.82253">
        <ele>79</ele>
        <time>2024-03-20T22:49:06Z</time>
      </trkpt>
      <trkpt lat="50.67385" lon="1.82268">
        <ele>79</ele>
        <time>2024-03-20T22:49:08Z</time>
      </trkpt>
      <trkpt lat="50.67386" lon="1.82297">
        <ele>78</ele>
        <time>2024-03-20T22:49:11Z</time>
      </trkpt>
      <trkpt lat="50.67381" lon="1.82315">
        <ele>78</ele>
        <time>2024-03-20T22:49:14Z</time>
      </trkpt>
      <trkpt lat="50.67369" lon="1.82347">
        <ele>79</ele>
        <time>2024-03-20T22:49:18Z</time>
      </trkpt>
      <trkpt lat="50.67342" lon="1.82405">
        <ele>80</ele>
        <time>2024-03-20T22:49:26Z</time>
      </trkpt>
      <trkpt lat="50.67319" lon="1.82434">
        <ele>80</ele>
        <time>2024-03-20T22:49:31Z</time>
      </trkpt>
      <trkpt lat="50.67277" lon="1.82479">
        <ele>80</ele>
        <time>2024-03-20T22:49:40Z</time>
      </trkpt>
      <trkpt lat="50.67227" lon="1.82539">
        <ele>80</ele>
        <time>2024-03-20T22:49:51Z</time>
      </trkpt>
      <trkpt lat="50.6714" lon="1.82646">
        <ele>87</ele>
        <time>2024-03-20T22:50:11Z</time>
      </trkpt>
      <trkpt lat="50.67088" lon="1.82714">
        <ele>87</ele>
        <time>2024-03-20T22:50:23Z</time>
      </trkpt>
      <trkpt lat="50.67026" lon="1.82789">
        <ele>88</ele>
        <time>2024-03-20T22:50:37Z</time>
      </trkpt>
      <trkpt lat="50.66955" lon="1.82832">
        <ele>89</ele>
        <time>2024-03-20T22:50:50Z</time>
      </trkpt>
      <trkpt lat="50.66942" lon="1.82841">
        <ele>89</ele>
        <time>2024-03-20T22:50:53Z</time>
      </trkpt>
      <trkpt lat="50.66957" lon="1.82903">
        <ele>84</ele>
        <time>2024-03-20T22:51:00Z</time>
      </trkpt>
      <trkpt lat="50.66955" lon="1.82931">
        <ele>82</ele>
        <time>2024-03-20T22:51:04Z</time>
      </trkpt>
      <trkpt lat="50.66941" lon="1.82961">
        <ele>82</ele>
        <time>2024-03-20T22:51:08Z</time>
      </trkpt>
      <trkpt lat="50.66929" lon="1.8298">
        <ele>81</ele>
        <time>2024-03-20T22:51:11Z</time>
      </trkpt>
      <trkpt lat="50.66917" lon="1.83003">
        <ele>81</ele>
        <time>2024-03-20T22:51:14Z</time>
      </trkpt>
      <trkpt lat="50.66914" lon="1.83017">
        <ele>82</ele>
        <time>2024-03-20T22:51:16Z</time>
      </trkpt>
      <trkpt lat="50.66909" lon="1.83079">
        <ele>83</ele>
        <time>2024-03-20T22:51:23Z</time>
      </trkpt>
      <trkpt lat="50.66883" lon="1.83078">
        <ele>84</ele>
        <time>2024-03-20T22:51:28Z</time>
      </trkpt>
      <trkpt lat="50.66847" lon="1.8308">
        <ele>86</ele>
        <time>2024-03-20T22:51:34Z</time>
      </trkpt>
      <trkpt lat="50.66814" lon="1.83088">
        <ele>87</ele>
        <time>2024-03-20T22:51:40Z</time>
      </trkpt>
      <trkpt lat="50.66803" lon="1.83094">
        <ele>87</ele>
        <time>2024-03-20T22:51:42Z</time>
      </trkpt>
      <trkpt lat="50.66802" lon="1.83092">
        <ele>87</ele>
        <time>2024-03-20T22:51:42Z</time>
      </trkpt>
      <trkpt lat="50.66803" lon="1.83094">
        <ele>87</ele>
        <time>2024-03-20T22:51:43Z</time>
      </trkpt>
      <trkpt lat="50.66797" lon="1.83097">
        <ele>88</ele>
        <time>2024-03-20T22:51:44Z</time>
      </trkpt>
      <trkpt lat="50.66791" lon="1.83104">
        <ele>88</ele>
        <time>2024-03-20T22:51:45Z</time>
      </trkpt>
      <trkpt lat="50.66747" lon="1.83193">
        <ele>90</ele>
        <time>2024-03-20T22:51:58Z</time>
      </trkpt>
      <trkpt lat="50.66727" lon="1.83188">
        <ele>90</ele>
        <time>2024-03-20T22:52:01Z</time>
      </trkpt>
      <trkpt lat="50.66705" lon="1.83182">
        <ele>89</ele>
        <time>2024-03-20T22:52:05Z</time>
      </trkpt>
      <trkpt lat="50.66671" lon="1.83184">
        <ele>89</ele>
        <time>2024-03-20T22:52:11Z</time>
      </trkpt>
      <trkpt lat="50.66531" lon="1.83283">
        <ele>97</ele>
        <time>2024-03-20T22:52:39Z</time>
      </trkpt>
      <trkpt lat="50.6653" lon="1.83284">
        <ele>97</ele>
        <time>2024-03-20T22:52:39Z</time>
      </trkpt>
      <trkpt lat="50.6643" lon="1.83136">
        <ele>101</ele>
        <time>2024-03-20T22:53:03Z</time>
      </trkpt>
      <trkpt lat="50.66427" lon="1.83133">
        <ele>101</ele>
        <time>2024-03-20T22:53:04Z</time>
      </trkpt>
      <trkpt lat="50.66404" lon="1.83177">
        <ele>101</ele>
        <time>2024-03-20T22:53:10Z</time>
      </trkpt>
      <trkpt lat="50.66324" lon="1.83346">
        <ele>106</ele>
        <time>2024-03-20T22:53:34Z</time>
      </trkpt>
      <trkpt lat="50.66306" lon="1.83381">
        <ele>107</ele>
        <time>2024-03-20T22:53:39Z</time>
      </trkpt>
      <trkpt lat="50.66313" lon="1.83383">
        <ele>107</ele>
        <time>2024-03-20T22:53:40Z</time>
      </trkpt>
      <trkpt lat="50.66316" lon="1.83371">
        <ele>106</ele>
        <time>2024-03-20T22:53:42Z</time>
      </trkpt>
      <trkpt lat="50.66324" lon="1.83346">
        <ele>106</ele>
        <time>2024-03-20T22:53:45Z</time>
      </trkpt>
      <trkpt lat="50.66306" lon="1.83381">
        <ele>107</ele>
        <time>2024-03-20T22:53:50Z</time>
      </trkpt>
      <trkpt lat="50.663" lon="1.83396">
        <ele>107</ele>
        <time>2024-03-20T22:53:52Z</time>
      </trkpt>
      <trkpt lat="50.66298" lon="1.83397">
        <ele>107</ele>
        <time>2024-03-20T22:53:53Z</time>
      </trkpt>
      <trkpt lat="50.66277" lon="1.83406">
        <ele>108</ele>
        <time>2024-03-20T22:53:56Z</time>
      </trkpt>
      <trkpt lat="50.66172" lon="1.83443">
        <ele>111</ele>
        <time>2024-03-20T22:54:16Z</time>
      </trkpt>
      <trkpt lat="50.6609" lon="1.83475">
        <ele>107</ele>
        <time>2024-03-20T22:54:31Z</time>
      </trkpt>
      <trkpt lat="50.66072" lon="1.83485">
        <ele>107</ele>
        <time>2024-03-20T22:54:34Z</time>
      </trkpt>
      <trkpt lat="50.65985" lon="1.83553">
        <ele>108</ele>
        <time>2024-03-20T22:54:51Z</time>
      </trkpt>
      <trkpt lat="50.65949" lon="1.83574">
        <ele>108</ele>
        <time>2024-03-20T22:54:58Z</time>
      </trkpt>
      <trkpt lat="50.65825" lon="1.83625">
        <ele>108</ele>
        <time>2024-03-20T22:55:21Z</time>
      </trkpt>
      <trkpt lat="50.65805" lon="1.83637">
        <ele>108</ele>
        <time>2024-03-20T22:55:25Z</time>
      </trkpt>
      <trkpt lat="50.65788" lon="1.83655">
        <ele>109</ele>
        <time>2024-03-20T22:55:28Z</time>
      </trkpt>
      <trkpt lat="50.65775" lon="1.83675">
        <ele>110</ele>
        <time>2024-03-20T22:55:32Z</time>
      </trkpt>
      <trkpt lat="50.65727" lon="1.83779">
        <ele>116</ele>
        <time>2024-03-20T22:55:46Z</time>
      </trkpt>
      <trkpt lat="50.65711" lon="1.83825">
        <ele>119</ele>
        <time>2024-03-20T22:55:52Z</time>
      </trkpt>
      <trkpt lat="50.65704" lon="1.83851">
        <ele>119</ele>
        <time>2024-03-20T22:55:55Z</time>
      </trkpt>
      <trkpt lat="50.65696" lon="1.83896">
        <ele>120</ele>
        <time>2024-03-20T22:56:00Z</time>
      </trkpt>
      <trkpt lat="50.65671" lon="1.84124">
        <ele>131</ele>
        <time>2024-03-20T22:56:27Z</time>
      </trkpt>
      <trkpt lat="50.65666" lon="1.84163">
        <ele>134</ele>
        <time>2024-03-20T22:56:31Z</time>
      </trkpt>
      <trkpt lat="50.65639" lon="1.84155">
        <ele>137</ele>
        <time>2024-03-20T22:56:36Z</time>
      </trkpt>
      <trkpt lat="50.65616" lon="1.84145">
        <ele>139</ele>
        <time>2024-03-20T22:56:40Z</time>
      </trkpt>
      <trkpt lat="50.65565" lon="1.84115">
        <ele>145</ele>
        <time>2024-03-20T22:56:50Z</time>
      </trkpt>
      <trkpt lat="50.65554" lon="1.84108">
        <ele>148</ele>
        <time>2024-03-20T22:56:52Z</time>
      </trkpt>
      <trkpt lat="50.6554" lon="1.84097">
        <ele>151</ele>
        <time>2024-03-20T22:56:55Z</time>
      </trkpt>
      <trkpt lat="50.65527" lon="1.8408">
        <ele>153</ele>
        <time>2024-03-20T22:56:58Z</time>
      </trkpt>
      <trkpt lat="50.65514" lon="1.84059">
        <ele>154</ele>
        <time>2024-03-20T22:57:01Z</time>
      </trkpt>
      <trkpt lat="50.65371" lon="1.83767">
        <ele>166</ele>
        <time>2024-03-20T22:57:43Z</time>
      </trkpt>
      <trkpt lat="50.65361" lon="1.8375">
        <ele>167</ele>
        <time>2024-03-20T22:57:45Z</time>
      </trkpt>
      <trkpt lat="50.65352" lon="1.8374">
        <ele>169</ele>
        <time>2024-03-20T22:57:47Z</time>
      </trkpt>
      <trkpt lat="50.65326" lon="1.83721">
        <ele>174</ele>
        <time>2024-03-20T22:57:52Z</time>
      </trkpt>
      <trkpt lat="50.65306" lon="1.83714">
        <ele>175</ele>
        <time>2024-03-20T22:57:56Z</time>
      </trkpt>
      <trkpt lat="50.65201" lon="1.83693">
        <ele>179</ele>
        <time>2024-03-20T22:58:15Z</time>
      </trkpt>
      <trkpt lat="50.65177" lon="1.83692">
        <ele>179</ele>
        <time>2024-03-20T22:58:19Z</time>
      </trkpt>
      <trkpt lat="50.65143" lon="1.83695">
        <ele>178</ele>
        <time>2024-03-20T22:58:25Z</time>
      </trkpt>
      <trkpt lat="50.65101" lon="1.83704">
        <ele>178</ele>
        <time>2024-03-20T22:58:33Z</time>
      </trkpt>
      <trkpt lat="50.65059" lon="1.83719">
        <ele>177</ele>
        <time>2024-03-20T22:58:40Z</time>
      </trkpt>
      <trkpt lat="50.65012" lon="1.83738">
        <ele>177</ele>
        <time>2024-03-20T22:58:49Z</time>
      </trkpt>
      <trkpt lat="50.64893" lon="1.83813">
        <ele>174</ele>
        <time>2024-03-20T22:59:12Z</time>
      </trkpt>
      <trkpt lat="50.64813" lon="1.83837">
        <ele>168</ele>
        <time>2024-03-20T22:59:26Z</time>
      </trkpt>
      <trkpt lat="50.64774" lon="1.83856">
        <ele>163</ele>
        <time>2024-03-20T22:59:34Z</time>
      </trkpt>
      <trkpt lat="50.64727" lon="1.8389">
        <ele>160</ele>
        <time>2024-03-20T22:59:43Z</time>
      </trkpt>
      <trkpt lat="50.64707" lon="1.8391">
        <ele>159</ele>
        <time>2024-03-20T22:59:47Z</time>
      </trkpt>
      <trkpt lat="50.64667" lon="1.83973">
        <ele>156</ele>
        <time>2024-03-20T22:59:57Z</time>
      </trkpt>
      <trkpt lat="50.64649" lon="1.83997">
        <ele>156</ele>
        <time>2024-03-20T23:00:01Z</time>
      </trkpt>
      <trkpt lat="50.64608" lon="1.84034">
        <ele>155</ele>
        <time>2024-03-20T23:00:10Z</time>
      </trkpt>
      <trkpt lat="50.64567" lon="1.84065">
        <ele>153</ele>
        <time>2024-03-20T23:00:18Z</time>
      </trkpt>
      <trkpt lat="50.64547" lon="1.84074">
        <ele>152</ele>
        <time>2024-03-20T23:00:21Z</time>
      </trkpt>
      <trkpt lat="50.6447" lon="1.84078">
        <ele>151</ele>
        <time>2024-03-20T23:00:35Z</time>
      </trkpt>
      <trkpt lat="50.64233" lon="1.84147">
        <ele>140</ele>
        <time>2024-03-20T23:01:18Z</time>
      </trkpt>
      <trkpt lat="50.64218" lon="1.84153">
        <ele>140</ele>
        <time>2024-03-20T23:01:21Z</time>
      </trkpt>
      <trkpt lat="50.6419" lon="1.84168">
        <ele>139</ele>
        <time>2024-03-20T23:01:26Z</time>
      </trkpt>
      <trkpt lat="50.64109" lon="1.84224">
        <ele>135</ele>
        <time>2024-03-20T23:01:42Z</time>
      </trkpt>
      <trkpt lat="50.64071" lon="1.84238">
        <ele>133</ele>
        <time>2024-03-20T23:01:49Z</time>
      </trkpt>
      <trkpt lat="50.63758" lon="1.84241">
        <ele>125</ele>
        <time>2024-03-20T23:02:44Z</time>
      </trkpt>
      <trkpt lat="50.63719" lon="1.84236">
        <ele>125</ele>
        <time>2024-03-20T23:02:51Z</time>
      </trkpt>
      <trkpt lat="50.6357" lon="1.84204">
        <ele>125</ele>
        <time>2024-03-20T23:03:18Z</time>
      </trkpt>
      <trkpt lat="50.63535" lon="1.84205">
        <ele>125</ele>
        <time>2024-03-20T23:03:24Z</time>
      </trkpt>
      <trkpt lat="50.63311" lon="1.84235">
        <ele>126</ele>
        <time>2024-03-20T23:04:04Z</time>
      </trkpt>
      <trkpt lat="50.63259" lon="1.84234">
        <ele>125</ele>
        <time>2024-03-20T23:04:14Z</time>
      </trkpt>
      <trkpt lat="50.63127" lon="1.84212">
        <ele>124</ele>
        <time>2024-03-20T23:04:37Z</time>
      </trkpt>
      <trkpt lat="50.62909" lon="1.84196">
        <ele>117</ele>
        <time>2024-03-20T23:05:16Z</time>
      </trkpt>
      <trkpt lat="50.62885" lon="1.84199">
        <ele>116</ele>
        <time>2024-03-20T23:05:20Z</time>
      </trkpt>
      <trkpt lat="50.62865" lon="1.84209">
        <ele>115</ele>
        <time>2024-03-20T23:05:24Z</time>
      </trkpt>
      <trkpt lat="50.62776" lon="1.84273">
        <ele>110</ele>
        <time>2024-03-20T23:05:41Z</time>
      </trkpt>
      <trkpt lat="50.62723" lon="1.84289">
        <ele>109</ele>
        <time>2024-03-20T23:05:51Z</time>
      </trkpt>
      <trkpt lat="50.62657" lon="1.84303">
        <ele>109</ele>
        <time>2024-03-20T23:06:03Z</time>
      </trkpt>
      <trkpt lat="50.62632" lon="1.84312">
        <ele>108</ele>
        <time>2024-03-20T23:06:07Z</time>
      </trkpt>
      <trkpt lat="50.62568" lon="1.84346">
        <ele>107</ele>
        <time>2024-03-20T23:06:19Z</time>
      </trkpt>
      <trkpt lat="50.62553" lon="1.84348">
        <ele>107</ele>
        <time>2024-03-20T23:06:22Z</time>
      </trkpt>
      <trkpt lat="50.62533" lon="1.84342">
        <ele>107</ele>
        <time>2024-03-20T23:06:26Z</time>
      </trkpt>
      <trkpt lat="50.62428" lon="1.84281">
        <ele>104</ele>
        <time>2024-03-20T23:06:46Z</time>
      </trkpt>
      <trkpt lat="50.62337" lon="1.84255">
        <ele>102</ele>
        <time>2024-03-20T23:07:02Z</time>
      </trkpt>
      <trkpt lat="50.62299" lon="1.84242">
        <ele>101</ele>
        <time>2024-03-20T23:07:09Z</time>
      </trkpt>
      <trkpt lat="50.62293" lon="1.8424">
        <ele>101</ele>
        <time>2024-03-20T23:07:10Z</time>
      </trkpt>
      <trkpt lat="50.62266" lon="1.84223">
        <ele>101</ele>
        <time>2024-03-20T23:07:15Z</time>
      </trkpt>
      <trkpt lat="50.62251" lon="1.84206">
        <ele>102</ele>
        <time>2024-03-20T23:07:19Z</time>
      </trkpt>
      <trkpt lat="50.62243" lon="1.84194">
        <ele>102</ele>
        <time>2024-03-20T23:07:21Z</time>
      </trkpt>
      <trkpt lat="50.62154" lon="1.84006">
        <ele>105</ele>
        <time>2024-03-20T23:07:47Z</time>
      </trkpt>
      <trkpt lat="50.62136" lon="1.83973">
        <ele>104</ele>
        <time>2024-03-20T23:07:52Z</time>
      </trkpt>
      <trkpt lat="50.62067" lon="1.83886">
        <ele>101</ele>
        <time>2024-03-20T23:08:08Z</time>
      </trkpt>
      <trkpt lat="50.62017" lon="1.83819">
        <ele>101</ele>
        <time>2024-03-20T23:08:19Z</time>
      </trkpt>
      <trkpt lat="50.61899" lon="1.83626">
        <ele>98</ele>
        <time>2024-03-20T23:08:50Z</time>
      </trkpt>
      <trkpt lat="50.61872" lon="1.83584">
        <ele>98</ele>
        <time>2024-03-20T23:08:56Z</time>
      </trkpt>
      <trkpt lat="50.61823" lon="1.83512">
        <ele>99</ele>
        <time>2024-03-20T23:09:08Z</time>
      </trkpt>
      <trkpt lat="50.61765" lon="1.83438">
        <ele>97</ele>
        <time>2024-03-20T23:09:22Z</time>
      </trkpt>
      <trkpt lat="50.61744" lon="1.83421">
        <ele>97</ele>
        <time>2024-03-20T23:09:26Z</time>
      </trkpt>
      <trkpt lat="50.61723" lon="1.83411">
        <ele>96</ele>
        <time>2024-03-20T23:09:30Z</time>
      </trkpt>
      <trkpt lat="50.61662" lon="1.83389">
        <ele>93</ele>
        <time>2024-03-20T23:09:41Z</time>
      </trkpt>
      <trkpt lat="50.61644" lon="1.83377">
        <ele>92</ele>
        <time>2024-03-20T23:09:44Z</time>
      </trkpt>
      <trkpt lat="50.61628" lon="1.8336">
        <ele>92</ele>
        <time>2024-03-20T23:09:48Z</time>
      </trkpt>
      <trkpt lat="50.61587" lon="1.833">
        <ele>91</ele>
        <time>2024-03-20T23:09:58Z</time>
      </trkpt>
      <trkpt lat="50.61574" lon="1.83288">
        <ele>90</ele>
        <time>2024-03-20T23:10:00Z</time>
      </trkpt>
      <trkpt lat="50.61554" lon="1.83276">
        <ele>90</ele>
        <time>2024-03-20T23:10:04Z</time>
      </trkpt>
      <trkpt lat="50.61534" lon="1.83259">
        <ele>90</ele>
        <time>2024-03-20T23:10:08Z</time>
      </trkpt>
      <trkpt lat="50.61384" lon="1.83086">
        <ele>89</ele>
        <time>2024-03-20T23:10:41Z</time>
      </trkpt>
      <trkpt lat="50.61364" lon="1.83065">
        <ele>89</ele>
        <time>2024-03-20T23:10:46Z</time>
      </trkpt>
      <trkpt lat="50.61352" lon="1.83055">
        <ele>88</ele>
        <time>2024-03-20T23:10:48Z</time>
      </trkpt>
      <trkpt lat="50.61339" lon="1.83047">
        <ele>88</ele>
        <time>2024-03-20T23:10:50Z</time>
      </trkpt>
      <trkpt lat="50.6132" lon="1.8304">
        <ele>88</ele>
        <time>2024-03-20T23:10:54Z</time>
      </trkpt>
      <trkpt lat="50.61256" lon="1.83023">
        <ele>87</ele>
        <time>2024-03-20T23:11:05Z</time>
      </trkpt>
      <trkpt lat="50.6115" lon="1.82972">
        <ele>88</ele>
        <time>2024-03-20T23:11:25Z</time>
      </trkpt>
      <trkpt lat="50.61139" lon="1.82969">
        <ele>88</ele>
        <time>2024-03-20T23:11:27Z</time>
      </trkpt>
      <trkpt lat="50.61122" lon="1.82964">
        <ele>88</ele>
        <time>2024-03-20T23:11:30Z</time>
      </trkpt>
      <trkpt lat="50.61105" lon="1.82966">
        <ele>88</ele>
        <time>2024-03-20T23:11:33Z</time>
      </trkpt>
      <trkpt lat="50.61004" lon="1.83013">
        <ele>86</ele>
        <time>2024-03-20T23:11:52Z</time>
      </trkpt>
      <trkpt lat="50.60982" lon="1.83015">
        <ele>86</ele>
        <time>2024-03-20T23:11:56Z</time>
      </trkpt>
      <trkpt lat="50.6093" lon="1.83007">
        <ele>86</ele>
        <time>2024-03-20T23:12:05Z</time>
      </trkpt>
      <trkpt lat="50.60883" lon="1.83005">
        <ele>85</ele>
        <time>2024-03-20T23:12:14Z</time>
      </trkpt>
      <trkpt lat="50.60872" lon="1.83004">
        <ele>85</ele>
        <time>2024-03-20T23:12:16Z</time>
      </trkpt>
      <trkpt lat="50.60871" lon="1.83011">
        <ele>85</ele>
        <time>2024-03-20T23:12:16Z</time>
      </trkpt>
      <trkpt lat="50.6086" lon="1.8303">
        <ele>85</ele>
        <time>2024-03-20T23:12:19Z</time>
      </trkpt>
      <trkpt lat="50.60854" lon="1.8305">
        <ele>86</ele>
        <time>2024-03-20T23:12:22Z</time>
      </trkpt>
      <trkpt lat="50.60859" lon="1.8311">
        <ele>88</ele>
        <time>2024-03-20T23:12:29Z</time>
      </trkpt>
      <trkpt lat="50.60866" lon="1.83163">
        <ele>91</ele>
        <time>2024-03-20T23:12:35Z</time>
      </trkpt>
      <trkpt lat="50.60866" lon="1.83176">
        <ele>92</ele>
        <time>2024-03-20T23:12:36Z</time>
      </trkpt>
      <trkpt lat="50.60864" lon="1.83185">
        <ele>92</ele>
        <time>2024-03-20T23:12:37Z</time>
      </trkpt>
      <trkpt lat="50.60859" lon="1.83193">
        <ele>93</ele>
        <time>2024-03-20T23:12:39Z</time>
      </trkpt>
      <trkpt lat="50.60846" lon="1.83201">
        <ele>93</ele>
        <time>2024-03-20T23:12:41Z</time>
      </trkpt>
      <trkpt lat="50.6073" lon="1.83214">
        <ele>93</ele>
        <time>2024-03-20T23:13:02Z</time>
      </trkpt>
      <trkpt lat="50.60461" lon="1.83239">
        <ele>108</ele>
        <time>2024-03-20T23:13:50Z</time>
      </trkpt>
      <trkpt lat="50.60442" lon="1.83242">
        <ele>109</ele>
        <time>2024-03-20T23:13:53Z</time>
      </trkpt>
      <trkpt lat="50.60409" lon="1.83255">
        <ele>111</ele>
        <time>2024-03-20T23:13:59Z</time>
      </trkpt>
      <trkpt lat="50.604" lon="1.83256">
        <ele>111</ele>
        <time>2024-03-20T23:14:01Z</time>
      </trkpt>
      <trkpt lat="50.60385" lon="1.83251">
        <ele>110</ele>
        <time>2024-03-20T23:14:03Z</time>
      </trkpt>
      <trkpt lat="50.60376" lon="1.83243">
        <ele>109</ele>
        <time>2024-03-20T23:14:05Z</time>
      </trkpt>
      <trkpt lat="50.60368" lon="1.83233">
        <ele>109</ele>
        <time>2024-03-20T23:14:07Z</time>
      </trkpt>
      <trkpt lat="50.60173" lon="1.82876">
        <ele>95</ele>
        <time>2024-03-20T23:15:00Z</time>
      </trkpt>
      <trkpt lat="50.60153" lon="1.82856">
        <ele>95</ele>
        <time>2024-03-20T23:15:05Z</time>
      </trkpt>
      <trkpt lat="50.60138" lon="1.82854">
        <ele>95</ele>
        <time>2024-03-20T23:15:07Z</time>
      </trkpt>
      <trkpt lat="50.60107" lon="1.82862">
        <ele>94</ele>
        <time>2024-03-20T23:15:13Z</time>
      </trkpt>
      <trkpt lat="50.60065" lon="1.82875">
        <ele>92</ele>
        <time>2024-03-20T23:15:20Z</time>
      </trkpt>
      <trkpt lat="50.59953" lon="1.82919">
        <ele>84</ele>
        <time>2024-03-20T23:15:41Z</time>
      </trkpt>
      <trkpt lat="50.59931" lon="1.82924">
        <ele>83</ele>
        <time>2024-03-20T23:15:45Z</time>
      </trkpt>
      <trkpt lat="50.59898" lon="1.82927">
        <ele>81</ele>
        <time>2024-03-20T23:15:51Z</time>
      </trkpt>
      <trkpt lat="50.5984" lon="1.82926">
        <ele>78</ele>
        <time>2024-03-20T23:16:01Z</time>
      </trkpt>
      <trkpt lat="50.59818" lon="1.8293">
        <ele>77</ele>
        <time>2024-03-20T23:16:05Z</time>
      </trkpt>
      <trkpt lat="50.59797" lon="1.82937">
        <ele>75</ele>
        <time>2024-03-20T23:16:09Z</time>
      </trkpt>
      <trkpt lat="50.5976" lon="1.82982">
        <ele>73</ele>
        <time>2024-03-20T23:16:17Z</time>
      </trkpt>
      <trkpt lat="50.59751" lon="1.82987">
        <ele>72</ele>
        <time>2024-03-20T23:16:19Z</time>
      </trkpt>
      <trkpt lat="50.59742" lon="1.82982">
        <ele>72</ele>
        <time>2024-03-20T23:16:21Z</time>
      </trkpt>
      <trkpt lat="50.59737" lon="1.82974">
        <ele>72</ele>
        <time>2024-03-20T23:16:22Z</time>
      </trkpt>
      <trkpt lat="50.59612" lon="1.82746">
        <ele>72</ele>
        <time>2024-03-20T23:16:56Z</time>
      </trkpt>
      <trkpt lat="50.59604" lon="1.82718">
        <ele>72</ele>
        <time>2024-03-20T23:16:59Z</time>
      </trkpt>
      <trkpt lat="50.59599" lon="1.82676">
        <ele>73</ele>
        <time>2024-03-20T23:17:04Z</time>
      </trkpt>
      <trkpt lat="50.59594" lon="1.82658">
        <ele>73</ele>
        <time>2024-03-20T23:17:06Z</time>
      </trkpt>
      <trkpt lat="50.59585" lon="1.82638">
        <ele>74</ele>
        <time>2024-03-20T23:17:09Z</time>
      </trkpt>
      <trkpt lat="50.59566" lon="1.82618">
        <ele>74</ele>
        <time>2024-03-20T23:17:13Z</time>
      </trkpt>
      <trkpt lat="50.59505" lon="1.82578">
        <ele>72</ele>
        <time>2024-03-20T23:17:25Z</time>
      </trkpt>
      <trkpt lat="50.59493" lon="1.82574">
        <ele>71</ele>
        <time>2024-03-20T23:17:27Z</time>
      </trkpt>
      <trkpt lat="50.59409" lon="1.82559">
        <ele>70</ele>
        <time>2024-03-20T23:17:42Z</time>
      </trkpt>
      <trkpt lat="50.59394" lon="1.82554">
        <ele>70</ele>
        <time>2024-03-20T23:17:45Z</time>
      </trkpt>
      <trkpt lat="50.59357" lon="1.82524">
        <ele>70</ele>
        <time>2024-03-20T23:17:52Z</time>
      </trkpt>
      <trkpt lat="50.59348" lon="1.82519">
        <ele>69</ele>
        <time>2024-03-20T23:17:54Z</time>
      </trkpt>
      <trkpt lat="50.59336" lon="1.82516">
        <ele>69</ele>
        <time>2024-03-20T23:17:56Z</time>
      </trkpt>
      <trkpt lat="50.59319" lon="1.8252">
        <ele>69</ele>
        <time>2024-03-20T23:17:59Z</time>
      </trkpt>
      <trkpt lat="50.59278" lon="1.82555">
        <ele>71</ele>
        <time>2024-03-20T23:18:08Z</time>
      </trkpt>
      <trkpt lat="50.5927" lon="1.82559">
        <ele>71</ele>
        <time>2024-03-20T23:18:09Z</time>
      </trkpt>
      <trkpt lat="50.5924" lon="1.82559">
        <ele>72</ele>
        <time>2024-03-20T23:18:14Z</time>
      </trkpt>
      <trkpt lat="50.59162" lon="1.82545">
        <ele>76</ele>
        <time>2024-03-20T23:18:28Z</time>
      </trkpt>
      <trkpt lat="50.59103" lon="1.82539">
        <ele>77</ele>
        <time>2024-03-20T23:18:39Z</time>
      </trkpt>
      <trkpt lat="50.58994" lon="1.8256">
        <ele>73</ele>
        <time>2024-03-20T23:18:58Z</time>
      </trkpt>
      <trkpt lat="50.58973" lon="1.82568">
        <ele>72</ele>
        <time>2024-03-20T23:19:02Z</time>
      </trkpt>
      <trkpt lat="50.58953" lon="1.8258">
        <ele>72</ele>
        <time>2024-03-20T23:19:06Z</time>
      </trkpt>
      <trkpt lat="50.58923" lon="1.82604">
        <ele>71</ele>
        <time>2024-03-20T23:19:12Z</time>
      </trkpt>
      <trkpt lat="50.58909" lon="1.8261">
        <ele>71</ele>
        <time>2024-03-20T23:19:15Z</time>
      </trkpt>
      <trkpt lat="50.58894" lon="1.82613">
        <ele>72</ele>
        <time>2024-03-20T23:19:17Z</time>
      </trkpt>
      <trkpt lat="50.58879" lon="1.82612">
        <ele>72</ele>
        <time>2024-03-20T23:19:20Z</time>
      </trkpt>
      <trkpt lat="50.58802" lon="1.82597">
        <ele>71</ele>
        <time>2024-03-20T23:19:34Z</time>
      </trkpt>
      <trkpt lat="50.58762" lon="1.82594">
        <ele>70</ele>
        <time>2024-03-20T23:19:41Z</time>
      </trkpt>
      <trkpt lat="50.58701" lon="1.82596">
        <ele>67</ele>
        <time>2024-03-20T23:19:52Z</time>
      </trkpt>
      <trkpt lat="50.586" lon="1.82611">
        <ele>65</ele>
        <time>2024-03-20T23:20:10Z</time>
      </trkpt>
      <trkpt lat="50.58456" lon="1.82638">
        <ele>62</ele>
        <time>2024-03-20T23:20:36Z</time>
      </trkpt>
      <trkpt lat="50.58335" lon="1.82671">
        <ele>61</ele>
        <time>2024-03-20T23:20:57Z</time>
      </trkpt>
      <trkpt lat="50.58241" lon="1.8269">
        <ele>62</ele>
        <time>2024-03-20T23:21:14Z</time>
      </trkpt>
      <trkpt lat="50.58215" lon="1.82689">
        <ele>61</ele>
        <time>2024-03-20T23:21:19Z</time>
      </trkpt>
      <trkpt lat="50.58164" lon="1.82682">
        <ele>59</ele>
        <time>2024-03-20T23:21:28Z</time>
      </trkpt>
      <trkpt lat="50.5814" lon="1.82677">
        <ele>58</ele>
        <time>2024-03-20T23:21:32Z</time>
      </trkpt>
      <trkpt lat="50.58095" lon="1.82662">
        <ele>56</ele>
        <time>2024-03-20T23:21:41Z</time>
      </trkpt>
      <trkpt lat="50.58074" lon="1.82659">
        <ele>55</ele>
        <time>2024-03-20T23:21:44Z</time>
      </trkpt>
      <trkpt lat="50.58003" lon="1.82671">
        <ele>54</ele>
        <time>2024-03-20T23:21:57Z</time>
      </trkpt>
      <trkpt lat="50.57952" lon="1.82674">
        <ele>55</ele>
        <time>2024-03-20T23:22:06Z</time>
      </trkpt>
      <trkpt lat="50.57908" lon="1.82666">
        <ele>55</ele>
        <time>2024-03-20T23:22:14Z</time>
      </trkpt>
      <trkpt lat="50.57892" lon="1.82669">
        <ele>55</ele>
        <time>2024-03-20T23:22:17Z</time>
      </trkpt>
      <trkpt lat="50.57876" lon="1.82676">
        <ele>55</ele>
        <time>2024-03-20T23:22:20Z</time>
      </trkpt>
      <trkpt lat="50.57844" lon="1.82696">
        <ele>55</ele>
        <time>2024-03-20T23:22:26Z</time>
      </trkpt>
      <trkpt lat="50.57824" lon="1.82715">
        <ele>56</ele>
        <time>2024-03-20T23:22:30Z</time>
      </trkpt>
      <trkpt lat="50.57797" lon="1.82758">
        <ele>56</ele>
        <time>2024-03-20T23:22:37Z</time>
      </trkpt>
      <trkpt lat="50.57778" lon="1.82799">
        <ele>57</ele>
        <time>2024-03-20T23:22:43Z</time>
      </trkpt>
      <trkpt lat="50.5775" lon="1.82868">
        <ele>57</ele>
        <time>2024-03-20T23:22:52Z</time>
      </trkpt>
      <trkpt lat="50.57736" lon="1.82893">
        <ele>57</ele>
        <time>2024-03-20T23:22:56Z</time>
      </trkpt>
      <trkpt lat="50.57721" lon="1.82909">
        <ele>57</ele>
        <time>2024-03-20T23:22:59Z</time>
      </trkpt>
      <trkpt lat="50.57684" lon="1.82932">
        <ele>55</ele>
        <time>2024-03-20T23:23:06Z</time>
      </trkpt>
      <trkpt lat="50.57643" lon="1.82967">
        <ele>53</ele>
        <time>2024-03-20T23:23:14Z</time>
      </trkpt>
      <trkpt lat="50.57626" lon="1.82979">
        <ele>53</ele>
        <time>2024-03-20T23:23:18Z</time>
      </trkpt>
      <trkpt lat="50.5762" lon="1.8298">
        <ele>53</ele>
        <time>2024-03-20T23:23:19Z</time>
      </trkpt>
      <trkpt lat="50.57617" lon="1.82989">
        <ele>53</ele>
        <time>2024-03-20T23:23:20Z</time>
      </trkpt>
      <trkpt lat="50.57614" lon="1.82997">
        <ele>52</ele>
        <time>2024-03-20T23:23:21Z</time>
      </trkpt>
      <trkpt lat="50.57566" lon="1.83039">
        <ele>52</ele>
        <time>2024-03-20T23:23:31Z</time>
      </trkpt>
      <trkpt lat="50.57537" lon="1.83075">
        <ele>52</ele>
        <time>2024-03-20T23:23:37Z</time>
      </trkpt>
      <trkpt lat="50.5743" lon="1.83163">
        <ele>55</ele>
        <time>2024-03-20T23:23:59Z</time>
      </trkpt>
      <trkpt lat="50.57353" lon="1.83215">
        <ele>57</ele>
        <time>2024-03-20T23:24:14Z</time>
      </trkpt>
      <trkpt lat="50.57315" lon="1.8325">
        <ele>57</ele>
        <time>2024-03-20T23:24:21Z</time>
      </trkpt>
      <trkpt lat="50.5729" lon="1.83287">
        <ele>56</ele>
        <time>2024-03-20T23:24:28Z</time>
      </trkpt>
      <trkpt lat="50.57281" lon="1.83322">
        <ele>57</ele>
        <time>2024-03-20T23:24:32Z</time>
      </trkpt>
      <trkpt lat="50.57276" lon="1.83362">
        <ele>58</ele>
        <time>2024-03-20T23:24:36Z</time>
      </trkpt>
      <trkpt lat="50.57272" lon="1.83435">
        <ele>61</ele>
        <time>2024-03-20T23:24:45Z</time>
      </trkpt>
      <trkpt lat="50.57271" lon="1.83485">
        <ele>61</ele>
        <time>2024-03-20T23:24:50Z</time>
      </trkpt>
      <trkpt lat="50.57277" lon="1.83527">
        <ele>61</ele>
        <time>2024-03-20T23:24:55Z</time>
      </trkpt>
      <trkpt lat="50.57281" lon="1.83581">
        <ele>61</ele>
        <time>2024-03-20T23:25:01Z</time>
      </trkpt>
      <trkpt lat="50.57282" lon="1.8364">
        <ele>60</ele>
        <time>2024-03-20T23:25:08Z</time>
      </trkpt>
      <trkpt lat="50.57275" lon="1.83682">
        <ele>60</ele>
        <time>2024-03-20T23:25:13Z</time>
      </trkpt>
      <trkpt lat="50.57254" lon="1.83676">
        <ele>57</ele>
        <time>2024-03-20T23:25:17Z</time>
      </trkpt>
      <trkpt lat="50.57166" lon="1.83672">
        <ele>53</ele>
        <time>2024-03-20T23:25:32Z</time>
      </trkpt>
      <trkpt lat="50.57139" lon="1.83718">
        <ele>52</ele>
        <time>2024-03-20T23:25:39Z</time>
      </trkpt>
      <trkpt lat="50.57128" lon="1.83732">
        <ele>52</ele>
        <time>2024-03-20T23:25:42Z</time>
      </trkpt>
      <trkpt lat="50.57093" lon="1.83754">
        <ele>51</ele>
        <time>2024-03-20T23:25:49Z</time>
      </trkpt>
      <trkpt lat="50.57084" lon="1.83759">
        <ele>51</ele>
        <time>2024-03-20T23:25:50Z</time>
      </trkpt>
      <trkpt lat="50.57079" lon="1.83762">
        <ele>51</ele>
        <time>2024-03-20T23:25:51Z</time>
      </trkpt>
      <trkpt lat="50.57078" lon="1.83773">
        <ele>51</ele>
        <time>2024-03-20T23:25:53Z</time>
      </trkpt>
      <trkpt lat="50.57074" lon="1.83794">
        <ele>52</ele>
        <time>2024-03-20T23:25:55Z</time>
      </trkpt>
      <trkpt lat="50.57048" lon="1.83858">
        <ele>53</ele>
        <time>2024-03-20T23:26:04Z</time>
      </trkpt>
      <trkpt lat="50.57029" lon="1.83911">
        <ele>54</ele>
        <time>2024-03-20T23:26:11Z</time>
      </trkpt>
      <trkpt lat="50.57021" lon="1.83941">
        <ele>54</ele>
        <time>2024-03-20T23:26:14Z</time>
      </trkpt>
      <trkpt lat="50.57005" lon="1.84016">
        <ele>54</ele>
        <time>2024-03-20T23:26:23Z</time>
      </trkpt>
      <trkpt lat="50.56981" lon="1.84097">
        <ele>54</ele>
        <time>2024-03-20T23:26:33Z</time>
      </trkpt>
      <trkpt lat="50.56978" lon="1.8411">
        <ele>55</ele>
        <time>2024-03-20T23:26:35Z</time>
      </trkpt>
      <trkpt lat="50.56981" lon="1.84097">
        <ele>54</ele>
        <time>2024-03-20T23:26:36Z</time>
      </trkpt>
      <trkpt lat="50.57005" lon="1.84016">
        <ele>54</ele>
        <time>2024-03-20T23:26:46Z</time>
      </trkpt>
      <trkpt lat="50.57021" lon="1.83941">
        <ele>54</ele>
        <time>2024-03-20T23:26:55Z</time>
      </trkpt>
      <trkpt lat="50.57029" lon="1.83911">
        <ele>54</ele>
        <time>2024-03-20T23:26:59Z</time>
      </trkpt>
      <trkpt lat="50.57048" lon="1.83858">
        <ele>53</ele>
        <time>2024-03-20T23:27:06Z</time>
      </trkpt>
      <trkpt lat="50.57074" lon="1.83794">
        <ele>52</ele>
        <time>2024-03-20T23:27:15Z</time>
      </trkpt>
      <trkpt lat="50.57078" lon="1.83773">
        <ele>51</ele>
        <time>2024-03-20T23:27:17Z</time>
      </trkpt>
      <trkpt lat="50.57079" lon="1.83762">
        <ele>51</ele>
        <time>2024-03-20T23:27:18Z</time>
      </trkpt>
      <trkpt lat="50.57076" lon="1.83763">
        <ele>51</ele>
        <time>2024-03-20T23:27:19Z</time>
      </trkpt>
      <trkpt lat="50.57054" lon="1.83715">
        <ele>52</ele>
        <time>2024-03-20T23:27:26Z</time>
      </trkpt>
      <trkpt lat="50.5698" lon="1.83581">
        <ele>53</ele>
        <time>2024-03-20T23:27:46Z</time>
      </trkpt>
      <trkpt lat="50.56962" lon="1.83535">
        <ele>53</ele>
        <time>2024-03-20T23:27:52Z</time>
      </trkpt>
      <trkpt lat="50.56937" lon="1.83485">
        <ele>53</ele>
        <time>2024-03-20T23:27:59Z</time>
      </trkpt>
      <trkpt lat="50.56917" lon="1.83425">
        <ele>50</ele>
        <time>2024-03-20T23:28:07Z</time>
      </trkpt>
      <trkpt lat="50.5691" lon="1.83392">
        <ele>51</ele>
        <time>2024-03-20T23:28:10Z</time>
      </trkpt>
      <trkpt lat="50.56902" lon="1.83325">
        <ele>50</ele>
        <time>2024-03-20T23:28:18Z</time>
      </trkpt>
      <trkpt lat="50.56898" lon="1.83316">
        <ele>50</ele>
        <time>2024-03-20T23:28:19Z</time>
      </trkpt>
      <trkpt lat="50.56882" lon="1.83288">
        <ele>50</ele>
        <time>2024-03-20T23:28:24Z</time>
      </trkpt>
      <trkpt lat="50.56858" lon="1.83253">
        <ele>51</ele>
        <time>2024-03-20T23:28:29Z</time>
      </trkpt>
      <trkpt lat="50.56847" lon="1.83232">
        <ele>50</ele>
        <time>2024-03-20T23:28:33Z</time>
      </trkpt>
      <trkpt lat="50.56827" lon="1.83182">
        <ele>48</ele>
        <time>2024-03-20T23:28:39Z</time>
      </trkpt>
      <trkpt lat="50.56821" lon="1.83166">
        <ele>48</ele>
        <time>2024-03-20T23:28:41Z</time>
      </trkpt>
      <trkpt lat="50.56803" lon="1.83141">
        <ele>48</ele>
        <time>2024-03-20T23:28:46Z</time>
      </trkpt>
      <trkpt lat="50.5679" lon="1.83129">
        <ele>48</ele>
        <time>2024-03-20T23:28:48Z</time>
      </trkpt>
      <trkpt lat="50.56778" lon="1.83121">
        <ele>48</ele>
        <time>2024-03-20T23:28:51Z</time>
      </trkpt>
      <trkpt lat="50.56693" lon="1.83099">
        <ele>48</ele>
        <time>2024-03-20T23:29:06Z</time>
      </trkpt>
      <trkpt lat="50.56593" lon="1.8301">
        <ele>49</ele>
        <time>2024-03-20T23:29:26Z</time>
      </trkpt>
      <trkpt lat="50.56591" lon="1.83007">
        <ele>49</ele>
        <time>2024-03-20T23:29:27Z</time>
      </trkpt>
      <trkpt lat="50.56589" lon="1.83002">
        <ele>49</ele>
        <time>2024-03-20T23:29:28Z</time>
      </trkpt>
      <trkpt lat="50.5661" lon="1.82977">
        <ele>47</ele>
        <time>2024-03-20T23:29:32Z</time>
      </trkpt>
      <trkpt lat="50.56617" lon="1.82964">
        <ele>47</ele>
        <time>2024-03-20T23:29:34Z</time>
      </trkpt>
      <trkpt lat="50.56642" lon="1.82878">
        <ele>45</ele>
        <time>2024-03-20T23:29:45Z</time>
      </trkpt>
      <trkpt lat="50.56657" lon="1.82837">
        <ele>44</ele>
        <time>2024-03-20T23:29:50Z</time>
      </trkpt>
      <trkpt lat="50.56724" lon="1.82686">
        <ele>45</ele>
        <time>2024-03-20T23:30:11Z</time>
      </trkpt>
      <trkpt lat="50.56728" lon="1.82681">
        <ele>45</ele>
        <time>2024-03-20T23:30:12Z</time>
      </trkpt>
      <trkpt lat="50.56732" lon="1.82673">
        <ele>45</ele>
        <time>2024-03-20T23:30:13Z</time>
      </trkpt>
      <trkpt lat="50.56759" lon="1.82653">
        <ele>45</ele>
        <time>2024-03-20T23:30:18Z</time>
      </trkpt>
      <trkpt lat="50.56787" lon="1.82598">
        <ele>45</ele>
        <time>2024-03-20T23:30:26Z</time>
      </trkpt>
      <trkpt lat="50.56814" lon="1.82533">
        <ele>48</ele>
        <time>2024-03-20T23:30:35Z</time>
      </trkpt>
      <trkpt lat="50.56915" lon="1.82356">
        <ele>59</ele>
        <time>2024-03-20T23:31:02Z</time>
      </trkpt>
      <trkpt lat="50.56924" lon="1.82336">
        <ele>60</ele>
        <time>2024-03-20T23:31:05Z</time>
      </trkpt>
      <trkpt lat="50.56824" lon="1.82251">
        <ele>59</ele>
        <time>2024-03-20T23:31:25Z</time>
      </trkpt>
      <trkpt lat="50.56806" lon="1.82233">
        <ele>58</ele>
        <time>2024-03-20T23:31:29Z</time>
      </trkpt>
      <trkpt lat="50.56776" lon="1.82196">
        <ele>59</ele>
        <time>2024-03-20T23:31:36Z</time>
      </trkpt>
      <trkpt lat="50.56673" lon="1.82032">
        <ele>58</ele>
        <time>2024-03-20T23:32:02Z</time>
      </trkpt>
      <trkpt lat="50.56603" lon="1.81935">
        <ele>57</ele>
        <time>2024-03-20T23:32:18Z</time>
      </trkpt>
      <trkpt lat="50.56587" lon="1.81915">
        <ele>56</ele>
        <time>2024-03-20T23:32:22Z</time>
      </trkpt>
      <trkpt lat="50.56491" lon="1.81822">
        <ele>56</ele>
        <time>2024-03-20T23:32:42Z</time>
      </trkpt>
      <trkpt lat="50.56381" lon="1.81706">
        <ele>57</ele>
        <time>2024-03-20T23:33:05Z</time>
      </trkpt>
      <trkpt lat="50.56333" lon="1.81661">
        <ele>57</ele>
        <time>2024-03-20T23:33:15Z</time>
      </trkpt>
      <trkpt lat="50.56225" lon="1.81588">
        <ele>52</ele>
        <time>2024-03-20T23:33:36Z</time>
      </trkpt>
      <trkpt lat="50.56092" lon="1.81476">
        <ele>46</ele>
        <time>2024-03-20T23:34:03Z</time>
      </trkpt>
      <trkpt lat="50.56066" lon="1.81444">
        <ele>46</ele>
        <time>2024-03-20T23:34:09Z</time>
      </trkpt>
      <trkpt lat="50.55947" lon="1.81251">
        <ele>45</ele>
        <time>2024-03-20T23:34:39Z</time>
      </trkpt>
      <trkpt lat="50.55847" lon="1.81116">
        <ele>44</ele>
        <time>2024-03-20T23:35:03Z</time>
      </trkpt>
      <trkpt lat="50.5581" lon="1.81057">
        <ele>44</ele>
        <time>2024-03-20T23:35:12Z</time>
      </trkpt>
      <trkpt lat="50.55704" lon="1.80873">
        <ele>42</ele>
        <time>2024-03-20T23:35:40Z</time>
      </trkpt>
      <trkpt lat="50.55626" lon="1.80728">
        <ele>44</ele>
        <time>2024-03-20T23:36:02Z</time>
      </trkpt>
      <trkpt lat="50.55616" lon="1.807">
        <ele>44</ele>
        <time>2024-03-20T23:36:05Z</time>
      </trkpt>
      <trkpt lat="50.55607" lon="1.8065">
        <ele>45</ele>
        <time>2024-03-20T23:36:11Z</time>
      </trkpt>
      <trkpt lat="50.55602" lon="1.80635">
        <ele>46</ele>
        <time>2024-03-20T23:36:13Z</time>
      </trkpt>
      <trkpt lat="50.55576" lon="1.80583">
        <ele>46</ele>
        <time>2024-03-20T23:36:21Z</time>
      </trkpt>
      <trkpt lat="50.55562" lon="1.80562">
        <ele>45</ele>
        <time>2024-03-20T23:36:24Z</time>
      </trkpt>
      <trkpt lat="50.55412" lon="1.80362">
        <ele>42</ele>
        <time>2024-03-20T23:36:59Z</time>
      </trkpt>
      <trkpt lat="50.55343" lon="1.80275">
        <ele>43</ele>
        <time>2024-03-20T23:37:15Z</time>
      </trkpt>
      <trkpt lat="50.55321" lon="1.80243">
        <ele>44</ele>
        <time>2024-03-20T23:37:20Z</time>
      </trkpt>
      <trkpt lat="50.55275" lon="1.80142">
        <ele>49</ele>
        <time>2024-03-20T23:37:34Z</time>
      </trkpt>
      <trkpt lat="50.55234" lon="1.80071">
        <ele>48</ele>
        <time>2024-03-20T23:37:45Z</time>
      </trkpt>
      <trkpt lat="50.55204" lon="1.8003">
        <ele>47</ele>
        <time>2024-03-20T23:37:52Z</time>
      </trkpt>
      <trkpt lat="50.55165" lon="1.79983">
        <ele>44</ele>
        <time>2024-03-20T23:38:01Z</time>
      </trkpt>
      <trkpt lat="50.55136" lon="1.79938">
        <ele>43</ele>
        <time>2024-03-20T23:38:08Z</time>
      </trkpt>
      <trkpt lat="50.55071" lon="1.79805">
        <ele>41</ele>
        <time>2024-03-20T23:38:27Z</time>
      </trkpt>
      <trkpt lat="50.55012" lon="1.79676">
        <ele>39</ele>
        <time>2024-03-20T23:38:45Z</time>
      </trkpt>
      <trkpt lat="50.54984" lon="1.79626">
        <ele>39</ele>
        <time>2024-03-20T23:38:53Z</time>
      </trkpt>
      <trkpt lat="50.54956" lon="1.79594">
        <ele>38</ele>
        <time>2024-03-20T23:38:59Z</time>
      </trkpt>
      <trkpt lat="50.54927" lon="1.79555">
        <ele>38</ele>
        <time>2024-03-20T23:39:06Z</time>
      </trkpt>
      <trkpt lat="50.54913" lon="1.79532">
        <ele>37</ele>
        <time>2024-03-20T23:39:09Z</time>
      </trkpt>
      <trkpt lat="50.54859" lon="1.79434">
        <ele>37</ele>
        <time>2024-03-20T23:39:24Z</time>
      </trkpt>
      <trkpt lat="50.54829" lon="1.79384">
        <ele>37</ele>
        <time>2024-03-20T23:39:32Z</time>
      </trkpt>
      <trkpt lat="50.54795" lon="1.79337">
        <ele>36</ele>
        <time>2024-03-20T23:39:40Z</time>
      </trkpt>
      <trkpt lat="50.54731" lon="1.79298">
        <ele>33</ele>
        <time>2024-03-20T23:39:52Z</time>
      </trkpt>
      <trkpt lat="50.5472" lon="1.79286">
        <ele>33</ele>
        <time>2024-03-20T23:39:54Z</time>
      </trkpt>
      <trkpt lat="50.54711" lon="1.7927">
        <ele>33</ele>
        <time>2024-03-20T23:39:57Z</time>
      </trkpt>
      <trkpt lat="50.54693" lon="1.79219">
        <ele>32</ele>
        <time>2024-03-20T23:40:03Z</time>
      </trkpt>
      <trkpt lat="50.54682" lon="1.79193">
        <ele>32</ele>
        <time>2024-03-20T23:40:07Z</time>
      </trkpt>
      <trkpt lat="50.54692" lon="1.79171">
        <ele>32</ele>
        <time>2024-03-20T23:40:10Z</time>
      </trkpt>
      <trkpt lat="50.54735" lon="1.79112">
        <ele>32</ele>
        <time>2024-03-20T23:40:20Z</time>
      </trkpt>
      <trkpt lat="50.54792" lon="1.79055">
        <ele>34</ele>
        <time>2024-03-20T23:40:32Z</time>
      </trkpt>
      <trkpt lat="50.54813" lon="1.79032">
        <ele>35</ele>
        <time>2024-03-20T23:40:37Z</time>
      </trkpt>
      <trkpt lat="50.54827" lon="1.79009">
        <ele>35</ele>
        <time>2024-03-20T23:40:40Z</time>
      </trkpt>
      <trkpt lat="50.54838" lon="1.78984">
        <ele>36</ele>
        <time>2024-03-20T23:40:44Z</time>
      </trkpt>
      <trkpt lat="50.5486" lon="1.78882">
        <ele>37</ele>
        <time>2024-03-20T23:40:56Z</time>
      </trkpt>
      <trkpt lat="50.54863" lon="1.78851">
        <ele>37</ele>
        <time>2024-03-20T23:40:59Z</time>
      </trkpt>
      <trkpt lat="50.54867" lon="1.78808">
        <ele>38</ele>
        <time>2024-03-20T23:41:04Z</time>
      </trkpt>
      <trkpt lat="50.5487" lon="1.7864">
        <ele>40</ele>
        <time>2024-03-20T23:41:23Z</time>
      </trkpt>
      <trkpt lat="50.5488" lon="1.78574">
        <ele>40</ele>
        <time>2024-03-20T23:41:31Z</time>
      </trkpt>
      <trkpt lat="50.54889" lon="1.78534">
        <ele>40</ele>
        <time>2024-03-20T23:41:36Z</time>
      </trkpt>
      <trkpt lat="50.54904" lon="1.78485">
        <ele>39</ele>
        <time>2024-03-20T23:41:42Z</time>
      </trkpt>
      <trkpt lat="50.54933" lon="1.78416">
        <ele>40</ele>
        <time>2024-03-20T23:41:51Z</time>
      </trkpt>
      <trkpt lat="50.54967" lon="1.78341">
        <ele>41</ele>
        <time>2024-03-20T23:42:02Z</time>
      </trkpt>
      <trkpt lat="50.54981" lon="1.78307">
        <ele>41</ele>
        <time>2024-03-20T23:42:06Z</time>
      </trkpt>
      <trkpt lat="50.54999" lon="1.78246">
        <ele>41</ele>
        <time>2024-03-20T23:42:14Z</time>
      </trkpt>
      <trkpt lat="50.55006" lon="1.78206">
        <ele>42</ele>
        <time>2024-03-20T23:42:18Z</time>
      </trkpt>
      <trkpt lat="50.55012" lon="1.78154">
        <ele>43</ele>
        <time>2024-03-20T23:42:24Z</time>
      </trkpt>
      <trkpt lat="50.55024" lon="1.78058">
        <ele>45</ele>
        <time>2024-03-20T23:42:36Z</time>
      </trkpt>
      <trkpt lat="50.55035" lon="1.78033">
        <ele>45</ele>
        <time>2024-03-20T23:42:39Z</time>
      </trkpt>
      <trkpt lat="50.55051" lon="1.78007">
        <ele>46</ele>
        <time>2024-03-20T23:42:43Z</time>
      </trkpt>
      <trkpt lat="50.55066" lon="1.77989">
        <ele>46</ele>
        <time>2024-03-20T23:42:46Z</time>
      </trkpt>
      <trkpt lat="50.55117" lon="1.77948">
        <ele>47</ele>
        <time>2024-03-20T23:42:57Z</time>
      </trkpt>
      <trkpt lat="50.55139" lon="1.77937">
        <ele>47</ele>
        <time>2024-03-20T23:43:01Z</time>
      </trkpt>
      <trkpt lat="50.55224" lon="1.77878">
        <ele>50</ele>
        <time>2024-03-20T23:43:17Z</time>
      </trkpt>
      <trkpt lat="50.55237" lon="1.77868">
        <ele>50</ele>
        <time>2024-03-20T23:43:20Z</time>
      </trkpt>
      <trkpt lat="50.55251" lon="1.77839">
        <ele>49</ele>
        <time>2024-03-20T23:43:24Z</time>
      </trkpt>
      <trkpt lat="50.55282" lon="1.77746">
        <ele>50</ele>
        <time>2024-03-20T23:43:36Z</time>
      </trkpt>
      <trkpt lat="50.55285" lon="1.77732">
        <ele>51</ele>
        <time>2024-03-20T23:43:37Z</time>
      </trkpt>
      <trkpt lat="50.5529" lon="1.77663">
        <ele>52</ele>
        <time>2024-03-20T23:43:45Z</time>
      </trkpt>
      <trkpt lat="50.5529" lon="1.7764">
        <ele>52</ele>
        <time>2024-03-20T23:43:48Z</time>
      </trkpt>
      <trkpt lat="50.55286" lon="1.77626">
        <ele>52</ele>
        <time>2024-03-20T23:43:50Z</time>
      </trkpt>
      <trkpt lat="50.55279" lon="1.77613">
        <ele>52</ele>
        <time>2024-03-20T23:43:52Z</time>
      </trkpt>
      <trkpt lat="50.5526" lon="1.776">
        <ele>51</ele>
        <time>2024-03-20T23:43:55Z</time>
      </trkpt>
      <trkpt lat="50.55248" lon="1.77594">
        <ele>51</ele>
        <time>2024-03-20T23:43:58Z</time>
      </trkpt>
      <trkpt lat="50.55243" lon="1.77557">
        <ele>52</ele>
        <time>2024-03-20T23:44:02Z</time>
      </trkpt>
      <trkpt lat="50.55247" lon="1.77484">
        <ele>53</ele>
        <time>2024-03-20T23:44:10Z</time>
      </trkpt>
      <trkpt lat="50.55252" lon="1.77458">
        <ele>53</ele>
        <time>2024-03-20T23:44:13Z</time>
      </trkpt>
      <trkpt lat="50.55262" lon="1.7743">
        <ele>54</ele>
        <time>2024-03-20T23:44:17Z</time>
      </trkpt>
      <trkpt lat="50.55291" lon="1.77407">
        <ele>53</ele>
        <time>2024-03-20T23:44:23Z</time>
      </trkpt>
      <trkpt lat="50.55311" lon="1.77395">
        <ele>53</ele>
        <time>2024-03-20T23:44:26Z</time>
      </trkpt>
      <trkpt lat="50.55338" lon="1.77382">
        <ele>52</ele>
        <time>2024-03-20T23:44:31Z</time>
      </trkpt>
      <trkpt lat="50.55382" lon="1.77371">
        <ele>52</ele>
        <time>2024-03-20T23:44:39Z</time>
      </trkpt>
      <trkpt lat="50.55441" lon="1.77364">
        <ele>52</ele>
        <time>2024-03-20T23:44:50Z</time>
      </trkpt>
      <trkpt lat="50.55499" lon="1.77355">
        <ele>54</ele>
        <time>2024-03-20T23:45:00Z</time>
      </trkpt>
      <trkpt lat="50.55524" lon="1.77349">
        <ele>55</ele>
        <time>2024-03-20T23:45:05Z</time>
      </trkpt>
      <trkpt lat="50.55543" lon="1.77347">
        <ele>56</ele>
        <time>2024-03-20T23:45:08Z</time>
      </trkpt>
      <trkpt lat="50.5556" lon="1.7735">
        <ele>56</ele>
        <time>2024-03-20T23:45:11Z</time>
      </trkpt>
      <trkpt lat="50.55586" lon="1.77345">
        <ele>57</ele>
        <time>2024-03-20T23:45:16Z</time>
      </trkpt>
      <trkpt lat="50.55612" lon="1.77336">
        <ele>57</ele>
        <time>2024-03-20T23:45:21Z</time>
      </trkpt>
      <trkpt lat="50.5564" lon="1.77323">
        <ele>58</ele>
        <time>2024-03-20T23:45:26Z</time>
      </trkpt>
      <trkpt lat="50.55662" lon="1.77311">
        <ele>59</ele>
        <time>2024-03-20T23:45:30Z</time>
      </trkpt>
      <trkpt lat="50.55676" lon="1.77297">
        <ele>59</ele>
        <time>2024-03-20T23:45:33Z</time>
      </trkpt>
      <trkpt lat="50.557" lon="1.77261">
        <ele>60</ele>
        <time>2024-03-20T23:45:39Z</time>
      </trkpt>
      <trkpt lat="50.55744" lon="1.77184">
        <ele>60</ele>
        <time>2024-03-20T23:45:50Z</time>
      </trkpt>
      <trkpt lat="50.55813" lon="1.77049">
        <ele>61</ele>
        <time>2024-03-20T23:46:10Z</time>
      </trkpt>
      <trkpt lat="50.55845" lon="1.77011">
        <ele>61</ele>
        <time>2024-03-20T23:46:17Z</time>
      </trkpt>
      <trkpt lat="50.55881" lon="1.76986">
        <ele>63</ele>
        <time>2024-03-20T23:46:24Z</time>
      </trkpt>
      <trkpt lat="50.5596" lon="1.76943">
        <ele>64</ele>
        <time>2024-03-20T23:46:39Z</time>
      </trkpt>
      <trkpt lat="50.56001" lon="1.76918">
        <ele>63</ele>
        <time>2024-03-20T23:46:47Z</time>
      </trkpt>
      <trkpt lat="50.56011" lon="1.76902">
        <ele>63</ele>
        <time>2024-03-20T23:46:49Z</time>
      </trkpt>
      <trkpt lat="50.56025" lon="1.76858">
        <ele>64</ele>
        <time>2024-03-20T23:46:55Z</time>
      </trkpt>
      <trkpt lat="50.56034" lon="1.76811">
        <ele>64</ele>
        <time>2024-03-20T23:47:00Z</time>
      </trkpt>
      <trkpt lat="50.56033" lon="1.76703">
        <ele>66</ele>
        <time>2024-03-20T23:47:13Z</time>
      </trkpt>
      <trkpt lat="50.56034" lon="1.76681">
        <ele>67</ele>
        <time>2024-03-20T23:47:15Z</time>
      </trkpt>
      <trkpt lat="50.56038" lon="1.76662">
        <ele>67</ele>
        <time>2024-03-20T23:47:17Z</time>
      </trkpt>
      <trkpt lat="50.56052" lon="1.7663">
        <ele>68</ele>
        <time>2024-03-20T23:47:22Z</time>
      </trkpt>
      <trkpt lat="50.5607" lon="1.76596">
        <ele>69</ele>
        <time>2024-03-20T23:47:27Z</time>
      </trkpt>
      <trkpt lat="50.5609" lon="1.76552">
        <ele>70</ele>
        <time>2024-03-20T23:47:33Z</time>
      </trkpt>
      <trkpt lat="50.56146" lon="1.7641">
        <ele>73</ele>
        <time>2024-03-20T23:47:52Z</time>
      </trkpt>
      <trkpt lat="50.5622" lon="1.76255">
        <ele>77</ele>
        <time>2024-03-20T23:48:14Z</time>
      </trkpt>
      <trkpt lat="50.56238" lon="1.76209">
        <ele>77</ele>
        <time>2024-03-20T23:48:20Z</time>
      </trkpt>
      <trkpt lat="50.56248" lon="1.76178">
        <ele>76</ele>
        <time>2024-03-20T23:48:24Z</time>
      </trkpt>
      <trkpt lat="50.56258" lon="1.76136">
        <ele>77</ele>
        <time>2024-03-20T23:48:29Z</time>
      </trkpt>
      <trkpt lat="50.56309" lon="1.75884">
        <ele>82</ele>
        <time>2024-03-20T23:48:59Z</time>
      </trkpt>
      <trkpt lat="50.56327" lon="1.75804">
        <ele>83</ele>
        <time>2024-03-20T23:49:08Z</time>
      </trkpt>
      <trkpt lat="50.56341" lon="1.75757">
        <ele>83</ele>
        <time>2024-03-20T23:49:14Z</time>
      </trkpt>
      <trkpt lat="50.56416" lon="1.75587">
        <ele>88</ele>
        <time>2024-03-20T23:49:38Z</time>
      </trkpt>
      <trkpt lat="50.56427" lon="1.75558">
        <ele>89</ele>
        <time>2024-03-20T23:49:41Z</time>
      </trkpt>
      <trkpt lat="50.56443" lon="1.75508">
        <ele>90</ele>
        <time>2024-03-20T23:49:48Z</time>
      </trkpt>
      <trkpt lat="50.56471" lon="1.75388">
        <ele>91</ele>
        <time>2024-03-20T23:50:02Z</time>
      </trkpt>
      <trkpt lat="50.56493" lon="1.75278">
        <ele>91</ele>
        <time>2024-03-20T23:50:15Z</time>
      </trkpt>
      <trkpt lat="50.56503" lon="1.75212">
        <ele>90</ele>
        <time>2024-03-20T23:50:23Z</time>
      </trkpt>
      <trkpt lat="50.56506" lon="1.75211">
        <ele>90</ele>
        <time>2024-03-20T23:50:23Z</time>
      </trkpt>
      <trkpt lat="50.56508" lon="1.75192">
        <ele>89</ele>
        <time>2024-03-20T23:50:26Z</time>
      </trkpt>
      <trkpt lat="50.56532" lon="1.75099">
        <ele>86</ele>
        <time>2024-03-20T23:50:37Z</time>
      </trkpt>
      <trkpt lat="50.56556" lon="1.74997">
        <ele>79</ele>
        <time>2024-03-20T23:50:49Z</time>
      </trkpt>
      <trkpt lat="50.56569" lon="1.74924">
        <ele>76</ele>
        <time>2024-03-20T23:50:58Z</time>
      </trkpt>
      <trkpt lat="50.5658" lon="1.74884">
        <ele>75</ele>
        <time>2024-03-20T23:51:03Z</time>
      </trkpt>
      <trkpt lat="50.56587" lon="1.74868">
        <ele>74</ele>
        <time>2024-03-20T23:51:05Z</time>
      </trkpt>
      <trkpt lat="50.56609" lon="1.74841">
        <ele>73</ele>
        <time>2024-03-20T23:51:10Z</time>
      </trkpt>
      <trkpt lat="50.56625" lon="1.74818">
        <ele>72</ele>
        <time>2024-03-20T23:51:14Z</time>
      </trkpt>
      <trkpt lat="50.56639" lon="1.74786">
        <ele>71</ele>
        <time>2024-03-20T23:51:18Z</time>
      </trkpt>
      <trkpt lat="50.56716" lon="1.74592">
        <ele>60</ele>
        <time>2024-03-20T23:51:44Z</time>
      </trkpt>
      <trkpt lat="50.5676" lon="1.74502">
        <ele>56</ele>
        <time>2024-03-20T23:51:57Z</time>
      </trkpt>
      <trkpt lat="50.56766" lon="1.74492">
        <ele>56</ele>
        <time>2024-03-20T23:51:58Z</time>
      </trkpt>
      <trkpt lat="50.56775" lon="1.74485">
        <ele>56</ele>
        <time>2024-03-20T23:52:00Z</time>
      </trkpt>
      <trkpt lat="50.56787" lon="1.74487">
        <ele>56</ele>
        <time>2024-03-20T23:52:02Z</time>
      </trkpt>
      <trkpt lat="50.56806" lon="1.745">
        <ele>57</ele>
        <time>2024-03-20T23:52:06Z</time>
      </trkpt>
      <trkpt lat="50.56814" lon="1.74497">
        <ele>57</ele>
        <time>2024-03-20T23:52:08Z</time>
      </trkpt>
      <trkpt lat="50.56819" lon="1.74483">
        <ele>56</ele>
        <time>2024-03-20T23:52:09Z</time>
      </trkpt>
      <trkpt lat="50.56826" lon="1.74408">
        <ele>55</ele>
        <time>2024-03-20T23:52:18Z</time>
      </trkpt>
      <trkpt lat="50.56831" lon="1.74387">
        <ele>54</ele>
        <time>2024-03-20T23:52:20Z</time>
      </trkpt>
      <trkpt lat="50.56837" lon="1.74371">
        <ele>53</ele>
        <time>2024-03-20T23:52:23Z</time>
      </trkpt>
      <trkpt lat="50.56862" lon="1.74324">
        <ele>51</ele>
        <time>2024-03-20T23:52:29Z</time>
      </trkpt>
      <trkpt lat="50.56873" lon="1.74299">
        <ele>51</ele>
        <time>2024-03-20T23:52:33Z</time>
      </trkpt>
      <trkpt lat="50.56878" lon="1.74281">
        <ele>50</ele>
        <time>2024-03-20T23:52:35Z</time>
      </trkpt>
      <trkpt lat="50.5689" lon="1.74223">
        <ele>49</ele>
        <time>2024-03-20T23:52:42Z</time>
      </trkpt>
      <trkpt lat="50.56895" lon="1.74212">
        <ele>49</ele>
        <time>2024-03-20T23:52:44Z</time>
      </trkpt>
      <trkpt lat="50.56902" lon="1.74206">
        <ele>49</ele>
        <time>2024-03-20T23:52:45Z</time>
      </trkpt>
      <trkpt lat="50.569" lon="1.74195">
        <ele>49</ele>
        <time>2024-03-20T23:52:46Z</time>
      </trkpt>
      <trkpt lat="50.56905" lon="1.74178">
        <ele>49</ele>
        <time>2024-03-20T23:52:48Z</time>
      </trkpt>
      <trkpt lat="50.56911" lon="1.74137">
        <ele>49</ele>
        <time>2024-03-20T23:52:53Z</time>
      </trkpt>
      <trkpt lat="50.56917" lon="1.74068">
        <ele>51</ele>
        <time>2024-03-20T23:53:01Z</time>
      </trkpt>
      <trkpt lat="50.56917" lon="1.74063">
        <ele>51</ele>
        <time>2024-03-20T23:53:02Z</time>
      </trkpt>
      <trkpt lat="50.56903" lon="1.74055">
        <ele>51</ele>
        <time>2024-03-20T23:53:04Z</time>
      </trkpt>
      <trkpt lat="50.56837" lon="1.7404">
        <ele>52</ele>
        <time>2024-03-20T23:53:16Z</time>
      </trkpt>
      <trkpt lat="50.56762" lon="1.74005">
        <ele>52</ele>
        <time>2024-03-20T23:53:30Z</time>
      </trkpt>
      <trkpt lat="50.5665" lon="1.73962">
        <ele>59</ele>
        <time>2024-03-20T23:53:51Z</time>
      </trkpt>
      <trkpt lat="50.56539" lon="1.73898">
        <ele>56</ele>
        <time>2024-03-20T23:54:12Z</time>
      </trkpt>
      <trkpt lat="50.5651" lon="1.73873">
        <ele>53</ele>
        <time>2024-03-20T23:54:17Z</time>
      </trkpt>
      <trkpt lat="50.56426" lon="1.7377">
        <ele>51</ele>
        <time>2024-03-20T23:54:36Z</time>
      </trkpt>
      <trkpt lat="50.56383" lon="1.73708">
        <ele>51</ele>
        <time>2024-03-20T23:54:47Z</time>
      </trkpt>
      <trkpt lat="50.56259" lon="1.73569">
        <ele>49</ele>
        <time>2024-03-20T23:55:14Z</time>
      </trkpt>
      <trkpt lat="50.56116" lon="1.73444">
        <ele>47</ele>
        <time>2024-03-20T23:55:43Z</time>
      </trkpt>
      <trkpt lat="50.56092" lon="1.73422">
        <ele>47</ele>
        <time>2024-03-20T23:55:48Z</time>
      </trkpt>
      <trkpt lat="50.56091" lon="1.73425">
        <ele>47</ele>
        <time>2024-03-20T23:55:48Z</time>
      </trkpt>
      <trkpt lat="50.5601" lon="1.73395">
        <ele>47</ele>
        <time>2024-03-20T23:56:03Z</time>
      </trkpt>
      <trkpt lat="50.55991" lon="1.73381">
        <ele>48</ele>
        <time>2024-03-20T23:56:07Z</time>
      </trkpt>
      <trkpt lat="50.55972" lon="1.73363">
        <ele>48</ele>
        <time>2024-03-20T23:56:11Z</time>
      </trkpt>
      <trkpt lat="50.55904" lon="1.73289">
        <ele>49</ele>
        <time>2024-03-20T23:56:25Z</time>
      </trkpt>
      <trkpt lat="50.5589" lon="1.73278">
        <ele>48</ele>
        <time>2024-03-20T23:56:28Z</time>
      </trkpt>
      <trkpt lat="50.55831" lon="1.73242">
        <ele>45</ele>
        <time>2024-03-20T23:56:39Z</time>
      </trkpt>
      <trkpt lat="50.55794" lon="1.73225">
        <ele>44</ele>
        <time>2024-03-20T23:56:46Z</time>
      </trkpt>
      <trkpt lat="50.55732" lon="1.73215">
        <ele>43</ele>
        <time>2024-03-20T23:56:57Z</time>
      </trkpt>
      <trkpt lat="50.55651" lon="1.73189">
        <ele>43</ele>
        <time>2024-03-20T23:57:12Z</time>
      </trkpt>
      <trkpt lat="50.55494" lon="1.73127">
        <ele>42</ele>
        <time>2024-03-20T23:57:41Z</time>
      </trkpt>
      <trkpt lat="50.55475" lon="1.73118">
        <ele>41</ele>
        <time>2024-03-20T23:57:44Z</time>
      </trkpt>
      <trkpt lat="50.55409" lon="1.73078">
        <ele>40</ele>
        <time>2024-03-20T23:57:57Z</time>
      </trkpt>
      <trkpt lat="50.55392" lon="1.7307">
        <ele>40</ele>
        <time>2024-03-20T23:58:00Z</time>
      </trkpt>
      <trkpt lat="50.55299" lon="1.73043">
        <ele>40</ele>
        <time>2024-03-20T23:58:17Z</time>
      </trkpt>
      <trkpt lat="50.55035" lon="1.73054">
        <ele>36</ele>
        <time>2024-03-20T23:59:04Z</time>
      </trkpt>
      <trkpt lat="50.54985" lon="1.73049">
        <ele>35</ele>
        <time>2024-03-20T23:59:13Z</time>
      </trkpt>
      <trkpt lat="50.54977" lon="1.73046">
        <ele>35</ele>
        <time>2024-03-20T23:59:14Z</time>
      </trkpt>
      <trkpt lat="50.54945" lon="1.73027">
        <ele>35</ele>
        <time>2024-03-20T23:59:20Z</time>
      </trkpt>
      <trkpt lat="50.549" lon="1.7299">
        <ele>34</ele>
        <time>2024-03-20T23:59:30Z</time>
      </trkpt>
      <trkpt lat="50.54885" lon="1.72981">
        <ele>34</ele>
        <time>2024-03-20T23:59:32Z</time>
      </trkpt>
      <trkpt lat="50.54869" lon="1.72974">
        <ele>33</ele>
        <time>2024-03-20T23:59:35Z</time>
      </trkpt>
      <trkpt lat="50.54734" lon="1.7293">
        <ele>33</ele>
        <time>2024-03-21T00:00:00Z</time>
      </trkpt>
      <trkpt lat="50.54597" lon="1.729">
        <ele>33</ele>
        <time>2024-03-21T00:00:24Z</time>
      </trkpt>
      <trkpt lat="50.54532" lon="1.72875">
        <ele>32</ele>
        <time>2024-03-21T00:00:36Z</time>
      </trkpt>
      <trkpt lat="50.54521" lon="1.72873">
        <ele>32</ele>
        <time>2024-03-21T00:00:38Z</time>
      </trkpt>
      <trkpt lat="50.54465" lon="1.72869">
        <ele>32</ele>
        <time>2024-03-21T00:00:48Z</time>
      </trkpt>
      <trkpt lat="50.54397" lon="1.72842">
        <ele>32</ele>
        <time>2024-03-21T00:01:01Z</time>
      </trkpt>
      <trkpt lat="50.54392" lon="1.72862">
        <ele>32</ele>
        <time>2024-03-21T00:01:03Z</time>
      </trkpt>
      <trkpt lat="50.54385" lon="1.72858">
        <ele>32</ele>
        <time>2024-03-21T00:01:05Z</time>
      </trkpt>
      <trkpt lat="50.54341" lon="1.72846">
        <ele>31</ele>
        <time>2024-03-21T00:01:13Z</time>
      </trkpt>
      <trkpt lat="50.54316" lon="1.72844">
        <ele>31</ele>
        <time>2024-03-21T00:01:17Z</time>
      </trkpt>
      <trkpt lat="50.54178" lon="1.72867">
        <ele>31</ele>
        <time>2024-03-21T00:01:42Z</time>
      </trkpt>
      <trkpt lat="50.54071" lon="1.72896">
        <ele>31</ele>
        <time>2024-03-21T00:02:01Z</time>
      </trkpt>
      <trkpt lat="50.54036" lon="1.72901">
        <ele>31</ele>
        <time>2024-03-21T00:02:07Z</time>
      </trkpt>
      <trkpt lat="50.53963" lon="1.72902">
        <ele>32</ele>
        <time>2024-03-21T00:02:20Z</time>
      </trkpt>
      <trkpt lat="50.53892" lon="1.72906">
        <ele>32</ele>
        <time>2024-03-21T00:02:33Z</time>
      </trkpt>
      <trkpt lat="50.53842" lon="1.72913">
        <ele>32</ele>
        <time>2024-03-21T00:02:42Z</time>
      </trkpt>
      <trkpt lat="50.53831" lon="1.7291">
        <ele>32</ele>
        <time>2024-03-21T00:02:44Z</time>
      </trkpt>
      <trkpt lat="50.53821" lon="1.72904">
        <ele>32</ele>
        <time>2024-03-21T00:02:46Z</time>
      </trkpt>
      <trkpt lat="50.53774" lon="1.72858">
        <ele>33</ele>
        <time>2024-03-21T00:02:56Z</time>
      </trkpt>
      <trkpt lat="50.53751" lon="1.72849">
        <ele>33</ele>
        <time>2024-03-21T00:03:00Z</time>
      </trkpt>
      <trkpt lat="50.53737" lon="1.72846">
        <ele>33</ele>
        <time>2024-03-21T00:03:02Z</time>
      </trkpt>
      <trkpt lat="50.5366" lon="1.72849">
        <ele>29</ele>
        <time>2024-03-21T00:03:16Z</time>
      </trkpt>
      <trkpt lat="50.53494" lon="1.7284">
        <ele>28</ele>
        <time>2024-03-21T00:03:46Z</time>
      </trkpt>
      <trkpt lat="50.53446" lon="1.72841">
        <ele>30</ele>
        <time>2024-03-21T00:03:54Z</time>
      </trkpt>
      <trkpt lat="50.53329" lon="1.72849">
        <ele>32</ele>
        <time>2024-03-21T00:04:15Z</time>
      </trkpt>
      <trkpt lat="50.53207" lon="1.72861">
        <ele>30</ele>
        <time>2024-03-21T00:04:37Z</time>
      </trkpt>
      <trkpt lat="50.53175" lon="1.72869">
        <ele>29</ele>
        <time>2024-03-21T00:04:42Z</time>
      </trkpt>
      <trkpt lat="50.53158" lon="1.72874">
        <ele>28</ele>
        <time>2024-03-21T00:04:45Z</time>
      </trkpt>
      <trkpt lat="50.53118" lon="1.72893">
        <ele>25</ele>
        <time>2024-03-21T00:04:53Z</time>
      </trkpt>
      <trkpt lat="50.53087" lon="1.72918">
        <ele>23</ele>
        <time>2024-03-21T00:04:59Z</time>
      </trkpt>
      <trkpt lat="50.53036" lon="1.72983">
        <ele>22</ele>
        <time>2024-03-21T00:05:11Z</time>
      </trkpt>
      <trkpt lat="50.52946" lon="1.73056">
        <ele>22</ele>
        <time>2024-03-21T00:05:29Z</time>
      </trkpt>
      <trkpt lat="50.52916" lon="1.73077">
        <ele>22</ele>
        <time>2024-03-21T00:05:35Z</time>
      </trkpt>
      <trkpt lat="50.52881" lon="1.73081">
        <ele>22</ele>
        <time>2024-03-21T00:05:41Z</time>
      </trkpt>
      <trkpt lat="50.52816" lon="1.73081">
        <ele>21</ele>
        <time>2024-03-21T00:05:52Z</time>
      </trkpt>
      <trkpt lat="50.52792" lon="1.73087">
        <ele>21</ele>
        <time>2024-03-21T00:05:57Z</time>
      </trkpt>
      <trkpt lat="50.52732" lon="1.73112">
        <ele>20</ele>
        <time>2024-03-21T00:06:08Z</time>
      </trkpt>
      <trkpt lat="50.52676" lon="1.73142">
        <ele>18</ele>
        <time>2024-03-21T00:06:18Z</time>
      </trkpt>
      <trkpt lat="50.52631" lon="1.73163">
        <ele>18</ele>
        <time>2024-03-21T00:06:27Z</time>
      </trkpt>
      <trkpt lat="50.52619" lon="1.7317">
        <ele>18</ele>
        <time>2024-03-21T00:06:29Z</time>
      </trkpt>
      <trkpt lat="50.52606" lon="1.73184">
        <ele>18</ele>
        <time>2024-03-21T00:06:32Z</time>
      </trkpt>
      <trkpt lat="50.52586" lon="1.73222">
        <ele>19</ele>
        <time>2024-03-21T00:06:37Z</time>
      </trkpt>
      <trkpt lat="50.52557" lon="1.73262">
        <ele>20</ele>
        <time>2024-03-21T00:06:44Z</time>
      </trkpt>
      <trkpt lat="50.52543" lon="1.73277">
        <ele>20</ele>
        <time>2024-03-21T00:06:47Z</time>
      </trkpt>
      <trkpt lat="50.52519" lon="1.73296">
        <ele>19</ele>
        <time>2024-03-21T00:06:52Z</time>
      </trkpt>
      <trkpt lat="50.52426" lon="1.73352">
        <ele>16</ele>
        <time>2024-03-21T00:07:10Z</time>
      </trkpt>
      <trkpt lat="50.52383" lon="1.73373">
        <ele>17</ele>
        <time>2024-03-21T00:07:18Z</time>
      </trkpt>
      <trkpt lat="50.52354" lon="1.73383">
        <ele>17</ele>
        <time>2024-03-21T00:07:23Z</time>
      </trkpt>
      <trkpt lat="50.52336" lon="1.73394">
        <ele>17</ele>
        <time>2024-03-21T00:07:26Z</time>
      </trkpt>
      <trkpt lat="50.52286" lon="1.73419">
        <ele>17</ele>
        <time>2024-03-21T00:07:36Z</time>
      </trkpt>
      <trkpt lat="50.52254" lon="1.73437">
        <ele>18</ele>
        <time>2024-03-21T00:07:42Z</time>
      </trkpt>
      <trkpt lat="50.52216" lon="1.73482">
        <ele>20</ele>
        <time>2024-03-21T00:07:50Z</time>
      </trkpt>
      <trkpt lat="50.52193" lon="1.73495">
        <ele>20</ele>
        <time>2024-03-21T00:07:55Z</time>
      </trkpt>
      <trkpt lat="50.52162" lon="1.73501">
        <ele>20</ele>
        <time>2024-03-21T00:08:00Z</time>
      </trkpt>
      <trkpt lat="50.52076" lon="1.73501">
        <ele>18</ele>
        <time>2024-03-21T00:08:16Z</time>
      </trkpt>
      <trkpt lat="50.52048" lon="1.73497">
        <ele>18</ele>
        <time>2024-03-21T00:08:21Z</time>
      </trkpt>
      <trkpt lat="50.52025" lon="1.73483">
        <ele>17</ele>
        <time>2024-03-21T00:08:25Z</time>
      </trkpt>
      <trkpt lat="50.51978" lon="1.73446">
        <ele>17</ele>
        <time>2024-03-21T00:08:34Z</time>
      </trkpt>
      <trkpt lat="50.51921" lon="1.73418">
        <ele>19</ele>
        <time>2024-03-21T00:08:45Z</time>
      </trkpt>
      <trkpt lat="50.51912" lon="1.73418">
        <ele>19</ele>
        <time>2024-03-21T00:08:47Z</time>
      </trkpt>
      <trkpt lat="50.51877" lon="1.73411">
        <ele>19</ele>
        <time>2024-03-21T00:08:53Z</time>
      </trkpt>
      <trkpt lat="50.51855" lon="1.73402">
        <ele>19</ele>
        <time>2024-03-21T00:08:57Z</time>
      </trkpt>
      <trkpt lat="50.51788" lon="1.73351">
        <ele>16</ele>
        <time>2024-03-21T00:09:10Z</time>
      </trkpt>
      <trkpt lat="50.51765" lon="1.73346">
        <ele>15</ele>
        <time>2024-03-21T00:09:14Z</time>
      </trkpt>
      <trkpt lat="50.51729" lon="1.73353">
        <ele>14</ele>
        <time>2024-03-21T00:09:21Z</time>
      </trkpt>
      <trkpt lat="50.51669" lon="1.73374">
        <ele>14</ele>
        <time>2024-03-21T00:09:32Z</time>
      </trkpt>
      <trkpt lat="50.51641" lon="1.73379">
        <ele>15</ele>
        <time>2024-03-21T00:09:37Z</time>
      </trkpt>
      <trkpt lat="50.51606" lon="1.73367">
        <ele>17</ele>
        <time>2024-03-21T00:09:43Z</time>
      </trkpt>
      <trkpt lat="50.51495" lon="1.73308">
        <ele>19</ele>
        <time>2024-03-21T00:10:04Z</time>
      </trkpt>
      <trkpt lat="50.51445" lon="1.73307">
        <ele>19</ele>
        <time>2024-03-21T00:10:13Z</time>
      </trkpt>
      <trkpt lat="50.51409" lon="1.73315">
        <ele>20</ele>
        <time>2024-03-21T00:10:19Z</time>
      </trkpt>
      <trkpt lat="50.51387" lon="1.73305">
        <ele>19</ele>
        <time>2024-03-21T00:10:23Z</time>
      </trkpt>
      <trkpt lat="50.51343" lon="1.73273">
        <ele>16</ele>
        <time>2024-03-21T00:10:32Z</time>
      </trkpt>
      <trkpt lat="50.51305" lon="1.73266">
        <ele>15</ele>
        <time>2024-03-21T00:10:39Z</time>
      </trkpt>
      <trkpt lat="50.51275" lon="1.73268">
        <ele>15</ele>
        <time>2024-03-21T00:10:44Z</time>
      </trkpt>
      <trkpt lat="50.51241" lon="1.73254">
        <ele>15</ele>
        <time>2024-03-21T00:10:50Z</time>
      </trkpt>
      <trkpt lat="50.51229" lon="1.73237">
        <ele>15</ele>
        <time>2024-03-21T00:10:53Z</time>
      </trkpt>
      <trkpt lat="50.51216" lon="1.73225">
        <ele>15</ele>
        <time>2024-03-21T00:10:56Z</time>
      </trkpt>
      <trkpt lat="50.51058" lon="1.73114">
        <ele>14</ele>
        <time>2024-03-21T00:11:27Z</time>
      </trkpt>
      <trkpt lat="50.50989" lon="1.7306">
        <ele>13</ele>
        <time>2024-03-21T00:11:40Z</time>
      </trkpt>
      <trkpt lat="50.50932" lon="1.73014">
        <ele>14</ele>
        <time>2024-03-21T00:11:52Z</time>
      </trkpt>
      <trkpt lat="50.50914" lon="1.7299">
        <ele>14</ele>
        <time>2024-03-21T00:11:56Z</time>
      </trkpt>
      <trkpt lat="50.5093" lon="1.72961">
        <ele>14</ele>
        <time>2024-03-21T00:12:00Z</time>
      </trkpt>
      <trkpt lat="50.50944" lon="1.72932">
        <ele>14</ele>
        <time>2024-03-21T00:12:04Z</time>
      </trkpt>
      <trkpt lat="50.50979" lon="1.72846">
        <ele>12</ele>
        <time>2024-03-21T00:12:16Z</time>
      </trkpt>
      <trkpt lat="50.51002" lon="1.72805">
        <ele>11</ele>
        <time>2024-03-21T00:12:22Z</time>
      </trkpt>
      <trkpt lat="50.51023" lon="1.72765">
        <ele>11</ele>
        <time>2024-03-21T00:12:28Z</time>
      </trkpt>
      <trkpt lat="50.51028" lon="1.72754">
        <ele>11</ele>
        <time>2024-03-21T00:12:30Z</time>
      </trkpt>
      <trkpt lat="50.51067" lon="1.72676">
        <ele>11</ele>
        <time>2024-03-21T00:12:41Z</time>
      </trkpt>
      <trkpt lat="50.51079" lon="1.72644">
        <ele>11</ele>
        <time>2024-03-21T00:12:45Z</time>
      </trkpt>
      <trkpt lat="50.51085" lon="1.72615">
        <ele>11</ele>
        <time>2024-03-21T00:12:48Z</time>
      </trkpt>
      <trkpt lat="50.51081" lon="1.72589">
        <ele>11</ele>
        <time>2024-03-21T00:12:51Z</time>
      </trkpt>
      <trkpt lat="50.5106" lon="1.72529">
        <ele>11</ele>
        <time>2024-03-21T00:12:59Z</time>
      </trkpt>
      <trkpt lat="50.51058" lon="1.72513">
        <ele>12</ele>
        <time>2024-03-21T00:13:01Z</time>
      </trkpt>
      <trkpt lat="50.51058" lon="1.72497">
        <ele>12</ele>
        <time>2024-03-21T00:13:03Z</time>
      </trkpt>
      <trkpt lat="50.51053" lon="1.72475">
        <ele>12</ele>
        <time>2024-03-21T00:13:06Z</time>
      </trkpt>
      <trkpt lat="50.51046" lon="1.72458">
        <ele>12</ele>
        <time>2024-03-21T00:13:08Z</time>
      </trkpt>
      <trkpt lat="50.51038" lon="1.72448">
        <ele>12</ele>
        <time>2024-03-21T00:13:10Z</time>
      </trkpt>
      <trkpt lat="50.51014" lon="1.72428">
        <ele>11</ele>
        <time>2024-03-21T00:13:14Z</time>
      </trkpt>
      <trkpt lat="50.50967" lon="1.72399">
        <ele>10</ele>
        <time>2024-03-21T00:13:23Z</time>
      </trkpt>
      <trkpt lat="50.50909" lon="1.72358">
        <ele>10</ele>
        <time>2024-03-21T00:13:35Z</time>
      </trkpt>
      <trkpt lat="50.50838" lon="1.72285">
        <ele>10</ele>
        <time>2024-03-21T00:13:50Z</time>
      </trkpt>
      <trkpt lat="50.50806" lon="1.72246">
        <ele>8</ele>
        <time>2024-03-21T00:13:57Z</time>
      </trkpt>
      <trkpt lat="50.50781" lon="1.72196">
        <ele>8</ele>
        <time>2024-03-21T00:14:04Z</time>
      </trkpt>
      <trkpt lat="50.5077" lon="1.7216">
        <ele>7</ele>
        <time>2024-03-21T00:14:09Z</time>
      </trkpt>
      <trkpt lat="50.50742" lon="1.72051">
        <ele>6</ele>
        <time>2024-03-21T00:14:22Z</time>
      </trkpt>
      <trkpt lat="50.50724" lon="1.71972">
        <ele>7</ele>
        <time>2024-03-21T00:14:32Z</time>
      </trkpt>
      <trkpt lat="50.50703" lon="1.71903">
        <ele>8</ele>
        <time>2024-03-21T00:14:40Z</time>
      </trkpt>
      <trkpt lat="50.50656" lon="1.71793">
        <ele>8</ele>
        <time>2024-03-21T00:14:55Z</time>
      </trkpt>
      <trkpt lat="50.50512" lon="1.71485">
        <ele>8</ele>
        <time>2024-03-21T00:15:38Z</time>
      </trkpt>
      <trkpt lat="50.50467" lon="1.71395">
        <ele>8</ele>
        <time>2024-03-21T00:15:51Z</time>
      </trkpt>
      <trkpt lat="50.50435" lon="1.71341">
        <ele>7</ele>
        <time>2024-03-21T00:16:00Z</time>
      </trkpt>
      <trkpt lat="50.50425" lon="1.71327">
        <ele>7</ele>
        <time>2024-03-21T00:16:02Z</time>
      </trkpt>
      <trkpt lat="50.50384" lon="1.7128">
        <ele>7</ele>
        <time>2024-03-21T00:16:11Z</time>
      </trkpt>
      <trkpt lat="50.50374" lon="1.7127">
        <ele>7</ele>
        <time>2024-03-21T00:16:13Z</time>
      </trkpt>
      <trkpt lat="50.50353" lon="1.71245">
        <ele>6</ele>
        <time>2024-03-21T00:16:18Z</time>
      </trkpt>
      <trkpt lat="50.50278" lon="1.71146">
        <ele>6</ele>
        <time>2024-03-21T00:16:35Z</time>
      </trkpt>
      <trkpt lat="50.50094" lon="1.70899">
        <ele>8</ele>
        <time>2024-03-21T00:17:18Z</time>
      </trkpt>
      <trkpt lat="50.50065" lon="1.70851">
        <ele>7</ele>
        <time>2024-03-21T00:17:26Z</time>
      </trkpt>
      <trkpt lat="50.50039" lon="1.70794">
        <ele>6</ele>
        <time>2024-03-21T00:17:34Z</time>
      </trkpt>
      <trkpt lat="50.50012" lon="1.70724">
        <ele>6</ele>
        <time>2024-03-21T00:17:43Z</time>
      </trkpt>
      <trkpt lat="50.49992" lon="1.70648">
        <ele>6</ele>
        <time>2024-03-21T00:17:52Z</time>
      </trkpt>
      <trkpt lat="50.49978" lon="1.70615">
        <ele>7</ele>
        <time>2024-03-21T00:17:57Z</time>
      </trkpt>
      <trkpt lat="50.49923" lon="1.7054">
        <ele>8</ele>
        <time>2024-03-21T00:18:10Z</time>
      </trkpt>
      <trkpt lat="50.49864" lon="1.70469">
        <ele>9</ele>
        <time>2024-03-21T00:18:23Z</time>
      </trkpt>
      <trkpt lat="50.49819" lon="1.70403">
        <ele>8</ele>
        <time>2024-03-21T00:18:34Z</time>
      </trkpt>
      <trkpt lat="50.49808" lon="1.70392">
        <ele>8</ele>
        <time>2024-03-21T00:18:36Z</time>
      </trkpt>
      <trkpt lat="50.49751" lon="1.70351">
        <ele>7</ele>
        <time>2024-03-21T00:18:48Z</time>
      </trkpt>
      <trkpt lat="50.49738" lon="1.70349">
        <ele>6</ele>
        <time>2024-03-21T00:18:50Z</time>
      </trkpt>
      <trkpt lat="50.49726" lon="1.70358">
        <ele>6</ele>
        <time>2024-03-21T00:18:52Z</time>
      </trkpt>
      <trkpt lat="50.49704" lon="1.70375">
        <ele>5</ele>
        <time>2024-03-21T00:18:57Z</time>
      </trkpt>
      <trkpt lat="50.49696" lon="1.70336">
        <ele>5</ele>
        <time>2024-03-21T00:19:01Z</time>
      </trkpt>
      <trkpt lat="50.4968" lon="1.70221">
        <ele>5</ele>
        <time>2024-03-21T00:19:15Z</time>
      </trkpt>
      <trkpt lat="50.49674" lon="1.70129">
        <ele>4</ele>
        <time>2024-03-21T00:19:25Z</time>
      </trkpt>
      <trkpt lat="50.49673" lon="1.7009">
        <ele>4</ele>
        <time>2024-03-21T00:19:29Z</time>
      </trkpt>
      <trkpt lat="50.49677" lon="1.7006">
        <ele>4</ele>
        <time>2024-03-21T00:19:33Z</time>
      </trkpt>
      <trkpt lat="50.49688" lon="1.70018">
        <ele>5</ele>
        <time>2024-03-21T00:19:38Z</time>
      </trkpt>
      <trkpt lat="50.497" lon="1.69981">
        <ele>5</ele>
        <time>2024-03-21T00:19:43Z</time>
      </trkpt>
      <trkpt lat="50.49715" lon="1.69942">
        <ele>5</ele>
        <time>2024-03-21T00:19:48Z</time>
      </trkpt>
      <trkpt lat="50.49282" lon="1.69591">
        <ele>2</ele>
        <time>2024-03-21T00:21:15Z</time>
      </trkpt>
      <trkpt lat="50.4926" lon="1.69576">
        <ele>2</ele>
        <time>2024-03-21T00:21:19Z</time>
      </trkpt>
      <trkpt lat="50.49246" lon="1.69573">
        <ele>2</ele>
        <time>2024-03-21T00:21:21Z</time>
      </trkpt>
      <trkpt lat="50.49205" lon="1.69572">
        <ele>2</ele>
        <time>2024-03-21T00:21:29Z</time>
      </trkpt>
      <trkpt lat="50.49178" lon="1.69574">
        <ele>2</ele>
        <time>2024-03-21T00:21:33Z</time>
      </trkpt>
      <trkpt lat="50.49132" lon="1.69574">
        <ele>2</ele>
        <time>2024-03-21T00:21:42Z</time>
      </trkpt>
      <trkpt lat="50.4911" lon="1.69567">
        <ele>2</ele>
        <time>2024-03-21T00:21:46Z</time>
      </trkpt>
      <trkpt lat="50.48889" lon="1.69474">
        <ele>3</ele>
        <time>2024-03-21T00:22:26Z</time>
      </trkpt>
      <trkpt lat="50.48814" lon="1.69436">
        <ele>3</ele>
        <time>2024-03-21T00:22:40Z</time>
      </trkpt>
      <trkpt lat="50.48794" lon="1.69432">
        <ele>4</ele>
        <time>2024-03-21T00:22:44Z</time>
      </trkpt>
      <trkpt lat="50.4868" lon="1.69424">
        <ele>5</ele>
        <time>2024-03-21T00:23:04Z</time>
      </trkpt>
      <trkpt lat="50.48633" lon="1.69405">
        <ele>5</ele>
        <time>2024-03-21T00:23:13Z</time>
      </trkpt>
      <trkpt lat="50.48589" lon="1.69384">
        <ele>5</ele>
        <time>2024-03-21T00:23:21Z</time>
      </trkpt>
      <trkpt lat="50.48582" lon="1.6938">
        <ele>5</ele>
        <time>2024-03-21T00:23:22Z</time>
      </trkpt>
      <trkpt lat="50.48576" lon="1.69372">
        <ele>4</ele>
        <time>2024-03-21T00:23:24Z</time>
      </trkpt>
      <trkpt lat="50.48558" lon="1.6932">
        <ele>4</ele>
        <time>2024-03-21T00:23:31Z</time>
      </trkpt>
      <trkpt lat="50.48494" lon="1.69223">
        <ele>4</ele>
        <time>2024-03-21T00:23:46Z</time>
      </trkpt>
      <trkpt lat="50.4846" lon="1.69163">
        <ele>5</ele>
        <time>2024-03-21T00:23:55Z</time>
      </trkpt>
      <trkpt lat="50.48437" lon="1.69143">
        <ele>6</ele>
        <time>2024-03-21T00:24:00Z</time>
      </trkpt>
      <trkpt lat="50.48385" lon="1.69115">
        <ele>8</ele>
        <time>2024-03-21T00:24:10Z</time>
      </trkpt>
      <trkpt lat="50.48351" lon="1.69113">
        <ele>8</ele>
        <time>2024-03-21T00:24:16Z</time>
      </trkpt>
      <trkpt lat="50.48234" lon="1.69155">
        <ele>6</ele>
        <time>2024-03-21T00:24:37Z</time>
      </trkpt>
      <trkpt lat="50.48214" lon="1.69073">
        <ele>9</ele>
        <time>2024-03-21T00:24:47Z</time>
      </trkpt>
      <trkpt lat="50.48202" lon="1.69009">
        <ele>10</ele>
        <time>2024-03-21T00:24:55Z</time>
      </trkpt>
      <trkpt lat="50.48198" lon="1.6897">
        <ele>12</ele>
        <time>2024-03-21T00:24:59Z</time>
      </trkpt>
      <trkpt lat="50.48197" lon="1.68932">
        <ele>14</ele>
        <time>2024-03-21T00:25:04Z</time>
      </trkpt>
      <trkpt lat="50.482" lon="1.68882">
        <ele>16</ele>
        <time>2024-03-21T00:25:09Z</time>
      </trkpt>
      <trkpt lat="50.48199" lon="1.68838">
        <ele>17</ele>
        <time>2024-03-21T00:25:14Z</time>
      </trkpt>
      <trkpt lat="50.48193" lon="1.68724">
        <ele>22</ele>
        <time>2024-03-21T00:25:27Z</time>
      </trkpt>
      <trkpt lat="50.48185" lon="1.6865">
        <ele>22</ele>
        <time>2024-03-21T00:25:36Z</time>
      </trkpt>
      <trkpt lat="50.48157" lon="1.68511">
        <ele>15</ele>
        <time>2024-03-21T00:25:52Z</time>
      </trkpt>
      <trkpt lat="50.48148" lon="1.68479">
        <ele>13</ele>
        <time>2024-03-21T00:25:56Z</time>
      </trkpt>
      <trkpt lat="50.48136" lon="1.68449">
        <ele>13</ele>
        <time>2024-03-21T00:26:00Z</time>
      </trkpt>
      <trkpt lat="50.48123" lon="1.6843">
        <ele>12</ele>
        <time>2024-03-21T00:26:03Z</time>
      </trkpt>
      <trkpt lat="50.48075" lon="1.68394">
        <ele>14</ele>
        <time>2024-03-21T00:26:13Z</time>
      </trkpt>
      <trkpt lat="50.48028" lon="1.68366">
        <ele>13</ele>
        <time>2024-03-21T00:26:22Z</time>
      </trkpt>
      <trkpt lat="50.48005" lon="1.68337">
        <ele>11</ele>
        <time>2024-03-21T00:26:27Z</time>
      </trkpt>
      <trkpt lat="50.47987" lon="1.68322">
        <ele>11</ele>
        <time>2024-03-21T00:26:31Z</time>
      </trkpt>
      <trkpt lat="50.47921" lon="1.68282">
        <ele>10</ele>
        <time>2024-03-21T00:26:43Z</time>
      </trkpt>
      <trkpt lat="50.47904" lon="1.68262">
        <ele>10</ele>
        <time>2024-03-21T00:26:47Z</time>
      </trkpt>
      <trkpt lat="50.47885" lon="1.68214">
        <ele>10</ele>
        <time>2024-03-21T00:26:53Z</time>
      </trkpt>
      <trkpt lat="50.47879" lon="1.68189">
        <ele>9</ele>
        <time>2024-03-21T00:26:56Z</time>
      </trkpt>
      <trkpt lat="50.47882" lon="1.68165">
        <ele>9</ele>
        <time>2024-03-21T00:26:59Z</time>
      </trkpt>
      <trkpt lat="50.47886" lon="1.68151">
        <ele>9</ele>
        <time>2024-03-21T00:27:01Z</time>
      </trkpt>
      <trkpt lat="50.47934" lon="1.6798">
        <ele>8</ele>
        <time>2024-03-21T00:27:22Z</time>
      </trkpt>
      <trkpt lat="50.47952" lon="1.67884">
        <ele>9</ele>
        <time>2024-03-21T00:27:33Z</time>
      </trkpt>
      <trkpt lat="50.47952" lon="1.678">
        <ele>10</ele>
        <time>2024-03-21T00:27:43Z</time>
      </trkpt>
      <trkpt lat="50.47939" lon="1.67768">
        <ele>11</ele>
        <time>2024-03-21T00:27:47Z</time>
      </trkpt>
      <trkpt lat="50.47876" lon="1.67661">
        <ele>17</ele>
        <time>2024-03-21T00:28:04Z</time>
      </trkpt>
      <trkpt lat="50.47858" lon="1.67617">
        <ele>19</ele>
        <time>2024-03-21T00:28:10Z</time>
      </trkpt>
      <trkpt lat="50.47845" lon="1.67554">
        <ele>22</ele>
        <time>2024-03-21T00:28:17Z</time>
      </trkpt>
      <trkpt lat="50.47822" lon="1.67373">
        <ele>20</ele>
        <time>2024-03-21T00:28:38Z</time>
      </trkpt>
      <trkpt lat="50.47807" lon="1.67291">
        <ele>17</ele>
        <time>2024-03-21T00:28:48Z</time>
      </trkpt>
      <trkpt lat="50.47797" lon="1.67271">
        <ele>18</ele>
        <time>2024-03-21T00:28:51Z</time>
      </trkpt>
      <trkpt lat="50.47776" lon="1.67221">
        <ele>21</ele>
        <time>2024-03-21T00:28:57Z</time>
      </trkpt>
      <trkpt lat="50.47741" lon="1.67098">
        <ele>25</ele>
        <time>2024-03-21T00:29:13Z</time>
      </trkpt>
      <trkpt lat="50.47729" lon="1.67076">
        <ele>26</ele>
        <time>2024-03-21T00:29:16Z</time>
      </trkpt>
      <trkpt lat="50.47653" lon="1.66989">
        <ele>29</ele>
        <time>2024-03-21T00:29:33Z</time>
      </trkpt>
      <trkpt lat="50.47535" lon="1.66868">
        <ele>30</ele>
        <time>2024-03-21T00:29:58Z</time>
      </trkpt>
      <trkpt lat="50.47525" lon="1.66843">
        <ele>29</ele>
        <time>2024-03-21T00:30:01Z</time>
      </trkpt>
      <trkpt lat="50.47488" lon="1.66693">
        <ele>22</ele>
        <time>2024-03-21T00:30:19Z</time>
      </trkpt>
      <trkpt lat="50.47471" lon="1.66653">
        <ele>20</ele>
        <time>2024-03-21T00:30:25Z</time>
      </trkpt>
      <trkpt lat="50.47458" lon="1.66639">
        <ele>19</ele>
        <time>2024-03-21T00:30:28Z</time>
      </trkpt>
      <trkpt lat="50.47391" lon="1.66622">
        <ele>19</ele>
        <time>2024-03-21T00:30:40Z</time>
      </trkpt>
      <trkpt lat="50.47317" lon="1.66571">
        <ele>18</ele>
        <time>2024-03-21T00:30:54Z</time>
      </trkpt>
      <trkpt lat="50.47254" lon="1.6655">
        <ele>19</ele>
        <time>2024-03-21T00:31:05Z</time>
      </trkpt>
      <trkpt lat="50.47192" lon="1.66538">
        <ele>22</ele>
        <time>2024-03-21T00:31:17Z</time>
      </trkpt>
      <trkpt lat="50.47181" lon="1.66528">
        <ele>23</ele>
        <time>2024-03-21T00:31:19Z</time>
      </trkpt>
      <trkpt lat="50.47158" lon="1.66498">
        <ele>23</ele>
        <time>2024-03-21T00:31:24Z</time>
      </trkpt>
      <trkpt lat="50.47135" lon="1.66474">
        <ele>24</ele>
        <time>2024-03-21T00:31:29Z</time>
      </trkpt>
      <trkpt lat="50.47085" lon="1.66396">
        <ele>27</ele>
        <time>2024-03-21T00:31:42Z</time>
      </trkpt>
      <trkpt lat="50.4707" lon="1.66376">
        <ele>28</ele>
        <time>2024-03-21T00:31:45Z</time>
      </trkpt>
      <trkpt lat="50.46969" lon="1.66273">
        <ele>35</ele>
        <time>2024-03-21T00:32:07Z</time>
      </trkpt>
      <trkpt lat="50.46976" lon="1.66262">
        <ele>35</ele>
        <time>2024-03-21T00:32:08Z</time>
      </trkpt>
      <trkpt lat="50.46936" lon="1.66324">
        <ele>35</ele>
        <time>2024-03-21T00:32:18Z</time>
      </trkpt>
      <trkpt lat="50.46926" lon="1.66335">
        <ele>36</ele>
        <time>2024-03-21T00:32:20Z</time>
      </trkpt>
      <trkpt lat="50.469" lon="1.66352">
        <ele>36</ele>
        <time>2024-03-21T00:32:25Z</time>
      </trkpt>
      <trkpt lat="50.46865" lon="1.66364">
        <ele>37</ele>
        <time>2024-03-21T00:32:32Z</time>
      </trkpt>
      <trkpt lat="50.46855" lon="1.66364">
        <ele>37</ele>
        <time>2024-03-21T00:32:34Z</time>
      </trkpt>
      <trkpt lat="50.46762" lon="1.66321">
        <ele>38</ele>
        <time>2024-03-21T00:32:51Z</time>
      </trkpt>
      <trkpt lat="50.46733" lon="1.66312">
        <ele>37</ele>
        <time>2024-03-21T00:32:56Z</time>
      </trkpt>
      <trkpt lat="50.46719" lon="1.66314">
        <ele>36</ele>
        <time>2024-03-21T00:32:59Z</time>
      </trkpt>
      <trkpt lat="50.46676" lon="1.66387">
        <ele>36</ele>
        <time>2024-03-21T00:33:10Z</time>
      </trkpt>
      <trkpt lat="50.46665" lon="1.66397">
        <ele>36</ele>
        <time>2024-03-21T00:33:12Z</time>
      </trkpt>
      <trkpt lat="50.4666" lon="1.664">
        <ele>36</ele>
        <time>2024-03-21T00:33:13Z</time>
      </trkpt>
      <trkpt lat="50.46624" lon="1.66407">
        <ele>33</ele>
        <time>2024-03-21T00:33:20Z</time>
      </trkpt>
      <trkpt lat="50.4652" lon="1.66426">
        <ele>29</ele>
        <time>2024-03-21T00:33:38Z</time>
      </trkpt>
      <trkpt lat="50.46402" lon="1.66453">
        <ele>29</ele>
        <time>2024-03-21T00:33:59Z</time>
      </trkpt>
      <trkpt lat="50.46263" lon="1.66476">
        <ele>28</ele>
        <time>2024-03-21T00:34:24Z</time>
      </trkpt>
      <trkpt lat="50.46233" lon="1.66485">
        <ele>28</ele>
        <time>2024-03-21T00:34:30Z</time>
      </trkpt>
      <trkpt lat="50.46195" lon="1.66489">
        <ele>29</ele>
        <time>2024-03-21T00:34:36Z</time>
      </trkpt>
      <trkpt lat="50.46182" lon="1.66487">
        <ele>29</ele>
        <time>2024-03-21T00:34:39Z</time>
      </trkpt>
      <trkpt lat="50.46115" lon="1.6644">
        <ele>28</ele>
        <time>2024-03-21T00:34:52Z</time>
      </trkpt>
      <trkpt lat="50.46026" lon="1.66418">
        <ele>27</ele>
        <time>2024-03-21T00:35:08Z</time>
      </trkpt>
      <trkpt lat="50.45984" lon="1.66423">
        <ele>26</ele>
        <time>2024-03-21T00:35:15Z</time>
      </trkpt>
      <trkpt lat="50.45903" lon="1.66436">
        <ele>24</ele>
        <time>2024-03-21T00:35:30Z</time>
      </trkpt>
      <trkpt lat="50.45858" lon="1.66433">
        <ele>22</ele>
        <time>2024-03-21T00:35:38Z</time>
      </trkpt>
      <trkpt lat="50.45771" lon="1.66416">
        <ele>18</ele>
        <time>2024-03-21T00:35:53Z</time>
      </trkpt>
      <trkpt lat="50.45722" lon="1.664">
        <ele>17</ele>
        <time>2024-03-21T00:36:02Z</time>
      </trkpt>
      <trkpt lat="50.45683" lon="1.66392">
        <ele>16</ele>
        <time>2024-03-21T00:36:09Z</time>
      </trkpt>
      <trkpt lat="50.45664" lon="1.66389">
        <ele>16</ele>
        <time>2024-03-21T00:36:13Z</time>
      </trkpt>
      <trkpt lat="50.45565" lon="1.66389">
        <ele>15</ele>
        <time>2024-03-21T00:36:30Z</time>
      </trkpt>
      <trkpt lat="50.45432" lon="1.6636">
        <ele>12</ele>
        <time>2024-03-21T00:36:54Z</time>
      </trkpt>
      <trkpt lat="50.45345" lon="1.66377">
        <ele>12</ele>
        <time>2024-03-21T00:37:10Z</time>
      </trkpt>
      <trkpt lat="50.45312" lon="1.66387">
        <ele>13</ele>
        <time>2024-03-21T00:37:16Z</time>
      </trkpt>
      <trkpt lat="50.45176" lon="1.6644">
        <ele>14</ele>
        <time>2024-03-21T00:37:41Z</time>
      </trkpt>
      <trkpt lat="50.4502" lon="1.66586">
        <ele>14</ele>
        <time>2024-03-21T00:38:13Z</time>
      </trkpt>
      <trkpt lat="50.44884" lon="1.66655">
        <ele>15</ele>
        <time>2024-03-21T00:38:39Z</time>
      </trkpt>
      <trkpt lat="50.44788" lon="1.66707">
        <ele>15</ele>
        <time>2024-03-21T00:38:57Z</time>
      </trkpt>
      <trkpt lat="50.44751" lon="1.66715">
        <ele>16</ele>
        <time>2024-03-21T00:39:03Z</time>
      </trkpt>
      <trkpt lat="50.44637" lon="1.66716">
        <ele>16</ele>
        <time>2024-03-21T00:39:24Z</time>
      </trkpt>
      <trkpt lat="50.44558" lon="1.66722">
        <ele>17</ele>
        <time>2024-03-21T00:39:38Z</time>
      </trkpt>
      <trkpt lat="50.44357" lon="1.66755">
        <ele>18</ele>
        <time>2024-03-21T00:40:14Z</time>
      </trkpt>
      <trkpt lat="50.44282" lon="1.6677">
        <ele>17</ele>
        <time>2024-03-21T00:40:27Z</time>
      </trkpt>
      <trkpt lat="50.44231" lon="1.66769">
        <ele>15</ele>
        <time>2024-03-21T00:40:36Z</time>
      </trkpt>
      <trkpt lat="50.44196" lon="1.66742">
        <ele>14</ele>
        <time>2024-03-21T00:40:43Z</time>
      </trkpt>
      <trkpt lat="50.44118" lon="1.6664">
        <ele>13</ele>
        <time>2024-03-21T00:41:01Z</time>
      </trkpt>
      <trkpt lat="50.44052" lon="1.66541">
        <ele>11</ele>
        <time>2024-03-21T00:41:17Z</time>
      </trkpt>
      <trkpt lat="50.44031" lon="1.66504">
        <ele>12</ele>
        <time>2024-03-21T00:41:23Z</time>
      </trkpt>
      <trkpt lat="50.4402" lon="1.66512">
        <ele>11</ele>
        <time>2024-03-21T00:41:25Z</time>
      </trkpt>
      <trkpt lat="50.4401" lon="1.66527">
        <ele>10</ele>
        <time>2024-03-21T00:41:28Z</time>
      </trkpt>
      <trkpt lat="50.44014" lon="1.66617">
        <ele>8</ele>
        <time>2024-03-21T00:41:38Z</time>
      </trkpt>
      <trkpt lat="50.44007" lon="1.66629">
        <ele>8</ele>
        <time>2024-03-21T00:41:40Z</time>
      </trkpt>
      <trkpt lat="50.43997" lon="1.66639">
        <ele>7</ele>
        <time>2024-03-21T00:41:42Z</time>
      </trkpt>
      <trkpt lat="50.43921" lon="1.66663">
        <ele>9</ele>
        <time>2024-03-21T00:41:56Z</time>
      </trkpt>
      <trkpt lat="50.4388" lon="1.66691">
        <ele>11</ele>
        <time>2024-03-21T00:42:04Z</time>
      </trkpt>
      <trkpt lat="50.43851" lon="1.66736">
        <ele>13</ele>
        <time>2024-03-21T00:42:11Z</time>
      </trkpt>
      <trkpt lat="50.43805" lon="1.66788">
        <ele>15</ele>
        <time>2024-03-21T00:42:21Z</time>
      </trkpt>
      <trkpt lat="50.4376" lon="1.66817">
        <ele>17</ele>
        <time>2024-03-21T00:42:29Z</time>
      </trkpt>
      <trkpt lat="50.43638" lon="1.66828">
        <ele>19</ele>
        <time>2024-03-21T00:42:51Z</time>
      </trkpt>
      <trkpt lat="50.43581" lon="1.66851">
        <ele>21</ele>
        <time>2024-03-21T00:43:02Z</time>
      </trkpt>
      <trkpt lat="50.43531" lon="1.66892">
        <ele>19</ele>
        <time>2024-03-21T00:43:12Z</time>
      </trkpt>
      <trkpt lat="50.43493" lon="1.66939">
        <ele>19</ele>
        <time>2024-03-21T00:43:20Z</time>
      </trkpt>
      <trkpt lat="50.43429" lon="1.67051">
        <ele>18</ele>
        <time>2024-03-21T00:43:37Z</time>
      </trkpt>
      <trkpt lat="50.43353" lon="1.67161">
        <ele>18</ele>
        <time>2024-03-21T00:43:56Z</time>
      </trkpt>
      <trkpt lat="50.43326" lon="1.67197">
        <ele>17</ele>
        <time>2024-03-21T00:44:02Z</time>
      </trkpt>
      <trkpt lat="50.43291" lon="1.67248">
        <ele>16</ele>
        <time>2024-03-21T00:44:11Z</time>
      </trkpt>
      <trkpt lat="50.43205" lon="1.67334">
        <ele>10</ele>
        <time>2024-03-21T00:44:29Z</time>
      </trkpt>
      <trkpt lat="50.43173" lon="1.6728">
        <ele>10</ele>
        <time>2024-03-21T00:44:37Z</time>
      </trkpt>
      <trkpt lat="50.43146" lon="1.6718">
        <ele>12</ele>
        <time>2024-03-21T00:44:49Z</time>
      </trkpt>
      <trkpt lat="50.43116" lon="1.6714">
        <ele>12</ele>
        <time>2024-03-21T00:44:56Z</time>
      </trkpt>
      <trkpt lat="50.4309" lon="1.67114">
        <ele>12</ele>
        <time>2024-03-21T00:45:02Z</time>
      </trkpt>
      <trkpt lat="50.43109" lon="1.66912">
        <ele>16</ele>
        <time>2024-03-21T00:45:25Z</time>
      </trkpt>
      <trkpt lat="50.43101" lon="1.66904">
        <ele>16</ele>
        <time>2024-03-21T00:45:27Z</time>
      </trkpt>
      <trkpt lat="50.43081" lon="1.66796">
        <ele>19</ele>
        <time>2024-03-21T00:45:39Z</time>
      </trkpt>
      <trkpt lat="50.43062" lon="1.66706">
        <ele>21</ele>
        <time>2024-03-21T00:45:50Z</time>
      </trkpt>
      <trkpt lat="50.43047" lon="1.66661">
        <ele>22</ele>
        <time>2024-03-21T00:45:56Z</time>
      </trkpt>
      <trkpt lat="50.4299" lon="1.66537">
        <ele>32</ele>
        <time>2024-03-21T00:46:13Z</time>
      </trkpt>
      <trkpt lat="50.42926" lon="1.66381">
        <ele>36</ele>
        <time>2024-03-21T00:46:34Z</time>
      </trkpt>
      <trkpt lat="50.42892" lon="1.66302">
        <ele>36</ele>
        <time>2024-03-21T00:46:45Z</time>
      </trkpt>
      <trkpt lat="50.42854" lon="1.6623">
        <ele>34</ele>
        <time>2024-03-21T00:46:56Z</time>
      </trkpt>
      <trkpt lat="50.42772" lon="1.66094">
        <ele>30</ele>
        <time>2024-03-21T00:47:17Z</time>
      </trkpt>
      <trkpt lat="50.42729" lon="1.66038">
        <ele>30</ele>
        <time>2024-03-21T00:47:27Z</time>
      </trkpt>
      <trkpt lat="50.42664" lon="1.65958">
        <ele>31</ele>
        <time>2024-03-21T00:47:42Z</time>
      </trkpt>
      <trkpt lat="50.42595" lon="1.659">
        <ele>30</ele>
        <time>2024-03-21T00:47:56Z</time>
      </trkpt>
      <trkpt lat="50.42545" lon="1.65871">
        <ele>30</ele>
        <time>2024-03-21T00:48:05Z</time>
      </trkpt>
      <trkpt lat="50.42443" lon="1.6582">
        <ele>29</ele>
        <time>2024-03-21T00:48:24Z</time>
      </trkpt>
      <trkpt lat="50.42326" lon="1.65748">
        <ele>30</ele>
        <time>2024-03-21T00:48:46Z</time>
      </trkpt>
      <trkpt lat="50.42304" lon="1.6573">
        <ele>30</ele>
        <time>2024-03-21T00:48:51Z</time>
      </trkpt>
      <trkpt lat="50.42282" lon="1.65706">
        <ele>29</ele>
        <time>2024-03-21T00:48:56Z</time>
      </trkpt>
      <trkpt lat="50.42156" lon="1.65545">
        <ele>26</ele>
        <time>2024-03-21T00:49:25Z</time>
      </trkpt>
      <trkpt lat="50.42138" lon="1.65528">
        <ele>26</ele>
        <time>2024-03-21T00:49:28Z</time>
      </trkpt>
      <trkpt lat="50.42119" lon="1.65514">
        <ele>25</ele>
        <time>2024-03-21T00:49:32Z</time>
      </trkpt>
      <trkpt lat="50.42096" lon="1.65503">
        <ele>24</ele>
        <time>2024-03-21T00:49:36Z</time>
      </trkpt>
      <trkpt lat="50.42074" lon="1.65494">
        <ele>23</ele>
        <time>2024-03-21T00:49:40Z</time>
      </trkpt>
      <trkpt lat="50.42031" lon="1.65484">
        <ele>21</ele>
        <time>2024-03-21T00:49:48Z</time>
      </trkpt>
      <trkpt lat="50.42016" lon="1.65485">
        <ele>21</ele>
        <time>2024-03-21T00:49:51Z</time>
      </trkpt>
      <trkpt lat="50.41943" lon="1.65517">
        <ele>18</ele>
        <time>2024-03-21T00:50:04Z</time>
      </trkpt>
      <trkpt lat="50.41918" lon="1.65518">
        <ele>17</ele>
        <time>2024-03-21T00:50:09Z</time>
      </trkpt>
      <trkpt lat="50.41912" lon="1.65514">
        <ele>17</ele>
        <time>2024-03-21T00:50:10Z</time>
      </trkpt>
      <trkpt lat="50.41906" lon="1.65509">
        <ele>17</ele>
        <time>2024-03-21T00:50:11Z</time>
      </trkpt>
      <trkpt lat="50.41897" lon="1.65494">
        <ele>17</ele>
        <time>2024-03-21T00:50:13Z</time>
      </trkpt>
      <trkpt lat="50.41896" lon="1.65486">
        <ele>17</ele>
        <time>2024-03-21T00:50:14Z</time>
      </trkpt>
      <trkpt lat="50.41889" lon="1.6547">
        <ele>17</ele>
        <time>2024-03-21T00:50:16Z</time>
      </trkpt>
      <trkpt lat="50.41878" lon="1.65462">
        <ele>17</ele>
        <time>2024-03-21T00:50:19Z</time>
      </trkpt>
      <trkpt lat="50.4187" lon="1.65462">
        <ele>17</ele>
        <time>2024-03-21T00:50:20Z</time>
      </trkpt>
      <trkpt lat="50.4186" lon="1.65447">
        <ele>17</ele>
        <time>2024-03-21T00:50:23Z</time>
      </trkpt>
      <trkpt lat="50.41847" lon="1.65422">
        <ele>17</ele>
        <time>2024-03-21T00:50:26Z</time>
      </trkpt>
      <trkpt lat="50.41838" lon="1.65372">
        <ele>16</ele>
        <time>2024-03-21T00:50:32Z</time>
      </trkpt>
      <trkpt lat="50.41817" lon="1.65125">
        <ele>14</ele>
        <time>2024-03-21T00:51:00Z</time>
      </trkpt>
      <trkpt lat="50.41812" lon="1.65095">
        <ele>13</ele>
        <time>2024-03-21T00:51:04Z</time>
      </trkpt>
      <trkpt lat="50.41793" lon="1.64803">
        <ele>10</ele>
        <time>2024-03-21T00:51:37Z</time>
      </trkpt>
      <trkpt lat="50.4179" lon="1.64779">
        <ele>10</ele>
        <time>2024-03-21T00:51:40Z</time>
      </trkpt>
      <trkpt lat="50.41786" lon="1.64743">
        <ele>9</ele>
        <time>2024-03-21T00:51:44Z</time>
      </trkpt>
      <trkpt lat="50.4178" lon="1.64737">
        <ele>9</ele>
        <time>2024-03-21T00:51:45Z</time>
      </trkpt>
      <trkpt lat="50.41772" lon="1.64734">
        <ele>9</ele>
        <time>2024-03-21T00:51:47Z</time>
      </trkpt>
      <trkpt lat="50.41753" lon="1.64744">
        <ele>9</ele>
        <time>2024-03-21T00:51:50Z</time>
      </trkpt>
      <trkpt lat="50.40917" lon="1.64756">
        <ele>11</ele>
        <time>2024-03-21T00:54:19Z</time>
      </trkpt>
      <trkpt lat="50.4088" lon="1.64753">
        <ele>11</ele>
        <time>2024-03-21T00:54:26Z</time>
      </trkpt>
      <trkpt lat="50.40841" lon="1.64746">
        <ele>10</ele>
        <time>2024-03-21T00:54:33Z</time>
      </trkpt>
      <trkpt lat="50.40831" lon="1.64742">
        <ele>10</ele>
        <time>2024-03-21T00:54:34Z</time>
      </trkpt>
      <trkpt lat="50.4082" lon="1.64733">
        <ele>10</ele>
        <time>2024-03-21T00:54:37Z</time>
      </trkpt>
      <trkpt lat="50.40817" lon="1.64749">
        <ele>11</ele>
        <time>2024-03-21T00:54:39Z</time>
      </trkpt>
      <trkpt lat="50.40809" lon="1.6475">
        <ele>11</ele>
        <time>2024-03-21T00:54:40Z</time>
      </trkpt>
      <trkpt lat="50.40805" lon="1.64755">
        <ele>11</ele>
        <time>2024-03-21T00:54:41Z</time>
      </trkpt>
      <trkpt lat="50.40801" lon="1.64762">
        <ele>12</ele>
        <time>2024-03-21T00:54:42Z</time>
      </trkpt>
      <trkpt lat="50.40798" lon="1.64774">
        <ele>12</ele>
        <time>2024-03-21T00:54:43Z</time>
      </trkpt>
      <trkpt lat="50.4078" lon="1.64776">
        <ele>13</ele>
        <time>2024-03-21T00:54:47Z</time>
      </trkpt>
      <trkpt lat="50.40777" lon="1.6477">
        <ele>13</ele>
        <time>2024-03-21T00:54:48Z</time>
      </trkpt>
      <trkpt lat="50.40763" lon="1.64753">
        <ele>13</ele>
        <time>2024-03-21T00:54:51Z</time>
      </trkpt>
      <trkpt lat="50.40759" lon="1.6475">
        <ele>13</ele>
        <time>2024-03-21T00:54:51Z</time>
      </trkpt>
      <trkpt lat="50.40753" lon="1.6475">
        <ele>13</ele>
        <time>2024-03-21T00:54:53Z</time>
      </trkpt>
      <trkpt lat="50.40751" lon="1.64733">
        <ele>12</ele>
        <time>2024-03-21T00:54:55Z</time>
      </trkpt>
      <trkpt lat="50.40736" lon="1.64743">
        <ele>13</ele>
        <time>2024-03-21T00:54:57Z</time>
      </trkpt>
      <trkpt lat="50.40705" lon="1.64749">
        <ele>13</ele>
        <time>2024-03-21T00:55:03Z</time>
      </trkpt>
      <trkpt lat="50.4065" lon="1.6475">
        <ele>14</ele>
        <time>2024-03-21T00:55:13Z</time>
      </trkpt>
      <trkpt lat="50.40623" lon="1.64756">
        <ele>13</ele>
        <time>2024-03-21T00:55:18Z</time>
      </trkpt>
      <trkpt lat="50.40613" lon="1.6476">
        <ele>13</ele>
        <time>2024-03-21T00:55:19Z</time>
      </trkpt>
      <trkpt lat="50.40593" lon="1.64774">
        <ele>14</ele>
        <time>2024-03-21T00:55:23Z</time>
      </trkpt>
      <trkpt lat="50.40566" lon="1.64797">
        <ele>13</ele>
        <time>2024-03-21T00:55:29Z</time>
      </trkpt>
      <trkpt lat="50.40456" lon="1.64934">
        <ele>14</ele>
        <time>2024-03-21T00:55:54Z</time>
      </trkpt>
      <trkpt lat="50.40435" lon="1.64959">
        <ele>14</ele>
        <time>2024-03-21T00:55:58Z</time>
      </trkpt>
      <trkpt lat="50.40397" lon="1.64983">
        <ele>13</ele>
        <time>2024-03-21T00:56:06Z</time>
      </trkpt>
      <trkpt lat="50.40382" lon="1.64988">
        <ele>13</ele>
        <time>2024-03-21T00:56:08Z</time>
      </trkpt>
      <trkpt lat="50.40351" lon="1.64995">
        <ele>12</ele>
        <time>2024-03-21T00:56:14Z</time>
      </trkpt>
      <trkpt lat="50.40317" lon="1.64992">
        <ele>11</ele>
        <time>2024-03-21T00:56:20Z</time>
      </trkpt>
      <trkpt lat="50.40243" lon="1.6499">
        <ele>11</ele>
        <time>2024-03-21T00:56:33Z</time>
      </trkpt>
      <trkpt lat="50.40191" lon="1.6498">
        <ele>12</ele>
        <time>2024-03-21T00:56:43Z</time>
      </trkpt>
      <trkpt lat="50.40152" lon="1.64969">
        <ele>12</ele>
        <time>2024-03-21T00:56:50Z</time>
      </trkpt>
      <trkpt lat="50.40137" lon="1.64961">
        <ele>12</ele>
        <time>2024-03-21T00:56:52Z</time>
      </trkpt>
      <trkpt lat="50.40134" lon="1.64962">
        <ele>12</ele>
        <time>2024-03-21T00:56:53Z</time>
      </trkpt>
      <trkpt lat="50.40132" lon="1.64956">
        <ele>12</ele>
        <time>2024-03-21T00:56:54Z</time>
      </trkpt>
      <trkpt lat="50.40128" lon="1.64954">
        <ele>12</ele>
        <time>2024-03-21T00:56:55Z</time>
      </trkpt>
      <trkpt lat="50.40124" lon="1.64961">
        <ele>12</ele>
        <time>2024-03-21T00:56:56Z</time>
      </trkpt>
      <trkpt lat="50.40121" lon="1.6496">
        <ele>12</ele>
        <time>2024-03-21T00:56:56Z</time>
      </trkpt>
      <trkpt lat="50.4011" lon="1.64948">
        <ele>12</ele>
        <time>2024-03-21T00:56:59Z</time>
      </trkpt>
      <trkpt lat="50.40094" lon="1.64935">
        <ele>12</ele>
        <time>2024-03-21T00:57:02Z</time>
      </trkpt>
      <trkpt lat="50.40057" lon="1.64917">
        <ele>11</ele>
        <time>2024-03-21T00:57:09Z</time>
      </trkpt>
      <trkpt lat="50.39947" lon="1.64901">
        <ele>9</ele>
        <time>2024-03-21T00:57:28Z</time>
      </trkpt>
      <trkpt lat="50.39902" lon="1.64896">
        <ele>8</ele>
        <time>2024-03-21T00:57:36Z</time>
      </trkpt>
      <trkpt lat="50.39852" lon="1.64898">
        <ele>8</ele>
        <time>2024-03-21T00:57:45Z</time>
      </trkpt>
      <trkpt lat="50.39782" lon="1.6491">
        <ele>7</ele>
        <time>2024-03-21T00:57:58Z</time>
      </trkpt>
      <trkpt lat="50.39743" lon="1.64923">
        <ele>7</ele>
        <time>2024-03-21T00:58:05Z</time>
      </trkpt>
      <trkpt lat="50.39679" lon="1.64952">
        <ele>8</ele>
        <time>2024-03-21T00:58:17Z</time>
      </trkpt>
      <trkpt lat="50.39595" lon="1.64993">
        <ele>7</ele>
        <time>2024-03-21T00:58:32Z</time>
      </trkpt>
      <trkpt lat="50.39517" lon="1.65025">
        <ele>6</ele>
        <time>2024-03-21T00:58:47Z</time>
      </trkpt>
      <trkpt lat="50.39286" lon="1.65089">
        <ele>4</ele>
        <time>2024-03-21T00:59:28Z</time>
      </trkpt>
      <trkpt lat="50.39194" lon="1.65106">
        <ele>5</ele>
        <time>2024-03-21T00:59:45Z</time>
      </trkpt>
      <trkpt lat="50.39035" lon="1.6511">
        <ele>6</ele>
        <time>2024-03-21T01:00:13Z</time>
      </trkpt>
      <trkpt lat="50.38879" lon="1.65135">
        <ele>5</ele>
        <time>2024-03-21T01:00:41Z</time>
      </trkpt>
      <trkpt lat="50.38809" lon="1.65158">
        <ele>4</ele>
        <time>2024-03-21T01:00:54Z</time>
      </trkpt>
      <trkpt lat="50.38765" lon="1.65165">
        <ele>4</ele>
        <time>2024-03-21T01:01:02Z</time>
      </trkpt>
      <trkpt lat="50.38658" lon="1.65149">
        <ele>5</ele>
        <time>2024-03-21T01:01:21Z</time>
      </trkpt>
      <trkpt lat="50.38593" lon="1.65125">
        <ele>4</ele>
        <time>2024-03-21T01:01:33Z</time>
      </trkpt>
      <trkpt lat="50.38397" lon="1.65162">
        <ele>4</ele>
        <time>2024-03-21T01:02:08Z</time>
      </trkpt>
      <trkpt lat="50.38341" lon="1.65169">
        <ele>4</ele>
        <time>2024-03-21T01:02:18Z</time>
      </trkpt>
      <trkpt lat="50.38339" lon="1.65159">
        <ele>4</ele>
        <time>2024-03-21T01:02:19Z</time>
      </trkpt>
      <trkpt lat="50.38335" lon="1.65075">
        <ele>4</ele>
        <time>2024-03-21T01:02:29Z</time>
      </trkpt>
      <trkpt lat="50.38331" lon="1.65038">
        <ele>3</ele>
        <time>2024-03-21T01:02:33Z</time>
      </trkpt>
      <trkpt lat="50.38315" lon="1.64987">
        <ele>3</ele>
        <time>2024-03-21T01:02:39Z</time>
      </trkpt>
      <trkpt lat="50.38293" lon="1.64947">
        <ele>3</ele>
        <time>2024-03-21T01:02:45Z</time>
      </trkpt>
      <trkpt lat="50.3827" lon="1.64924">
        <ele>3</ele>
        <time>2024-03-21T01:02:50Z</time>
      </trkpt>
      <trkpt lat="50.38223" lon="1.64888">
        <ele>3</ele>
        <time>2024-03-21T01:02:59Z</time>
      </trkpt>
      <trkpt lat="50.38186" lon="1.64867">
        <ele>3</ele>
        <time>2024-03-21T01:03:06Z</time>
      </trkpt>
      <trkpt lat="50.38147" lon="1.64852">
        <ele>3</ele>
        <time>2024-03-21T01:03:14Z</time>
      </trkpt>
      <trkpt lat="50.38115" lon="1.64831">
        <ele>4</ele>
        <time>2024-03-21T01:03:20Z</time>
      </trkpt>
      <trkpt lat="50.38105" lon="1.64832">
        <ele>4</ele>
        <time>2024-03-21T01:03:22Z</time>
      </trkpt>
      <trkpt lat="50.38061" lon="1.64853">
        <ele>5</ele>
        <time>2024-03-21T01:03:30Z</time>
      </trkpt>
      <trkpt lat="50.3804" lon="1.64856">
        <ele>5</ele>
        <time>2024-03-21T01:03:33Z</time>
      </trkpt>
      <trkpt lat="50.3801" lon="1.64854">
        <ele>6</ele>
        <time>2024-03-21T01:03:39Z</time>
      </trkpt>
      <trkpt lat="50.37768" lon="1.64794">
        <ele>6</ele>
        <time>2024-03-21T01:04:22Z</time>
      </trkpt>
      <trkpt lat="50.37677" lon="1.64667">
        <ele>2</ele>
        <time>2024-03-21T01:04:44Z</time>
      </trkpt>
      <trkpt lat="50.37654" lon="1.64656">
        <ele>2</ele>
        <time>2024-03-21T01:04:48Z</time>
      </trkpt>
      <trkpt lat="50.37633" lon="1.646">
        <ele>3</ele>
        <time>2024-03-21T01:04:56Z</time>
      </trkpt>
      <trkpt lat="50.37612" lon="1.64504">
        <ele>2</ele>
        <time>2024-03-21T01:05:07Z</time>
      </trkpt>
      <trkpt lat="50.37597" lon="1.64392">
        <ele>2</ele>
        <time>2024-03-21T01:05:20Z</time>
      </trkpt>
      <trkpt lat="50.37554" lon="1.64251">
        <ele>4</ele>
        <time>2024-03-21T01:05:38Z</time>
      </trkpt>
      <trkpt lat="50.37543" lon="1.64194">
        <ele>4</ele>
        <time>2024-03-21T01:05:45Z</time>
      </trkpt>
      <trkpt lat="50.37538" lon="1.64112">
        <ele>4</ele>
        <time>2024-03-21T01:05:54Z</time>
      </trkpt>
      <trkpt lat="50.37528" lon="1.64042">
        <ele>4</ele>
        <time>2024-03-21T01:06:02Z</time>
      </trkpt>
      <trkpt lat="50.37494" lon="1.63863">
        <ele>4</ele>
        <time>2024-03-21T01:06:23Z</time>
      </trkpt>
      <trkpt lat="50.37486" lon="1.638">
        <ele>3</ele>
        <time>2024-03-21T01:06:31Z</time>
      </trkpt>
      <trkpt lat="50.37481" lon="1.63705">
        <ele>3</ele>
        <time>2024-03-21T01:06:42Z</time>
      </trkpt>
      <trkpt lat="50.37486" lon="1.63415">
        <ele>4</ele>
        <time>2024-03-21T01:07:14Z</time>
      </trkpt>
      <trkpt lat="50.37494" lon="1.63314">
        <ele>5</ele>
        <time>2024-03-21T01:07:26Z</time>
      </trkpt>
      <trkpt lat="50.37493" lon="1.63169">
        <ele>3</ele>
        <time>2024-03-21T01:07:42Z</time>
      </trkpt>
      <trkpt lat="50.37492" lon="1.63064">
        <ele>3</ele>
        <time>2024-03-21T01:07:54Z</time>
      </trkpt>
      <trkpt lat="50.37489" lon="1.63046">
        <ele>4</ele>
        <time>2024-03-21T01:07:56Z</time>
      </trkpt>
      <trkpt lat="50.37481" lon="1.63029">
        <ele>4</ele>
        <time>2024-03-21T01:07:59Z</time>
      </trkpt>
      <trkpt lat="50.37372" lon="1.63103">
        <ele>4</ele>
        <time>2024-03-21T01:08:20Z</time>
      </trkpt>
      <trkpt lat="50.37362" lon="1.63102">
        <ele>4</ele>
        <time>2024-03-21T01:08:22Z</time>
      </trkpt>
      <trkpt lat="50.37356" lon="1.63098">
        <ele>4</ele>
        <time>2024-03-21T01:08:23Z</time>
      </trkpt>
      <trkpt lat="50.3735" lon="1.63085">
        <ele>4</ele>
        <time>2024-03-21T01:08:25Z</time>
      </trkpt>
      <trkpt lat="50.37299" lon="1.6289">
        <ele>4</ele>
        <time>2024-03-21T01:08:49Z</time>
      </trkpt>
      <trkpt lat="50.3727" lon="1.62816">
        <ele>3</ele>
        <time>2024-03-21T01:08:59Z</time>
      </trkpt>
      <trkpt lat="50.37227" lon="1.62622">
        <ele>5</ele>
        <time>2024-03-21T01:09:22Z</time>
      </trkpt>
      <trkpt lat="50.37206" lon="1.62552">
        <ele>5</ele>
        <time>2024-03-21T01:09:31Z</time>
      </trkpt>
      <trkpt lat="50.37206" lon="1.62547">
        <ele>5</ele>
        <time>2024-03-21T01:09:31Z</time>
      </trkpt>
      <trkpt lat="50.37208" lon="1.62537">
        <ele>5</ele>
        <time>2024-03-21T01:09:32Z</time>
      </trkpt>
      <trkpt lat="50.37208" lon="1.62531">
        <ele>5</ele>
        <time>2024-03-21T01:09:33Z</time>
      </trkpt>
      <trkpt lat="50.37235" lon="1.62434">
        <ele>7</ele>
        <time>2024-03-21T01:09:45Z</time>
      </trkpt>
      <trkpt lat="50.37244" lon="1.62412">
        <ele>8</ele>
        <time>2024-03-21T01:09:48Z</time>
      </trkpt>
      <trkpt lat="50.37254" lon="1.62398">
        <ele>8</ele>
        <time>2024-03-21T01:09:50Z</time>
      </trkpt>
      <trkpt lat="50.37281" lon="1.62379">
        <ele>8</ele>
        <time>2024-03-21T01:09:56Z</time>
      </trkpt>
      <trkpt lat="50.37323" lon="1.62354">
        <ele>7</ele>
        <time>2024-03-21T01:10:04Z</time>
      </trkpt>
      <trkpt lat="50.37334" lon="1.62339">
        <ele>7</ele>
        <time>2024-03-21T01:10:06Z</time>
      </trkpt>
      <trkpt lat="50.37351" lon="1.62296">
        <ele>6</ele>
        <time>2024-03-21T01:10:12Z</time>
      </trkpt>
      <trkpt lat="50.37362" lon="1.62277">
        <ele>6</ele>
        <time>2024-03-21T01:10:15Z</time>
      </trkpt>
      <trkpt lat="50.3778" lon="1.61623">
        <ele>6</ele>
        <time>2024-03-21T01:12:00Z</time>
      </trkpt>
      <trkpt lat="50.37832" lon="1.61492">
        <ele>6</ele>
        <time>2024-03-21T01:12:18Z</time>
      </trkpt>
      <trkpt lat="50.37859" lon="1.61444">
        <ele>6</ele>
        <time>2024-03-21T01:12:25Z</time>
      </trkpt>
      <trkpt lat="50.37978" lon="1.61279">
        <ele>6</ele>
        <time>2024-03-21T01:12:53Z</time>
      </trkpt>
      <trkpt lat="50.3799" lon="1.61255">
        <ele>6</ele>
        <time>2024-03-21T01:12:56Z</time>
      </trkpt>
      <trkpt lat="50.38016" lon="1.6114">
        <ele>7</ele>
        <time>2024-03-21T01:13:10Z</time>
      </trkpt>
      <trkpt lat="50.38014" lon="1.61088">
        <ele>8</ele>
        <time>2024-03-21T01:13:16Z</time>
      </trkpt>
      <trkpt lat="50.38009" lon="1.61085">
        <ele>8</ele>
        <time>2024-03-21T01:13:17Z</time>
      </trkpt>
      <trkpt lat="50.38014" lon="1.61088">
        <ele>8</ele>
        <time>2024-03-21T01:13:18Z</time>
      </trkpt>
      <trkpt lat="50.38166" lon="1.61038">
        <ele>4</ele>
        <time>2024-03-21T01:13:46Z</time>
      </trkpt>
      <trkpt lat="50.38262" lon="1.6101">
        <ele>6</ele>
        <time>2024-03-21T01:14:03Z</time>
      </trkpt>
      <trkpt lat="50.38259" lon="1.60941">
        <ele>7</ele>
        <time>2024-03-21T01:14:11Z</time>
      </trkpt>
      <trkpt lat="50.38257" lon="1.60894">
        <ele>7</ele>
        <time>2024-03-21T01:14:16Z</time>
      </trkpt>
      <trkpt lat="50.38264" lon="1.6085">
        <ele>8</ele>
        <time>2024-03-21T01:14:22Z</time>
      </trkpt>
      <trkpt lat="50.3827" lon="1.60795">
        <ele>7</ele>
        <time>2024-03-21T01:14:28Z</time>
      </trkpt>
      <trkpt lat="50.3827" lon="1.6075">
        <ele>7</ele>
        <time>2024-03-21T01:14:33Z</time>
      </trkpt>
      <trkpt lat="50.3835" lon="1.60705">
        <ele>7</ele>
        <time>2024-03-21T01:14:48Z</time>
      </trkpt>
      <trkpt lat="50.38355" lon="1.60729">
        <ele>7</ele>
        <time>2024-03-21T01:14:51Z</time>
      </trkpt>
      <trkpt lat="50.38234" lon="1.60097">
        <ele>14</ele>
        <time>2024-03-21T01:16:06Z</time>
      </trkpt>
      <trkpt lat="50.38251" lon="1.59811">
        <ele>15</ele>
        <time>2024-03-21T01:16:38Z</time>
      </trkpt>
      <trkpt lat="50.38266" lon="1.59596">
        <ele>14</ele>
        <time>2024-03-21T01:17:03Z</time>
      </trkpt>
      <trkpt lat="50.38271" lon="1.59566">
        <ele>14</ele>
        <time>2024-03-21T01:17:06Z</time>
      </trkpt>
      <trkpt lat="50.3829" lon="1.59537">
        <ele>13</ele>
        <time>2024-03-21T01:17:11Z</time>
      </trkpt>
      <trkpt lat="50.38421" lon="1.59425">
        <ele>9</ele>
        <time>2024-03-21T01:17:38Z</time>
      </trkpt>
      <trkpt lat="50.38502" lon="1.59359">
        <ele>5</ele>
        <time>2024-03-21T01:17:54Z</time>
      </trkpt>
      <trkpt lat="50.38497" lon="1.59332">
        <ele>5</ele>
        <time>2024-03-21T01:17:57Z</time>
      </trkpt>
      <trkpt lat="50.38502" lon="1.59359">
        <ele>5</ele>
        <time>2024-03-21T01:18:00Z</time>
      </trkpt>
      <trkpt lat="50.38515" lon="1.59379">
        <ele>5</ele>
        <time>2024-03-21T01:18:04Z</time>
      </trkpt>
      <trkpt lat="50.38576" lon="1.59517">
        <ele>4</ele>
        <time>2024-03-21T01:18:23Z</time>
      </trkpt>
      <trkpt lat="50.38682" lon="1.59739">
        <ele>4</ele>
        <time>2024-03-21T01:18:54Z</time>
      </trkpt>
      <trkpt lat="50.3882" lon="1.60018">
        <ele>4</ele>
        <time>2024-03-21T01:19:34Z</time>
      </trkpt>
      <trkpt lat="50.38872" lon="1.60116">
        <ele>5</ele>
        <time>2024-03-21T01:19:49Z</time>
      </trkpt>
      <trkpt lat="50.38919" lon="1.60184">
        <ele>7</ele>
        <time>2024-03-21T01:20:00Z</time>
      </trkpt>
      <trkpt lat="50.39079" lon="1.60392">
        <ele>4</ele>
        <time>2024-03-21T01:20:37Z</time>
      </trkpt>
      <trkpt lat="50.39102" lon="1.60433">
        <ele>4</ele>
        <time>2024-03-21T01:20:43Z</time>
      </trkpt>
      <trkpt lat="50.39116" lon="1.60496">
        <ele>3</ele>
        <time>2024-03-21T01:20:51Z</time>
      </trkpt>
      <trkpt lat="50.39124" lon="1.60509">
        <ele>3</ele>
        <time>2024-03-21T01:20:53Z</time>
      </trkpt>
      <trkpt lat="50.39116" lon="1.60496">
        <ele>3</ele>
        <time>2024-03-21T01:20:55Z</time>
      </trkpt>
      <trkpt lat="50.39139" lon="1.60451">
        <ele>3</ele>
        <time>2024-03-21T01:21:01Z</time>
      </trkpt>
      <trkpt lat="50.39295" lon="1.6024">
        <ele>3</ele>
        <time>2024-03-21T01:21:38Z</time>
      </trkpt>
      <trkpt lat="50.39331" lon="1.60211">
        <ele>3</ele>
        <time>2024-03-21T01:21:45Z</time>
      </trkpt>
      <trkpt lat="50.39341" lon="1.60205">
        <ele>2</ele>
        <time>2024-03-21T01:21:47Z</time>
      </trkpt>
      <trkpt lat="50.39351" lon="1.60204">
        <ele>2</ele>
        <time>2024-03-21T01:21:49Z</time>
      </trkpt>
      <trkpt lat="50.39367" lon="1.60198">
        <ele>2</ele>
        <time>2024-03-21T01:21:52Z</time>
      </trkpt>
      <trkpt lat="50.39518" lon="1.60116">
        <ele>3</ele>
        <time>2024-03-21T01:22:20Z</time>
      </trkpt>
      <trkpt lat="50.39763" lon="1.60003">
        <ele>4</ele>
        <time>2024-03-21T01:23:06Z</time>
      </trkpt>
      <trkpt lat="50.39887" lon="1.59901">
        <ele>4</ele>
        <time>2024-03-21T01:23:31Z</time>
      </trkpt>
      <trkpt lat="50.39892" lon="1.59899">
        <ele>4</ele>
        <time>2024-03-21T01:23:32Z</time>
      </trkpt>
      <trkpt lat="50.39905" lon="1.59898">
        <ele>4</ele>
        <time>2024-03-21T01:23:34Z</time>
      </trkpt>
      <trkpt lat="50.39931" lon="1.59881">
        <ele>4</ele>
        <time>2024-03-21T01:23:39Z</time>
      </trkpt>
      <trkpt lat="50.39972" lon="1.59848">
        <ele>4</ele>
        <time>2024-03-21T01:23:47Z</time>
      </trkpt>
      <trkpt lat="50.40182" lon="1.59671">
        <ele>3</ele>
        <time>2024-03-21T01:24:29Z</time>
      </trkpt>
      <trkpt lat="50.40232" lon="1.59631">
        <ele>4</ele>
        <time>2024-03-21T01:24:39Z</time>
      </trkpt>
      <trkpt lat="50.40241" lon="1.59623">
        <ele>4</ele>
        <time>2024-03-21T01:24:41Z</time>
      </trkpt>
      <trkpt lat="50.40241" lon="1.59618">
        <ele>4</ele>
        <time>2024-03-21T01:24:42Z</time>
      </trkpt>
      <trkpt lat="50.40229" lon="1.59584">
        <ele>4</ele>
        <time>2024-03-21T01:24:46Z</time>
      </trkpt>
      <trkpt lat="50.40214" lon="1.59534">
        <ele>4</ele>
        <time>2024-03-21T01:24:53Z</time>
      </trkpt>
      <trkpt lat="50.40282" lon="1.5948">
        <ele>5</ele>
        <time>2024-03-21T01:25:06Z</time>
      </trkpt>
      <trkpt lat="50.40284" lon="1.59473">
        <ele>5</ele>
        <time>2024-03-21T01:25:07Z</time>
      </trkpt>
      <trkpt lat="50.40299" lon="1.5926">
        <ele>4</ele>
        <time>2024-03-21T01:25:31Z</time>
      </trkpt>
      <trkpt lat="50.40321" lon="1.59263">
        <ele>4</ele>
        <time>2024-03-21T01:25:35Z</time>
      </trkpt>
      <trkpt lat="50.40322" lon="1.5925">
        <ele>4</ele>
        <time>2024-03-21T01:25:37Z</time>
      </trkpt>
      <trkpt lat="50.40325" lon="1.592">
        <ele>4</ele>
        <time>2024-03-21T01:25:42Z</time>
      </trkpt>
      <trkpt lat="50.40327" lon="1.59187">
        <ele>4</ele>
        <time>2024-03-21T01:25:44Z</time>
      </trkpt>
      <trkpt lat="50.40332" lon="1.59182">
        <ele>4</ele>
        <time>2024-03-21T01:25:45Z</time>
      </trkpt>
      <trkpt lat="50.40332" lon="1.59116">
        <ele>5</ele>
        <time>2024-03-21T01:25:52Z</time>
      </trkpt>
      <trkpt lat="50.40334" lon="1.59101">
        <ele>5</ele>
        <time>2024-03-21T01:25:54Z</time>
      </trkpt>
      <trkpt lat="50.40334" lon="1.59041">
        <ele>5</ele>
        <time>2024-03-21T01:26:01Z</time>
      </trkpt>
      <trkpt lat="50.40367" lon="1.58513">
        <ele>6</ele>
        <time>2024-03-21T01:27:01Z</time>
      </trkpt>
      <trkpt lat="50.40367" lon="1.58019">
        <ele>8</ele>
        <time>2024-03-21T01:27:57Z</time>
      </trkpt>
      <trkpt lat="50.40363" lon="1.58008">
        <ele>8</ele>
        <time>2024-03-21T01:27:59Z</time>
      </trkpt>
      <trkpt lat="50.40363" lon="1.57989">
        <ele>8</ele>
        <time>2024-03-21T01:28:01Z</time>
      </trkpt>
      <trkpt lat="50.40358" lon="1.57981">
        <ele>8</ele>
        <time>2024-03-21T01:28:02Z</time>
      </trkpt>
      <trkpt lat="50.40353" lon="1.57981">
        <ele>8</ele>
        <time>2024-03-21T01:28:03Z</time>
      </trkpt>
      <trkpt lat="50.40353" lon="1.57953">
        <ele>8</ele>
        <time>2024-03-21T01:28:06Z</time>
      </trkpt>
      <trkpt lat="50.40348" lon="1.57951">
        <ele>8</ele>
        <time>2024-03-21T01:28:07Z</time>
      </trkpt>
      <trkpt lat="50.40347" lon="1.57944">
        <ele>8</ele>
        <time>2024-03-21T01:28:08Z</time>
      </trkpt>
      <trkpt lat="50.40342" lon="1.5793">
        <ele>8</ele>
        <time>2024-03-21T01:28:10Z</time>
      </trkpt>
      <trkpt lat="50.40333" lon="1.57917">
        <ele>8</ele>
        <time>2024-03-21T01:28:12Z</time>
      </trkpt>
      <trkpt lat="50.40322" lon="1.5791">
        <ele>8</ele>
        <time>2024-03-21T01:28:14Z</time>
      </trkpt>
      <trkpt lat="50.40302" lon="1.57904">
        <ele>8</ele>
        <time>2024-03-21T01:28:18Z</time>
      </trkpt>
      <trkpt lat="50.40289" lon="1.57897">
        <ele>8</ele>
        <time>2024-03-21T01:28:20Z</time>
      </trkpt>
      <trkpt lat="50.40266" lon="1.57876">
        <ele>7</ele>
        <time>2024-03-21T01:28:25Z</time>
      </trkpt>
      <trkpt lat="50.40261" lon="1.57858">
        <ele>7</ele>
        <time>2024-03-21T01:28:27Z</time>
      </trkpt>
      <trkpt lat="50.40238" lon="1.57835">
        <ele>6</ele>
        <time>2024-03-21T01:28:32Z</time>
      </trkpt>
      <trkpt lat="50.4022" lon="1.57802">
        <ele>6</ele>
        <time>2024-03-21T01:28:37Z</time>
      </trkpt>
      <trkpt lat="50.40205" lon="1.57756">
        <ele>6</ele>
        <time>2024-03-21T01:28:43Z</time>
      </trkpt>
      <trkpt lat="50.40128" lon="1.57452">
        <ele>6</ele>
        <time>2024-03-21T01:29:20Z</time>
      </trkpt>
      <trkpt lat="50.40114" lon="1.57412">
        <ele>6</ele>
        <time>2024-03-21T01:29:25Z</time>
      </trkpt>
      <trkpt lat="50.40082" lon="1.57345">
        <ele>6</ele>
        <time>2024-03-21T01:29:34Z</time>
      </trkpt>
      <trkpt lat="50.40045" lon="1.5724">
        <ele>7</ele>
        <time>2024-03-21T01:29:48Z</time>
      </trkpt>
      <trkpt lat="50.40027" lon="1.57201">
        <ele>8</ele>
        <time>2024-03-21T01:29:53Z</time>
      </trkpt>
      <trkpt lat="50.40003" lon="1.57159">
        <ele>8</ele>
        <time>2024-03-21T01:30:00Z</time>
      </trkpt>
      <trkpt lat="50.39995" lon="1.5715">
        <ele>8</ele>
        <time>2024-03-21T01:30:02Z</time>
      </trkpt>
      <trkpt lat="50.39971" lon="1.57104">
        <ele>8</ele>
        <time>2024-03-21T01:30:08Z</time>
      </trkpt>
      <trkpt lat="50.39922" lon="1.5698">
        <ele>8</ele>
        <time>2024-03-21T01:30:25Z</time>
      </trkpt>
      <trkpt lat="50.3986" lon="1.5681">
        <ele>7</ele>
        <time>2024-03-21T01:30:47Z</time>
      </trkpt>
      <trkpt lat="50.3985" lon="1.56788">
        <ele>7</ele>
        <time>2024-03-21T01:30:50Z</time>
      </trkpt>
      <trkpt lat="50.39745" lon="1.56503">
        <ele>8</ele>
        <time>2024-03-21T01:31:27Z</time>
      </trkpt>
      <trkpt lat="50.39731" lon="1.56474">
        <ele>8</ele>
        <time>2024-03-21T01:31:32Z</time>
      </trkpt>
      <trkpt lat="50.39722" lon="1.5646">
        <ele>7</ele>
        <time>2024-03-21T01:31:34Z</time>
      </trkpt>
      <trkpt lat="50.39679" lon="1.56415">
        <ele>7</ele>
        <time>2024-03-21T01:31:43Z</time>
      </trkpt>
      <trkpt lat="50.39666" lon="1.56398">
        <ele>7</ele>
        <time>2024-03-21T01:31:46Z</time>
      </trkpt>
      <trkpt lat="50.39627" lon="1.56328">
        <ele>7</ele>
        <time>2024-03-21T01:31:57Z</time>
      </trkpt>
      <trkpt lat="50.39631" lon="1.56309">
        <ele>7</ele>
        <time>2024-03-21T01:31:59Z</time>
      </trkpt>
      <trkpt lat="50.39636" lon="1.56298">
        <ele>7</ele>
        <time>2024-03-21T01:32:00Z</time>
      </trkpt>
      <trkpt lat="50.39636" lon="1.56287">
        <ele>6</ele>
        <time>2024-03-21T01:32:02Z</time>
      </trkpt>
      <trkpt lat="50.39574" lon="1.56177">
        <ele>8</ele>
        <time>2024-03-21T01:32:18Z</time>
      </trkpt>
      <trkpt lat="50.39569" lon="1.56174">
        <ele>8</ele>
        <time>2024-03-21T01:32:19Z</time>
      </trkpt>
      <trkpt lat="50.39554" lon="1.56193">
        <ele>7</ele>
        <time>2024-03-21T01:32:23Z</time>
      </trkpt>
      <trkpt lat="50.39552" lon="1.56183">
        <ele>7</ele>
        <time>2024-03-21T01:32:24Z</time>
      </trkpt>
      <trkpt lat="50.39494" lon="1.56094">
        <ele>8</ele>
        <time>2024-03-21T01:32:38Z</time>
      </trkpt>
      <trkpt lat="50.39475" lon="1.56072">
        <ele>6</ele>
        <time>2024-03-21T01:32:43Z</time>
      </trkpt>
      <trkpt lat="50.39459" lon="1.56056">
        <ele>5</ele>
        <time>2024-03-21T01:32:46Z</time>
      </trkpt>
      <trkpt lat="50.39449" lon="1.56046">
        <ele>3</ele>
        <time>2024-03-21T01:32:48Z</time>
      </trkpt>
      <trkpt lat="50.39461" lon="1.56018">
        <ele>4</ele>
        <time>2024-03-21T01:32:52Z</time>
      </trkpt>
      <trkpt lat="50.39526" lon="1.55905">
        <ele>5</ele>
        <time>2024-03-21T01:33:09Z</time>
      </trkpt>
      <trkpt lat="50.39675" lon="1.55671">
        <ele>3</ele>
        <time>2024-03-21T01:33:47Z</time>
      </trkpt>
      <trkpt lat="50.39684" lon="1.55665">
        <ele>3</ele>
        <time>2024-03-21T01:33:48Z</time>
      </trkpt>
      <trkpt lat="50.39697" lon="1.55652">
        <ele>3</ele>
        <time>2024-03-21T01:33:51Z</time>
      </trkpt>
      <trkpt lat="50.39705" lon="1.55639">
        <ele>3</ele>
        <time>2024-03-21T01:33:53Z</time>
      </trkpt>
      <trkpt lat="50.39718" lon="1.55633">
        <ele>3</ele>
        <time>2024-03-21T01:33:56Z</time>
      </trkpt>
      <trkpt lat="50.39766" lon="1.55615">
        <ele>4</ele>
        <time>2024-03-21T01:34:04Z</time>
      </trkpt>
      <trkpt lat="50.3977" lon="1.55616">
        <ele>4</ele>
        <time>2024-03-21T01:34:05Z</time>
      </trkpt>
      <trkpt lat="50.39916" lon="1.55586">
        <ele>9</ele>
        <time>2024-03-21T01:34:31Z</time>
      </trkpt>
      <trkpt lat="50.39922" lon="1.55582">
        <ele>9</ele>
        <time>2024-03-21T01:34:32Z</time>
      </trkpt>
      <trkpt lat="50.39958" lon="1.55575">
        <ele>9</ele>
        <time>2024-03-21T01:34:39Z</time>
      </trkpt>
      <trkpt lat="50.4004" lon="1.5557">
        <ele>8</ele>
        <time>2024-03-21T01:34:53Z</time>
      </trkpt>
      <trkpt lat="50.40124" lon="1.5558">
        <ele>6</ele>
        <time>2024-03-21T01:35:08Z</time>
      </trkpt>
      <trkpt lat="50.40137" lon="1.55585">
        <ele>6</ele>
        <time>2024-03-21T01:35:11Z</time>
      </trkpt>
      <trkpt lat="50.40269" lon="1.55665">
        <ele>5</ele>
        <time>2024-03-21T01:35:36Z</time>
      </trkpt>
      <trkpt lat="50.40282" lon="1.55677">
        <ele>5</ele>
        <time>2024-03-21T01:35:39Z</time>
      </trkpt>
      <trkpt lat="50.40299" lon="1.55703">
        <ele>5</ele>
        <time>2024-03-21T01:35:43Z</time>
      </trkpt>
      <trkpt lat="50.40324" lon="1.55754">
        <ele>5</ele>
        <time>2024-03-21T01:35:50Z</time>
      </trkpt>
      <trkpt lat="50.40329" lon="1.5576">
        <ele>5</ele>
        <time>2024-03-21T01:35:51Z</time>
      </trkpt>
      <trkpt lat="50.40329" lon="1.55764">
        <ele>5</ele>
        <time>2024-03-21T01:35:52Z</time>
      </trkpt>
      <trkpt lat="50.4036" lon="1.55806">
        <ele>7</ele>
        <time>2024-03-21T01:35:59Z</time>
      </trkpt>
      <trkpt lat="50.40393" lon="1.55836">
        <ele>8</ele>
        <time>2024-03-21T01:36:06Z</time>
      </trkpt>
      <trkpt lat="50.40425" lon="1.55859">
        <ele>7</ele>
        <time>2024-03-21T01:36:12Z</time>
      </trkpt>
      <trkpt lat="50.40422" lon="1.5587">
        <ele>8</ele>
        <time>2024-03-21T01:36:14Z</time>
      </trkpt>
      <trkpt lat="50.40426" lon="1.55853">
        <ele>7</ele>
        <time>2024-03-21T01:36:16Z</time>
      </trkpt>
      <trkpt lat="50.40485" lon="1.55884">
        <ele>6</ele>
        <time>2024-03-21T01:36:27Z</time>
      </trkpt>
      <trkpt lat="50.40545" lon="1.55916">
        <ele>8</ele>
        <time>2024-03-21T01:36:38Z</time>
      </trkpt>
      <trkpt lat="50.40537" lon="1.55913">
        <ele>8</ele>
        <time>2024-03-21T01:36:39Z</time>
      </trkpt>
      <trkpt lat="50.40526" lon="1.55937">
        <ele>9</ele>
        <time>2024-03-21T01:36:43Z</time>
      </trkpt>
      <trkpt lat="50.4053" lon="1.55937">
        <ele>9</ele>
        <time>2024-03-21T01:36:43Z</time>
      </trkpt>
      <trkpt lat="50.40543" lon="1.55935">
        <ele>9</ele>
        <time>2024-03-21T01:36:46Z</time>
      </trkpt>
      <trkpt lat="50.40549" lon="1.55936">
        <ele>10</ele>
        <time>2024-03-21T01:36:47Z</time>
      </trkpt>
      <trkpt lat="50.40848" lon="1.56083">
        <ele>11</ele>
        <time>2024-03-21T01:37:43Z</time>
      </trkpt>
      <trkpt lat="50.40863" lon="1.56097">
        <ele>11</ele>
        <time>2024-03-21T01:37:46Z</time>
      </trkpt>
      <trkpt lat="50.40914" lon="1.56121">
        <ele>11</ele>
        <time>2024-03-21T01:37:55Z</time>
      </trkpt>
      <trkpt lat="50.4092" lon="1.56119">
        <ele>11</ele>
        <time>2024-03-21T01:37:56Z</time>
      </trkpt>
      <trkpt lat="50.41122" lon="1.56217">
        <ele>10</ele>
        <time>2024-03-21T01:38:34Z</time>
      </trkpt>
      <trkpt lat="50.4113" lon="1.56222">
        <ele>10</ele>
        <time>2024-03-21T01:38:35Z</time>
      </trkpt>
      <trkpt lat="50.41089" lon="1.56429">
        <ele>13</ele>
        <time>2024-03-21T01:39:00Z</time>
      </trkpt>
      <trkpt lat="50.41082" lon="1.56473">
        <ele>12</ele>
        <time>2024-03-21T01:39:05Z</time>
      </trkpt>
      <trkpt lat="50.41077" lon="1.5656">
        <ele>10</ele>
        <time>2024-03-21T01:39:15Z</time>
      </trkpt>
      <trkpt lat="50.41076" lon="1.5671">
        <ele>9</ele>
        <time>2024-03-21T01:39:32Z</time>
      </trkpt>
      <trkpt lat="50.4108" lon="1.5682">
        <ele>7</ele>
        <time>2024-03-21T01:39:45Z</time>
      </trkpt>
      <trkpt lat="50.4108" lon="1.56863">
        <ele>7</ele>
        <time>2024-03-21T01:39:49Z</time>
      </trkpt>
      <trkpt lat="50.41121" lon="1.57736">
        <ele>8</ele>
        <time>2024-03-21T01:41:29Z</time>
      </trkpt>
      <trkpt lat="50.41123" lon="1.57774">
        <ele>8</ele>
        <time>2024-03-21T01:41:33Z</time>
      </trkpt>
      <trkpt lat="50.41141" lon="1.57767">
        <ele>8</ele>
        <time>2024-03-21T01:41:36Z</time>
      </trkpt>
      <trkpt lat="50.41177" lon="1.57739">
        <ele>8</ele>
        <time>2024-03-21T01:41:43Z</time>
      </trkpt>
      <trkpt lat="50.41196" lon="1.57731">
        <ele>9</ele>
        <time>2024-03-21T01:41:47Z</time>
      </trkpt>
      <trkpt lat="50.41398" lon="1.57642">
        <ele>8</ele>
        <time>2024-03-21T01:42:24Z</time>
      </trkpt>
      <trkpt lat="50.41418" lon="1.57645">
        <ele>8</ele>
        <time>2024-03-21T01:42:28Z</time>
      </trkpt>
      <trkpt lat="50.41432" lon="1.57638">
        <ele>8</ele>
        <time>2024-03-21T01:42:30Z</time>
      </trkpt>
      <trkpt lat="50.41432" lon="1.57663">
        <ele>9</ele>
        <time>2024-03-21T01:42:33Z</time>
      </trkpt>
      <trkpt lat="50.41437" lon="1.57676">
        <ele>9</ele>
        <time>2024-03-21T01:42:35Z</time>
      </trkpt>
      <trkpt lat="50.41437" lon="1.57702">
        <ele>10</ele>
        <time>2024-03-21T01:42:38Z</time>
      </trkpt>
      <trkpt lat="50.41438" lon="1.58065">
        <ele>10</ele>
        <time>2024-03-21T01:43:19Z</time>
      </trkpt>
      <trkpt lat="50.4144" lon="1.58082">
        <ele>10</ele>
        <time>2024-03-21T01:43:21Z</time>
      </trkpt>
      <trkpt lat="50.41432" lon="1.58086">
        <ele>10</ele>
        <time>2024-03-21T01:43:23Z</time>
      </trkpt>
      <trkpt lat="50.41454" lon="1.58272">
        <ele>8</ele>
        <time>2024-03-21T01:43:44Z</time>
      </trkpt>
      <trkpt lat="50.41443" lon="1.5868">
        <ele>7</ele>
        <time>2024-03-21T01:44:30Z</time>
      </trkpt>
      <trkpt lat="50.41421" lon="1.59317">
        <ele>9</ele>
        <time>2024-03-21T01:45:43Z</time>
      </trkpt>
      <trkpt lat="50.41427" lon="1.59318">
        <ele>9</ele>
        <time>2024-03-21T01:45:44Z</time>
      </trkpt>
      <trkpt lat="50.41427" lon="1.59345">
        <ele>9</ele>
        <time>2024-03-21T01:45:47Z</time>
      </trkpt>
      <trkpt lat="50.41428" lon="1.59361">
        <ele>9</ele>
        <time>2024-03-21T01:45:49Z</time>
      </trkpt>
      <trkpt lat="50.41427" lon="1.59364">
        <ele>9</ele>
        <time>2024-03-21T01:45:49Z</time>
      </trkpt>
      <trkpt lat="50.41429" lon="1.59373">
        <ele>9</ele>
        <time>2024-03-21T01:45:50Z</time>
      </trkpt>
      <trkpt lat="50.41429" lon="1.59393">
        <ele>9</ele>
        <time>2024-03-21T01:45:52Z</time>
      </trkpt>
      <trkpt lat="50.41428" lon="1.59404">
        <ele>9</ele>
        <time>2024-03-21T01:45:54Z</time>
      </trkpt>
      <trkpt lat="50.41482" lon="1.59414">
        <ele>10</ele>
        <time>2024-03-21T01:46:03Z</time>
      </trkpt>
      <trkpt lat="50.41621" lon="1.59459">
        <ele>9</ele>
        <time>2024-03-21T01:46:29Z</time>
      </trkpt>
      <trkpt lat="50.41735" lon="1.595">
        <ele>10</ele>
        <time>2024-03-21T01:46:49Z</time>
      </trkpt>
      <trkpt lat="50.41758" lon="1.59512">
        <ele>11</ele>
        <time>2024-03-21T01:46:54Z</time>
      </trkpt>
      <trkpt lat="50.41806" lon="1.59547">
        <ele>11</ele>
        <time>2024-03-21T01:47:03Z</time>
      </trkpt>
      <trkpt lat="50.42774" lon="1.60334">
        <ele>10</ele>
        <time>2024-03-21T01:50:17Z</time>
      </trkpt>
      <trkpt lat="50.42952" lon="1.60482">
        <ele>11</ele>
        <time>2024-03-21T01:50:53Z</time>
      </trkpt>
      <trkpt lat="50.42959" lon="1.6049">
        <ele>11</ele>
        <time>2024-03-21T01:50:54Z</time>
      </trkpt>
      <trkpt lat="50.42972" lon="1.60514">
        <ele>10</ele>
        <time>2024-03-21T01:50:58Z</time>
      </trkpt>
      <trkpt lat="50.42977" lon="1.60525">
        <ele>9</ele>
        <time>2024-03-21T01:51:00Z</time>
      </trkpt>
      <trkpt lat="50.42992" lon="1.60576">
        <ele>8</ele>
        <time>2024-03-21T01:51:06Z</time>
      </trkpt>
      <trkpt lat="50.43002" lon="1.60591">
        <ele>7</ele>
        <time>2024-03-21T01:51:08Z</time>
      </trkpt>
      <trkpt lat="50.43009" lon="1.60598">
        <ele>7</ele>
        <time>2024-03-21T01:51:10Z</time>
      </trkpt>
      <trkpt lat="50.43028" lon="1.60606">
        <ele>7</ele>
        <time>2024-03-21T01:51:13Z</time>
      </trkpt>
      <trkpt lat="50.4304" lon="1.60614">
        <ele>8</ele>
        <time>2024-03-21T01:51:16Z</time>
      </trkpt>
      <trkpt lat="50.43048" lon="1.60624">
        <ele>8</ele>
        <time>2024-03-21T01:51:17Z</time>
      </trkpt>
      <trkpt lat="50.43051" lon="1.60632">
        <ele>8</ele>
        <time>2024-03-21T01:51:19Z</time>
      </trkpt>
      <trkpt lat="50.43057" lon="1.60639">
        <ele>8</ele>
        <time>2024-03-21T01:51:20Z</time>
      </trkpt>
      <trkpt lat="50.43067" lon="1.60641">
        <ele>8</ele>
        <time>2024-03-21T01:51:22Z</time>
      </trkpt>
      <trkpt lat="50.43074" lon="1.60636">
        <ele>8</ele>
        <time>2024-03-21T01:51:23Z</time>
      </trkpt>
      <trkpt lat="50.43087" lon="1.60633">
        <ele>9</ele>
        <time>2024-03-21T01:51:25Z</time>
      </trkpt>
      <trkpt lat="50.43099" lon="1.60633">
        <ele>9</ele>
        <time>2024-03-21T01:51:27Z</time>
      </trkpt>
      <trkpt lat="50.43121" lon="1.60641">
        <ele>9</ele>
        <time>2024-03-21T01:51:32Z</time>
      </trkpt>
      <trkpt lat="50.43152" lon="1.60646">
        <ele>9</ele>
        <time>2024-03-21T01:51:37Z</time>
      </trkpt>
      <trkpt lat="50.43171" lon="1.60658">
        <ele>9</ele>
        <time>2024-03-21T01:51:41Z</time>
      </trkpt>
      <trkpt lat="50.43699" lon="1.6108">
        <ele>11</ele>
        <time>2024-03-21T01:53:26Z</time>
      </trkpt>
      <trkpt lat="50.43863" lon="1.61206">
        <ele>11</ele>
        <time>2024-03-21T01:53:59Z</time>
      </trkpt>
      <trkpt lat="50.4388" lon="1.61226">
        <ele>11</ele>
        <time>2024-03-21T01:54:02Z</time>
      </trkpt>
      <trkpt lat="50.43895" lon="1.61248">
        <ele>10</ele>
        <time>2024-03-21T01:54:06Z</time>
      </trkpt>
      <trkpt lat="50.43912" lon="1.61287">
        <ele>10</ele>
        <time>2024-03-21T01:54:11Z</time>
      </trkpt>
      <trkpt lat="50.43914" lon="1.613">
        <ele>10</ele>
        <time>2024-03-21T01:54:13Z</time>
      </trkpt>
      <trkpt lat="50.43927" lon="1.61353">
        <ele>11</ele>
        <time>2024-03-21T01:54:19Z</time>
      </trkpt>
      <trkpt lat="50.43934" lon="1.61372">
        <ele>11</ele>
        <time>2024-03-21T01:54:22Z</time>
      </trkpt>
      <trkpt lat="50.43954" lon="1.6142">
        <ele>11</ele>
        <time>2024-03-21T01:54:28Z</time>
      </trkpt>
      <trkpt lat="50.4397" lon="1.61452">
        <ele>10</ele>
        <time>2024-03-21T01:54:33Z</time>
      </trkpt>
      <trkpt lat="50.4399" lon="1.61481">
        <ele>9</ele>
        <time>2024-03-21T01:54:38Z</time>
      </trkpt>
      <trkpt lat="50.44009" lon="1.61497">
        <ele>8</ele>
        <time>2024-03-21T01:54:42Z</time>
      </trkpt>
      <trkpt lat="50.44021" lon="1.615">
        <ele>9</ele>
        <time>2024-03-21T01:54:44Z</time>
      </trkpt>
      <trkpt lat="50.44031" lon="1.61504">
        <ele>9</ele>
        <time>2024-03-21T01:54:46Z</time>
      </trkpt>
      <trkpt lat="50.44068" lon="1.61512">
        <ele>10</ele>
        <time>2024-03-21T01:54:52Z</time>
      </trkpt>
      <trkpt lat="50.44113" lon="1.61512">
        <ele>10</ele>
        <time>2024-03-21T01:55:00Z</time>
      </trkpt>
      <trkpt lat="50.44168" lon="1.61505">
        <ele>9</ele>
        <time>2024-03-21T01:55:10Z</time>
      </trkpt>
      <trkpt lat="50.44177" lon="1.61506">
        <ele>9</ele>
        <time>2024-03-21T01:55:12Z</time>
      </trkpt>
      <trkpt lat="50.44192" lon="1.61511">
        <ele>9</ele>
        <time>2024-03-21T01:55:14Z</time>
      </trkpt>
      <trkpt lat="50.44205" lon="1.61522">
        <ele>10</ele>
        <time>2024-03-21T01:55:17Z</time>
      </trkpt>
      <trkpt lat="50.44244" lon="1.61575">
        <ele>11</ele>
        <time>2024-03-21T01:55:26Z</time>
      </trkpt>
      <trkpt lat="50.44266" lon="1.61593">
        <ele>10</ele>
        <time>2024-03-21T01:55:31Z</time>
      </trkpt>
      <trkpt lat="50.44295" lon="1.61609">
        <ele>9</ele>
        <time>2024-03-21T01:55:36Z</time>
      </trkpt>
      <trkpt lat="50.44315" lon="1.61628">
        <ele>9</ele>
        <time>2024-03-21T01:55:40Z</time>
      </trkpt>
      <trkpt lat="50.44321" lon="1.61637">
        <ele>9</ele>
        <time>2024-03-21T01:55:42Z</time>
      </trkpt>
      <trkpt lat="50.44353" lon="1.61709">
        <ele>10</ele>
        <time>2024-03-21T01:55:52Z</time>
      </trkpt>
      <trkpt lat="50.44363" lon="1.61724">
        <ele>10</ele>
        <time>2024-03-21T01:55:54Z</time>
      </trkpt>
      <trkpt lat="50.44369" lon="1.61729">
        <ele>10</ele>
        <time>2024-03-21T01:55:55Z</time>
      </trkpt>
      <trkpt lat="50.44385" lon="1.61735">
        <ele>10</ele>
        <time>2024-03-21T01:55:58Z</time>
      </trkpt>
      <trkpt lat="50.44437" lon="1.61743">
        <ele>11</ele>
        <time>2024-03-21T01:56:08Z</time>
      </trkpt>
      <trkpt lat="50.44519" lon="1.61756">
        <ele>12</ele>
        <time>2024-03-21T01:56:22Z</time>
      </trkpt>
      <trkpt lat="50.44554" lon="1.61758">
        <ele>12</ele>
        <time>2024-03-21T01:56:28Z</time>
      </trkpt>
      <trkpt lat="50.44596" lon="1.61753">
        <ele>11</ele>
        <time>2024-03-21T01:56:36Z</time>
      </trkpt>
      <trkpt lat="50.44616" lon="1.61745">
        <ele>11</ele>
        <time>2024-03-21T01:56:40Z</time>
      </trkpt>
      <trkpt lat="50.44896" lon="1.61556">
        <ele>9</ele>
        <time>2024-03-21T01:57:34Z</time>
      </trkpt>
      <trkpt lat="50.4494" lon="1.6154">
        <ele>9</ele>
        <time>2024-03-21T01:57:42Z</time>
      </trkpt>
      <trkpt lat="50.45092" lon="1.61511">
        <ele>7</ele>
        <time>2024-03-21T01:58:09Z</time>
      </trkpt>
      <trkpt lat="50.45102" lon="1.61511">
        <ele>7</ele>
        <time>2024-03-21T01:58:11Z</time>
      </trkpt>
      <trkpt lat="50.45124" lon="1.61507">
        <ele>7</ele>
        <time>2024-03-21T01:58:15Z</time>
      </trkpt>
      <trkpt lat="50.45131" lon="1.61507">
        <ele>7</ele>
        <time>2024-03-21T01:58:16Z</time>
      </trkpt>
      <trkpt lat="50.45137" lon="1.61498">
        <ele>7</ele>
        <time>2024-03-21T01:58:18Z</time>
      </trkpt>
      <trkpt lat="50.45147" lon="1.6149">
        <ele>7</ele>
        <time>2024-03-21T01:58:20Z</time>
      </trkpt>
      <trkpt lat="50.45159" lon="1.61486">
        <ele>7</ele>
        <time>2024-03-21T01:58:22Z</time>
      </trkpt>
      <trkpt lat="50.45167" lon="1.61479">
        <ele>7</ele>
        <time>2024-03-21T01:58:23Z</time>
      </trkpt>
      <trkpt lat="50.45312" lon="1.61403">
        <ele>7</ele>
        <time>2024-03-21T01:58:51Z</time>
      </trkpt>
      <trkpt lat="50.45344" lon="1.6139">
        <ele>7</ele>
        <time>2024-03-21T01:58:56Z</time>
      </trkpt>
      <trkpt lat="50.45427" lon="1.61378">
        <ele>7</ele>
        <time>2024-03-21T01:59:11Z</time>
      </trkpt>
      <trkpt lat="50.45528" lon="1.61352">
        <ele>7</ele>
        <time>2024-03-21T01:59:30Z</time>
      </trkpt>
      <trkpt lat="50.45564" lon="1.61348">
        <ele>6</ele>
        <time>2024-03-21T01:59:36Z</time>
      </trkpt>
      <trkpt lat="50.45564" lon="1.61344">
        <ele>6</ele>
        <time>2024-03-21T01:59:36Z</time>
      </trkpt>
      <trkpt lat="50.45567" lon="1.61343">
        <ele>6</ele>
        <time>2024-03-21T01:59:37Z</time>
      </trkpt>
      <trkpt lat="50.45565" lon="1.61339">
        <ele>6</ele>
        <time>2024-03-21T01:59:38Z</time>
      </trkpt>
      <trkpt lat="50.45559" lon="1.61343">
        <ele>6</ele>
        <time>2024-03-21T01:59:39Z</time>
      </trkpt>
      <trkpt lat="50.45549" lon="1.61348">
        <ele>7</ele>
        <time>2024-03-21T01:59:41Z</time>
      </trkpt>
      <trkpt lat="50.45577" lon="1.61348">
        <ele>6</ele>
        <time>2024-03-21T01:59:46Z</time>
      </trkpt>
      <trkpt lat="50.45581" lon="1.61353">
        <ele>6</ele>
        <time>2024-03-21T01:59:46Z</time>
      </trkpt>
      <trkpt lat="50.45587" lon="1.61353">
        <ele>6</ele>
        <time>2024-03-21T01:59:48Z</time>
      </trkpt>
      <trkpt lat="50.45594" lon="1.61347">
        <ele>6</ele>
        <time>2024-03-21T01:59:49Z</time>
      </trkpt>
      <trkpt lat="50.45595" lon="1.61333">
        <ele>6</ele>
        <time>2024-03-21T01:59:51Z</time>
      </trkpt>
      <trkpt lat="50.45594" lon="1.61328">
        <ele>6</ele>
        <time>2024-03-21T01:59:51Z</time>
      </trkpt>
      <trkpt lat="50.45589" lon="1.61321">
        <ele>6</ele>
        <time>2024-03-21T01:59:52Z</time>
      </trkpt>
      <trkpt lat="50.45581" lon="1.61308">
        <ele>6</ele>
        <time>2024-03-21T01:59:54Z</time>
      </trkpt>
      <trkpt lat="50.45572" lon="1.61276">
        <ele>6</ele>
        <time>2024-03-21T01:59:58Z</time>
      </trkpt>
      <trkpt lat="50.45555" lon="1.61176">
        <ele>8</ele>
        <time>2024-03-21T02:00:10Z</time>
      </trkpt>
      <trkpt lat="50.45557" lon="1.61148">
        <ele>8</ele>
        <time>2024-03-21T02:00:13Z</time>
      </trkpt>
      <trkpt lat="50.45562" lon="1.61124">
        <ele>7</ele>
        <time>2024-03-21T02:00:16Z</time>
      </trkpt>
      <trkpt lat="50.45586" lon="1.61044">
        <ele>8</ele>
        <time>2024-03-21T02:00:26Z</time>
      </trkpt>
      <trkpt lat="50.45589" lon="1.61019">
        <ele>8</ele>
        <time>2024-03-21T02:00:29Z</time>
      </trkpt>
      <trkpt lat="50.45577" lon="1.60715">
        <ele>10</ele>
        <time>2024-03-21T02:01:04Z</time>
      </trkpt>
      <trkpt lat="50.45579" lon="1.60695">
        <ele>11</ele>
        <time>2024-03-21T02:01:06Z</time>
      </trkpt>
      <trkpt lat="50.45583" lon="1.60678">
        <ele>11</ele>
        <time>2024-03-21T02:01:08Z</time>
      </trkpt>
      <trkpt lat="50.45596" lon="1.60649">
        <ele>11</ele>
        <time>2024-03-21T02:01:12Z</time>
      </trkpt>
      <trkpt lat="50.45793" lon="1.6029">
        <ele>17</ele>
        <time>2024-03-21T02:02:06Z</time>
      </trkpt>
      <trkpt lat="50.45816" lon="1.60244">
        <ele>15</ele>
        <time>2024-03-21T02:02:12Z</time>
      </trkpt>
      <trkpt lat="50.4583" lon="1.60178">
        <ele>14</ele>
        <time>2024-03-21T02:02:20Z</time>
      </trkpt>
      <trkpt lat="50.45867" lon="1.59941">
        <ele>13</ele>
        <time>2024-03-21T02:02:48Z</time>
      </trkpt>
      <trkpt lat="50.46083" lon="1.58573">
        <ele>10</ele>
        <time>2024-03-21T02:05:27Z</time>
      </trkpt>
      <trkpt lat="50.46086" lon="1.58552">
        <ele>10</ele>
        <time>2024-03-21T02:05:30Z</time>
      </trkpt>
      <trkpt lat="50.46439" lon="1.58687">
        <ele>11</ele>
        <time>2024-03-21T02:06:34Z</time>
      </trkpt>
      <trkpt lat="50.46497" lon="1.58718">
        <ele>11</ele>
        <time>2024-03-21T02:06:45Z</time>
      </trkpt>
      <trkpt lat="50.46609" lon="1.58781">
        <ele>11</ele>
        <time>2024-03-21T02:07:07Z</time>
      </trkpt>
      <trkpt lat="50.46696" lon="1.58833">
        <ele>12</ele>
        <time>2024-03-21T02:07:23Z</time>
      </trkpt>
      <trkpt lat="50.46743" lon="1.58858">
        <ele>12</ele>
        <time>2024-03-21T02:07:32Z</time>
      </trkpt>
      <trkpt lat="50.46926" lon="1.58961">
        <ele>10</ele>
        <time>2024-03-21T02:08:06Z</time>
      </trkpt>
      <trkpt lat="50.47048" lon="1.59033">
        <ele>11</ele>
        <time>2024-03-21T02:08:30Z</time>
      </trkpt>
      <trkpt lat="50.47222" lon="1.59129">
        <ele>10</ele>
        <time>2024-03-21T02:09:02Z</time>
      </trkpt>
      <trkpt lat="50.47509" lon="1.59284">
        <ele>11</ele>
        <time>2024-03-21T02:09:56Z</time>
      </trkpt>
      <trkpt lat="50.47588" lon="1.59332">
        <ele>10</ele>
        <time>2024-03-21T02:10:12Z</time>
      </trkpt>
      <trkpt lat="50.47669" lon="1.59376">
        <ele>10</ele>
        <time>2024-03-21T02:10:27Z</time>
      </trkpt>
      <trkpt lat="50.47828" lon="1.59458">
        <ele>10</ele>
        <time>2024-03-21T02:10:57Z</time>
      </trkpt>
      <trkpt lat="50.47828" lon="1.59461">
        <ele>10</ele>
        <time>2024-03-21T02:10:57Z</time>
      </trkpt>
      <trkpt lat="50.47832" lon="1.59466">
        <ele>10</ele>
        <time>2024-03-21T02:10:58Z</time>
      </trkpt>
      <trkpt lat="50.47836" lon="1.59461">
        <ele>10</ele>
        <time>2024-03-21T02:10:59Z</time>
      </trkpt>
      <trkpt lat="50.47928" lon="1.595">
        <ele>11</ele>
        <time>2024-03-21T02:11:16Z</time>
      </trkpt>
      <trkpt lat="50.48054" lon="1.59547">
        <ele>11</ele>
        <time>2024-03-21T02:11:39Z</time>
      </trkpt>
      <trkpt lat="50.48152" lon="1.59589">
        <ele>11</ele>
        <time>2024-03-21T02:11:57Z</time>
      </trkpt>
      <trkpt lat="50.48187" lon="1.59603">
        <ele>11</ele>
        <time>2024-03-21T02:12:03Z</time>
      </trkpt>
      <trkpt lat="50.48187" lon="1.59613">
        <ele>11</ele>
        <time>2024-03-21T02:12:04Z</time>
      </trkpt>
      <trkpt lat="50.4819" lon="1.59618">
        <ele>12</ele>
        <time>2024-03-21T02:12:05Z</time>
      </trkpt>
      <trkpt lat="50.48192" lon="1.59628">
        <ele>12</ele>
        <time>2024-03-21T02:12:06Z</time>
      </trkpt>
      <trkpt lat="50.48192" lon="1.59651">
        <ele>12</ele>
        <time>2024-03-21T02:12:09Z</time>
      </trkpt>
      <trkpt lat="50.48193" lon="1.59668">
        <ele>12</ele>
        <time>2024-03-21T02:12:11Z</time>
      </trkpt>
      <trkpt lat="50.48223" lon="1.59943">
        <ele>12</ele>
        <time>2024-03-21T02:12:42Z</time>
      </trkpt>
      <trkpt lat="50.4824" lon="1.60072">
        <ele>13</ele>
        <time>2024-03-21T02:12:57Z</time>
      </trkpt>
      <trkpt lat="50.48258" lon="1.60241">
        <ele>16</ele>
        <time>2024-03-21T02:13:17Z</time>
      </trkpt>
      <trkpt lat="50.48262" lon="1.60267">
        <ele>16</ele>
        <time>2024-03-21T02:13:20Z</time>
      </trkpt>
      <trkpt lat="50.48292" lon="1.60358">
        <ele>17</ele>
        <time>2024-03-21T02:13:31Z</time>
      </trkpt>
      <trkpt lat="50.48308" lon="1.60462">
        <ele>19</ele>
        <time>2024-03-21T02:13:44Z</time>
      </trkpt>
      <trkpt lat="50.48313" lon="1.60525">
        <ele>20</ele>
        <time>2024-03-21T02:13:51Z</time>
      </trkpt>
      <trkpt lat="50.48321" lon="1.60655">
        <ele>16</ele>
        <time>2024-03-21T02:14:06Z</time>
      </trkpt>
      <trkpt lat="50.48333" lon="1.60818">
        <ele>10</ele>
        <time>2024-03-21T02:14:24Z</time>
      </trkpt>
      <trkpt lat="50.48337" lon="1.60827">
        <ele>10</ele>
        <time>2024-03-21T02:14:25Z</time>
      </trkpt>
      <trkpt lat="50.48348" lon="1.60836">
        <ele>10</ele>
        <time>2024-03-21T02:14:28Z</time>
      </trkpt>
      <trkpt lat="50.48568" lon="1.60924">
        <ele>14</ele>
        <time>2024-03-21T02:15:08Z</time>
      </trkpt>
      <trkpt lat="50.48571" lon="1.60919">
        <ele>14</ele>
        <time>2024-03-21T02:15:09Z</time>
      </trkpt>
      <trkpt lat="50.4859" lon="1.60919">
        <ele>14</ele>
        <time>2024-03-21T02:15:12Z</time>
      </trkpt>
      <trkpt lat="50.48595" lon="1.60921">
        <ele>14</ele>
        <time>2024-03-21T02:15:13Z</time>
      </trkpt>
      <trkpt lat="50.48605" lon="1.60917">
        <ele>13</ele>
        <time>2024-03-21T02:15:15Z</time>
      </trkpt>
      <trkpt lat="50.48609" lon="1.6092">
        <ele>13</ele>
        <time>2024-03-21T02:15:16Z</time>
      </trkpt>
      <trkpt lat="50.48621" lon="1.6095">
        <ele>12</ele>
        <time>2024-03-21T02:15:20Z</time>
      </trkpt>
      <trkpt lat="50.48627" lon="1.60953">
        <ele>11</ele>
        <time>2024-03-21T02:15:21Z</time>
      </trkpt>
      <trkpt lat="50.48633" lon="1.60948">
        <ele>11</ele>
        <time>2024-03-21T02:15:22Z</time>
      </trkpt>
      <trkpt lat="50.48639" lon="1.6093">
        <ele>11</ele>
        <time>2024-03-21T02:15:24Z</time>
      </trkpt>
      <trkpt lat="50.48633" lon="1.60912">
        <ele>12</ele>
        <time>2024-03-21T02:15:27Z</time>
      </trkpt>
      <trkpt lat="50.48635" lon="1.60904">
        <ele>12</ele>
        <time>2024-03-21T02:15:28Z</time>
      </trkpt>
      <trkpt lat="50.4865" lon="1.60887">
        <ele>11</ele>
        <time>2024-03-21T02:15:31Z</time>
      </trkpt>
      <trkpt lat="50.48705" lon="1.60807">
        <ele>13</ele>
        <time>2024-03-21T02:15:44Z</time>
      </trkpt>
      <trkpt lat="50.48726" lon="1.60788">
        <ele>15</ele>
        <time>2024-03-21T02:15:48Z</time>
      </trkpt>
      <trkpt lat="50.48745" lon="1.60778">
        <ele>16</ele>
        <time>2024-03-21T02:15:52Z</time>
      </trkpt>
      <trkpt lat="50.48767" lon="1.60778">
        <ele>16</ele>
        <time>2024-03-21T02:15:56Z</time>
      </trkpt>
      <trkpt lat="50.48787" lon="1.60783">
        <ele>17</ele>
        <time>2024-03-21T02:16:00Z</time>
      </trkpt>
      <trkpt lat="50.48817" lon="1.60798">
        <ele>17</ele>
        <time>2024-03-21T02:16:05Z</time>
      </trkpt>
      <trkpt lat="50.48841" lon="1.608">
        <ele>17</ele>
        <time>2024-03-21T02:16:09Z</time>
      </trkpt>
      <trkpt lat="50.48861" lon="1.60794">
        <ele>18</ele>
        <time>2024-03-21T02:16:13Z</time>
      </trkpt>
      <trkpt lat="50.48871" lon="1.60789">
        <ele>18</ele>
        <time>2024-03-21T02:16:15Z</time>
      </trkpt>
      <trkpt lat="50.48888" lon="1.60776">
        <ele>19</ele>
        <time>2024-03-21T02:16:18Z</time>
      </trkpt>
      <trkpt lat="50.48911" lon="1.6075">
        <ele>19</ele>
        <time>2024-03-21T02:16:23Z</time>
      </trkpt>
      <trkpt lat="50.48958" lon="1.60675">
        <ele>21</ele>
        <time>2024-03-21T02:16:35Z</time>
      </trkpt>
      <trkpt lat="50.48963" lon="1.60674">
        <ele>21</ele>
        <time>2024-03-21T02:16:36Z</time>
      </trkpt>
      <trkpt lat="50.48972" lon="1.60678">
        <ele>20</ele>
        <time>2024-03-21T02:16:38Z</time>
      </trkpt>
      <trkpt lat="50.48976" lon="1.60678">
        <ele>20</ele>
        <time>2024-03-21T02:16:39Z</time>
      </trkpt>
      <trkpt lat="50.4898" lon="1.60675">
        <ele>20</ele>
        <time>2024-03-21T02:16:39Z</time>
      </trkpt>
      <trkpt lat="50.48981" lon="1.60658">
        <ele>20</ele>
        <time>2024-03-21T02:16:41Z</time>
      </trkpt>
      <trkpt lat="50.48986" lon="1.60642">
        <ele>20</ele>
        <time>2024-03-21T02:16:43Z</time>
      </trkpt>
      <trkpt lat="50.48999" lon="1.60624">
        <ele>19</ele>
        <time>2024-03-21T02:16:46Z</time>
      </trkpt>
      <trkpt lat="50.49002" lon="1.60608">
        <ele>18</ele>
        <time>2024-03-21T02:16:48Z</time>
      </trkpt>
      <trkpt lat="50.49005" lon="1.606">
        <ele>18</ele>
        <time>2024-03-21T02:16:49Z</time>
      </trkpt>
      <trkpt lat="50.49009" lon="1.60596">
        <ele>18</ele>
        <time>2024-03-21T02:16:50Z</time>
      </trkpt>
      <trkpt lat="50.49022" lon="1.60592">
        <ele>18</ele>
        <time>2024-03-21T02:16:52Z</time>
      </trkpt>
      <trkpt lat="50.49026" lon="1.60586">
        <ele>17</ele>
        <time>2024-03-21T02:16:53Z</time>
      </trkpt>
      <trkpt lat="50.49029" lon="1.60578">
        <ele>17</ele>
        <time>2024-03-21T02:16:55Z</time>
      </trkpt>
      <trkpt lat="50.49041" lon="1.60524">
        <ele>16</ele>
        <time>2024-03-21T02:17:01Z</time>
      </trkpt>
      <trkpt lat="50.49063" lon="1.60474">
        <ele>15</ele>
        <time>2024-03-21T02:17:08Z</time>
      </trkpt>
      <trkpt lat="50.49078" lon="1.60449">
        <ele>15</ele>
        <time>2024-03-21T02:17:12Z</time>
      </trkpt>
      <trkpt lat="50.49109" lon="1.60378">
        <ele>15</ele>
        <time>2024-03-21T02:17:22Z</time>
      </trkpt>
      <trkpt lat="50.49115" lon="1.6036">
        <ele>15</ele>
        <time>2024-03-21T02:17:24Z</time>
      </trkpt>
      <trkpt lat="50.49121" lon="1.60349">
        <ele>15</ele>
        <time>2024-03-21T02:17:25Z</time>
      </trkpt>
      <trkpt lat="50.49128" lon="1.60343">
        <ele>15</ele>
        <time>2024-03-21T02:17:27Z</time>
      </trkpt>
      <trkpt lat="50.49167" lon="1.60258">
        <ele>15</ele>
        <time>2024-03-21T02:17:39Z</time>
      </trkpt>
      <trkpt lat="50.4918" lon="1.60237">
        <ele>15</ele>
        <time>2024-03-21T02:17:42Z</time>
      </trkpt>
      <trkpt lat="50.49214" lon="1.60195">
        <ele>15</ele>
        <time>2024-03-21T02:17:50Z</time>
      </trkpt>
      <trkpt lat="50.49227" lon="1.60165">
        <ele>14</ele>
        <time>2024-03-21T02:17:54Z</time>
      </trkpt>
      <trkpt lat="50.49231" lon="1.60143">
        <ele>14</ele>
        <time>2024-03-21T02:17:56Z</time>
      </trkpt>
      <trkpt lat="50.4924" lon="1.60109">
        <ele>14</ele>
        <time>2024-03-21T02:18:01Z</time>
      </trkpt>
      <trkpt lat="50.49255" lon="1.60057">
        <ele>14</ele>
        <time>2024-03-21T02:18:07Z</time>
      </trkpt>
      <trkpt lat="50.49261" lon="1.6004">
        <ele>13</ele>
        <time>2024-03-21T02:18:09Z</time>
      </trkpt>
      <trkpt lat="50.49268" lon="1.6003">
        <ele>13</ele>
        <time>2024-03-21T02:18:11Z</time>
      </trkpt>
      <trkpt lat="50.49273" lon="1.60015">
        <ele>13</ele>
        <time>2024-03-21T02:18:13Z</time>
      </trkpt>
      <trkpt lat="50.49285" lon="1.59996">
        <ele>13</ele>
        <time>2024-03-21T02:18:16Z</time>
      </trkpt>
      <trkpt lat="50.49298" lon="1.59962">
        <ele>13</ele>
        <time>2024-03-21T02:18:20Z</time>
      </trkpt>
      <trkpt lat="50.49308" lon="1.59941">
        <ele>14</ele>
        <time>2024-03-21T02:18:23Z</time>
      </trkpt>
      <trkpt lat="50.49321" lon="1.5992">
        <ele>14</ele>
        <time>2024-03-21T02:18:27Z</time>
      </trkpt>
      <trkpt lat="50.49331" lon="1.59899">
        <ele>14</ele>
        <time>2024-03-21T02:18:30Z</time>
      </trkpt>
      <trkpt lat="50.49349" lon="1.59869">
        <ele>14</ele>
        <time>2024-03-21T02:18:34Z</time>
      </trkpt>
      <trkpt lat="50.49359" lon="1.5986">
        <ele>14</ele>
        <time>2024-03-21T02:18:36Z</time>
      </trkpt>
      <trkpt lat="50.49363" lon="1.59849">
        <ele>14</ele>
        <time>2024-03-21T02:18:38Z</time>
      </trkpt>
      <trkpt lat="50.49368" lon="1.59821">
        <ele>14</ele>
        <time>2024-03-21T02:18:41Z</time>
      </trkpt>
      <trkpt lat="50.49375" lon="1.59797">
        <ele>14</ele>
        <time>2024-03-21T02:18:44Z</time>
      </trkpt>
      <trkpt lat="50.49376" lon="1.59786">
        <ele>14</ele>
        <time>2024-03-21T02:18:45Z</time>
      </trkpt>
      <trkpt lat="50.4938" lon="1.59773">
        <ele>14</ele>
        <time>2024-03-21T02:18:47Z</time>
      </trkpt>
      <trkpt lat="50.49416" lon="1.59697">
        <ele>16</ele>
        <time>2024-03-21T02:18:58Z</time>
      </trkpt>
      <trkpt lat="50.49424" lon="1.5969">
        <ele>16</ele>
        <time>2024-03-21T02:18:59Z</time>
      </trkpt>
      <trkpt lat="50.49432" lon="1.59688">
        <ele>16</ele>
        <time>2024-03-21T02:19:01Z</time>
      </trkpt>
      <trkpt lat="50.49443" lon="1.59679">
        <ele>16</ele>
        <time>2024-03-21T02:19:03Z</time>
      </trkpt>
      <trkpt lat="50.49448" lon="1.59672">
        <ele>16</ele>
        <time>2024-03-21T02:19:04Z</time>
      </trkpt>
      <trkpt lat="50.49451" lon="1.59658">
        <ele>15</ele>
        <time>2024-03-21T02:19:06Z</time>
      </trkpt>
      <trkpt lat="50.49453" lon="1.59643">
        <ele>15</ele>
        <time>2024-03-21T02:19:08Z</time>
      </trkpt>
      <trkpt lat="50.49453" lon="1.59612">
        <ele>15</ele>
        <time>2024-03-21T02:19:11Z</time>
      </trkpt>
      <trkpt lat="50.49492" lon="1.59503">
        <ele>15</ele>
        <time>2024-03-21T02:19:25Z</time>
      </trkpt>
      <trkpt lat="50.49506" lon="1.59487">
        <ele>15</ele>
        <time>2024-03-21T02:19:28Z</time>
      </trkpt>
      <trkpt lat="50.49556" lon="1.59353">
        <ele>16</ele>
        <time>2024-03-21T02:19:46Z</time>
      </trkpt>
      <trkpt lat="50.49589" lon="1.5929">
        <ele>18</ele>
        <time>2024-03-21T02:19:55Z</time>
      </trkpt>
      <trkpt lat="50.49619" lon="1.59237">
        <ele>18</ele>
        <time>2024-03-21T02:20:03Z</time>
      </trkpt>
      <trkpt lat="50.49636" lon="1.59216">
        <ele>17</ele>
        <time>2024-03-21T02:20:07Z</time>
      </trkpt>
      <trkpt lat="50.49662" lon="1.59188">
        <ele>16</ele>
        <time>2024-03-21T02:20:13Z</time>
      </trkpt>
      <trkpt lat="50.49674" lon="1.5918">
        <ele>16</ele>
        <time>2024-03-21T02:20:15Z</time>
      </trkpt>
      <trkpt lat="50.49704" lon="1.59167">
        <ele>16</ele>
        <time>2024-03-21T02:20:20Z</time>
      </trkpt>
      <trkpt lat="50.49714" lon="1.5916">
        <ele>17</ele>
        <time>2024-03-21T02:20:22Z</time>
      </trkpt>
      <trkpt lat="50.4974" lon="1.5915">
        <ele>17</ele>
        <time>2024-03-21T02:20:27Z</time>
      </trkpt>
      <trkpt lat="50.498" lon="1.59137">
        <ele>19</ele>
        <time>2024-03-21T02:20:38Z</time>
      </trkpt>
      <trkpt lat="50.4986" lon="1.5913">
        <ele>20</ele>
        <time>2024-03-21T02:20:49Z</time>
      </trkpt>
      <trkpt lat="50.49902" lon="1.59134">
        <ele>19</ele>
        <time>2024-03-21T02:20:56Z</time>
      </trkpt>
      <trkpt lat="50.49934" lon="1.59144">
        <ele>19</ele>
        <time>2024-03-21T02:21:02Z</time>
      </trkpt>
      <trkpt lat="50.49963" lon="1.59167">
        <ele>19</ele>
        <time>2024-03-21T02:21:08Z</time>
      </trkpt>
      <trkpt lat="50.49992" lon="1.59201">
        <ele>19</ele>
        <time>2024-03-21T02:21:14Z</time>
      </trkpt>
      <trkpt lat="50.50047" lon="1.59277">
        <ele>18</ele>
        <time>2024-03-21T02:21:27Z</time>
      </trkpt>
      <trkpt lat="50.50073" lon="1.59316">
        <ele>18</ele>
        <time>2024-03-21T02:21:34Z</time>
      </trkpt>
      <trkpt lat="50.50086" lon="1.59355">
        <ele>16</ele>
        <time>2024-03-21T02:21:39Z</time>
      </trkpt>
      <trkpt lat="50.5009" lon="1.5936">
        <ele>16</ele>
        <time>2024-03-21T02:21:39Z</time>
      </trkpt>
      <trkpt lat="50.50096" lon="1.59363">
        <ele>16</ele>
        <time>2024-03-21T02:21:41Z</time>
      </trkpt>
      <trkpt lat="50.50102" lon="1.59366">
        <ele>16</ele>
        <time>2024-03-21T02:21:42Z</time>
      </trkpt>
      <trkpt lat="50.50115" lon="1.59332">
        <ele>17</ele>
        <time>2024-03-21T02:21:46Z</time>
      </trkpt>
      <trkpt lat="50.50138" lon="1.59316">
        <ele>18</ele>
        <time>2024-03-21T02:21:51Z</time>
      </trkpt>
      <trkpt lat="50.50247" lon="1.59283">
        <ele>15</ele>
        <time>2024-03-21T02:22:10Z</time>
      </trkpt>
      <trkpt lat="50.50306" lon="1.5927">
        <ele>15</ele>
        <time>2024-03-21T02:22:21Z</time>
      </trkpt>
      <trkpt lat="50.50332" lon="1.59269">
        <ele>15</ele>
        <time>2024-03-21T02:22:26Z</time>
      </trkpt>
      <trkpt lat="50.50339" lon="1.59264">
        <ele>15</ele>
        <time>2024-03-21T02:22:27Z</time>
      </trkpt>
      <trkpt lat="50.50372" lon="1.59264">
        <ele>14</ele>
        <time>2024-03-21T02:22:33Z</time>
      </trkpt>
      <trkpt lat="50.50406" lon="1.59254">
        <ele>13</ele>
        <time>2024-03-21T02:22:39Z</time>
      </trkpt>
      <trkpt lat="50.50428" lon="1.59251">
        <ele>13</ele>
        <time>2024-03-21T02:22:43Z</time>
      </trkpt>
      <trkpt lat="50.50444" lon="1.59257">
        <ele>13</ele>
        <time>2024-03-21T02:22:46Z</time>
      </trkpt>
      <trkpt lat="50.50452" lon="1.59251">
        <ele>13</ele>
        <time>2024-03-21T02:22:48Z</time>
      </trkpt>
      <trkpt lat="50.50465" lon="1.59245">
        <ele>13</ele>
        <time>2024-03-21T02:22:50Z</time>
      </trkpt>
      <trkpt lat="50.505" lon="1.59244">
        <ele>13</ele>
        <time>2024-03-21T02:22:56Z</time>
      </trkpt>
      <trkpt lat="50.50571" lon="1.59229">
        <ele>12</ele>
        <time>2024-03-21T02:23:09Z</time>
      </trkpt>
      <trkpt lat="50.50601" lon="1.59225">
        <ele>12</ele>
        <time>2024-03-21T02:23:14Z</time>
      </trkpt>
      <trkpt lat="50.50611" lon="1.5923">
        <ele>12</ele>
        <time>2024-03-21T02:23:16Z</time>
      </trkpt>
      <trkpt lat="50.50616" lon="1.59229">
        <ele>12</ele>
        <time>2024-03-21T02:23:17Z</time>
      </trkpt>
      <trkpt lat="50.5064" lon="1.59218">
        <ele>13</ele>
        <time>2024-03-21T02:23:21Z</time>
      </trkpt>
      <trkpt lat="50.50661" lon="1.59215">
        <ele>13</ele>
        <time>2024-03-21T02:23:25Z</time>
      </trkpt>
      <trkpt lat="50.50674" lon="1.59222">
        <ele>13</ele>
        <time>2024-03-21T02:23:28Z</time>
      </trkpt>
      <trkpt lat="50.50688" lon="1.5922">
        <ele>13</ele>
        <time>2024-03-21T02:23:30Z</time>
      </trkpt>
      <trkpt lat="50.507" lon="1.59215">
        <ele>13</ele>
        <time>2024-03-21T02:23:32Z</time>
      </trkpt>
      <trkpt lat="50.50708" lon="1.59209">
        <ele>13</ele>
        <time>2024-03-21T02:23:34Z</time>
      </trkpt>
      <trkpt lat="50.50727" lon="1.59203">
        <ele>13</ele>
        <time>2024-03-21T02:23:37Z</time>
      </trkpt>
      <trkpt lat="50.50751" lon="1.59191">
        <ele>13</ele>
        <time>2024-03-21T02:23:42Z</time>
      </trkpt>
      <trkpt lat="50.5077" lon="1.59176">
        <ele>13</ele>
        <time>2024-03-21T02:23:46Z</time>
      </trkpt>
      <trkpt lat="50.50919" lon="1.59029">
        <ele>12</ele>
        <time>2024-03-21T02:24:17Z</time>
      </trkpt>
      <trkpt lat="50.50948" lon="1.59003">
        <ele>11</ele>
        <time>2024-03-21T02:24:23Z</time>
      </trkpt>
      <trkpt lat="50.51038" lon="1.58909">
        <ele>11</ele>
        <time>2024-03-21T02:24:42Z</time>
      </trkpt>
      <trkpt lat="50.51078" lon="1.58871">
        <ele>11</ele>
        <time>2024-03-21T02:24:50Z</time>
      </trkpt>
      <trkpt lat="50.51095" lon="1.58872">
        <ele>10</ele>
        <time>2024-03-21T02:24:53Z</time>
      </trkpt>
      <trkpt lat="50.51099" lon="1.58866">
        <ele>10</ele>
        <time>2024-03-21T02:24:54Z</time>
      </trkpt>
      <trkpt lat="50.51104" lon="1.58846">
        <ele>10</ele>
        <time>2024-03-21T02:24:57Z</time>
      </trkpt>
      <trkpt lat="50.51108" lon="1.5884">
        <ele>10</ele>
        <time>2024-03-21T02:24:58Z</time>
      </trkpt>
      <trkpt lat="50.51125" lon="1.58826">
        <ele>10</ele>
        <time>2024-03-21T02:25:01Z</time>
      </trkpt>
      <trkpt lat="50.5116" lon="1.58786">
        <ele>10</ele>
        <time>2024-03-21T02:25:09Z</time>
      </trkpt>
      <trkpt lat="50.51181" lon="1.58767">
        <ele>10</ele>
        <time>2024-03-21T02:25:13Z</time>
      </trkpt>
      <trkpt lat="50.51215" lon="1.58746">
        <ele>11</ele>
        <time>2024-03-21T02:25:20Z</time>
      </trkpt>
      <trkpt lat="50.51229" lon="1.58735">
        <ele>12</ele>
        <time>2024-03-21T02:25:23Z</time>
      </trkpt>
      <trkpt lat="50.51263" lon="1.5872">
        <ele>13</ele>
        <time>2024-03-21T02:25:29Z</time>
      </trkpt>
      <trkpt lat="50.51324" lon="1.58714">
        <ele>14</ele>
        <time>2024-03-21T02:25:40Z</time>
      </trkpt>
      <trkpt lat="50.51335" lon="1.58708">
        <ele>14</ele>
        <time>2024-03-21T02:25:42Z</time>
      </trkpt>
      <trkpt lat="50.51362" lon="1.58699">
        <ele>14</ele>
        <time>2024-03-21T02:25:47Z</time>
      </trkpt>
      <trkpt lat="50.51466" lon="1.58678">
        <ele>12</ele>
        <time>2024-03-21T02:26:05Z</time>
      </trkpt>
      <trkpt lat="50.51503" lon="1.58665">
        <ele>12</ele>
        <time>2024-03-21T02:26:12Z</time>
      </trkpt>
      <trkpt lat="50.51532" lon="1.58657">
        <ele>12</ele>
        <time>2024-03-21T02:26:17Z</time>
      </trkpt>
      <trkpt lat="50.51615" lon="1.58587">
        <ele>12</ele>
        <time>2024-03-21T02:26:34Z</time>
      </trkpt>
      <trkpt lat="50.51621" lon="1.58575">
        <ele>12</ele>
        <time>2024-03-21T02:26:36Z</time>
      </trkpt>
      <trkpt lat="50.51628" lon="1.58571">
        <ele>12</ele>
        <time>2024-03-21T02:26:37Z</time>
      </trkpt>
      <trkpt lat="50.51635" lon="1.58568">
        <ele>12</ele>
        <time>2024-03-21T02:26:38Z</time>
      </trkpt>
      <trkpt lat="50.51637" lon="1.5857">
        <ele>12</ele>
        <time>2024-03-21T02:26:39Z</time>
      </trkpt>
      <trkpt lat="50.51647" lon="1.58571">
        <ele>11</ele>
        <time>2024-03-21T02:26:41Z</time>
      </trkpt>
      <trkpt lat="50.51649" lon="1.5856">
        <ele>12</ele>
        <time>2024-03-21T02:26:42Z</time>
      </trkpt>
      <trkpt lat="50.51655" lon="1.58561">
        <ele>11</ele>
        <time>2024-03-21T02:26:43Z</time>
      </trkpt>
      <trkpt lat="50.51661" lon="1.5856">
        <ele>11</ele>
        <time>2024-03-21T02:26:44Z</time>
      </trkpt>
      <trkpt lat="50.51666" lon="1.58555">
        <ele>11</ele>
        <time>2024-03-21T02:26:45Z</time>
      </trkpt>
      <trkpt lat="50.5167" lon="1.58547">
        <ele>11</ele>
        <time>2024-03-21T02:26:46Z</time>
      </trkpt>
      <trkpt lat="50.51672" lon="1.58536">
        <ele>12</ele>
        <time>2024-03-21T02:26:48Z</time>
      </trkpt>
      <trkpt lat="50.5167" lon="1.58522">
        <ele>12</ele>
        <time>2024-03-21T02:26:49Z</time>
      </trkpt>
      <trkpt lat="50.51664" lon="1.58511">
        <ele>12</ele>
        <time>2024-03-21T02:26:51Z</time>
      </trkpt>
      <trkpt lat="50.51659" lon="1.58508">
        <ele>12</ele>
        <time>2024-03-21T02:26:52Z</time>
      </trkpt>
      <trkpt lat="50.51673" lon="1.58376">
        <ele>13</ele>
        <time>2024-03-21T02:27:07Z</time>
      </trkpt>
      <trkpt lat="50.51722" lon="1.57942">
        <ele>12</ele>
        <time>2024-03-21T02:27:57Z</time>
      </trkpt>
      <trkpt lat="50.51722" lon="1.57939">
        <ele>11</ele>
        <time>2024-03-21T02:27:57Z</time>
      </trkpt>
      <trkpt lat="50.52081" lon="1.58021">
        <ele>11</ele>
        <time>2024-03-21T02:29:02Z</time>
      </trkpt>
      <trkpt lat="50.52162" lon="1.58046">
        <ele>13</ele>
        <time>2024-03-21T02:29:16Z</time>
      </trkpt>
      <trkpt lat="50.52259" lon="1.58084">
        <ele>13</ele>
        <time>2024-03-21T02:29:34Z</time>
      </trkpt>
      <trkpt lat="50.52411" lon="1.58154">
        <ele>12</ele>
        <time>2024-03-21T02:30:02Z</time>
      </trkpt>
      <trkpt lat="50.52615" lon="1.58301">
        <ele>10</ele>
        <time>2024-03-21T02:30:42Z</time>
      </trkpt>
      <trkpt lat="50.52651" lon="1.58332">
        <ele>10</ele>
        <time>2024-03-21T02:30:50Z</time>
      </trkpt>
      <trkpt lat="50.52703" lon="1.58385">
        <ele>10</ele>
        <time>2024-03-21T02:31:01Z</time>
      </trkpt>
      <trkpt lat="50.52781" lon="1.58481">
        <ele>11</ele>
        <time>2024-03-21T02:31:18Z</time>
      </trkpt>
      <trkpt lat="50.52789" lon="1.5849">
        <ele>11</ele>
        <time>2024-03-21T02:31:20Z</time>
      </trkpt>
      <trkpt lat="50.52781" lon="1.58505">
        <ele>11</ele>
        <time>2024-03-21T02:31:22Z</time>
      </trkpt>
      <trkpt lat="50.5276" lon="1.58563">
        <ele>11</ele>
        <time>2024-03-21T02:31:30Z</time>
      </trkpt>
      <trkpt lat="50.52756" lon="1.5858">
        <ele>11</ele>
        <time>2024-03-21T02:31:32Z</time>
      </trkpt>
      <trkpt lat="50.52625" lon="1.58947">
        <ele>10</ele>
        <time>2024-03-21T02:32:19Z</time>
      </trkpt>
      <trkpt lat="50.52617" lon="1.58991">
        <ele>9</ele>
        <time>2024-03-21T02:32:25Z</time>
      </trkpt>
      <trkpt lat="50.52613" lon="1.59054">
        <ele>9</ele>
        <time>2024-03-21T02:32:32Z</time>
      </trkpt>
      <trkpt lat="50.52606" lon="1.59055">
        <ele>9</ele>
        <time>2024-03-21T02:32:33Z</time>
      </trkpt>
      <trkpt lat="50.52601" lon="1.59061">
        <ele>8</ele>
        <time>2024-03-21T02:32:34Z</time>
      </trkpt>
      <trkpt lat="50.52599" lon="1.5907">
        <ele>8</ele>
        <time>2024-03-21T02:32:35Z</time>
      </trkpt>
      <trkpt lat="50.52599" lon="1.59075">
        <ele>8</ele>
        <time>2024-03-21T02:32:36Z</time>
      </trkpt>
      <trkpt lat="50.52604" lon="1.59086">
        <ele>8</ele>
        <time>2024-03-21T02:32:37Z</time>
      </trkpt>
      <trkpt lat="50.52599" lon="1.59094">
        <ele>8</ele>
        <time>2024-03-21T02:32:39Z</time>
      </trkpt>
      <trkpt lat="50.52488" lon="1.59325">
        <ele>7</ele>
        <time>2024-03-21T02:33:11Z</time>
      </trkpt>
      <trkpt lat="50.5244" lon="1.59421">
        <ele>8</ele>
        <time>2024-03-21T02:33:25Z</time>
      </trkpt>
      <trkpt lat="50.52364" lon="1.59572">
        <ele>9</ele>
        <time>2024-03-21T02:33:47Z</time>
      </trkpt>
      <trkpt lat="50.52348" lon="1.59608">
        <ele>9</ele>
        <time>2024-03-21T02:33:52Z</time>
      </trkpt>
      <trkpt lat="50.52341" lon="1.59606">
        <ele>9</ele>
        <time>2024-03-21T02:33:53Z</time>
      </trkpt>
      <trkpt lat="50.52335" lon="1.59612">
        <ele>9</ele>
        <time>2024-03-21T02:33:54Z</time>
      </trkpt>
      <trkpt lat="50.52335" lon="1.59622">
        <ele>9</ele>
        <time>2024-03-21T02:33:56Z</time>
      </trkpt>
      <trkpt lat="50.52338" lon="1.59628">
        <ele>9</ele>
        <time>2024-03-21T02:33:56Z</time>
      </trkpt>
      <trkpt lat="50.52261" lon="1.59777">
        <ele>11</ele>
        <time>2024-03-21T02:34:18Z</time>
      </trkpt>
      <trkpt lat="50.52197" lon="1.59907">
        <ele>13</ele>
        <time>2024-03-21T02:34:37Z</time>
      </trkpt>
      <trkpt lat="50.52192" lon="1.59908">
        <ele>13</ele>
        <time>2024-03-21T02:34:38Z</time>
      </trkpt>
      <trkpt lat="50.52191" lon="1.59911">
        <ele>13</ele>
        <time>2024-03-21T02:34:38Z</time>
      </trkpt>
      <trkpt lat="50.52192" lon="1.59917">
        <ele>13</ele>
        <time>2024-03-21T02:34:39Z</time>
      </trkpt>
      <trkpt lat="50.52125" lon="1.60057">
        <ele>12</ele>
        <time>2024-03-21T02:34:59Z</time>
      </trkpt>
      <trkpt lat="50.52041" lon="1.60222">
        <ele>11</ele>
        <time>2024-03-21T02:35:22Z</time>
      </trkpt>
      <trkpt lat="50.51999" lon="1.60312">
        <ele>14</ele>
        <time>2024-03-21T02:35:35Z</time>
      </trkpt>
      <trkpt lat="50.51996" lon="1.6031">
        <ele>14</ele>
        <time>2024-03-21T02:35:36Z</time>
      </trkpt>
      <trkpt lat="50.51993" lon="1.60313">
        <ele>14</ele>
        <time>2024-03-21T02:35:36Z</time>
      </trkpt>
      <trkpt lat="50.51992" lon="1.60319">
        <ele>14</ele>
        <time>2024-03-21T02:35:37Z</time>
      </trkpt>
      <trkpt lat="50.51994" lon="1.60323">
        <ele>14</ele>
        <time>2024-03-21T02:35:38Z</time>
      </trkpt>
      <trkpt lat="50.51874" lon="1.60562">
        <ele>12</ele>
        <time>2024-03-21T02:36:12Z</time>
      </trkpt>
      <trkpt lat="50.5184" lon="1.60636">
        <ele>11</ele>
        <time>2024-03-21T02:36:22Z</time>
      </trkpt>
      <trkpt lat="50.51811" lon="1.60736">
        <ele>11</ele>
        <time>2024-03-21T02:36:35Z</time>
      </trkpt>
      <trkpt lat="50.51757" lon="1.60938">
        <ele>12</ele>
        <time>2024-03-21T02:37:00Z</time>
      </trkpt>
      <trkpt lat="50.51745" lon="1.60985">
        <ele>11</ele>
        <time>2024-03-21T02:37:05Z</time>
      </trkpt>
      <trkpt lat="50.51735" lon="1.61023">
        <ele>10</ele>
        <time>2024-03-21T02:37:10Z</time>
      </trkpt>
      <trkpt lat="50.51646" lon="1.61374">
        <ele>14</ele>
        <time>2024-03-21T02:37:53Z</time>
      </trkpt>
      <trkpt lat="50.51627" lon="1.61431">
        <ele>13</ele>
        <time>2024-03-21T02:38:00Z</time>
      </trkpt>
      <trkpt lat="50.51605" lon="1.61448">
        <ele>12</ele>
        <time>2024-03-21T02:38:04Z</time>
      </trkpt>
      <trkpt lat="50.51506" lon="1.61498">
        <ele>13</ele>
        <time>2024-03-21T02:38:23Z</time>
      </trkpt>
      <trkpt lat="50.51367" lon="1.6153">
        <ele>13</ele>
        <time>2024-03-21T02:38:48Z</time>
      </trkpt>
      <trkpt lat="50.51309" lon="1.61551">
        <ele>13</ele>
        <time>2024-03-21T02:38:58Z</time>
      </trkpt>
      <trkpt lat="50.51237" lon="1.61588">
        <ele>10</ele>
        <time>2024-03-21T02:39:12Z</time>
      </trkpt>
      <trkpt lat="50.51228" lon="1.61593">
        <ele>10</ele>
        <time>2024-03-21T02:39:14Z</time>
      </trkpt>
      <trkpt lat="50.51209" lon="1.61596">
        <ele>9</ele>
        <time>2024-03-21T02:39:17Z</time>
      </trkpt>
      <trkpt lat="50.51206" lon="1.61584">
        <ele>9</ele>
        <time>2024-03-21T02:39:18Z</time>
      </trkpt>
      <trkpt lat="50.51199" lon="1.61577">
        <ele>9</ele>
        <time>2024-03-21T02:39:20Z</time>
      </trkpt>
      <trkpt lat="50.51192" lon="1.61575">
        <ele>8</ele>
        <time>2024-03-21T02:39:21Z</time>
      </trkpt>
      <trkpt lat="50.51185" lon="1.61581">
        <ele>8</ele>
        <time>2024-03-21T02:39:23Z</time>
      </trkpt>
      <trkpt lat="50.5118" lon="1.61594">
        <ele>7</ele>
        <time>2024-03-21T02:39:24Z</time>
      </trkpt>
      <trkpt lat="50.5118" lon="1.61602">
        <ele>7</ele>
        <time>2024-03-21T02:39:25Z</time>
      </trkpt>
      <trkpt lat="50.51184" lon="1.61614">
        <ele>7</ele>
        <time>2024-03-21T02:39:27Z</time>
      </trkpt>
      <trkpt lat="50.51178" lon="1.61623">
        <ele>7</ele>
        <time>2024-03-21T02:39:28Z</time>
      </trkpt>
      <trkpt lat="50.51165" lon="1.61639">
        <ele>6</ele>
        <time>2024-03-21T02:39:31Z</time>
      </trkpt>
      <trkpt lat="50.51152" lon="1.61648">
        <ele>6</ele>
        <time>2024-03-21T02:39:34Z</time>
      </trkpt>
      <trkpt lat="50.5114" lon="1.61695">
        <ele>6</ele>
        <time>2024-03-21T02:39:39Z</time>
      </trkpt>
      <trkpt lat="50.51123" lon="1.6172">
        <ele>6</ele>
        <time>2024-03-21T02:39:44Z</time>
      </trkpt>
      <trkpt lat="50.5111" lon="1.61724">
        <ele>6</ele>
        <time>2024-03-21T02:39:46Z</time>
      </trkpt>
      <trkpt lat="50.51109" lon="1.61744">
        <ele>6</ele>
        <time>2024-03-21T02:39:48Z</time>
      </trkpt>
      <trkpt lat="50.51099" lon="1.61746">
        <ele>7</ele>
        <time>2024-03-21T02:39:50Z</time>
      </trkpt>
      <trkpt lat="50.51092" lon="1.61757">
        <ele>7</ele>
        <time>2024-03-21T02:39:52Z</time>
      </trkpt>
      <trkpt lat="50.5109" lon="1.61765">
        <ele>7</ele>
        <time>2024-03-21T02:39:53Z</time>
      </trkpt>
      <trkpt lat="50.51092" lon="1.6178">
        <ele>7</ele>
        <time>2024-03-21T02:39:54Z</time>
      </trkpt>
      <trkpt lat="50.51099" lon="1.61791">
        <ele>7</ele>
        <time>2024-03-21T02:39:56Z</time>
      </trkpt>
      <trkpt lat="50.51041" lon="1.61958">
        <ele>9</ele>
        <time>2024-03-21T02:40:18Z</time>
      </trkpt>
      <trkpt lat="50.51023" lon="1.62015">
        <ele>9</ele>
        <time>2024-03-21T02:40:25Z</time>
      </trkpt>
      <trkpt lat="50.5098" lon="1.62137">
        <ele>10</ele>
        <time>2024-03-21T02:40:41Z</time>
      </trkpt>
      <trkpt lat="50.5097" lon="1.62149">
        <ele>10</ele>
        <time>2024-03-21T02:40:43Z</time>
      </trkpt>
      <trkpt lat="50.50957" lon="1.62152">
        <ele>10</ele>
        <time>2024-03-21T02:40:45Z</time>
      </trkpt>
      <trkpt lat="50.50961" lon="1.62161">
        <ele>10</ele>
        <time>2024-03-21T02:40:47Z</time>
      </trkpt>
      <trkpt lat="50.50963" lon="1.62173">
        <ele>10</ele>
        <time>2024-03-21T02:40:48Z</time>
      </trkpt>
      <trkpt lat="50.5096" lon="1.62185">
        <ele>10</ele>
        <time>2024-03-21T02:40:49Z</time>
      </trkpt>
      <trkpt lat="50.50954" lon="1.62193">
        <ele>10</ele>
        <time>2024-03-21T02:40:51Z</time>
      </trkpt>
      <trkpt lat="50.50947" lon="1.62195">
        <ele>10</ele>
        <time>2024-03-21T02:40:52Z</time>
      </trkpt>
      <trkpt lat="50.50941" lon="1.62193">
        <ele>10</ele>
        <time>2024-03-21T02:40:53Z</time>
      </trkpt>
      <trkpt lat="50.50943" lon="1.62206">
        <ele>10</ele>
        <time>2024-03-21T02:40:55Z</time>
      </trkpt>
      <trkpt lat="50.50943" lon="1.62227">
        <ele>10</ele>
        <time>2024-03-21T02:40:57Z</time>
      </trkpt>
      <trkpt lat="50.50941" lon="1.62263">
        <ele>9</ele>
        <time>2024-03-21T02:41:01Z</time>
      </trkpt>
      <trkpt lat="50.50938" lon="1.62561">
        <ele>5</ele>
        <time>2024-03-21T02:41:35Z</time>
      </trkpt>
      <trkpt lat="50.50941" lon="1.62652">
        <ele>4</ele>
        <time>2024-03-21T02:41:45Z</time>
      </trkpt>
      <trkpt lat="50.50944" lon="1.62688">
        <ele>4</ele>
        <time>2024-03-21T02:41:49Z</time>
      </trkpt>
      <trkpt lat="50.50947" lon="1.627">
        <ele>4</ele>
        <time>2024-03-21T02:41:51Z</time>
      </trkpt>
      <trkpt lat="50.50963" lon="1.62853">
        <ele>4</ele>
        <time>2024-03-21T02:42:08Z</time>
      </trkpt>
      <trkpt lat="50.50967" lon="1.62912">
        <ele>4</ele>
        <time>2024-03-21T02:42:15Z</time>
      </trkpt>
      <trkpt lat="50.50981" lon="1.63039">
        <ele>4</ele>
        <time>2024-03-21T02:42:30Z</time>
      </trkpt>
      <trkpt lat="50.50979" lon="1.63074">
        <ele>5</ele>
        <time>2024-03-21T02:42:34Z</time>
      </trkpt>
      <trkpt lat="50.50995" lon="1.63071">
        <ele>5</ele>
        <time>2024-03-21T02:42:36Z</time>
      </trkpt>
      <trkpt lat="50.50998" lon="1.63071">
        <ele>5</ele>
        <time>2024-03-21T02:42:37Z</time>
      </trkpt>
      <trkpt lat="50.51012" lon="1.63087">
        <ele>5</ele>
        <time>2024-03-21T02:42:40Z</time>
      </trkpt>
      <trkpt lat="50.51015" lon="1.63092">
        <ele>5</ele>
        <time>2024-03-21T02:42:41Z</time>
      </trkpt>
      <trkpt lat="50.51025" lon="1.63134">
        <ele>5</ele>
        <time>2024-03-21T02:42:46Z</time>
      </trkpt>
      <trkpt lat="50.51035" lon="1.63168">
        <ele>5</ele>
        <time>2024-03-21T02:42:50Z</time>
      </trkpt>
      <trkpt lat="50.51052" lon="1.63207">
        <ele>4</ele>
        <time>2024-03-21T02:42:56Z</time>
      </trkpt>
      <trkpt lat="50.51058" lon="1.63228">
        <ele>4</ele>
        <time>2024-03-21T02:42:58Z</time>
      </trkpt>
      <trkpt lat="50.51084" lon="1.63263">
        <ele>3</ele>
        <time>2024-03-21T02:43:04Z</time>
      </trkpt>
      <trkpt lat="50.51089" lon="1.6328">
        <ele>3</ele>
        <time>2024-03-21T02:43:06Z</time>
      </trkpt>
      <trkpt lat="50.51096" lon="1.63294">
        <ele>3</ele>
        <time>2024-03-21T02:43:08Z</time>
      </trkpt>
      <trkpt lat="50.51118" lon="1.63325">
        <ele>3</ele>
        <time>2024-03-21T02:43:14Z</time>
      </trkpt>
      <trkpt lat="50.51131" lon="1.63349">
        <ele>2</ele>
        <time>2024-03-21T02:43:17Z</time>
      </trkpt>
      <trkpt lat="50.51156" lon="1.63382">
        <ele>3</ele>
        <time>2024-03-21T02:43:23Z</time>
      </trkpt>
      <trkpt lat="50.51176" lon="1.63423">
        <ele>4</ele>
        <time>2024-03-21T02:43:29Z</time>
      </trkpt>
      <trkpt lat="50.51194" lon="1.63458">
        <ele>3</ele>
        <time>2024-03-21T02:43:34Z</time>
      </trkpt>
      <trkpt lat="50.51298" lon="1.63624">
        <ele>5</ele>
        <time>2024-03-21T02:44:00Z</time>
      </trkpt>
      <trkpt lat="50.51303" lon="1.63629">
        <ele>5</ele>
        <time>2024-03-21T02:44:01Z</time>
      </trkpt>
      <trkpt lat="50.51308" lon="1.63632">
        <ele>6</ele>
        <time>2024-03-21T02:44:02Z</time>
      </trkpt>
      <trkpt lat="50.51322" lon="1.63611">
        <ele>6</ele>
        <time>2024-03-21T02:44:06Z</time>
      </trkpt>
      <trkpt lat="50.51329" lon="1.63607">
        <ele>7</ele>
        <time>2024-03-21T02:44:07Z</time>
      </trkpt>
      <trkpt lat="50.51331" lon="1.6359">
        <ele>6</ele>
        <time>2024-03-21T02:44:09Z</time>
      </trkpt>
      <trkpt lat="50.5133" lon="1.63578">
        <ele>5</ele>
        <time>2024-03-21T02:44:10Z</time>
      </trkpt>
      <trkpt lat="50.51328" lon="1.63575">
        <ele>5</ele>
        <time>2024-03-21T02:44:11Z</time>
      </trkpt>
      <trkpt lat="50.51327" lon="1.63567">
        <ele>5</ele>
        <time>2024-03-21T02:44:12Z</time>
      </trkpt>
      <trkpt lat="50.51331" lon="1.6356">
        <ele>4</ele>
        <time>2024-03-21T02:44:13Z</time>
      </trkpt>
      <trkpt lat="50.51408" lon="1.63469">
        <ele>4</ele>
        <time>2024-03-21T02:44:30Z</time>
      </trkpt>
      <trkpt lat="50.51412" lon="1.63455">
        <ele>3</ele>
        <time>2024-03-21T02:44:32Z</time>
      </trkpt>
      <trkpt lat="50.51418" lon="1.63443">
        <ele>3</ele>
        <time>2024-03-21T02:44:33Z</time>
      </trkpt>
      <trkpt lat="50.51424" lon="1.63444">
        <ele>3</ele>
        <time>2024-03-21T02:44:35Z</time>
      </trkpt>
      <trkpt lat="50.51456" lon="1.63409">
        <ele>3</ele>
        <time>2024-03-21T02:44:41Z</time>
      </trkpt>
      <trkpt lat="50.51493" lon="1.63363">
        <ele>3</ele>
        <time>2024-03-21T02:44:50Z</time>
      </trkpt>
      <trkpt lat="50.51529" lon="1.63312">
        <ele>3</ele>
        <time>2024-03-21T02:44:58Z</time>
      </trkpt>
      <trkpt lat="50.51555" lon="1.6328">
        <ele>4</ele>
        <time>2024-03-21T02:45:04Z</time>
      </trkpt>
      <trkpt lat="50.51574" lon="1.63261">
        <ele>4</ele>
        <time>2024-03-21T02:45:08Z</time>
      </trkpt>
      <trkpt lat="50.51618" lon="1.63193">
        <ele>3</ele>
        <time>2024-03-21T02:45:19Z</time>
      </trkpt>
      <trkpt lat="50.51624" lon="1.63193">
        <ele>4</ele>
        <time>2024-03-21T02:45:20Z</time>
      </trkpt>
      <trkpt lat="50.51658" lon="1.63243">
        <ele>6</ele>
        <time>2024-03-21T02:45:29Z</time>
      </trkpt>
      <trkpt lat="50.51661" lon="1.63246">
        <ele>6</ele>
        <time>2024-03-21T02:45:29Z</time>
      </trkpt>
      <trkpt lat="50.51665" lon="1.63245">
        <ele>6</ele>
        <time>2024-03-21T02:45:30Z</time>
      </trkpt>
      <trkpt lat="50.51681" lon="1.63217">
        <ele>5</ele>
        <time>2024-03-21T02:45:34Z</time>
      </trkpt>
      <trkpt lat="50.51695" lon="1.63198">
        <ele>5</ele>
        <time>2024-03-21T02:45:38Z</time>
      </trkpt>
      <trkpt lat="50.51703" lon="1.63182">
        <ele>5</ele>
        <time>2024-03-21T02:45:40Z</time>
      </trkpt>
      <trkpt lat="50.51708" lon="1.63176">
        <ele>5</ele>
        <time>2024-03-21T02:45:41Z</time>
      </trkpt>
      <trkpt lat="50.51714" lon="1.63173">
        <ele>5</ele>
        <time>2024-03-21T02:45:42Z</time>
      </trkpt>
      <trkpt lat="50.51773" lon="1.63094">
        <ele>5</ele>
        <time>2024-03-21T02:45:56Z</time>
      </trkpt>
      <trkpt lat="50.51781" lon="1.63087">
        <ele>5</ele>
        <time>2024-03-21T02:45:58Z</time>
      </trkpt>
      <trkpt lat="50.51876" lon="1.62968">
        <ele>5</ele>
        <time>2024-03-21T02:46:19Z</time>
      </trkpt>
      <trkpt lat="50.5187" lon="1.62949">
        <ele>5</ele>
        <time>2024-03-21T02:46:22Z</time>
      </trkpt>
      <trkpt lat="50.51877" lon="1.62836">
        <ele>3</ele>
        <time>2024-03-21T02:46:34Z</time>
      </trkpt>
      <trkpt lat="50.51879" lon="1.62819">
        <ele>3</ele>
        <time>2024-03-21T02:46:36Z</time>
      </trkpt>
      <trkpt lat="50.51915" lon="1.62775">
        <ele>3</ele>
        <time>2024-03-21T02:46:44Z</time>
      </trkpt>
      <trkpt lat="50.51927" lon="1.62764">
        <ele>3</ele>
        <time>2024-03-21T02:46:47Z</time>
      </trkpt>
      <trkpt lat="50.51938" lon="1.62765">
        <ele>3</ele>
        <time>2024-03-21T02:46:49Z</time>
      </trkpt>
      <trkpt lat="50.51946" lon="1.62774">
        <ele>4</ele>
        <time>2024-03-21T02:46:51Z</time>
      </trkpt>
      <trkpt lat="50.51962" lon="1.62801">
        <ele>4</ele>
        <time>2024-03-21T02:46:55Z</time>
      </trkpt>
      <trkpt lat="50.51969" lon="1.62783">
        <ele>4</ele>
        <time>2024-03-21T02:46:57Z</time>
      </trkpt>
      <trkpt lat="50.51966" lon="1.62781">
        <ele>4</ele>
        <time>2024-03-21T02:46:58Z</time>
      </trkpt>
      <trkpt lat="50.51963" lon="1.62775">
        <ele>4</ele>
        <time>2024-03-21T02:46:59Z</time>
      </trkpt>
      <trkpt lat="50.51966" lon="1.62781">
        <ele>4</ele>
        <time>2024-03-21T02:47:00Z</time>
      </trkpt>
      <trkpt lat="50.51969" lon="1.62783">
        <ele>4</ele>
        <time>2024-03-21T02:47:00Z</time>
      </trkpt>
      <trkpt lat="50.51962" lon="1.62801">
        <ele>4</ele>
        <time>2024-03-21T02:47:02Z</time>
      </trkpt>
      <trkpt lat="50.51968" lon="1.62803">
        <ele>4</ele>
        <time>2024-03-21T02:47:04Z</time>
      </trkpt>
      <trkpt lat="50.51989" lon="1.62803">
        <ele>4</ele>
        <time>2024-03-21T02:47:07Z</time>
      </trkpt>
      <trkpt lat="50.51998" lon="1.628">
        <ele>4</ele>
        <time>2024-03-21T02:47:09Z</time>
      </trkpt>
      <trkpt lat="50.52027" lon="1.62783">
        <ele>4</ele>
        <time>2024-03-21T02:47:14Z</time>
      </trkpt>
      <trkpt lat="50.52044" lon="1.62783">
        <ele>5</ele>
        <time>2024-03-21T02:47:17Z</time>
      </trkpt>
      <trkpt lat="50.52062" lon="1.62799">
        <ele>5</ele>
        <time>2024-03-21T02:47:21Z</time>
      </trkpt>
      <trkpt lat="50.52068" lon="1.62804">
        <ele>5</ele>
        <time>2024-03-21T02:47:22Z</time>
      </trkpt>
      <trkpt lat="50.52075" lon="1.62805">
        <ele>5</ele>
        <time>2024-03-21T02:47:24Z</time>
      </trkpt>
      <trkpt lat="50.52083" lon="1.62804">
        <ele>5</ele>
        <time>2024-03-21T02:47:25Z</time>
      </trkpt>
      <trkpt lat="50.52117" lon="1.62813">
        <ele>5</ele>
        <time>2024-03-21T02:47:31Z</time>
      </trkpt>
      <trkpt lat="50.52205" lon="1.62848">
        <ele>6</ele>
        <time>2024-03-21T02:47:47Z</time>
      </trkpt>
      <trkpt lat="50.52197" lon="1.6288">
        <ele>6</ele>
        <time>2024-03-21T02:47:51Z</time>
      </trkpt>
      <trkpt lat="50.52199" lon="1.62882">
        <ele>6</ele>
        <time>2024-03-21T02:47:52Z</time>
      </trkpt>
      <trkpt lat="50.52199" lon="1.62887">
        <ele>6</ele>
        <time>2024-03-21T02:47:52Z</time>
      </trkpt>
      <trkpt lat="50.52202" lon="1.62891">
        <ele>6</ele>
        <time>2024-03-21T02:47:53Z</time>
      </trkpt>
      <trkpt lat="50.52205" lon="1.62893">
        <ele>7</ele>
        <time>2024-03-21T02:47:53Z</time>
      </trkpt>
      <trkpt lat="50.52209" lon="1.62893">
        <ele>7</ele>
        <time>2024-03-21T02:47:54Z</time>
      </trkpt>
      <trkpt lat="50.52211" lon="1.62898">
        <ele>7</ele>
        <time>2024-03-21T02:47:55Z</time>
      </trkpt>
      <trkpt lat="50.52217" lon="1.62905">
        <ele>7</ele>
        <time>2024-03-21T02:47:56Z</time>
      </trkpt>
      <trkpt lat="50.52221" lon="1.62906">
        <ele>7</ele>
        <time>2024-03-21T02:47:57Z</time>
      </trkpt>
      <trkpt lat="50.52229" lon="1.62902">
        <ele>7</ele>
        <time>2024-03-21T02:47:58Z</time>
      </trkpt>
      <trkpt lat="50.52233" lon="1.62893">
        <ele>7</ele>
        <time>2024-03-21T02:48:00Z</time>
      </trkpt>
      <trkpt lat="50.52239" lon="1.62897">
        <ele>7</ele>
        <time>2024-03-21T02:48:01Z</time>
      </trkpt>
      <trkpt lat="50.52257" lon="1.62889">
        <ele>7</ele>
        <time>2024-03-21T02:48:04Z</time>
      </trkpt>
      <trkpt lat="50.52268" lon="1.62888">
        <ele>8</ele>
        <time>2024-03-21T02:48:06Z</time>
      </trkpt>
      <trkpt lat="50.52292" lon="1.62896">
        <ele>8</ele>
        <time>2024-03-21T02:48:10Z</time>
      </trkpt>
      <trkpt lat="50.52302" lon="1.62903">
        <ele>8</ele>
        <time>2024-03-21T02:48:12Z</time>
      </trkpt>
      <trkpt lat="50.52328" lon="1.62913">
        <ele>8</ele>
        <time>2024-03-21T02:48:17Z</time>
      </trkpt>
      <trkpt lat="50.52384" lon="1.62926">
        <ele>10</ele>
        <time>2024-03-21T02:48:27Z</time>
      </trkpt>
      <trkpt lat="50.52416" lon="1.6293">
        <ele>11</ele>
        <time>2024-03-21T02:48:33Z</time>
      </trkpt>
      <trkpt lat="50.52482" lon="1.62915">
        <ele>14</ele>
        <time>2024-03-21T02:48:45Z</time>
      </trkpt>
      <trkpt lat="50.52504" lon="1.62905">
        <ele>15</ele>
        <time>2024-03-21T02:48:49Z</time>
      </trkpt>
      <trkpt lat="50.5251" lon="1.62898">
        <ele>15</ele>
        <time>2024-03-21T02:48:50Z</time>
      </trkpt>
      <trkpt lat="50.52515" lon="1.62897">
        <ele>15</ele>
        <time>2024-03-21T02:48:51Z</time>
      </trkpt>
      <trkpt lat="50.52521" lon="1.629">
        <ele>16</ele>
        <time>2024-03-21T02:48:52Z</time>
      </trkpt>
      <trkpt lat="50.52527" lon="1.62899">
        <ele>16</ele>
        <time>2024-03-21T02:48:53Z</time>
      </trkpt>
      <trkpt lat="50.52532" lon="1.62894">
        <ele>16</ele>
        <time>2024-03-21T02:48:54Z</time>
      </trkpt>
      <trkpt lat="50.52538" lon="1.62894">
        <ele>16</ele>
        <time>2024-03-21T02:48:55Z</time>
      </trkpt>
      <trkpt lat="50.52549" lon="1.6289">
        <ele>16</ele>
        <time>2024-03-21T02:48:57Z</time>
      </trkpt>
      <trkpt lat="50.52731" lon="1.62809">
        <ele>20</ele>
        <time>2024-03-21T02:49:31Z</time>
      </trkpt>
      <trkpt lat="50.53292" lon="1.62578">
        <ele>21</ele>
        <time>2024-03-21T02:51:14Z</time>
      </trkpt>
      <trkpt lat="50.53777" lon="1.62373">
        <ele>28</ele>
        <time>2024-03-21T02:52:44Z</time>
      </trkpt>
      <trkpt lat="50.5417" lon="1.62209">
        <ele>33</ele>
        <time>2024-03-21T02:53:56Z</time>
      </trkpt>
      <trkpt lat="50.54994" lon="1.6185">
        <ele>28</ele>
        <time>2024-03-21T02:56:28Z</time>
      </trkpt>
      <trkpt lat="50.55011" lon="1.61847">
        <ele>28</ele>
        <time>2024-03-21T02:56:31Z</time>
      </trkpt>
      <trkpt lat="50.55046" lon="1.61853">
        <ele>30</ele>
        <time>2024-03-21T02:56:37Z</time>
      </trkpt>
      <trkpt lat="50.55051" lon="1.61833">
        <ele>28</ele>
        <time>2024-03-21T02:56:40Z</time>
      </trkpt>
      <trkpt lat="50.55057" lon="1.61824">
        <ele>27</ele>
        <time>2024-03-21T02:56:41Z</time>
      </trkpt>
      <trkpt lat="50.55265" lon="1.61734">
        <ele>29</ele>
        <time>2024-03-21T02:57:20Z</time>
      </trkpt>
      <trkpt lat="50.55314" lon="1.61711">
        <ele>29</ele>
        <time>2024-03-21T02:57:29Z</time>
      </trkpt>
      <trkpt lat="50.55369" lon="1.61679">
        <ele>29</ele>
        <time>2024-03-21T02:57:39Z</time>
      </trkpt>
      <trkpt lat="50.55395" lon="1.61661">
        <ele>30</ele>
        <time>2024-03-21T02:57:44Z</time>
      </trkpt>
      <trkpt lat="50.55444" lon="1.61624">
        <ele>32</ele>
        <time>2024-03-21T02:57:54Z</time>
      </trkpt>
      <trkpt lat="50.555" lon="1.61569">
        <ele>35</ele>
        <time>2024-03-21T02:58:06Z</time>
      </trkpt>
      <trkpt lat="50.55529" lon="1.61536">
        <ele>35</ele>
        <time>2024-03-21T02:58:12Z</time>
      </trkpt>
      <trkpt lat="50.55558" lon="1.61498">
        <ele>34</ele>
        <time>2024-03-21T02:58:19Z</time>
      </trkpt>
      <trkpt lat="50.55587" lon="1.61455">
        <ele>30</ele>
        <time>2024-03-21T02:58:26Z</time>
      </trkpt>
      <trkpt lat="50.55655" lon="1.61337">
        <ele>23</ele>
        <time>2024-03-21T02:58:44Z</time>
      </trkpt>
      <trkpt lat="50.55687" lon="1.61276">
        <ele>23</ele>
        <time>2024-03-21T02:58:53Z</time>
      </trkpt>
      <trkpt lat="50.55742" lon="1.6118">
        <ele>25</ele>
        <time>2024-03-21T02:59:07Z</time>
      </trkpt>
      <trkpt lat="50.55791" lon="1.61108">
        <ele>23</ele>
        <time>2024-03-21T02:59:19Z</time>
      </trkpt>
      <trkpt lat="50.5583" lon="1.61063">
        <ele>22</ele>
        <time>2024-03-21T02:59:28Z</time>
      </trkpt>
      <trkpt lat="50.5586" lon="1.61034">
        <ele>22</ele>
        <time>2024-03-21T02:59:34Z</time>
      </trkpt>
      <trkpt lat="50.55903" lon="1.60998">
        <ele>21</ele>
        <time>2024-03-21T02:59:43Z</time>
      </trkpt>
      <trkpt lat="50.55956" lon="1.60966">
        <ele>22</ele>
        <time>2024-03-21T02:59:53Z</time>
      </trkpt>
      <trkpt lat="50.55993" lon="1.60949">
        <ele>22</ele>
        <time>2024-03-21T03:00:00Z</time>
      </trkpt>
      <trkpt lat="50.56183" lon="1.6089">
        <ele>24</ele>
        <time>2024-03-21T03:00:34Z</time>
      </trkpt>
      <trkpt lat="50.56243" lon="1.60869">
        <ele>22</ele>
        <time>2024-03-21T03:00:45Z</time>
      </trkpt>
      <trkpt lat="50.56278" lon="1.60853">
        <ele>21</ele>
        <time>2024-03-21T03:00:52Z</time>
      </trkpt>
      <trkpt lat="50.56296" lon="1.6085">
        <ele>21</ele>
        <time>2024-03-21T03:00:55Z</time>
      </trkpt>
      <trkpt lat="50.56321" lon="1.60841">
        <ele>20</ele>
        <time>2024-03-21T03:01:00Z</time>
      </trkpt>
      <trkpt lat="50.56337" lon="1.60828">
        <ele>20</ele>
        <time>2024-03-21T03:01:03Z</time>
      </trkpt>
      <trkpt lat="50.56419" lon="1.60787">
        <ele>20</ele>
        <time>2024-03-21T03:01:18Z</time>
      </trkpt>
      <trkpt lat="50.56542" lon="1.60718">
        <ele>23</ele>
        <time>2024-03-21T03:01:41Z</time>
      </trkpt>
      <trkpt lat="50.56612" lon="1.60672">
        <ele>23</ele>
        <time>2024-03-21T03:01:55Z</time>
      </trkpt>
      <trkpt lat="50.56736" lon="1.60582">
        <ele>20</ele>
        <time>2024-03-21T03:02:19Z</time>
      </trkpt>
      <trkpt lat="50.56769" lon="1.60561">
        <ele>20</ele>
        <time>2024-03-21T03:02:25Z</time>
      </trkpt>
      <trkpt lat="50.56889" lon="1.60499">
        <ele>20</ele>
        <time>2024-03-21T03:02:48Z</time>
      </trkpt>
      <trkpt lat="50.56955" lon="1.60477">
        <ele>22</ele>
        <time>2024-03-21T03:03:00Z</time>
      </trkpt>
      <trkpt lat="50.57036" lon="1.60459">
        <ele>23</ele>
        <time>2024-03-21T03:03:14Z</time>
      </trkpt>
      <trkpt lat="50.57062" lon="1.60455">
        <ele>23</ele>
        <time>2024-03-21T03:03:19Z</time>
      </trkpt>
      <trkpt lat="50.57123" lon="1.6045">
        <ele>21</ele>
        <time>2024-03-21T03:03:30Z</time>
      </trkpt>
      <trkpt lat="50.57274" lon="1.60456">
        <ele>21</ele>
        <time>2024-03-21T03:03:57Z</time>
      </trkpt>
      <trkpt lat="50.57306" lon="1.60459">
        <ele>22</ele>
        <time>2024-03-21T03:04:03Z</time>
      </trkpt>
      <trkpt lat="50.57318" lon="1.60464">
        <ele>22</ele>
        <time>2024-03-21T03:04:05Z</time>
      </trkpt>
      <trkpt lat="50.57325" lon="1.60464">
        <ele>22</ele>
        <time>2024-03-21T03:04:06Z</time>
      </trkpt>
      <trkpt lat="50.57333" lon="1.60458">
        <ele>21</ele>
        <time>2024-03-21T03:04:08Z</time>
      </trkpt>
      <trkpt lat="50.5736" lon="1.60457">
        <ele>21</ele>
        <time>2024-03-21T03:04:12Z</time>
      </trkpt>
      <trkpt lat="50.57379" lon="1.60459">
        <ele>21</ele>
        <time>2024-03-21T03:04:16Z</time>
      </trkpt>
      <trkpt lat="50.57455" lon="1.60453">
        <ele>20</ele>
        <time>2024-03-21T03:04:29Z</time>
      </trkpt>
      <trkpt lat="50.57493" lon="1.60458">
        <ele>20</ele>
        <time>2024-03-21T03:04:36Z</time>
      </trkpt>
      <trkpt lat="50.57505" lon="1.60463">
        <ele>21</ele>
        <time>2024-03-21T03:04:38Z</time>
      </trkpt>
      <trkpt lat="50.57515" lon="1.60475">
        <ele>21</ele>
        <time>2024-03-21T03:04:41Z</time>
      </trkpt>
      <trkpt lat="50.57524" lon="1.60498">
        <ele>21</ele>
        <time>2024-03-21T03:04:44Z</time>
      </trkpt>
      <trkpt lat="50.57544" lon="1.60498">
        <ele>21</ele>
        <time>2024-03-21T03:04:47Z</time>
      </trkpt>
      <trkpt lat="50.57547" lon="1.60486">
        <ele>21</ele>
        <time>2024-03-21T03:04:49Z</time>
      </trkpt>
      <trkpt lat="50.5755" lon="1.60478">
        <ele>21</ele>
        <time>2024-03-21T03:04:50Z</time>
      </trkpt>
      <trkpt lat="50.57576" lon="1.60446">
        <ele>20</ele>
        <time>2024-03-21T03:04:56Z</time>
      </trkpt>
      <trkpt lat="50.57587" lon="1.60437">
        <ele>20</ele>
        <time>2024-03-21T03:04:58Z</time>
      </trkpt>
      <trkpt lat="50.57615" lon="1.60428">
        <ele>20</ele>
        <time>2024-03-21T03:05:03Z</time>
      </trkpt>
      <trkpt lat="50.57631" lon="1.6042">
        <ele>21</ele>
        <time>2024-03-21T03:05:06Z</time>
      </trkpt>
      <trkpt lat="50.57768" lon="1.60378">
        <ele>22</ele>
        <time>2024-03-21T03:05:31Z</time>
      </trkpt>
      <trkpt lat="50.57802" lon="1.60369">
        <ele>22</ele>
        <time>2024-03-21T03:05:37Z</time>
      </trkpt>
      <trkpt lat="50.57844" lon="1.6036">
        <ele>22</ele>
        <time>2024-03-21T03:05:44Z</time>
      </trkpt>
      <trkpt lat="50.57891" lon="1.60355">
        <ele>22</ele>
        <time>2024-03-21T03:05:53Z</time>
      </trkpt>
      <trkpt lat="50.58049" lon="1.60353">
        <ele>23</ele>
        <time>2024-03-21T03:06:21Z</time>
      </trkpt>
      <trkpt lat="50.58215" lon="1.60365">
        <ele>23</ele>
        <time>2024-03-21T03:06:50Z</time>
      </trkpt>
      <trkpt lat="50.58248" lon="1.60369">
        <ele>23</ele>
        <time>2024-03-21T03:06:56Z</time>
      </trkpt>
      <trkpt lat="50.58334" lon="1.60388">
        <ele>24</ele>
        <time>2024-03-21T03:07:12Z</time>
      </trkpt>
      <trkpt lat="50.58374" lon="1.60395">
        <ele>24</ele>
        <time>2024-03-21T03:07:19Z</time>
      </trkpt>
      <trkpt lat="50.58512" lon="1.60434">
        <ele>23</ele>
        <time>2024-03-21T03:07:44Z</time>
      </trkpt>
      <trkpt lat="50.58642" lon="1.60479">
        <ele>23</ele>
        <time>2024-03-21T03:08:07Z</time>
      </trkpt>
      <trkpt lat="50.58712" lon="1.60506">
        <ele>23</ele>
        <time>2024-03-21T03:08:20Z</time>
      </trkpt>
      <trkpt lat="50.58799" lon="1.6055">
        <ele>25</ele>
        <time>2024-03-21T03:08:37Z</time>
      </trkpt>
      <trkpt lat="50.58819" lon="1.60568">
        <ele>26</ele>
        <time>2024-03-21T03:08:41Z</time>
      </trkpt>
      <trkpt lat="50.58843" lon="1.60582">
        <ele>26</ele>
        <time>2024-03-21T03:08:45Z</time>
      </trkpt>
      <trkpt lat="50.58856" lon="1.60587">
        <ele>26</ele>
        <time>2024-03-21T03:08:48Z</time>
      </trkpt>
      <trkpt lat="50.58892" lon="1.60611">
        <ele>26</ele>
        <time>2024-03-21T03:08:55Z</time>
      </trkpt>
      <trkpt lat="50.58918" lon="1.60633">
        <ele>26</ele>
        <time>2024-03-21T03:09:00Z</time>
      </trkpt>
      <trkpt lat="50.58944" lon="1.60662">
        <ele>24</ele>
        <time>2024-03-21T03:09:05Z</time>
      </trkpt>
      <trkpt lat="50.58951" lon="1.60674">
        <ele>24</ele>
        <time>2024-03-21T03:09:07Z</time>
      </trkpt>
      <trkpt lat="50.58954" lon="1.60697">
        <ele>24</ele>
        <time>2024-03-21T03:09:10Z</time>
      </trkpt>
      <trkpt lat="50.58963" lon="1.60722">
        <ele>24</ele>
        <time>2024-03-21T03:09:13Z</time>
      </trkpt>
      <trkpt lat="50.58978" lon="1.60729">
        <ele>24</ele>
        <time>2024-03-21T03:09:16Z</time>
      </trkpt>
      <trkpt lat="50.58987" lon="1.60726">
        <ele>24</ele>
        <time>2024-03-21T03:09:18Z</time>
      </trkpt>
      <trkpt lat="50.58997" lon="1.60718">
        <ele>24</ele>
        <time>2024-03-21T03:09:20Z</time>
      </trkpt>
      <trkpt lat="50.59003" lon="1.60718">
        <ele>24</ele>
        <time>2024-03-21T03:09:21Z</time>
      </trkpt>
      <trkpt lat="50.59021" lon="1.60728">
        <ele>23</ele>
        <time>2024-03-21T03:09:24Z</time>
      </trkpt>
      <trkpt lat="50.59043" lon="1.60747">
        <ele>23</ele>
        <time>2024-03-21T03:09:29Z</time>
      </trkpt>
      <trkpt lat="50.59114" lon="1.60826">
        <ele>27</ele>
        <time>2024-03-21T03:09:44Z</time>
      </trkpt>
      <trkpt lat="50.59166" lon="1.60893">
        <ele>30</ele>
        <time>2024-03-21T03:09:56Z</time>
      </trkpt>
      <trkpt lat="50.59223" lon="1.6098">
        <ele>31</ele>
        <time>2024-03-21T03:10:10Z</time>
      </trkpt>
      <trkpt lat="50.59292" lon="1.611">
        <ele>33</ele>
        <time>2024-03-21T03:10:28Z</time>
      </trkpt>
      <trkpt lat="50.59324" lon="1.61163">
        <ele>33</ele>
        <time>2024-03-21T03:10:38Z</time>
      </trkpt>
      <trkpt lat="50.59378" lon="1.61283">
        <ele>36</ele>
        <time>2024-03-21T03:10:54Z</time>
      </trkpt>
      <trkpt lat="50.59386" lon="1.61313">
        <ele>36</ele>
        <time>2024-03-21T03:10:58Z</time>
      </trkpt>
      <trkpt lat="50.59399" lon="1.61336">
        <ele>36</ele>
        <time>2024-03-21T03:11:01Z</time>
      </trkpt>
      <trkpt lat="50.59494" lon="1.61556">
        <ele>36</ele>
        <time>2024-03-21T03:11:31Z</time>
      </trkpt>
      <trkpt lat="50.59545" lon="1.61663">
        <ele>37</ele>
        <time>2024-03-21T03:11:46Z</time>
      </trkpt>
      <trkpt lat="50.59599" lon="1.61769">
        <ele>36</ele>
        <time>2024-03-21T03:12:02Z</time>
      </trkpt>
      <trkpt lat="50.59748" lon="1.6205">
        <ele>39</ele>
        <time>2024-03-21T03:12:43Z</time>
      </trkpt>
      <trkpt lat="50.59777" lon="1.62109">
        <ele>40</ele>
        <time>2024-03-21T03:12:52Z</time>
      </trkpt>
      <trkpt lat="50.59798" lon="1.62161">
        <ele>40</ele>
        <time>2024-03-21T03:12:59Z</time>
      </trkpt>
      <trkpt lat="50.59818" lon="1.622">
        <ele>40</ele>
        <time>2024-03-21T03:13:04Z</time>
      </trkpt>
      <trkpt lat="50.59866" lon="1.62326">
        <ele>40</ele>
        <time>2024-03-21T03:13:21Z</time>
      </trkpt>
      <trkpt lat="50.59889" lon="1.62396">
        <ele>40</ele>
        <time>2024-03-21T03:13:30Z</time>
      </trkpt>
      <trkpt lat="50.59892" lon="1.62407">
        <ele>40</ele>
        <time>2024-03-21T03:13:31Z</time>
      </trkpt>
      <trkpt lat="50.59895" lon="1.6241">
        <ele>40</ele>
        <time>2024-03-21T03:13:32Z</time>
      </trkpt>
      <trkpt lat="50.59913" lon="1.62396">
        <ele>41</ele>
        <time>2024-03-21T03:13:35Z</time>
      </trkpt>
      <trkpt lat="50.59922" lon="1.62416">
        <ele>41</ele>
        <time>2024-03-21T03:13:38Z</time>
      </trkpt>
      <trkpt lat="50.59957" lon="1.62534">
        <ele>45</ele>
        <time>2024-03-21T03:13:53Z</time>
      </trkpt>
      <trkpt lat="50.59976" lon="1.62591">
        <ele>48</ele>
        <time>2024-03-21T03:14:00Z</time>
      </trkpt>
      <trkpt lat="50.6" lon="1.62658">
        <ele>51</ele>
        <time>2024-03-21T03:14:09Z</time>
      </trkpt>
      <trkpt lat="50.60033" lon="1.62727">
        <ele>54</ele>
        <time>2024-03-21T03:14:18Z</time>
      </trkpt>
      <trkpt lat="50.60072" lon="1.62793">
        <ele>56</ele>
        <time>2024-03-21T03:14:29Z</time>
      </trkpt>
      <trkpt lat="50.60127" lon="1.62865">
        <ele>57</ele>
        <time>2024-03-21T03:14:41Z</time>
      </trkpt>
      <trkpt lat="50.60165" lon="1.62905">
        <ele>56</ele>
        <time>2024-03-21T03:14:49Z</time>
      </trkpt>
      <trkpt lat="50.60235" lon="1.62963">
        <ele>56</ele>
        <time>2024-03-21T03:15:04Z</time>
      </trkpt>
      <trkpt lat="50.60309" lon="1.63009">
        <ele>58</ele>
        <time>2024-03-21T03:15:18Z</time>
      </trkpt>
      <trkpt lat="50.60403" lon="1.63062">
        <ele>59</ele>
        <time>2024-03-21T03:15:35Z</time>
      </trkpt>
      <trkpt lat="50.60432" lon="1.63077">
        <ele>60</ele>
        <time>2024-03-21T03:15:41Z</time>
      </trkpt>
      <trkpt lat="50.60791" lon="1.63226">
        <ele>65</ele>
        <time>2024-03-21T03:16:47Z</time>
      </trkpt>
      <trkpt lat="50.60866" lon="1.6326">
        <ele>65</ele>
        <time>2024-03-21T03:17:01Z</time>
      </trkpt>
      <trkpt lat="50.60894" lon="1.6327">
        <ele>65</ele>
        <time>2024-03-21T03:17:06Z</time>
      </trkpt>
      <trkpt lat="50.60945" lon="1.63279">
        <ele>65</ele>
        <time>2024-03-21T03:17:15Z</time>
      </trkpt>
      <trkpt lat="50.61048" lon="1.63273">
        <ele>64</ele>
        <time>2024-03-21T03:17:33Z</time>
      </trkpt>
      <trkpt lat="50.61095" lon="1.63271">
        <ele>64</ele>
        <time>2024-03-21T03:17:42Z</time>
      </trkpt>
      <trkpt lat="50.61096" lon="1.633">
        <ele>63</ele>
        <time>2024-03-21T03:17:45Z</time>
      </trkpt>
      <trkpt lat="50.61111" lon="1.63334">
        <ele>62</ele>
        <time>2024-03-21T03:17:50Z</time>
      </trkpt>
      <trkpt lat="50.6111" lon="1.63384">
        <ele>61</ele>
        <time>2024-03-21T03:17:55Z</time>
      </trkpt>
      <trkpt lat="50.61109" lon="1.63393">
        <ele>60</ele>
        <time>2024-03-21T03:17:56Z</time>
      </trkpt>
      <trkpt lat="50.61107" lon="1.63402">
        <ele>60</ele>
        <time>2024-03-21T03:17:58Z</time>
      </trkpt>
      <trkpt lat="50.61104" lon="1.63421">
        <ele>60</ele>
        <time>2024-03-21T03:18:00Z</time>
      </trkpt>
      <trkpt lat="50.61083" lon="1.63536">
        <ele>59</ele>
        <time>2024-03-21T03:18:13Z</time>
      </trkpt>
      <trkpt lat="50.61125" lon="1.63552">
        <ele>59</ele>
        <time>2024-03-21T03:18:21Z</time>
      </trkpt>
      <trkpt lat="50.61214" lon="1.63633">
        <ele>59</ele>
        <time>2024-03-21T03:18:39Z</time>
      </trkpt>
      <trkpt lat="50.61236" lon="1.63648">
        <ele>59</ele>
        <time>2024-03-21T03:18:43Z</time>
      </trkpt>
      <trkpt lat="50.61259" lon="1.63659">
        <ele>59</ele>
        <time>2024-03-21T03:18:48Z</time>
      </trkpt>
      <trkpt lat="50.61276" lon="1.63661">
        <ele>58</ele>
        <time>2024-03-21T03:18:51Z</time>
      </trkpt>
      <trkpt lat="50.61304" lon="1.63655">
        <ele>58</ele>
        <time>2024-03-21T03:18:56Z</time>
      </trkpt>
      <trkpt lat="50.61321" lon="1.63644">
        <ele>57</ele>
        <time>2024-03-21T03:18:59Z</time>
      </trkpt>
      <trkpt lat="50.61392" lon="1.63573">
        <ele>55</ele>
        <time>2024-03-21T03:19:14Z</time>
      </trkpt>
      <trkpt lat="50.614" lon="1.63568">
        <ele>55</ele>
        <time>2024-03-21T03:19:16Z</time>
      </trkpt>
      <trkpt lat="50.6141" lon="1.63567">
        <ele>55</ele>
        <time>2024-03-21T03:19:17Z</time>
      </trkpt>
      <trkpt lat="50.61421" lon="1.63569">
        <ele>55</ele>
        <time>2024-03-21T03:19:19Z</time>
      </trkpt>
      <trkpt lat="50.61438" lon="1.63577">
        <ele>55</ele>
        <time>2024-03-21T03:19:22Z</time>
      </trkpt>
      <trkpt lat="50.61469" lon="1.63597">
        <ele>54</ele>
        <time>2024-03-21T03:19:28Z</time>
      </trkpt>
      <trkpt lat="50.6149" lon="1.63623">
        <ele>55</ele>
        <time>2024-03-21T03:19:33Z</time>
      </trkpt>
      <trkpt lat="50.61578" lon="1.6375">
        <ele>53</ele>
        <time>2024-03-21T03:19:54Z</time>
      </trkpt>
      <trkpt lat="50.61585" lon="1.63768">
        <ele>53</ele>
        <time>2024-03-21T03:19:57Z</time>
      </trkpt>
      <trkpt lat="50.61589" lon="1.63785">
        <ele>53</ele>
        <time>2024-03-21T03:19:59Z</time>
      </trkpt>
      <trkpt lat="50.61592" lon="1.6382">
        <ele>53</ele>
        <time>2024-03-21T03:20:03Z</time>
      </trkpt>
      <trkpt lat="50.61593" lon="1.63842">
        <ele>53</ele>
        <time>2024-03-21T03:20:05Z</time>
      </trkpt>
      <trkpt lat="50.61596" lon="1.63862">
        <ele>53</ele>
        <time>2024-03-21T03:20:08Z</time>
      </trkpt>
      <trkpt lat="50.61605" lon="1.63885">
        <ele>53</ele>
        <time>2024-03-21T03:20:11Z</time>
      </trkpt>
      <trkpt lat="50.61655" lon="1.63961">
        <ele>54</ele>
        <time>2024-03-21T03:20:23Z</time>
      </trkpt>
      <trkpt lat="50.61666" lon="1.63972">
        <ele>55</ele>
        <time>2024-03-21T03:20:25Z</time>
      </trkpt>
      <trkpt lat="50.61674" lon="1.63974">
        <ele>55</ele>
        <time>2024-03-21T03:20:27Z</time>
      </trkpt>
      <trkpt lat="50.61681" lon="1.63972">
        <ele>55</ele>
        <time>2024-03-21T03:20:28Z</time>
      </trkpt>
      <trkpt lat="50.61703" lon="1.63949">
        <ele>54</ele>
        <time>2024-03-21T03:20:33Z</time>
      </trkpt>
      <trkpt lat="50.61713" lon="1.63952">
        <ele>54</ele>
        <time>2024-03-21T03:20:35Z</time>
      </trkpt>
      <trkpt lat="50.61765" lon="1.64024">
        <ele>55</ele>
        <time>2024-03-21T03:20:47Z</time>
      </trkpt>
      <trkpt lat="50.61786" lon="1.64057">
        <ele>55</ele>
        <time>2024-03-21T03:20:52Z</time>
      </trkpt>
      <trkpt lat="50.61799" lon="1.64081">
        <ele>55</ele>
        <time>2024-03-21T03:20:56Z</time>
      </trkpt>
      <trkpt lat="50.61811" lon="1.64109">
        <ele>55</ele>
        <time>2024-03-21T03:21:00Z</time>
      </trkpt>
      <trkpt lat="50.61834" lon="1.64183">
        <ele>54</ele>
        <time>2024-03-21T03:21:09Z</time>
      </trkpt>
      <trkpt lat="50.6184" lon="1.64198">
        <ele>54</ele>
        <time>2024-03-21T03:21:11Z</time>
      </trkpt>
      <trkpt lat="50.61881" lon="1.6425">
        <ele>53</ele>
        <time>2024-03-21T03:21:20Z</time>
      </trkpt>
      <trkpt lat="50.61906" lon="1.64279">
        <ele>53</ele>
        <time>2024-03-21T03:21:26Z</time>
      </trkpt>
      <trkpt lat="50.61949" lon="1.64319">
        <ele>52</ele>
        <time>2024-03-21T03:21:35Z</time>
      </trkpt>
      <trkpt lat="50.62244" lon="1.64627">
        <ele>56</ele>
        <time>2024-03-21T03:22:38Z</time>
      </trkpt>
      <trkpt lat="50.62273" lon="1.6466">
        <ele>58</ele>
        <time>2024-03-21T03:22:44Z</time>
      </trkpt>
      <trkpt lat="50.6228" lon="1.64665">
        <ele>59</ele>
        <time>2024-03-21T03:22:45Z</time>
      </trkpt>
      <trkpt lat="50.6258" lon="1.64619">
        <ele>48</ele>
        <time>2024-03-21T03:23:39Z</time>
      </trkpt>
      <trkpt lat="50.62597" lon="1.64616">
        <ele>47</ele>
        <time>2024-03-21T03:23:42Z</time>
      </trkpt>
      <trkpt lat="50.62896" lon="1.64571">
        <ele>38</ele>
        <time>2024-03-21T03:24:35Z</time>
      </trkpt>
      <trkpt lat="50.63032" lon="1.64551">
        <ele>34</ele>
        <time>2024-03-21T03:25:00Z</time>
      </trkpt>
      <trkpt lat="50.63233" lon="1.64521">
        <ele>30</ele>
        <time>2024-03-21T03:25:36Z</time>
      </trkpt>
      <trkpt lat="50.6325" lon="1.64516">
        <ele>30</ele>
        <time>2024-03-21T03:25:39Z</time>
      </trkpt>
      <trkpt lat="50.63257" lon="1.64509">
        <ele>30</ele>
        <time>2024-03-21T03:25:40Z</time>
      </trkpt>
      <trkpt lat="50.63268" lon="1.6449">
        <ele>30</ele>
        <time>2024-03-21T03:25:43Z</time>
      </trkpt>
      <trkpt lat="50.63274" lon="1.64494">
        <ele>30</ele>
        <time>2024-03-21T03:25:44Z</time>
      </trkpt>
      <trkpt lat="50.63318" lon="1.64503">
        <ele>30</ele>
        <time>2024-03-21T03:25:52Z</time>
      </trkpt>
      <trkpt lat="50.63395" lon="1.64504">
        <ele>33</ele>
        <time>2024-03-21T03:26:06Z</time>
      </trkpt>
      <trkpt lat="50.63768" lon="1.64449">
        <ele>34</ele>
        <time>2024-03-21T03:27:13Z</time>
      </trkpt>
      <trkpt lat="50.64019" lon="1.64415">
        <ele>40</ele>
        <time>2024-03-21T03:27:57Z</time>
      </trkpt>
      <trkpt lat="50.64078" lon="1.64404">
        <ele>41</ele>
        <time>2024-03-21T03:28:08Z</time>
      </trkpt>
      <trkpt lat="50.64089" lon="1.64405">
        <ele>41</ele>
        <time>2024-03-21T03:28:10Z</time>
      </trkpt>
      <trkpt lat="50.64099" lon="1.6441">
        <ele>41</ele>
        <time>2024-03-21T03:28:12Z</time>
      </trkpt>
      <trkpt lat="50.64109" lon="1.64401">
        <ele>41</ele>
        <time>2024-03-21T03:28:14Z</time>
      </trkpt>
      <trkpt lat="50.64121" lon="1.64399">
        <ele>41</ele>
        <time>2024-03-21T03:28:16Z</time>
      </trkpt>
      <trkpt lat="50.64471" lon="1.64347">
        <ele>40</ele>
        <time>2024-03-21T03:29:19Z</time>
      </trkpt>
      <trkpt lat="50.64526" lon="1.6433">
        <ele>37</ele>
        <time>2024-03-21T03:29:28Z</time>
      </trkpt>
      <trkpt lat="50.64534" lon="1.64331">
        <ele>37</ele>
        <time>2024-03-21T03:29:30Z</time>
      </trkpt>
      <trkpt lat="50.64539" lon="1.64336">
        <ele>36</ele>
        <time>2024-03-21T03:29:31Z</time>
      </trkpt>
      <trkpt lat="50.64543" lon="1.64331">
        <ele>36</ele>
        <time>2024-03-21T03:29:32Z</time>
      </trkpt>
      <trkpt lat="50.64556" lon="1.64342">
        <ele>35</ele>
        <time>2024-03-21T03:29:34Z</time>
      </trkpt>
      <trkpt lat="50.64568" lon="1.64341">
        <ele>34</ele>
        <time>2024-03-21T03:29:37Z</time>
      </trkpt>
      <trkpt lat="50.64577" lon="1.64333">
        <ele>33</ele>
        <time>2024-03-21T03:29:38Z</time>
      </trkpt>
      <trkpt lat="50.64583" lon="1.64321">
        <ele>33</ele>
        <time>2024-03-21T03:29:40Z</time>
      </trkpt>
      <trkpt lat="50.64586" lon="1.64301">
        <ele>32</ele>
        <time>2024-03-21T03:29:43Z</time>
      </trkpt>
      <trkpt lat="50.64583" lon="1.6428">
        <ele>32</ele>
        <time>2024-03-21T03:29:45Z</time>
      </trkpt>
      <trkpt lat="50.64574" lon="1.64266">
        <ele>33</ele>
        <time>2024-03-21T03:29:47Z</time>
      </trkpt>
      <trkpt lat="50.6457" lon="1.64255">
        <ele>33</ele>
        <time>2024-03-21T03:29:49Z</time>
      </trkpt>
      <trkpt lat="50.64568" lon="1.6424">
        <ele>33</ele>
        <time>2024-03-21T03:29:50Z</time>
      </trkpt>
      <trkpt lat="50.64568" lon="1.64145">
        <ele>37</ele>
        <time>2024-03-21T03:30:01Z</time>
      </trkpt>
      <trkpt lat="50.6464" lon="1.63155">
        <ele>37</ele>
        <time>2024-03-21T03:31:54Z</time>
      </trkpt>
      <trkpt lat="50.64644" lon="1.63096">
        <ele>36</ele>
        <time>2024-03-21T03:32:00Z</time>
      </trkpt>
      <trkpt lat="50.6465" lon="1.63096">
        <ele>36</ele>
        <time>2024-03-21T03:32:01Z</time>
      </trkpt>
      <trkpt lat="50.64652" lon="1.63093">
        <ele>36</ele>
        <time>2024-03-21T03:32:02Z</time>
      </trkpt>
      <trkpt lat="50.64742" lon="1.62972">
        <ele>32</ele>
        <time>2024-03-21T03:32:23Z</time>
      </trkpt>
      <trkpt lat="50.64781" lon="1.62928">
        <ele>30</ele>
        <time>2024-03-21T03:32:31Z</time>
      </trkpt>
      <trkpt lat="50.64826" lon="1.62889">
        <ele>29</ele>
        <time>2024-03-21T03:32:40Z</time>
      </trkpt>
      <trkpt lat="50.64795" lon="1.62642">
        <ele>31</ele>
        <time>2024-03-21T03:33:09Z</time>
      </trkpt>
      <trkpt lat="50.64793" lon="1.62635">
        <ele>31</ele>
        <time>2024-03-21T03:33:10Z</time>
      </trkpt>
      <trkpt lat="50.64934" lon="1.62647">
        <ele>33</ele>
        <time>2024-03-21T03:33:35Z</time>
      </trkpt>
      <trkpt lat="50.64956" lon="1.62644">
        <ele>34</ele>
        <time>2024-03-21T03:33:39Z</time>
      </trkpt>
      <trkpt lat="50.6499" lon="1.62632">
        <ele>35</ele>
        <time>2024-03-21T03:33:45Z</time>
      </trkpt>
      <trkpt lat="50.65006" lon="1.62624">
        <ele>36</ele>
        <time>2024-03-21T03:33:48Z</time>
      </trkpt>
      <trkpt lat="50.65023" lon="1.6261">
        <ele>37</ele>
        <time>2024-03-21T03:33:51Z</time>
      </trkpt>
      <trkpt lat="50.65063" lon="1.62566">
        <ele>39</ele>
        <time>2024-03-21T03:34:00Z</time>
      </trkpt>
      <trkpt lat="50.65099" lon="1.62519">
        <ele>38</ele>
        <time>2024-03-21T03:34:08Z</time>
      </trkpt>
      <trkpt lat="50.65116" lon="1.62517">
        <ele>38</ele>
        <time>2024-03-21T03:34:11Z</time>
      </trkpt>
      <trkpt lat="50.6512" lon="1.6251">
        <ele>38</ele>
        <time>2024-03-21T03:34:12Z</time>
      </trkpt>
      <trkpt lat="50.65124" lon="1.62494">
        <ele>38</ele>
        <time>2024-03-21T03:34:14Z</time>
      </trkpt>
      <trkpt lat="50.65134" lon="1.62344">
        <ele>39</ele>
        <time>2024-03-21T03:34:31Z</time>
      </trkpt>
      <trkpt lat="50.65139" lon="1.62311">
        <ele>39</ele>
        <time>2024-03-21T03:34:35Z</time>
      </trkpt>
      <trkpt lat="50.65146" lon="1.62283">
        <ele>39</ele>
        <time>2024-03-21T03:34:39Z</time>
      </trkpt>
      <trkpt lat="50.65153" lon="1.62267">
        <ele>39</ele>
        <time>2024-03-21T03:34:41Z</time>
      </trkpt>
      <trkpt lat="50.65174" lon="1.62246">
        <ele>39</ele>
        <time>2024-03-21T03:34:45Z</time>
      </trkpt>
      <trkpt lat="50.65255" lon="1.62181">
        <ele>45</ele>
        <time>2024-03-21T03:35:01Z</time>
      </trkpt>
      <trkpt lat="50.65303" lon="1.62157">
        <ele>47</ele>
        <time>2024-03-21T03:35:10Z</time>
      </trkpt>
      <trkpt lat="50.65329" lon="1.62135">
        <ele>48</ele>
        <time>2024-03-21T03:35:16Z</time>
      </trkpt>
      <trkpt lat="50.6534" lon="1.6212">
        <ele>49</ele>
        <time>2024-03-21T03:35:18Z</time>
      </trkpt>
      <trkpt lat="50.65344" lon="1.62124">
        <ele>50</ele>
        <time>2024-03-21T03:35:19Z</time>
      </trkpt>
      <trkpt lat="50.65351" lon="1.62124">
        <ele>50</ele>
        <time>2024-03-21T03:35:20Z</time>
      </trkpt>
      <trkpt lat="50.65354" lon="1.62118">
        <ele>50</ele>
        <time>2024-03-21T03:35:21Z</time>
      </trkpt>
      <trkpt lat="50.65354" lon="1.62107">
        <ele>50</ele>
        <time>2024-03-21T03:35:22Z</time>
      </trkpt>
      <trkpt lat="50.65372" lon="1.62087">
        <ele>52</ele>
        <time>2024-03-21T03:35:26Z</time>
      </trkpt>
      <trkpt lat="50.65393" lon="1.62058">
        <ele>54</ele>
        <time>2024-03-21T03:35:31Z</time>
      </trkpt>
      <trkpt lat="50.65413" lon="1.62021">
        <ele>55</ele>
        <time>2024-03-21T03:35:37Z</time>
      </trkpt>
      <trkpt lat="50.65423" lon="1.61998">
        <ele>55</ele>
        <time>2024-03-21T03:35:40Z</time>
      </trkpt>
      <trkpt lat="50.65431" lon="1.61971">
        <ele>56</ele>
        <time>2024-03-21T03:35:43Z</time>
      </trkpt>
      <trkpt lat="50.65435" lon="1.6195">
        <ele>57</ele>
        <time>2024-03-21T03:35:46Z</time>
      </trkpt>
      <trkpt lat="50.65438" lon="1.61902">
        <ele>58</ele>
        <time>2024-03-21T03:35:51Z</time>
      </trkpt>
      <trkpt lat="50.65439" lon="1.61729">
        <ele>58</ele>
        <time>2024-03-21T03:36:11Z</time>
      </trkpt>
      <trkpt lat="50.65443" lon="1.61647">
        <ele>57</ele>
        <time>2024-03-21T03:36:20Z</time>
      </trkpt>
      <trkpt lat="50.65448" lon="1.61622">
        <ele>57</ele>
        <time>2024-03-21T03:36:23Z</time>
      </trkpt>
      <trkpt lat="50.65455" lon="1.616">
        <ele>57</ele>
        <time>2024-03-21T03:36:26Z</time>
      </trkpt>
      <trkpt lat="50.65538" lon="1.61388">
        <ele>65</ele>
        <time>2024-03-21T03:36:54Z</time>
      </trkpt>
      <trkpt lat="50.65553" lon="1.61335">
        <ele>66</ele>
        <time>2024-03-21T03:37:00Z</time>
      </trkpt>
      <trkpt lat="50.65566" lon="1.61264">
        <ele>67</ele>
        <time>2024-03-21T03:37:09Z</time>
      </trkpt>
      <trkpt lat="50.65571" lon="1.61223">
        <ele>68</ele>
        <time>2024-03-21T03:37:13Z</time>
      </trkpt>
      <trkpt lat="50.65572" lon="1.61181">
        <ele>68</ele>
        <time>2024-03-21T03:37:18Z</time>
      </trkpt>
      <trkpt lat="50.6557" lon="1.61143">
        <ele>67</ele>
        <time>2024-03-21T03:37:23Z</time>
      </trkpt>
      <trkpt lat="50.65548" lon="1.60932">
        <ele>63</ele>
        <time>2024-03-21T03:37:47Z</time>
      </trkpt>
      <trkpt lat="50.65546" lon="1.60896">
        <ele>63</ele>
        <time>2024-03-21T03:37:51Z</time>
      </trkpt>
      <trkpt lat="50.65548" lon="1.60882">
        <ele>63</ele>
        <time>2024-03-21T03:37:52Z</time>
      </trkpt>
      <trkpt lat="50.65554" lon="1.60853">
        <ele>63</ele>
        <time>2024-03-21T03:37:56Z</time>
      </trkpt>
      <trkpt lat="50.65562" lon="1.60828">
        <ele>64</ele>
        <time>2024-03-21T03:37:59Z</time>
      </trkpt>
      <trkpt lat="50.65611" lon="1.60691">
        <ele>64</ele>
        <time>2024-03-21T03:38:17Z</time>
      </trkpt>
      <trkpt lat="50.65631" lon="1.60646">
        <ele>64</ele>
        <time>2024-03-21T03:38:23Z</time>
      </trkpt>
      <trkpt lat="50.65651" lon="1.60616">
        <ele>65</ele>
        <time>2024-03-21T03:38:28Z</time>
      </trkpt>
      <trkpt lat="50.6567" lon="1.60595">
        <ele>66</ele>
        <time>2024-03-21T03:38:32Z</time>
      </trkpt>
      <trkpt lat="50.65736" lon="1.60537">
        <ele>69</ele>
        <time>2024-03-21T03:38:45Z</time>
      </trkpt>
      <trkpt lat="50.65758" lon="1.60523">
        <ele>70</ele>
        <time>2024-03-21T03:38:50Z</time>
      </trkpt>
      <trkpt lat="50.65912" lon="1.60461">
        <ele>77</ele>
        <time>2024-03-21T03:39:18Z</time>
      </trkpt>
      <trkpt lat="50.65946" lon="1.6045">
        <ele>78</ele>
        <time>2024-03-21T03:39:24Z</time>
      </trkpt>
      <trkpt lat="50.65986" lon="1.60447">
        <ele>80</ele>
        <time>2024-03-21T03:39:31Z</time>
      </trkpt>
      <trkpt lat="50.66006" lon="1.60449">
        <ele>81</ele>
        <time>2024-03-21T03:39:35Z</time>
      </trkpt>
      <trkpt lat="50.66026" lon="1.60455">
        <ele>81</ele>
        <time>2024-03-21T03:39:38Z</time>
      </trkpt>
      <trkpt lat="50.6606" lon="1.60471">
        <ele>82</ele>
        <time>2024-03-21T03:39:45Z</time>
      </trkpt>
      <trkpt lat="50.6612" lon="1.60504">
        <ele>84</ele>
        <time>2024-03-21T03:39:56Z</time>
      </trkpt>
      <trkpt lat="50.66145" lon="1.60512">
        <ele>85</ele>
        <time>2024-03-21T03:40:00Z</time>
      </trkpt>
      <trkpt lat="50.66158" lon="1.60512">
        <ele>86</ele>
        <time>2024-03-21T03:40:03Z</time>
      </trkpt>
      <trkpt lat="50.66235" lon="1.60502">
        <ele>89</ele>
        <time>2024-03-21T03:40:17Z</time>
      </trkpt>
      <trkpt lat="50.66259" lon="1.60496">
        <ele>90</ele>
        <time>2024-03-21T03:40:21Z</time>
      </trkpt>
      <trkpt lat="50.66406" lon="1.60441">
        <ele>95</ele>
        <time>2024-03-21T03:40:48Z</time>
      </trkpt>
      <trkpt lat="50.66433" lon="1.60433">
        <ele>95</ele>
        <time>2024-03-21T03:40:53Z</time>
      </trkpt>
      <trkpt lat="50.66446" lon="1.60434">
        <ele>95</ele>
        <time>2024-03-21T03:40:55Z</time>
      </trkpt>
      <trkpt lat="50.66487" lon="1.60444">
        <ele>96</ele>
        <time>2024-03-21T03:41:02Z</time>
      </trkpt>
      <trkpt lat="50.66514" lon="1.60445">
        <ele>96</ele>
        <time>2024-03-21T03:41:07Z</time>
      </trkpt>
      <trkpt lat="50.6654" lon="1.60441">
        <ele>95</ele>
        <time>2024-03-21T03:41:12Z</time>
      </trkpt>
      <trkpt lat="50.66604" lon="1.60425">
        <ele>96</ele>
        <time>2024-03-21T03:41:23Z</time>
      </trkpt>
      <trkpt lat="50.66644" lon="1.60423">
        <ele>96</ele>
        <time>2024-03-21T03:41:30Z</time>
      </trkpt>
      <trkpt lat="50.66653" lon="1.60418">
        <ele>96</ele>
        <time>2024-03-21T03:41:32Z</time>
      </trkpt>
      <trkpt lat="50.66665" lon="1.60403">
        <ele>96</ele>
        <time>2024-03-21T03:41:35Z</time>
      </trkpt>
      <trkpt lat="50.66756" lon="1.6026">
        <ele>95</ele>
        <time>2024-03-21T03:41:58Z</time>
      </trkpt>
      <trkpt lat="50.66764" lon="1.60243">
        <ele>95</ele>
        <time>2024-03-21T03:42:00Z</time>
      </trkpt>
      <trkpt lat="50.66794" lon="1.60159">
        <ele>94</ele>
        <time>2024-03-21T03:42:11Z</time>
      </trkpt>
      <trkpt lat="50.66804" lon="1.60129">
        <ele>94</ele>
        <time>2024-03-21T03:42:15Z</time>
      </trkpt>
      <trkpt lat="50.66809" lon="1.6011">
        <ele>94</ele>
        <time>2024-03-21T03:42:17Z</time>
      </trkpt>
      <trkpt lat="50.66811" lon="1.6008">
        <ele>93</ele>
        <time>2024-03-21T03:42:21Z</time>
      </trkpt>
      <trkpt lat="50.66809" lon="1.60035">
        <ele>94</ele>
        <time>2024-03-21T03:42:26Z</time>
      </trkpt>
      <trkpt lat="50.66814" lon="1.60013">
        <ele>94</ele>
        <time>2024-03-21T03:42:28Z</time>
      </trkpt>
      <trkpt lat="50.66946" lon="1.59672">
        <ele>91</ele>
        <time>2024-03-21T03:43:13Z</time>
      </trkpt>
      <trkpt lat="50.66966" lon="1.59627">
        <ele>91</ele>
        <time>2024-03-21T03:43:20Z</time>
      </trkpt>
      <trkpt lat="50.67006" lon="1.59546">
        <ele>91</ele>
        <time>2024-03-21T03:43:31Z</time>
      </trkpt>
      <trkpt lat="50.67029" lon="1.59492">
        <ele>91</ele>
        <time>2024-03-21T03:43:38Z</time>
      </trkpt>
      <trkpt lat="50.67046" lon="1.59436">
        <ele>90</ele>
        <time>2024-03-21T03:43:45Z</time>
      </trkpt>
      <trkpt lat="50.67077" lon="1.59272">
        <ele>82</ele>
        <time>2024-03-21T03:44:05Z</time>
      </trkpt>
      <trkpt lat="50.67093" lon="1.59214">
        <ele>80</ele>
        <time>2024-03-21T03:44:12Z</time>
      </trkpt>
      <trkpt lat="50.67108" lon="1.59175">
        <ele>79</ele>
        <time>2024-03-21T03:44:17Z</time>
      </trkpt>
      <trkpt lat="50.67217" lon="1.58922">
        <ele>77</ele>
        <time>2024-03-21T03:44:51Z</time>
      </trkpt>
      <trkpt lat="50.67248" lon="1.58843">
        <ele>79</ele>
        <time>2024-03-21T03:45:02Z</time>
      </trkpt>
      <trkpt lat="50.67354" lon="1.58542">
        <ele>88</ele>
        <time>2024-03-21T03:45:41Z</time>
      </trkpt>
      <trkpt lat="50.67415" lon="1.58382">
        <ele>92</ele>
        <time>2024-03-21T03:46:02Z</time>
      </trkpt>
      <trkpt lat="50.67432" lon="1.5832">
        <ele>93</ele>
        <time>2024-03-21T03:46:09Z</time>
      </trkpt>
      <trkpt lat="50.67446" lon="1.58278">
        <ele>93</ele>
        <time>2024-03-21T03:46:15Z</time>
      </trkpt>
      <trkpt lat="50.67457" lon="1.5825">
        <ele>92</ele>
        <time>2024-03-21T03:46:19Z</time>
      </trkpt>
      <trkpt lat="50.67465" lon="1.5825">
        <ele>93</ele>
        <time>2024-03-21T03:46:20Z</time>
      </trkpt>
      <trkpt lat="50.67474" lon="1.58246">
        <ele>93</ele>
        <time>2024-03-21T03:46:22Z</time>
      </trkpt>
      <trkpt lat="50.67483" lon="1.58237">
        <ele>92</ele>
        <time>2024-03-21T03:46:24Z</time>
      </trkpt>
      <trkpt lat="50.67488" lon="1.5823">
        <ele>92</ele>
        <time>2024-03-21T03:46:25Z</time>
      </trkpt>
      <trkpt lat="50.67492" lon="1.58217">
        <ele>92</ele>
        <time>2024-03-21T03:46:26Z</time>
      </trkpt>
      <trkpt lat="50.67493" lon="1.58206">
        <ele>92</ele>
        <time>2024-03-21T03:46:28Z</time>
      </trkpt>
      <trkpt lat="50.67497" lon="1.58208">
        <ele>92</ele>
        <time>2024-03-21T03:46:28Z</time>
      </trkpt>
      <trkpt lat="50.67514" lon="1.58222">
        <ele>92</ele>
        <time>2024-03-21T03:46:32Z</time>
      </trkpt>
      <trkpt lat="50.67533" lon="1.58229">
        <ele>92</ele>
        <time>2024-03-21T03:46:35Z</time>
      </trkpt>
      <trkpt lat="50.67562" lon="1.58228">
        <ele>91</ele>
        <time>2024-03-21T03:46:40Z</time>
      </trkpt>
      <trkpt lat="50.67625" lon="1.58221">
        <ele>90</ele>
        <time>2024-03-21T03:46:52Z</time>
      </trkpt>
      <trkpt lat="50.67674" lon="1.58224">
        <ele>90</ele>
        <time>2024-03-21T03:47:00Z</time>
      </trkpt>
      <trkpt lat="50.67729" lon="1.58235">
        <ele>90</ele>
        <time>2024-03-21T03:47:10Z</time>
      </trkpt>
      <trkpt lat="50.67865" lon="1.58274">
        <ele>90</ele>
        <time>2024-03-21T03:47:35Z</time>
      </trkpt>
      <trkpt lat="50.67898" lon="1.58276">
        <ele>91</ele>
        <time>2024-03-21T03:47:41Z</time>
      </trkpt>
      <trkpt lat="50.67916" lon="1.58273">
        <ele>91</ele>
        <time>2024-03-21T03:47:44Z</time>
      </trkpt>
      <trkpt lat="50.67941" lon="1.58261">
        <ele>90</ele>
        <time>2024-03-21T03:47:49Z</time>
      </trkpt>
      <trkpt lat="50.67961" lon="1.58249">
        <ele>89</ele>
        <time>2024-03-21T03:47:52Z</time>
      </trkpt>
      <trkpt lat="50.68033" lon="1.58197">
        <ele>87</ele>
        <time>2024-03-21T03:48:06Z</time>
      </trkpt>
      <trkpt lat="50.68053" lon="1.58185">
        <ele>86</ele>
        <time>2024-03-21T03:48:10Z</time>
      </trkpt>
      <trkpt lat="50.6808" lon="1.58174">
        <ele>86</ele>
        <time>2024-03-21T03:48:15Z</time>
      </trkpt>
      <trkpt lat="50.68274" lon="1.58129">
        <ele>84</ele>
        <time>2024-03-21T03:48:50Z</time>
      </trkpt>
      <trkpt lat="50.68452" lon="1.58099">
        <ele>80</ele>
        <time>2024-03-21T03:49:22Z</time>
      </trkpt>
      <trkpt lat="50.68454" lon="1.58113">
        <ele>80</ele>
        <time>2024-03-21T03:49:24Z</time>
      </trkpt>
      <trkpt lat="50.68515" lon="1.58096">
        <ele>79</ele>
        <time>2024-03-21T03:49:35Z</time>
      </trkpt>
      <trkpt lat="50.68575" lon="1.58069">
        <ele>79</ele>
        <time>2024-03-21T03:49:46Z</time>
      </trkpt>
      <trkpt lat="50.68602" lon="1.58055">
        <ele>78</ele>
        <time>2024-03-21T03:49:51Z</time>
      </trkpt>
      <trkpt lat="50.68725" lon="1.57985">
        <ele>73</ele>
        <time>2024-03-21T03:50:14Z</time>
      </trkpt>
      <trkpt lat="50.68932" lon="1.57855">
        <ele>64</ele>
        <time>2024-03-21T03:50:54Z</time>
      </trkpt>
      <trkpt lat="50.68941" lon="1.57852">
        <ele>64</ele>
        <time>2024-03-21T03:50:55Z</time>
      </trkpt>
      <trkpt lat="50.69032" lon="1.57799">
        <ele>61</ele>
        <time>2024-03-21T03:51:13Z</time>
      </trkpt>
      <trkpt lat="50.69126" lon="1.57739">
        <ele>62</ele>
        <time>2024-03-21T03:51:31Z</time>
      </trkpt>
      <trkpt lat="50.6915" lon="1.57732">
        <ele>62</ele>
        <time>2024-03-21T03:51:35Z</time>
      </trkpt>
      <trkpt lat="50.69188" lon="1.5773">
        <ele>61</ele>
        <time>2024-03-21T03:51:42Z</time>
      </trkpt>
      <trkpt lat="50.69214" lon="1.57734">
        <ele>60</ele>
        <time>2024-03-21T03:51:46Z</time>
      </trkpt>
      <trkpt lat="50.69265" lon="1.57756">
        <ele>59</ele>
        <time>2024-03-21T03:51:56Z</time>
      </trkpt>
      <trkpt lat="50.69263" lon="1.57747">
        <ele>59</ele>
        <time>2024-03-21T03:51:57Z</time>
      </trkpt>
      <trkpt lat="50.69342" lon="1.57792">
        <ele>57</ele>
        <time>2024-03-21T03:52:12Z</time>
      </trkpt>
      <trkpt lat="50.69356" lon="1.57804">
        <ele>55</ele>
        <time>2024-03-21T03:52:15Z</time>
      </trkpt>
      <trkpt lat="50.69416" lon="1.57849">
        <ele>48</ele>
        <time>2024-03-21T03:52:26Z</time>
      </trkpt>
      <trkpt lat="50.69423" lon="1.57851">
        <ele>47</ele>
        <time>2024-03-21T03:52:28Z</time>
      </trkpt>
      <trkpt lat="50.69438" lon="1.57846">
        <ele>46</ele>
        <time>2024-03-21T03:52:30Z</time>
      </trkpt>
      <trkpt lat="50.6944" lon="1.57853">
        <ele>45</ele>
        <time>2024-03-21T03:52:31Z</time>
      </trkpt>
      <trkpt lat="50.69443" lon="1.57855">
        <ele>45</ele>
        <time>2024-03-21T03:52:32Z</time>
      </trkpt>
      <trkpt lat="50.69459" lon="1.57849">
        <ele>44</ele>
        <time>2024-03-21T03:52:35Z</time>
      </trkpt>
      <trkpt lat="50.69463" lon="1.57851">
        <ele>43</ele>
        <time>2024-03-21T03:52:36Z</time>
      </trkpt>
      <trkpt lat="50.69468" lon="1.57846">
        <ele>43</ele>
        <time>2024-03-21T03:52:37Z</time>
      </trkpt>
      <trkpt lat="50.69484" lon="1.57842">
        <ele>41</ele>
        <time>2024-03-21T03:52:39Z</time>
      </trkpt>
      <trkpt lat="50.69531" lon="1.57827">
        <ele>40</ele>
        <time>2024-03-21T03:52:48Z</time>
      </trkpt>
      <trkpt lat="50.69774" lon="1.57764">
        <ele>37</ele>
        <time>2024-03-21T03:53:32Z</time>
      </trkpt>
      <trkpt lat="50.69816" lon="1.57742">
        <ele>36</ele>
        <time>2024-03-21T03:53:40Z</time>
      </trkpt>
      <trkpt lat="50.69838" lon="1.57724">
        <ele>36</ele>
        <time>2024-03-21T03:53:44Z</time>
      </trkpt>
      <trkpt lat="50.69927" lon="1.57634">
        <ele>35</ele>
        <time>2024-03-21T03:54:03Z</time>
      </trkpt>
      <trkpt lat="50.70164" lon="1.57397">
        <ele>42</ele>
        <time>2024-03-21T03:54:53Z</time>
      </trkpt>
      <trkpt lat="50.70165" lon="1.57396">
        <ele>42</ele>
        <time>2024-03-21T03:54:53Z</time>
      </trkpt>
      <trkpt lat="50.70167" lon="1.57401">
        <ele>42</ele>
        <time>2024-03-21T03:54:54Z</time>
      </trkpt>
      <trkpt lat="50.70241" lon="1.57328">
        <ele>40</ele>
        <time>2024-03-21T03:55:09Z</time>
      </trkpt>
      <trkpt lat="50.70303" lon="1.57282">
        <ele>36</ele>
        <time>2024-03-21T03:55:21Z</time>
      </trkpt>
      <trkpt lat="50.70341" lon="1.57264">
        <ele>33</ele>
        <time>2024-03-21T03:55:28Z</time>
      </trkpt>
      <trkpt lat="50.70375" lon="1.57259">
        <ele>31</ele>
        <time>2024-03-21T03:55:35Z</time>
      </trkpt>
      <trkpt lat="50.70386" lon="1.57259">
        <ele>30</ele>
        <time>2024-03-21T03:55:37Z</time>
      </trkpt>
      <trkpt lat="50.70425" lon="1.57268">
        <ele>27</ele>
        <time>2024-03-21T03:55:44Z</time>
      </trkpt>
      <trkpt lat="50.70474" lon="1.57297">
        <ele>25</ele>
        <time>2024-03-21T03:55:53Z</time>
      </trkpt>
      <trkpt lat="50.70553" lon="1.57354">
        <ele>24</ele>
        <time>2024-03-21T03:56:08Z</time>
      </trkpt>
      <trkpt lat="50.70571" lon="1.57364">
        <ele>23</ele>
        <time>2024-03-21T03:56:12Z</time>
      </trkpt>
      <trkpt lat="50.70628" lon="1.57383">
        <ele>26</ele>
        <time>2024-03-21T03:56:22Z</time>
      </trkpt>
      <trkpt lat="50.70645" lon="1.57393">
        <ele>26</ele>
        <time>2024-03-21T03:56:25Z</time>
      </trkpt>
      <trkpt lat="50.70634" lon="1.57427">
        <ele>27</ele>
        <time>2024-03-21T03:56:30Z</time>
      </trkpt>
      <trkpt lat="50.70603" lon="1.57515">
        <ele>28</ele>
        <time>2024-03-21T03:56:41Z</time>
      </trkpt>
      <trkpt lat="50.706" lon="1.57521">
        <ele>28</ele>
        <time>2024-03-21T03:56:42Z</time>
      </trkpt>
      <trkpt lat="50.70594" lon="1.57526">
        <ele>28</ele>
        <time>2024-03-21T03:56:43Z</time>
      </trkpt>
      <trkpt lat="50.70601" lon="1.57563">
        <ele>29</ele>
        <time>2024-03-21T03:56:47Z</time>
      </trkpt>
      <trkpt lat="50.70613" lon="1.57598">
        <ele>29</ele>
        <time>2024-03-21T03:56:52Z</time>
      </trkpt>
    </trkseg>
  </trk>
</gpx>